<?xml version='1.0' encoding='UTF-8'?>
<gpx version="1.1" creator="https://www.komoot.de" xmlns="http://www.topografix.com/GPX/1/1" xmlns:xsi="http://www.w3.org/2001/XMLSchema-instance" xsi:schemaLocation="http://www.topografix.com/GPX/1/1 http://www.topografix.com/GPX/1/1/gpx.xsd">
  <metadata>
    <name>Randonnée Lungo 2026 (4/5/26)</name>
    <author>
      <link href="https://www.komoot.de">
        <text>komoot</text>
        <type>text/html</type>
      </link>
    </author>
  </metadata>
  <wpt lat="43.609974" lon="10.643829">
    <name>Rotonda delle Banane</name>
    <sym>Flag, Blue</sym>
  </wpt>
  <trk>
    <name>Randonnée Lungo 2026 (4/5/26)</name>
    <trkseg>
      <trkpt lat="43.655877" lon="10.630097">
        <ele>15.362924</ele>
        <time>2026-05-04T21:27:46.967Z</time>
      </trkpt>
      <trkpt lat="43.655783" lon="10.630798">
        <ele>15.362924</ele>
        <time>2026-05-04T21:27:56.128Z</time>
      </trkpt>
      <trkpt lat="43.655747" lon="10.631021">
        <ele>15.362924</ele>
        <time>2026-05-04T21:27:59.016Z</time>
      </trkpt>
      <trkpt lat="43.655659" lon="10.631488">
        <ele>15.251205</ele>
        <time>2026-05-04T21:28:05.013Z</time>
      </trkpt>
      <trkpt lat="43.655605" lon="10.631749">
        <ele>15.083636</ele>
        <time>2026-05-04T21:28:08.331Z</time>
      </trkpt>
      <trkpt lat="43.655659" lon="10.631488">
        <ele>14.916067</ele>
        <time>2026-05-04T21:28:11.639Z</time>
      </trkpt>
      <trkpt lat="43.655590" lon="10.631469">
        <ele>14.856040</ele>
        <time>2026-05-04T21:28:12.842Z</time>
      </trkpt>
      <trkpt lat="43.655438" lon="10.631528">
        <ele>14.721338</ele>
        <time>2026-05-04T21:28:15.558Z</time>
      </trkpt>
      <trkpt lat="43.655125" lon="10.631413">
        <ele>14.445016</ele>
        <time>2026-05-04T21:28:21.134Z</time>
      </trkpt>
      <trkpt lat="43.654984" lon="10.631432">
        <ele>14.324147</ele>
        <time>2026-05-04T21:28:23.562Z</time>
      </trkpt>
      <trkpt lat="43.654679" lon="10.631313">
        <ele>14.053755</ele>
        <time>2026-05-04T21:28:28.953Z</time>
      </trkpt>
      <trkpt lat="43.654628" lon="10.631289">
        <ele>14.007789</ele>
        <time>2026-05-04T21:28:29.862Z</time>
      </trkpt>
      <trkpt lat="43.654604" lon="10.631337">
        <ele>13.971772</ele>
        <time>2026-05-04T21:28:30.577Z</time>
      </trkpt>
      <trkpt lat="43.654457" lon="10.631186">
        <ele>13.820971</ele>
        <time>2026-05-04T21:28:33.675Z</time>
      </trkpt>
      <trkpt lat="43.654409" lon="10.631137">
        <ele>13.791723</ele>
        <time>2026-05-04T21:28:34.673Z</time>
      </trkpt>
      <trkpt lat="43.654390" lon="10.631087">
        <ele>13.771695</ele>
        <time>2026-05-04T21:28:35.368Z</time>
      </trkpt>
      <trkpt lat="43.654348" lon="10.630904">
        <ele>13.703613</ele>
        <time>2026-05-04T21:28:37.731Z</time>
      </trkpt>
      <trkpt lat="43.654261" lon="10.630020">
        <ele>13.387241</ele>
        <time>2026-05-04T21:28:49.081Z</time>
      </trkpt>
      <trkpt lat="43.654250" lon="10.629909">
        <ele>13.347511</ele>
        <time>2026-05-04T21:28:50.561Z</time>
      </trkpt>
      <trkpt lat="43.654165" lon="10.629503">
        <ele>13.197628</ele>
        <time>2026-05-04T21:28:56.158Z</time>
      </trkpt>
      <trkpt lat="43.653977" lon="10.628956">
        <ele>12.982876</ele>
        <time>2026-05-04T21:29:04.337Z</time>
      </trkpt>
      <trkpt lat="43.653551" lon="10.628080">
        <ele>12.875555</ele>
        <time>2026-05-04T21:29:18.983Z</time>
      </trkpt>
      <trkpt lat="43.653522" lon="10.627967">
        <ele>12.866602</ele>
        <time>2026-05-04T21:29:20.651Z</time>
      </trkpt>
      <trkpt lat="43.653513" lon="10.627930">
        <ele>12.863687</ele>
        <time>2026-05-04T21:29:21.190Z</time>
      </trkpt>
      <trkpt lat="43.653511" lon="10.627778">
        <ele>12.852335</ele>
        <time>2026-05-04T21:29:23.326Z</time>
      </trkpt>
      <trkpt lat="43.653522" lon="10.627635">
        <ele>12.841597</ele>
        <time>2026-05-04T21:29:25.303Z</time>
      </trkpt>
      <trkpt lat="43.653462" lon="10.627401">
        <ele>12.823058</ele>
        <time>2026-05-04T21:29:28.697Z</time>
      </trkpt>
      <trkpt lat="43.653390" lon="10.627308">
        <ele>12.812888</ele>
        <time>2026-05-04T21:29:30.510Z</time>
      </trkpt>
      <trkpt lat="43.653309" lon="10.627252">
        <ele>12.803540</ele>
        <time>2026-05-04T21:29:32.182Z</time>
      </trkpt>
      <trkpt lat="43.653194" lon="10.627236">
        <ele>12.791612</ele>
        <time>2026-05-04T21:29:34.323Z</time>
      </trkpt>
      <trkpt lat="43.653039" lon="10.627318">
        <ele>12.774483</ele>
        <time>2026-05-04T21:29:37.368Z</time>
      </trkpt>
      <trkpt lat="43.652945" lon="10.627477">
        <ele>12.764688</ele>
        <time>2026-05-04T21:29:40.113Z</time>
      </trkpt>
      <trkpt lat="43.652919" lon="10.627674">
        <ele>12.791445</ele>
        <time>2026-05-04T21:29:42.781Z</time>
      </trkpt>
      <trkpt lat="43.652858" lon="10.627921">
        <ele>12.826319</ele>
        <time>2026-05-04T21:29:46.269Z</time>
      </trkpt>
      <trkpt lat="43.652692" lon="10.628222">
        <ele>12.876890</ele>
        <time>2026-05-04T21:29:51.411Z</time>
      </trkpt>
      <trkpt lat="43.651701" lon="10.629282">
        <ele>13.157306</ele>
        <time>2026-05-04T21:30:17.433Z</time>
      </trkpt>
      <trkpt lat="43.651363" lon="10.629639">
        <ele>13.492331</ele>
        <time>2026-05-04T21:30:27.615Z</time>
      </trkpt>
      <trkpt lat="43.651325" lon="10.629680">
        <ele>13.530298</ele>
        <time>2026-05-04T21:30:28.742Z</time>
      </trkpt>
      <trkpt lat="43.651169" lon="10.629782">
        <ele>13.666211</ele>
        <time>2026-05-04T21:30:32.804Z</time>
      </trkpt>
      <trkpt lat="43.650994" lon="10.629836">
        <ele>13.807426</ele>
        <time>2026-05-04T21:30:37.071Z</time>
      </trkpt>
      <trkpt lat="43.650865" lon="10.629799">
        <ele>13.911184</ele>
        <time>2026-05-04T21:30:40.214Z</time>
      </trkpt>
      <trkpt lat="43.650773" lon="10.629697">
        <ele>14.004072</ele>
        <time>2026-05-04T21:30:43.015Z</time>
      </trkpt>
      <trkpt lat="43.650663" lon="10.629624">
        <ele>14.100172</ele>
        <time>2026-05-04T21:30:45.943Z</time>
      </trkpt>
      <trkpt lat="43.650582" lon="10.629626">
        <ele>14.163974</ele>
        <time>2026-05-04T21:30:47.893Z</time>
      </trkpt>
      <trkpt lat="43.650506" lon="10.629668">
        <ele>14.228435</ele>
        <time>2026-05-04T21:30:49.819Z</time>
      </trkpt>
      <trkpt lat="43.650424" lon="10.629794">
        <ele>14.325005</ele>
        <time>2026-05-04T21:30:52.675Z</time>
      </trkpt>
      <trkpt lat="43.650414" lon="10.629829">
        <ele>14.346448</ele>
        <time>2026-05-04T21:30:53.290Z</time>
      </trkpt>
      <trkpt lat="43.650311" lon="10.629978">
        <ele>14.463876</ele>
        <time>2026-05-04T21:30:56.728Z</time>
      </trkpt>
      <trkpt lat="43.650064" lon="10.630088">
        <ele>14.635202</ele>
        <time>2026-05-04T21:31:02.531Z</time>
      </trkpt>
      <trkpt lat="43.648362" lon="10.629594">
        <ele>15.710616</ele>
        <time>2026-05-04T21:31:40.875Z</time>
      </trkpt>
      <trkpt lat="43.647311" lon="10.629292">
        <ele>16.315090</ele>
        <time>2026-05-04T21:32:04.871Z</time>
      </trkpt>
      <trkpt lat="43.647164" lon="10.629249">
        <ele>16.399700</ele>
        <time>2026-05-04T21:32:08.212Z</time>
      </trkpt>
      <trkpt lat="43.646987" lon="10.629197">
        <ele>16.501596</ele>
        <time>2026-05-04T21:32:12.163Z</time>
      </trkpt>
      <trkpt lat="43.646035" lon="10.628916">
        <ele>16.919035</ele>
        <time>2026-05-04T21:32:32.689Z</time>
      </trkpt>
      <trkpt lat="43.643094" lon="10.628072">
        <ele>18.037684</ele>
        <time>2026-05-04T21:33:35.945Z</time>
      </trkpt>
      <trkpt lat="43.642842" lon="10.628025">
        <ele>18.053755</ele>
        <time>2026-05-04T21:33:41.354Z</time>
      </trkpt>
      <trkpt lat="43.642718" lon="10.628002">
        <ele>18.061663</ele>
        <time>2026-05-04T21:33:43.987Z</time>
      </trkpt>
      <trkpt lat="43.642326" lon="10.627982">
        <ele>18.086455</ele>
        <time>2026-05-04T21:33:51.965Z</time>
      </trkpt>
      <trkpt lat="43.641749" lon="10.628010">
        <ele>18.122946</ele>
        <time>2026-05-04T21:34:02.945Z</time>
      </trkpt>
      <trkpt lat="43.641685" lon="10.628016">
        <ele>18.127000</ele>
        <time>2026-05-04T21:34:04.140Z</time>
      </trkpt>
      <trkpt lat="43.640730" lon="10.628111">
        <ele>17.897368</ele>
        <time>2026-05-04T21:34:21.488Z</time>
      </trkpt>
      <trkpt lat="43.640232" lon="10.628496">
        <ele>17.696780</ele>
        <time>2026-05-04T21:34:32.274Z</time>
      </trkpt>
      <trkpt lat="43.640014" lon="10.628718">
        <ele>17.601589</ele>
        <time>2026-05-04T21:34:37.519Z</time>
      </trkpt>
      <trkpt lat="43.639782" lon="10.629060">
        <ele>17.508445</ele>
        <time>2026-05-04T21:34:44.238Z</time>
      </trkpt>
      <trkpt lat="43.639640" lon="10.629420">
        <ele>17.498978</ele>
        <time>2026-05-04T21:34:50.154Z</time>
      </trkpt>
      <trkpt lat="43.639546" lon="10.629871">
        <ele>17.488141</ele>
        <time>2026-05-04T21:34:56.949Z</time>
      </trkpt>
      <trkpt lat="43.639463" lon="10.630073">
        <ele>17.482778</ele>
        <time>2026-05-04T21:35:00.328Z</time>
      </trkpt>
      <trkpt lat="43.639465" lon="10.630218">
        <ele>17.479429</ele>
        <time>2026-05-04T21:35:02.444Z</time>
      </trkpt>
      <trkpt lat="43.639070" lon="10.630980">
        <ele>17.457786</ele>
        <time>2026-05-04T21:35:16.340Z</time>
      </trkpt>
      <trkpt lat="43.638996" lon="10.631122">
        <ele>17.453746</ele>
        <time>2026-05-04T21:35:18.978Z</time>
      </trkpt>
      <trkpt lat="43.638868" lon="10.631772">
        <ele>17.563486</ele>
        <time>2026-05-04T21:35:29.002Z</time>
      </trkpt>
      <trkpt lat="43.638836" lon="10.631878">
        <ele>17.582311</ele>
        <time>2026-05-04T21:35:30.699Z</time>
      </trkpt>
      <trkpt lat="43.638741" lon="10.632043">
        <ele>17.616868</ele>
        <time>2026-05-04T21:35:33.836Z</time>
      </trkpt>
      <trkpt lat="43.638587" lon="10.632190">
        <ele>17.659257</ele>
        <time>2026-05-04T21:35:37.671Z</time>
      </trkpt>
      <trkpt lat="43.637491" lon="10.632823">
        <ele>17.944391</ele>
        <time>2026-05-04T21:36:03.949Z</time>
      </trkpt>
      <trkpt lat="43.636833" lon="10.633185">
        <ele>18.143201</ele>
        <time>2026-05-04T21:36:19.159Z</time>
      </trkpt>
      <trkpt lat="43.636609" lon="10.633248">
        <ele>18.207369</ele>
        <time>2026-05-04T21:36:24.048Z</time>
      </trkpt>
      <trkpt lat="43.636094" lon="10.633303">
        <ele>18.352365</ele>
        <time>2026-05-04T21:36:35.275Z</time>
      </trkpt>
      <trkpt lat="43.635384" lon="10.633149">
        <ele>18.465212</ele>
        <time>2026-05-04T21:36:50.270Z</time>
      </trkpt>
      <trkpt lat="43.635121" lon="10.633194">
        <ele>18.504466</ele>
        <time>2026-05-04T21:36:55.728Z</time>
      </trkpt>
      <trkpt lat="43.634806" lon="10.633306">
        <ele>18.552645</ele>
        <time>2026-05-04T21:37:02.606Z</time>
      </trkpt>
      <trkpt lat="43.634594" lon="10.633447">
        <ele>18.587495</ele>
        <time>2026-05-04T21:37:07.609Z</time>
      </trkpt>
      <trkpt lat="43.634104" lon="10.633901">
        <ele>18.709372</ele>
        <time>2026-05-04T21:37:20.107Z</time>
      </trkpt>
      <trkpt lat="43.633926" lon="10.633901">
        <ele>18.757100</ele>
        <time>2026-05-04T21:37:23.762Z</time>
      </trkpt>
      <trkpt lat="43.633857" lon="10.633902">
        <ele>18.775603</ele>
        <time>2026-05-04T21:37:25.186Z</time>
      </trkpt>
      <trkpt lat="43.633001" lon="10.633702">
        <ele>19.008388</ele>
        <time>2026-05-04T21:37:43.878Z</time>
      </trkpt>
      <trkpt lat="43.632865" lon="10.633739">
        <ele>19.045555</ele>
        <time>2026-05-04T21:37:46.979Z</time>
      </trkpt>
      <trkpt lat="43.632545" lon="10.634508">
        <ele>19.220958</ele>
        <time>2026-05-04T21:38:01.329Z</time>
      </trkpt>
      <trkpt lat="43.632377" lon="10.634772">
        <ele>19.291333</ele>
        <time>2026-05-04T21:38:07.014Z</time>
      </trkpt>
      <trkpt lat="43.632315" lon="10.634911">
        <ele>19.324020</ele>
        <time>2026-05-04T21:38:09.674Z</time>
      </trkpt>
      <trkpt lat="43.632171" lon="10.635325">
        <ele>19.415976</ele>
        <time>2026-05-04T21:38:16.945Z</time>
      </trkpt>
      <trkpt lat="43.632063" lon="10.635430">
        <ele>19.452503</ele>
        <time>2026-05-04T21:38:19.738Z</time>
      </trkpt>
      <trkpt lat="43.631951" lon="10.635458">
        <ele>19.483986</ele>
        <time>2026-05-04T21:38:22.121Z</time>
      </trkpt>
      <trkpt lat="43.631766" lon="10.635443">
        <ele>19.535244</ele>
        <time>2026-05-04T21:38:25.947Z</time>
      </trkpt>
      <trkpt lat="43.631534" lon="10.635378">
        <ele>19.600721</ele>
        <time>2026-05-04T21:38:30.792Z</time>
      </trkpt>
      <trkpt lat="43.631334" lon="10.635272">
        <ele>19.587501</ele>
        <time>2026-05-04T21:38:35.173Z</time>
      </trkpt>
      <trkpt lat="43.631000" lon="10.634979">
        <ele>19.531248</ele>
        <time>2026-05-04T21:38:43.441Z</time>
      </trkpt>
      <trkpt lat="43.630814" lon="10.634862">
        <ele>19.502190</ele>
        <time>2026-05-04T21:38:47.771Z</time>
      </trkpt>
      <trkpt lat="43.630297" lon="10.634692">
        <ele>19.426629</ele>
        <time>2026-05-04T21:38:58.349Z</time>
      </trkpt>
      <trkpt lat="43.630055" lon="10.634689">
        <ele>19.392219</ele>
        <time>2026-05-04T21:39:02.965Z</time>
      </trkpt>
      <trkpt lat="43.629951" lon="10.634688">
        <ele>19.377432</ele>
        <time>2026-05-04T21:39:04.928Z</time>
      </trkpt>
      <trkpt lat="43.629733" lon="10.634720">
        <ele>19.332342</ele>
        <time>2026-05-04T21:39:09.057Z</time>
      </trkpt>
      <trkpt lat="43.629383" lon="10.634877">
        <ele>19.207976</ele>
        <time>2026-05-04T21:39:15.785Z</time>
      </trkpt>
      <trkpt lat="43.629213" lon="10.634858">
        <ele>19.150335</ele>
        <time>2026-05-04T21:39:18.857Z</time>
      </trkpt>
      <trkpt lat="43.629145" lon="10.634820">
        <ele>19.125544</ele>
        <time>2026-05-04T21:39:20.202Z</time>
      </trkpt>
      <trkpt lat="43.628915" lon="10.634690">
        <ele>19.041559</ele>
        <time>2026-05-04T21:39:24.831Z</time>
      </trkpt>
      <trkpt lat="43.628254" lon="10.634421">
        <ele>18.808675</ele>
        <time>2026-05-04T21:39:38.228Z</time>
      </trkpt>
      <trkpt lat="43.627935" lon="10.634319">
        <ele>18.782675</ele>
        <time>2026-05-04T21:39:45.713Z</time>
      </trkpt>
      <trkpt lat="43.627755" lon="10.634303">
        <ele>18.823950</ele>
        <time>2026-05-04T21:39:49.985Z</time>
      </trkpt>
      <trkpt lat="43.627389" lon="10.634345">
        <ele>18.907989</ele>
        <time>2026-05-04T21:39:58.601Z</time>
      </trkpt>
      <trkpt lat="43.626780" lon="10.634414">
        <ele>19.047814</ele>
        <time>2026-05-04T21:40:12.081Z</time>
      </trkpt>
      <trkpt lat="43.626566" lon="10.634684">
        <ele>19.114131</ele>
        <time>2026-05-04T21:40:17.936Z</time>
      </trkpt>
      <trkpt lat="43.626350" lon="10.634762">
        <ele>19.151963</ele>
        <time>2026-05-04T21:40:22.400Z</time>
      </trkpt>
      <trkpt lat="43.626155" lon="10.634749">
        <ele>19.081481</ele>
        <time>2026-05-04T21:40:26.311Z</time>
      </trkpt>
      <trkpt lat="43.625999" lon="10.634645">
        <ele>19.018947</ele>
        <time>2026-05-04T21:40:29.465Z</time>
      </trkpt>
      <trkpt lat="43.625792" lon="10.634555">
        <ele>18.940601</ele>
        <time>2026-05-04T21:40:33.356Z</time>
      </trkpt>
      <trkpt lat="43.625123" lon="10.634603">
        <ele>18.698751</ele>
        <time>2026-05-04T21:40:45.808Z</time>
      </trkpt>
      <trkpt lat="43.625159" lon="10.634657">
        <ele>18.679566</ele>
        <time>2026-05-04T21:40:47.421Z</time>
      </trkpt>
      <trkpt lat="43.625306" lon="10.634717">
        <ele>18.624227</ele>
        <time>2026-05-04T21:40:52.235Z</time>
      </trkpt>
      <trkpt lat="43.624706" lon="10.634788">
        <ele>18.707810</ele>
        <time>2026-05-04T21:41:11.598Z</time>
      </trkpt>
      <trkpt lat="43.624512" lon="10.634774">
        <ele>18.840841</ele>
        <time>2026-05-04T21:41:17.834Z</time>
      </trkpt>
      <trkpt lat="43.624494" lon="10.634766">
        <ele>18.853790</ele>
        <time>2026-05-04T21:41:18.472Z</time>
      </trkpt>
      <trkpt lat="43.624359" lon="10.634702">
        <ele>18.951529</ele>
        <time>2026-05-04T21:41:22.997Z</time>
      </trkpt>
      <trkpt lat="43.624031" lon="10.634390">
        <ele>19.224239</ele>
        <time>2026-05-04T21:41:37.091Z</time>
      </trkpt>
      <trkpt lat="43.623902" lon="10.634338">
        <ele>19.316262</ele>
        <time>2026-05-04T21:41:41.968Z</time>
      </trkpt>
      <trkpt lat="43.623753" lon="10.634343">
        <ele>19.418326</ele>
        <time>2026-05-04T21:41:47.434Z</time>
      </trkpt>
      <trkpt lat="43.623411" lon="10.634468">
        <ele>19.660584</ele>
        <time>2026-05-04T21:42:00.489Z</time>
      </trkpt>
      <trkpt lat="43.622870" lon="10.634403">
        <ele>20.519442</ele>
        <time>2026-05-04T21:42:22.080Z</time>
      </trkpt>
      <trkpt lat="43.622374" lon="10.634301">
        <ele>21.439439</ele>
        <time>2026-05-04T21:42:43.710Z</time>
      </trkpt>
      <trkpt lat="43.622238" lon="10.634248">
        <ele>21.698685</ele>
        <time>2026-05-04T21:42:49.810Z</time>
      </trkpt>
      <trkpt lat="43.622102" lon="10.634111">
        <ele>22.007487</ele>
        <time>2026-05-04T21:42:57.002Z</time>
      </trkpt>
      <trkpt lat="43.621912" lon="10.634068">
        <ele>22.360711</ele>
        <time>2026-05-04T21:43:02.928Z</time>
      </trkpt>
      <trkpt lat="43.621790" lon="10.634040">
        <ele>22.587602</ele>
        <time>2026-05-04T21:43:06.585Z</time>
      </trkpt>
      <trkpt lat="43.621893" lon="10.633813">
        <ele>22.943406</ele>
        <time>2026-05-04T21:43:12.093Z</time>
      </trkpt>
      <trkpt lat="43.622179" lon="10.633183">
        <ele>23.348936</ele>
        <time>2026-05-04T21:43:26.449Z</time>
      </trkpt>
      <trkpt lat="43.622445" lon="10.632599">
        <ele>23.665148</ele>
        <time>2026-05-04T21:43:37.851Z</time>
      </trkpt>
      <trkpt lat="43.622471" lon="10.632540">
        <ele>23.696803</ele>
        <time>2026-05-04T21:43:38.850Z</time>
      </trkpt>
      <trkpt lat="43.622915" lon="10.631563">
        <ele>24.189065</ele>
        <time>2026-05-04T21:43:54.393Z</time>
      </trkpt>
      <trkpt lat="43.622935" lon="10.631517">
        <ele>24.193556</ele>
        <time>2026-05-04T21:43:55.132Z</time>
      </trkpt>
      <trkpt lat="43.622870" lon="10.631450">
        <ele>24.202934</ele>
        <time>2026-05-04T21:43:56.782Z</time>
      </trkpt>
      <trkpt lat="43.622611" lon="10.631229">
        <ele>24.238134</ele>
        <time>2026-05-04T21:44:03.072Z</time>
      </trkpt>
      <trkpt lat="43.622416" lon="10.631149">
        <ele>24.261655</ele>
        <time>2026-05-04T21:44:07.550Z</time>
      </trkpt>
      <trkpt lat="43.621904" lon="10.631308">
        <ele>24.322335</ele>
        <time>2026-05-04T21:44:19.178Z</time>
      </trkpt>
      <trkpt lat="43.621581" lon="10.631408">
        <ele>24.360610</ele>
        <time>2026-05-04T21:44:26.045Z</time>
      </trkpt>
      <trkpt lat="43.621422" lon="10.631357">
        <ele>24.379484</ele>
        <time>2026-05-04T21:44:29.354Z</time>
      </trkpt>
      <trkpt lat="43.621350" lon="10.631334">
        <ele>24.388029</ele>
        <time>2026-05-04T21:44:30.859Z</time>
      </trkpt>
      <trkpt lat="43.621344" lon="10.631301">
        <ele>24.390436</ele>
        <time>2026-05-04T21:44:31.319Z</time>
      </trkpt>
      <trkpt lat="43.621267" lon="10.631149">
        <ele>24.402491</ele>
        <time>2026-05-04T21:44:33.834Z</time>
      </trkpt>
      <trkpt lat="43.620877" lon="10.630836">
        <ele>24.442977</ele>
        <time>2026-05-04T21:44:42.295Z</time>
      </trkpt>
      <trkpt lat="43.620610" lon="10.630661">
        <ele>24.469504</ele>
        <time>2026-05-04T21:44:48.220Z</time>
      </trkpt>
      <trkpt lat="43.620595" lon="10.630652">
        <ele>24.470972</ele>
        <time>2026-05-04T21:44:48.574Z</time>
      </trkpt>
      <trkpt lat="43.620476" lon="10.630575">
        <ele>24.482767</ele>
        <time>2026-05-04T21:44:51.261Z</time>
      </trkpt>
      <trkpt lat="43.620309" lon="10.630466">
        <ele>24.499346</ele>
        <time>2026-05-04T21:44:54.926Z</time>
      </trkpt>
      <trkpt lat="43.620108" lon="10.630331">
        <ele>24.519407</ele>
        <time>2026-05-04T21:44:59.313Z</time>
      </trkpt>
      <trkpt lat="43.620048" lon="10.630338">
        <ele>24.524812</ele>
        <time>2026-05-04T21:45:00.544Z</time>
      </trkpt>
      <trkpt lat="43.620015" lon="10.630342">
        <ele>24.527785</ele>
        <time>2026-05-04T21:45:01.211Z</time>
      </trkpt>
      <trkpt lat="43.619953" lon="10.630390">
        <ele>24.534165</ele>
        <time>2026-05-04T21:45:02.665Z</time>
      </trkpt>
      <trkpt lat="43.619878" lon="10.630624">
        <ele>24.549082</ele>
        <time>2026-05-04T21:45:06.390Z</time>
      </trkpt>
      <trkpt lat="43.619827" lon="10.630796">
        <ele>24.514403</ele>
        <time>2026-05-04T21:45:09.045Z</time>
      </trkpt>
      <trkpt lat="43.619776" lon="10.630962">
        <ele>24.480757</ele>
        <time>2026-05-04T21:45:11.563Z</time>
      </trkpt>
      <trkpt lat="43.619738" lon="10.631101">
        <ele>24.453035</ele>
        <time>2026-05-04T21:45:13.674Z</time>
      </trkpt>
      <trkpt lat="43.619643" lon="10.631432">
        <ele>24.386601</ele>
        <time>2026-05-04T21:45:18.785Z</time>
      </trkpt>
      <trkpt lat="43.619583" lon="10.631640">
        <ele>24.344825</ele>
        <time>2026-05-04T21:45:22.009Z</time>
      </trkpt>
      <trkpt lat="43.619511" lon="10.631902">
        <ele>24.292537</ele>
        <time>2026-05-04T21:45:25.843Z</time>
      </trkpt>
      <trkpt lat="43.619456" lon="10.632100">
        <ele>24.252968</ele>
        <time>2026-05-04T21:45:28.704Z</time>
      </trkpt>
      <trkpt lat="43.619373" lon="10.632440">
        <ele>24.186021</ele>
        <time>2026-05-04T21:45:33.397Z</time>
      </trkpt>
      <trkpt lat="43.619284" lon="10.632793">
        <ele>24.116278</ele>
        <time>2026-05-04T21:45:38.167Z</time>
      </trkpt>
      <trkpt lat="43.619277" lon="10.632819">
        <ele>24.111102</ele>
        <time>2026-05-04T21:45:38.514Z</time>
      </trkpt>
      <trkpt lat="43.619214" lon="10.633104">
        <ele>24.049430</ele>
        <time>2026-05-04T21:45:42.021Z</time>
      </trkpt>
      <trkpt lat="43.619216" lon="10.633183">
        <ele>24.031818</ele>
        <time>2026-05-04T21:45:42.961Z</time>
      </trkpt>
      <trkpt lat="43.619253" lon="10.633270">
        <ele>24.009337</ele>
        <time>2026-05-04T21:45:44.140Z</time>
      </trkpt>
      <trkpt lat="43.619372" lon="10.633276">
        <ele>23.972689</ele>
        <time>2026-05-04T21:45:46.141Z</time>
      </trkpt>
      <trkpt lat="43.619843" lon="10.633409">
        <ele>23.824736</ele>
        <time>2026-05-04T21:45:54.538Z</time>
      </trkpt>
      <trkpt lat="43.619900" lon="10.633425">
        <ele>23.806835</ele>
        <time>2026-05-04T21:45:55.601Z</time>
      </trkpt>
      <trkpt lat="43.619799" lon="10.633786">
        <ele>23.720607</ele>
        <time>2026-05-04T21:46:00.700Z</time>
      </trkpt>
      <trkpt lat="43.619692" lon="10.634171">
        <ele>23.628726</ele>
        <time>2026-05-04T21:46:06.865Z</time>
      </trkpt>
      <trkpt lat="43.619507" lon="10.634429">
        <ele>23.547819</ele>
        <time>2026-05-04T21:46:12.557Z</time>
      </trkpt>
      <trkpt lat="43.619248" lon="10.634747">
        <ele>23.716581</ele>
        <time>2026-05-04T21:46:19.652Z</time>
      </trkpt>
      <trkpt lat="43.619193" lon="10.634815">
        <ele>23.761822</ele>
        <time>2026-05-04T21:46:21.237Z</time>
      </trkpt>
      <trkpt lat="43.618878" lon="10.635346">
        <ele>24.066436</ele>
        <time>2026-05-04T21:46:32.894Z</time>
      </trkpt>
      <trkpt lat="43.618390" lon="10.636155">
        <ele>24.533685</ele>
        <time>2026-05-04T21:46:50.519Z</time>
      </trkpt>
      <trkpt lat="43.618017" lon="10.636829">
        <ele>24.798869</ele>
        <time>2026-05-04T21:47:03.652Z</time>
      </trkpt>
      <trkpt lat="43.617922" lon="10.637063">
        <ele>24.869658</ele>
        <time>2026-05-04T21:47:07.702Z</time>
      </trkpt>
      <trkpt lat="43.617803" lon="10.637389">
        <ele>24.965992</ele>
        <time>2026-05-04T21:47:13.237Z</time>
      </trkpt>
      <trkpt lat="43.617669" lon="10.637674">
        <ele>25.055660</ele>
        <time>2026-05-04T21:47:18.437Z</time>
      </trkpt>
      <trkpt lat="43.617524" lon="10.637920">
        <ele>25.139363</ele>
        <time>2026-05-04T21:47:23.243Z</time>
      </trkpt>
      <trkpt lat="43.616900" lon="10.638740">
        <ele>25.336678</ele>
        <time>2026-05-04T21:47:40.570Z</time>
      </trkpt>
      <trkpt lat="43.616852" lon="10.638806">
        <ele>25.343604</ele>
        <time>2026-05-04T21:47:41.863Z</time>
      </trkpt>
      <trkpt lat="43.616666" lon="10.639057">
        <ele>25.370196</ele>
        <time>2026-05-04T21:47:46.808Z</time>
      </trkpt>
      <trkpt lat="43.616334" lon="10.639544">
        <ele>25.419720</ele>
        <time>2026-05-04T21:47:56.061Z</time>
      </trkpt>
      <trkpt lat="43.616009" lon="10.640154">
        <ele>25.476017</ele>
        <time>2026-05-04T21:48:06.961Z</time>
      </trkpt>
      <trkpt lat="43.615851" lon="10.640389">
        <ele>25.507880</ele>
        <time>2026-05-04T21:48:11.553Z</time>
      </trkpt>
      <trkpt lat="43.615655" lon="10.640578">
        <ele>25.540684</ele>
        <time>2026-05-04T21:48:16.302Z</time>
      </trkpt>
      <trkpt lat="43.615229" lon="10.640890">
        <ele>25.606855</ele>
        <time>2026-05-04T21:48:25.954Z</time>
      </trkpt>
      <trkpt lat="43.614859" lon="10.641148">
        <ele>25.663734</ele>
        <time>2026-05-04T21:48:34.131Z</time>
      </trkpt>
      <trkpt lat="43.614428" lon="10.641438">
        <ele>25.750953</ele>
        <time>2026-05-04T21:48:43.749Z</time>
      </trkpt>
      <trkpt lat="43.614282" lon="10.641516">
        <ele>25.833363</ele>
        <time>2026-05-04T21:48:46.898Z</time>
      </trkpt>
      <trkpt lat="43.614038" lon="10.641644">
        <ele>25.970769</ele>
        <time>2026-05-04T21:48:52.171Z</time>
      </trkpt>
      <trkpt lat="43.613532" lon="10.641831">
        <ele>26.246521</ele>
        <time>2026-05-04T21:49:03.223Z</time>
      </trkpt>
      <trkpt lat="43.613306" lon="10.641951">
        <ele>26.373987</ele>
        <time>2026-05-04T21:49:08.564Z</time>
      </trkpt>
      <trkpt lat="43.612841" lon="10.642364">
        <ele>26.665030</ele>
        <time>2026-05-04T21:49:21.595Z</time>
      </trkpt>
      <trkpt lat="43.612629" lon="10.642502">
        <ele>26.824435</ele>
        <time>2026-05-04T21:49:27.221Z</time>
      </trkpt>
      <trkpt lat="43.612025" lon="10.642697">
        <ele>27.249377</ele>
        <time>2026-05-04T21:49:42.236Z</time>
      </trkpt>
      <trkpt lat="43.611916" lon="10.642735">
        <ele>27.326393</ele>
        <time>2026-05-04T21:49:44.885Z</time>
      </trkpt>
      <trkpt lat="43.611547" lon="10.642925">
        <ele>27.596184</ele>
        <time>2026-05-04T21:49:53.538Z</time>
      </trkpt>
      <trkpt lat="43.611200" lon="10.643013">
        <ele>27.837881</ele>
        <time>2026-05-04T21:50:00.439Z</time>
      </trkpt>
      <trkpt lat="43.611148" lon="10.643021">
        <ele>27.873726</ele>
        <time>2026-05-04T21:50:01.449Z</time>
      </trkpt>
      <trkpt lat="43.610943" lon="10.643018">
        <ele>28.008845</ele>
        <time>2026-05-04T21:50:05.457Z</time>
      </trkpt>
      <trkpt lat="43.610695" lon="10.642936">
        <ele>28.175311</ele>
        <time>2026-05-04T21:50:11.093Z</time>
      </trkpt>
      <trkpt lat="43.610590" lon="10.642803">
        <ele>28.268316</ele>
        <time>2026-05-04T21:50:14.443Z</time>
      </trkpt>
      <trkpt lat="43.610426" lon="10.642722">
        <ele>28.382013</ele>
        <time>2026-05-04T21:50:18.751Z</time>
      </trkpt>
      <trkpt lat="43.610253" lon="10.642744">
        <ele>28.495424</ele>
        <time>2026-05-04T21:50:23.357Z</time>
      </trkpt>
      <trkpt lat="43.610103" lon="10.642864">
        <ele>28.608583</ele>
        <time>2026-05-04T21:50:28.140Z</time>
      </trkpt>
      <trkpt lat="43.610001" lon="10.643068">
        <ele>28.725761</ele>
        <time>2026-05-04T21:50:32.845Z</time>
      </trkpt>
      <trkpt lat="43.609974" lon="10.643313">
        <ele>28.842894</ele>
        <time>2026-05-04T21:50:37.091Z</time>
      </trkpt>
      <trkpt lat="43.610008" lon="10.643502">
        <ele>28.934942</ele>
        <time>2026-05-04T21:50:40.113Z</time>
      </trkpt>
      <trkpt lat="43.610087" lon="10.643663">
        <ele>29.026868</ele>
        <time>2026-05-04T21:50:42.962Z</time>
      </trkpt>
      <trkpt lat="43.609974" lon="10.643829">
        <ele>28.935095</ele>
        <time>2026-05-04T21:50:46.105Z</time>
      </trkpt>
      <trkpt lat="43.609933" lon="10.643890">
        <ele>28.842210</ele>
        <time>2026-05-04T21:50:47.201Z</time>
      </trkpt>
      <trkpt lat="43.609898" lon="10.643952">
        <ele>28.754475</ele>
        <time>2026-05-04T21:50:48.951Z</time>
      </trkpt>
      <trkpt lat="43.609732" lon="10.644032">
        <ele>28.483491</ele>
        <time>2026-05-04T21:50:54.277Z</time>
      </trkpt>
      <trkpt lat="43.609603" lon="10.643922">
        <ele>28.249820</ele>
        <time>2026-05-04T21:50:58.731Z</time>
      </trkpt>
      <trkpt lat="43.609362" lon="10.643212">
        <ele>27.374722</ele>
        <time>2026-05-04T21:51:14.151Z</time>
      </trkpt>
      <trkpt lat="43.609219" lon="10.643010">
        <ele>27.059448</ele>
        <time>2026-05-04T21:51:19.519Z</time>
      </trkpt>
      <trkpt lat="43.609107" lon="10.642966">
        <ele>26.879975</ele>
        <time>2026-05-04T21:51:22.507Z</time>
      </trkpt>
      <trkpt lat="43.608539" lon="10.642882">
        <ele>26.280275</ele>
        <time>2026-05-04T21:51:37.615Z</time>
      </trkpt>
      <trkpt lat="43.607360" lon="10.642708">
        <ele>26.143589</ele>
        <time>2026-05-04T21:52:16.205Z</time>
      </trkpt>
      <trkpt lat="43.605530" lon="10.642439">
        <ele>27.334817</ele>
        <time>2026-05-04T21:53:26.058Z</time>
      </trkpt>
      <trkpt lat="43.602437" lon="10.642376">
        <ele>27.555372</ele>
        <time>2026-05-04T21:55:03.521Z</time>
      </trkpt>
      <trkpt lat="43.598622" lon="10.642299">
        <ele>28.446141</ele>
        <time>2026-05-04T21:57:04.991Z</time>
      </trkpt>
      <trkpt lat="43.598235" lon="10.643181">
        <ele>29.139653</ele>
        <time>2026-05-04T21:57:26.939Z</time>
      </trkpt>
      <trkpt lat="43.597994" lon="10.643871">
        <ele>30.327618</ele>
        <time>2026-05-04T21:57:45.056Z</time>
      </trkpt>
      <trkpt lat="43.597771" lon="10.644423">
        <ele>31.307818</ele>
        <time>2026-05-04T21:57:59.462Z</time>
      </trkpt>
      <trkpt lat="43.597759" lon="10.644486">
        <ele>31.408839</ele>
        <time>2026-05-04T21:58:01.432Z</time>
      </trkpt>
      <trkpt lat="43.597784" lon="10.644580">
        <ele>31.564129</ele>
        <time>2026-05-04T21:58:04.502Z</time>
      </trkpt>
      <trkpt lat="43.598242" lon="10.645327">
        <ele>33.334124</ele>
        <time>2026-05-04T21:58:33.664Z</time>
      </trkpt>
      <trkpt lat="43.598702" lon="10.645994">
        <ele>36.066018</ele>
        <time>2026-05-04T21:59:03.493Z</time>
      </trkpt>
      <trkpt lat="43.598814" lon="10.646219">
        <ele>36.875817</ele>
        <time>2026-05-04T21:59:13.204Z</time>
      </trkpt>
      <trkpt lat="43.598830" lon="10.646308">
        <ele>37.147804</ele>
        <time>2026-05-04T21:59:16.593Z</time>
      </trkpt>
      <trkpt lat="43.598821" lon="10.646418">
        <ele>37.476140</ele>
        <time>2026-05-04T21:59:20.783Z</time>
      </trkpt>
      <trkpt lat="43.598546" lon="10.647313">
        <ele>40.554749</ele>
        <time>2026-05-04T22:00:03.007Z</time>
      </trkpt>
      <trkpt lat="43.598482" lon="10.647674">
        <ele>42.803068</ele>
        <time>2026-05-04T22:00:21.775Z</time>
      </trkpt>
      <trkpt lat="43.598478" lon="10.647864">
        <ele>43.952941</ele>
        <time>2026-05-04T22:00:31.887Z</time>
      </trkpt>
      <trkpt lat="43.598652" lon="10.648356">
        <ele>47.265188</ele>
        <time>2026-05-04T22:01:02.641Z</time>
      </trkpt>
      <trkpt lat="43.598892" lon="10.648886">
        <ele>51.046556</ele>
        <time>2026-05-04T22:01:39.593Z</time>
      </trkpt>
      <trkpt lat="43.598940" lon="10.649064">
        <ele>52.195572</ele>
        <time>2026-05-04T22:01:50.649Z</time>
      </trkpt>
      <trkpt lat="43.598958" lon="10.649336">
        <ele>53.847853</ele>
        <time>2026-05-04T22:02:06.117Z</time>
      </trkpt>
      <trkpt lat="43.598918" lon="10.649584">
        <ele>55.306458</ele>
        <time>2026-05-04T22:02:19.978Z</time>
      </trkpt>
      <trkpt lat="43.598843" lon="10.649792">
        <ele>56.125815</ele>
        <time>2026-05-04T22:02:31.963Z</time>
      </trkpt>
      <trkpt lat="43.598785" lon="10.649895">
        <ele>56.585904</ele>
        <time>2026-05-04T22:02:38.398Z</time>
      </trkpt>
      <trkpt lat="43.598759" lon="10.649923">
        <ele>56.746456</ele>
        <time>2026-05-04T22:02:40.605Z</time>
      </trkpt>
      <trkpt lat="43.598622" lon="10.650076">
        <ele>57.604421</ele>
        <time>2026-05-04T22:02:52.016Z</time>
      </trkpt>
      <trkpt lat="43.598033" lon="10.650300">
        <ele>60.579237</ele>
        <time>2026-05-04T22:03:26.848Z</time>
      </trkpt>
      <trkpt lat="43.597833" lon="10.650443">
        <ele>61.675913</ele>
        <time>2026-05-04T22:03:37.825Z</time>
      </trkpt>
      <trkpt lat="43.597754" lon="10.650585">
        <ele>62.307354</ele>
        <time>2026-05-04T22:03:43.651Z</time>
      </trkpt>
      <trkpt lat="43.596956" lon="10.652611">
        <ele>65.935365</ele>
        <time>2026-05-04T22:04:51.165Z</time>
      </trkpt>
      <trkpt lat="43.596695" lon="10.652710">
        <ele>66.337826</ele>
        <time>2026-05-04T22:05:01.190Z</time>
      </trkpt>
      <trkpt lat="43.596508" lon="10.652842">
        <ele>66.623109</ele>
        <time>2026-05-04T22:05:08.674Z</time>
      </trkpt>
      <trkpt lat="43.596397" lon="10.652986">
        <ele>66.552999</ele>
        <time>2026-05-04T22:05:13.946Z</time>
      </trkpt>
      <trkpt lat="43.596189" lon="10.653534">
        <ele>66.346736</ele>
        <time>2026-05-04T22:05:28.635Z</time>
      </trkpt>
      <trkpt lat="43.595457" lon="10.654025">
        <ele>65.972119</ele>
        <time>2026-05-04T22:05:53.065Z</time>
      </trkpt>
      <trkpt lat="43.595150" lon="10.654231">
        <ele>65.814994</ele>
        <time>2026-05-04T22:06:02.820Z</time>
      </trkpt>
      <trkpt lat="43.594396" lon="10.654475">
        <ele>64.112507</ele>
        <time>2026-05-04T22:06:24.252Z</time>
      </trkpt>
      <trkpt lat="43.593652" lon="10.654650">
        <ele>62.401832</ele>
        <time>2026-05-04T22:06:43.980Z</time>
      </trkpt>
      <trkpt lat="43.593573" lon="10.654704">
        <ele>62.202026</ele>
        <time>2026-05-04T22:06:46.274Z</time>
      </trkpt>
      <trkpt lat="43.593432" lon="10.654801">
        <ele>61.844957</ele>
        <time>2026-05-04T22:06:50.401Z</time>
      </trkpt>
      <trkpt lat="43.593063" lon="10.655197">
        <ele>61.648769</ele>
        <time>2026-05-04T22:07:02.882Z</time>
      </trkpt>
      <trkpt lat="43.592664" lon="10.656137">
        <ele>61.504244</ele>
        <time>2026-05-04T22:07:25.870Z</time>
      </trkpt>
      <trkpt lat="43.592465" lon="10.656699">
        <ele>61.421264</ele>
        <time>2026-05-04T22:07:44.294Z</time>
      </trkpt>
      <trkpt lat="43.592238" lon="10.657070">
        <ele>61.813786</ele>
        <time>2026-05-04T22:08:01.493Z</time>
      </trkpt>
      <trkpt lat="43.592121" lon="10.657334">
        <ele>62.261504</ele>
        <time>2026-05-04T22:08:13.227Z</time>
      </trkpt>
      <trkpt lat="43.592037" lon="10.657643">
        <ele>62.738943</ele>
        <time>2026-05-04T22:08:25.787Z</time>
      </trkpt>
      <trkpt lat="43.591911" lon="10.658347">
        <ele>63.787966</ele>
        <time>2026-05-04T22:08:50.811Z</time>
      </trkpt>
      <trkpt lat="43.591867" lon="10.658524">
        <ele>64.058671</ele>
        <time>2026-05-04T22:08:56.410Z</time>
      </trkpt>
      <trkpt lat="43.591777" lon="10.658738">
        <ele>64.416644</ele>
        <time>2026-05-04T22:09:03.207Z</time>
      </trkpt>
      <trkpt lat="43.591628" lon="10.658916">
        <ele>64.810174</ele>
        <time>2026-05-04T22:09:09.749Z</time>
      </trkpt>
      <trkpt lat="43.591424" lon="10.659082">
        <ele>64.562925</ele>
        <time>2026-05-04T22:09:16.719Z</time>
      </trkpt>
      <trkpt lat="43.590727" lon="10.659545">
        <ele>62.342437</ele>
        <time>2026-05-04T22:09:36.680Z</time>
      </trkpt>
      <trkpt lat="43.590408" lon="10.659813">
        <ele>61.270437</ele>
        <time>2026-05-04T22:09:45.815Z</time>
      </trkpt>
      <trkpt lat="43.589769" lon="10.660353">
        <ele>59.261900</ele>
        <time>2026-05-04T22:10:04.678Z</time>
      </trkpt>
      <trkpt lat="43.589035" lon="10.661217">
        <ele>57.052009</ele>
        <time>2026-05-04T22:10:31.939Z</time>
      </trkpt>
      <trkpt lat="43.588443" lon="10.662262">
        <ele>54.229015</ele>
        <time>2026-05-04T22:10:57.992Z</time>
      </trkpt>
      <trkpt lat="43.588295" lon="10.662518">
        <ele>53.289360</ele>
        <time>2026-05-04T22:11:01.512Z</time>
      </trkpt>
      <trkpt lat="43.588235" lon="10.662453">
        <ele>52.987295</ele>
        <time>2026-05-04T22:11:03.395Z</time>
      </trkpt>
      <trkpt lat="43.587954" lon="10.662150">
        <ele>51.575125</ele>
        <time>2026-05-04T22:11:12.107Z</time>
      </trkpt>
      <trkpt lat="43.587883" lon="10.662105">
        <ele>51.265701</ele>
        <time>2026-05-04T22:11:13.983Z</time>
      </trkpt>
      <trkpt lat="43.587810" lon="10.662107">
        <ele>50.976516</ele>
        <time>2026-05-04T22:11:15.730Z</time>
      </trkpt>
      <trkpt lat="43.587465" lon="10.662384">
        <ele>49.395818</ele>
        <time>2026-05-04T22:11:25.209Z</time>
      </trkpt>
      <trkpt lat="43.587224" lon="10.662454">
        <ele>48.494741</ele>
        <time>2026-05-04T22:11:31.101Z</time>
      </trkpt>
      <trkpt lat="43.587160" lon="10.662422">
        <ele>48.351176</ele>
        <time>2026-05-04T22:11:32.753Z</time>
      </trkpt>
      <trkpt lat="43.587041" lon="10.662294">
        <ele>48.033004</ele>
        <time>2026-05-04T22:11:36.499Z</time>
      </trkpt>
      <trkpt lat="43.586824" lon="10.661995">
        <ele>47.386377</ele>
        <time>2026-05-04T22:11:44.624Z</time>
      </trkpt>
      <trkpt lat="43.586702" lon="10.661881">
        <ele>47.075664</ele>
        <time>2026-05-04T22:11:48.743Z</time>
      </trkpt>
      <trkpt lat="43.586625" lon="10.661760">
        <ele>46.829603</ele>
        <time>2026-05-04T22:11:52.085Z</time>
      </trkpt>
      <trkpt lat="43.586540" lon="10.661551">
        <ele>46.463421</ele>
        <time>2026-05-04T22:11:57.103Z</time>
      </trkpt>
      <trkpt lat="43.586389" lon="10.661447">
        <ele>46.107509</ele>
        <time>2026-05-04T22:12:02.041Z</time>
      </trkpt>
      <trkpt lat="43.586239" lon="10.661415">
        <ele>45.787383</ele>
        <time>2026-05-04T22:12:06.462Z</time>
      </trkpt>
      <trkpt lat="43.585776" lon="10.661452">
        <ele>44.809216</ele>
        <time>2026-05-04T22:12:19.883Z</time>
      </trkpt>
      <trkpt lat="43.585426" lon="10.660097">
        <ele>44.390967</ele>
        <time>2026-05-04T22:12:50.767Z</time>
      </trkpt>
      <trkpt lat="43.585298" lon="10.659367">
        <ele>44.182589</ele>
        <time>2026-05-04T22:13:07.438Z</time>
      </trkpt>
      <trkpt lat="43.585285" lon="10.659288">
        <ele>44.160113</ele>
        <time>2026-05-04T22:13:09.326Z</time>
      </trkpt>
      <trkpt lat="43.584310" lon="10.659576">
        <ele>45.820469</ele>
        <time>2026-05-04T22:13:46.423Z</time>
      </trkpt>
      <trkpt lat="43.584050" lon="10.659839">
        <ele>46.488113</ele>
        <time>2026-05-04T22:13:59.785Z</time>
      </trkpt>
      <trkpt lat="43.583823" lon="10.660015">
        <ele>47.027387</ele>
        <time>2026-05-04T22:14:11.318Z</time>
      </trkpt>
      <trkpt lat="43.583134" lon="10.659882">
        <ele>49.561442</ele>
        <time>2026-05-04T22:14:47.501Z</time>
      </trkpt>
      <trkpt lat="43.582859" lon="10.659862">
        <ele>51.097122</ele>
        <time>2026-05-04T22:15:03.610Z</time>
      </trkpt>
      <trkpt lat="43.582675" lon="10.659962">
        <ele>52.199861</ele>
        <time>2026-05-04T22:15:15.623Z</time>
      </trkpt>
      <trkpt lat="43.582188" lon="10.660002">
        <ele>54.920448</ele>
        <time>2026-05-04T22:15:46.654Z</time>
      </trkpt>
      <trkpt lat="43.581022" lon="10.660691">
        <ele>62.466398</ele>
        <time>2026-05-04T22:17:07.173Z</time>
      </trkpt>
      <trkpt lat="43.580937" lon="10.660741">
        <ele>63.040508</ele>
        <time>2026-05-04T22:17:12.686Z</time>
      </trkpt>
      <trkpt lat="43.580759" lon="10.660871">
        <ele>64.291787</ele>
        <time>2026-05-04T22:17:24.695Z</time>
      </trkpt>
      <trkpt lat="43.580219" lon="10.661001">
        <ele>67.697789</ele>
        <time>2026-05-04T22:17:58.329Z</time>
      </trkpt>
      <trkpt lat="43.579911" lon="10.661147">
        <ele>69.923963</ele>
        <time>2026-05-04T22:18:18.751Z</time>
      </trkpt>
      <trkpt lat="43.579604" lon="10.661247">
        <ele>72.457666</ele>
        <time>2026-05-04T22:18:40.051Z</time>
      </trkpt>
      <trkpt lat="43.579380" lon="10.661137">
        <ele>74.367409</ele>
        <time>2026-05-04T22:18:57.582Z</time>
      </trkpt>
      <trkpt lat="43.579173" lon="10.661104">
        <ele>76.041190</ele>
        <time>2026-05-04T22:19:13.531Z</time>
      </trkpt>
      <trkpt lat="43.579006" lon="10.661180">
        <ele>77.453637</ele>
        <time>2026-05-04T22:19:27.408Z</time>
      </trkpt>
      <trkpt lat="43.578896" lon="10.661267">
        <ele>78.471967</ele>
        <time>2026-05-04T22:19:37.412Z</time>
      </trkpt>
      <trkpt lat="43.578478" lon="10.661400">
        <ele>81.917596</ele>
        <time>2026-05-04T22:20:10.920Z</time>
      </trkpt>
      <trkpt lat="43.578039" lon="10.661607">
        <ele>84.455654</ele>
        <time>2026-05-04T22:20:44.148Z</time>
      </trkpt>
      <trkpt lat="43.577771" lon="10.661790">
        <ele>85.540649</ele>
        <time>2026-05-04T22:21:03.756Z</time>
      </trkpt>
      <trkpt lat="43.577398" lon="10.661986">
        <ele>86.988939</ele>
        <time>2026-05-04T22:21:25.343Z</time>
      </trkpt>
      <trkpt lat="43.576967" lon="10.662100">
        <ele>88.581397</ele>
        <time>2026-05-04T22:21:42.379Z</time>
      </trkpt>
      <trkpt lat="43.576691" lon="10.662003">
        <ele>89.614894</ele>
        <time>2026-05-04T22:21:51.361Z</time>
      </trkpt>
      <trkpt lat="43.576655" lon="10.662003">
        <ele>89.745530</ele>
        <time>2026-05-04T22:21:52.438Z</time>
      </trkpt>
      <trkpt lat="43.576422" lon="10.662004">
        <ele>89.739455</ele>
        <time>2026-05-04T22:21:59.402Z</time>
      </trkpt>
      <trkpt lat="43.576584" lon="10.661773">
        <ele>89.359879</ele>
        <time>2026-05-04T22:22:03.537Z</time>
      </trkpt>
      <trkpt lat="43.576666" lon="10.661608">
        <ele>89.123647</ele>
        <time>2026-05-04T22:22:06.113Z</time>
      </trkpt>
      <trkpt lat="43.577080" lon="10.660588">
        <ele>87.743298</ele>
        <time>2026-05-04T22:22:20.066Z</time>
      </trkpt>
      <trkpt lat="43.577154" lon="10.660406">
        <ele>87.496898</ele>
        <time>2026-05-04T22:22:22.538Z</time>
      </trkpt>
      <trkpt lat="43.577215" lon="10.660249">
        <ele>87.286567</ele>
        <time>2026-05-04T22:22:24.672Z</time>
      </trkpt>
      <trkpt lat="43.577355" lon="10.660006">
        <ele>86.625603</ele>
        <time>2026-05-04T22:22:28.316Z</time>
      </trkpt>
      <trkpt lat="43.577563" lon="10.659762">
        <ele>85.320032</ele>
        <time>2026-05-04T22:22:32.682Z</time>
      </trkpt>
      <trkpt lat="43.577607" lon="10.659748">
        <ele>85.104064</ele>
        <time>2026-05-04T22:22:33.384Z</time>
      </trkpt>
      <trkpt lat="43.577786" lon="10.659692">
        <ele>84.226206</ele>
        <time>2026-05-04T22:22:36.247Z</time>
      </trkpt>
      <trkpt lat="43.578499" lon="10.659748">
        <ele>80.810457</ele>
        <time>2026-05-04T22:22:46.419Z</time>
      </trkpt>
      <trkpt lat="43.578784" lon="10.659557">
        <ele>79.295164</ele>
        <time>2026-05-04T22:22:53.748Z</time>
      </trkpt>
      <trkpt lat="43.578836" lon="10.659501">
        <ele>78.979716</ele>
        <time>2026-05-04T22:22:55.245Z</time>
      </trkpt>
      <trkpt lat="43.578932" lon="10.659399">
        <ele>78.362950</ele>
        <time>2026-05-04T22:22:57.989Z</time>
      </trkpt>
      <trkpt lat="43.579162" lon="10.657688">
        <ele>69.074654</ele>
        <time>2026-05-04T22:23:25.730Z</time>
      </trkpt>
      <trkpt lat="43.579403" lon="10.656890">
        <ele>64.993140</ele>
        <time>2026-05-04T22:23:40.151Z</time>
      </trkpt>
      <trkpt lat="43.579440" lon="10.656567">
        <ele>64.476607</ele>
        <time>2026-05-04T22:23:46.013Z</time>
      </trkpt>
      <trkpt lat="43.579268" lon="10.656094">
        <ele>63.640634</ele>
        <time>2026-05-04T22:23:56.173Z</time>
      </trkpt>
      <trkpt lat="43.579210" lon="10.655779">
        <ele>63.127254</ele>
        <time>2026-05-04T22:24:02.883Z</time>
      </trkpt>
      <trkpt lat="43.579195" lon="10.655143">
        <ele>62.122125</ele>
        <time>2026-05-04T22:24:17.025Z</time>
      </trkpt>
      <trkpt lat="43.579346" lon="10.654662">
        <ele>61.293989</ele>
        <time>2026-05-04T22:24:29.314Z</time>
      </trkpt>
      <trkpt lat="43.579384" lon="10.654540">
        <ele>61.068260</ele>
        <time>2026-05-04T22:24:32.351Z</time>
      </trkpt>
      <trkpt lat="43.579549" lon="10.654171">
        <ele>60.331178</ele>
        <time>2026-05-04T22:24:41.965Z</time>
      </trkpt>
      <trkpt lat="43.579749" lon="10.654030">
        <ele>59.804240</ele>
        <time>2026-05-04T22:24:48.452Z</time>
      </trkpt>
      <trkpt lat="43.580121" lon="10.653702">
        <ele>58.768521</ele>
        <time>2026-05-04T22:25:00.517Z</time>
      </trkpt>
      <trkpt lat="43.581038" lon="10.652841">
        <ele>54.904736</ele>
        <time>2026-05-04T22:25:28.216Z</time>
      </trkpt>
      <trkpt lat="43.581326" lon="10.652516">
        <ele>52.820151</ele>
        <time>2026-05-04T22:25:36.935Z</time>
      </trkpt>
      <trkpt lat="43.581531" lon="10.652191">
        <ele>51.070741</ele>
        <time>2026-05-04T22:25:44.129Z</time>
      </trkpt>
      <trkpt lat="43.581595" lon="10.651903">
        <ele>49.847831</ele>
        <time>2026-05-04T22:25:49.117Z</time>
      </trkpt>
      <trkpt lat="43.581623" lon="10.651777">
        <ele>49.312809</ele>
        <time>2026-05-04T22:25:51.294Z</time>
      </trkpt>
      <trkpt lat="43.581462" lon="10.651454">
        <ele>47.721165</ele>
        <time>2026-05-04T22:25:55.129Z</time>
      </trkpt>
      <trkpt lat="43.581144" lon="10.650697">
        <ele>46.132211</ele>
        <time>2026-05-04T22:26:03.910Z</time>
      </trkpt>
      <trkpt lat="43.580894" lon="10.649850">
        <ele>44.998300</ele>
        <time>2026-05-04T22:26:14.496Z</time>
      </trkpt>
      <trkpt lat="43.580595" lon="10.648756">
        <ele>44.961039</ele>
        <time>2026-05-04T22:26:39.720Z</time>
      </trkpt>
      <trkpt lat="43.579913" lon="10.646257">
        <ele>53.956975</ele>
        <time>2026-05-04T22:28:12.732Z</time>
      </trkpt>
      <trkpt lat="43.579590" lon="10.645801">
        <ele>55.694445</ele>
        <time>2026-05-04T22:28:37.098Z</time>
      </trkpt>
      <trkpt lat="43.579453" lon="10.645491">
        <ele>56.683738</ele>
        <time>2026-05-04T22:28:49.773Z</time>
      </trkpt>
      <trkpt lat="43.579314" lon="10.645071">
        <ele>57.941712</ele>
        <time>2026-05-04T22:29:02.497Z</time>
      </trkpt>
      <trkpt lat="43.579111" lon="10.644742">
        <ele>59.119077</ele>
        <time>2026-05-04T22:29:10.777Z</time>
      </trkpt>
      <trkpt lat="43.578955" lon="10.644569">
        <ele>58.679932</ele>
        <time>2026-05-04T22:29:14.517Z</time>
      </trkpt>
      <trkpt lat="43.578950" lon="10.644322">
        <ele>57.650645</ele>
        <time>2026-05-04T22:29:17.175Z</time>
      </trkpt>
      <trkpt lat="43.578878" lon="10.643788">
        <ele>55.388052</ele>
        <time>2026-05-04T22:29:22.406Z</time>
      </trkpt>
      <trkpt lat="43.578831" lon="10.643561">
        <ele>54.404613</ele>
        <time>2026-05-04T22:29:24.573Z</time>
      </trkpt>
      <trkpt lat="43.578717" lon="10.643200">
        <ele>52.764189</ele>
        <time>2026-05-04T22:29:28.103Z</time>
      </trkpt>
      <trkpt lat="43.578518" lon="10.642844">
        <ele>50.891100</ele>
        <time>2026-05-04T22:29:32.044Z</time>
      </trkpt>
      <trkpt lat="43.578310" lon="10.642599">
        <ele>49.318833</ele>
        <time>2026-05-04T22:29:35.363Z</time>
      </trkpt>
      <trkpt lat="43.578086" lon="10.642454">
        <ele>47.836936</ele>
        <time>2026-05-04T22:29:38.393Z</time>
      </trkpt>
      <trkpt lat="43.577014" lon="10.641947">
        <ele>40.988565</ele>
        <time>2026-05-04T22:29:52.846Z</time>
      </trkpt>
      <trkpt lat="43.576774" lon="10.641761">
        <ele>39.325147</ele>
        <time>2026-05-04T22:29:56.623Z</time>
      </trkpt>
      <trkpt lat="43.576582" lon="10.641538">
        <ele>38.122187</ele>
        <time>2026-05-04T22:30:00.179Z</time>
      </trkpt>
      <trkpt lat="43.576388" lon="10.641193">
        <ele>37.790982</ele>
        <time>2026-05-04T22:30:04.818Z</time>
      </trkpt>
      <trkpt lat="43.576266" lon="10.640823">
        <ele>37.482689</ele>
        <time>2026-05-04T22:30:09.428Z</time>
      </trkpt>
      <trkpt lat="43.576227" lon="10.640587">
        <ele>37.299116</ele>
        <time>2026-05-04T22:30:12.414Z</time>
      </trkpt>
      <trkpt lat="43.576189" lon="10.639920">
        <ele>36.791720</ele>
        <time>2026-05-04T22:30:22.056Z</time>
      </trkpt>
      <trkpt lat="43.576181" lon="10.639788">
        <ele>36.691265</ele>
        <time>2026-05-04T22:30:24.390Z</time>
      </trkpt>
      <trkpt lat="43.576176" lon="10.639677">
        <ele>36.606923</ele>
        <time>2026-05-04T22:30:26.212Z</time>
      </trkpt>
      <trkpt lat="43.576127" lon="10.638816">
        <ele>36.328918</ele>
        <time>2026-05-04T22:30:39.834Z</time>
      </trkpt>
      <trkpt lat="43.576026" lon="10.638353">
        <ele>36.353735</ele>
        <time>2026-05-04T22:30:47.199Z</time>
      </trkpt>
      <trkpt lat="43.575930" lon="10.638154">
        <ele>36.366006</ele>
        <time>2026-05-04T22:30:50.771Z</time>
      </trkpt>
      <trkpt lat="43.575789" lon="10.637968">
        <ele>36.379823</ele>
        <time>2026-05-04T22:30:54.654Z</time>
      </trkpt>
      <trkpt lat="43.575636" lon="10.637813">
        <ele>36.393268</ele>
        <time>2026-05-04T22:30:58.275Z</time>
      </trkpt>
      <trkpt lat="43.575430" lon="10.637683">
        <ele>36.409315</ele>
        <time>2026-05-04T22:31:02.491Z</time>
      </trkpt>
      <trkpt lat="43.575216" lon="10.637611">
        <ele>36.424919</ele>
        <time>2026-05-04T22:31:06.383Z</time>
      </trkpt>
      <trkpt lat="43.574891" lon="10.637553">
        <ele>36.445985</ele>
        <time>2026-05-04T22:31:11.964Z</time>
      </trkpt>
      <trkpt lat="43.573529" lon="10.637346">
        <ele>36.529755</ele>
        <time>2026-05-04T22:31:38.908Z</time>
      </trkpt>
      <trkpt lat="43.573278" lon="10.637227">
        <ele>36.531017</ele>
        <time>2026-05-04T22:31:45.127Z</time>
      </trkpt>
      <trkpt lat="43.573146" lon="10.637119">
        <ele>36.501100</ele>
        <time>2026-05-04T22:31:48.728Z</time>
      </trkpt>
      <trkpt lat="43.572972" lon="10.636913">
        <ele>36.456406</ele>
        <time>2026-05-04T22:31:53.713Z</time>
      </trkpt>
      <trkpt lat="43.572827" lon="10.636639">
        <ele>36.408478</ele>
        <time>2026-05-04T22:31:58.693Z</time>
      </trkpt>
      <trkpt lat="43.572822" lon="10.636619">
        <ele>36.405490</ele>
        <time>2026-05-04T22:31:58.986Z</time>
      </trkpt>
      <trkpt lat="43.572701" lon="10.636189">
        <ele>36.340331</ele>
        <time>2026-05-04T22:32:05.184Z</time>
      </trkpt>
      <trkpt lat="43.572675" lon="10.635913">
        <ele>36.301017</ele>
        <time>2026-05-04T22:32:08.754Z</time>
      </trkpt>
      <trkpt lat="43.572685" lon="10.635766">
        <ele>36.280162</ele>
        <time>2026-05-04T22:32:10.569Z</time>
      </trkpt>
      <trkpt lat="43.572891" lon="10.634442">
        <ele>36.094509</ele>
        <time>2026-05-04T22:32:27.360Z</time>
      </trkpt>
      <trkpt lat="43.572910" lon="10.634324">
        <ele>36.078369</ele>
        <time>2026-05-04T22:32:28.810Z</time>
      </trkpt>
      <trkpt lat="43.571093" lon="10.633826">
        <ele>36.140814</ele>
        <time>2026-05-04T22:33:06.461Z</time>
      </trkpt>
      <trkpt lat="43.570726" lon="10.633726">
        <ele>36.297702</ele>
        <time>2026-05-04T22:33:14.661Z</time>
      </trkpt>
      <trkpt lat="43.570324" lon="10.633684">
        <ele>36.466780</ele>
        <time>2026-05-04T22:33:23.330Z</time>
      </trkpt>
      <trkpt lat="43.568283" lon="10.633634">
        <ele>37.710871</ele>
        <time>2026-05-04T22:34:08.070Z</time>
      </trkpt>
      <trkpt lat="43.567573" lon="10.633813">
        <ele>38.410581</ele>
        <time>2026-05-04T22:34:25.835Z</time>
      </trkpt>
      <trkpt lat="43.566932" lon="10.633971">
        <ele>39.079252</ele>
        <time>2026-05-04T22:34:42.503Z</time>
      </trkpt>
      <trkpt lat="43.566647" lon="10.634042">
        <ele>39.376654</ele>
        <time>2026-05-04T22:34:49.699Z</time>
      </trkpt>
      <trkpt lat="43.566608" lon="10.633974">
        <ele>39.441184</ele>
        <time>2026-05-04T22:34:51.265Z</time>
      </trkpt>
      <trkpt lat="43.566514" lon="10.633918">
        <ele>39.546324</ele>
        <time>2026-05-04T22:34:53.838Z</time>
      </trkpt>
      <trkpt lat="43.565988" lon="10.633972">
        <ele>39.734346</ele>
        <time>2026-05-04T22:35:06.311Z</time>
      </trkpt>
      <trkpt lat="43.565859" lon="10.633953">
        <ele>39.764883</ele>
        <time>2026-05-04T22:35:09.210Z</time>
      </trkpt>
      <trkpt lat="43.565792" lon="10.633942">
        <ele>39.780766</ele>
        <time>2026-05-04T22:35:10.710Z</time>
      </trkpt>
      <trkpt lat="43.565425" lon="10.633740">
        <ele>39.873770</ele>
        <time>2026-05-04T22:35:19.012Z</time>
      </trkpt>
      <trkpt lat="43.565191" lon="10.633475">
        <ele>39.945022</ele>
        <time>2026-05-04T22:35:25.018Z</time>
      </trkpt>
      <trkpt lat="43.564833" lon="10.633270">
        <ele>40.036257</ele>
        <time>2026-05-04T22:35:32.582Z</time>
      </trkpt>
      <trkpt lat="43.564731" lon="10.633260">
        <ele>40.060490</ele>
        <time>2026-05-04T22:35:34.594Z</time>
      </trkpt>
      <trkpt lat="43.564405" lon="10.633225">
        <ele>40.139074</ele>
        <time>2026-05-04T22:35:41.069Z</time>
      </trkpt>
      <trkpt lat="43.564392" lon="10.633252">
        <ele>40.144719</ele>
        <time>2026-05-04T22:35:41.544Z</time>
      </trkpt>
      <trkpt lat="43.564068" lon="10.633213">
        <ele>40.222882</ele>
        <time>2026-05-04T22:35:51.906Z</time>
      </trkpt>
      <trkpt lat="43.563659" lon="10.633054">
        <ele>40.325002</ele>
        <time>2026-05-04T22:36:05.996Z</time>
      </trkpt>
      <trkpt lat="43.563367" lon="10.632959">
        <ele>40.397101</ele>
        <time>2026-05-04T22:36:16.270Z</time>
      </trkpt>
      <trkpt lat="43.562567" lon="10.632699">
        <ele>40.660136</ele>
        <time>2026-05-04T22:36:45.112Z</time>
      </trkpt>
      <trkpt lat="43.562342" lon="10.632579">
        <ele>40.752698</ele>
        <time>2026-05-04T22:36:53.444Z</time>
      </trkpt>
      <trkpt lat="43.562051" lon="10.632422">
        <ele>40.872592</ele>
        <time>2026-05-04T22:37:04.076Z</time>
      </trkpt>
      <trkpt lat="43.561469" lon="10.632237">
        <ele>41.101769</ele>
        <time>2026-05-04T22:37:23.830Z</time>
      </trkpt>
      <trkpt lat="43.561381" lon="10.632200">
        <ele>41.137069</ele>
        <time>2026-05-04T22:37:26.790Z</time>
      </trkpt>
      <trkpt lat="43.560880" lon="10.631992">
        <ele>41.105301</ele>
        <time>2026-05-04T22:37:43.519Z</time>
      </trkpt>
      <trkpt lat="43.560685" lon="10.631960">
        <ele>41.073035</ele>
        <time>2026-05-04T22:37:49.712Z</time>
      </trkpt>
      <trkpt lat="43.560207" lon="10.632081">
        <ele>40.993186</ele>
        <time>2026-05-04T22:38:05.036Z</time>
      </trkpt>
      <trkpt lat="43.559974" lon="10.632107">
        <ele>40.954778</ele>
        <time>2026-05-04T22:38:12.310Z</time>
      </trkpt>
      <trkpt lat="43.559835" lon="10.632122">
        <ele>40.931870</ele>
        <time>2026-05-04T22:38:16.588Z</time>
      </trkpt>
      <trkpt lat="43.559562" lon="10.632464">
        <ele>40.878963</ele>
        <time>2026-05-04T22:38:27.728Z</time>
      </trkpt>
      <trkpt lat="43.559322" lon="10.632626">
        <ele>40.876157</ele>
        <time>2026-05-04T22:38:35.756Z</time>
      </trkpt>
      <trkpt lat="43.559135" lon="10.632664">
        <ele>40.874171</ele>
        <time>2026-05-04T22:38:41.481Z</time>
      </trkpt>
      <trkpt lat="43.558957" lon="10.632696">
        <ele>40.872286</ele>
        <time>2026-05-04T22:38:46.983Z</time>
      </trkpt>
      <trkpt lat="43.558460" lon="10.632626">
        <ele>40.867039</ele>
        <time>2026-05-04T22:39:02.684Z</time>
      </trkpt>
      <trkpt lat="43.558303" lon="10.632521">
        <ele>40.865207</ele>
        <time>2026-05-04T22:39:08.341Z</time>
      </trkpt>
      <trkpt lat="43.558127" lon="10.632527">
        <ele>40.863358</ele>
        <time>2026-05-04T22:39:14.141Z</time>
      </trkpt>
      <trkpt lat="43.557667" lon="10.632664">
        <ele>41.196962</ele>
        <time>2026-05-04T22:39:30.616Z</time>
      </trkpt>
      <trkpt lat="43.556785" lon="10.633216">
        <ele>42.765805</ele>
        <time>2026-05-04T22:40:08.700Z</time>
      </trkpt>
      <trkpt lat="43.556465" lon="10.633585">
        <ele>43.441347</ele>
        <time>2026-05-04T22:40:26.289Z</time>
      </trkpt>
      <trkpt lat="43.556331" lon="10.633707">
        <ele>43.701406</ele>
        <time>2026-05-04T22:40:33.331Z</time>
      </trkpt>
      <trkpt lat="43.555718" lon="10.634066">
        <ele>46.304174</ele>
        <time>2026-05-04T22:41:02.899Z</time>
      </trkpt>
      <trkpt lat="43.555378" lon="10.634314">
        <ele>47.871029</ele>
        <time>2026-05-04T22:41:22.165Z</time>
      </trkpt>
      <trkpt lat="43.555485" lon="10.634571">
        <ele>48.746157</ele>
        <time>2026-05-04T22:41:31.019Z</time>
      </trkpt>
      <trkpt lat="43.555213" lon="10.634644">
        <ele>49.875106</ele>
        <time>2026-05-04T22:41:46.621Z</time>
      </trkpt>
      <trkpt lat="43.554726" lon="10.634609">
        <ele>52.739916</ele>
        <time>2026-05-04T22:42:17.024Z</time>
      </trkpt>
      <trkpt lat="43.554450" lon="10.634608">
        <ele>55.164021</ele>
        <time>2026-05-04T22:42:35.745Z</time>
      </trkpt>
      <trkpt lat="43.554220" lon="10.634655">
        <ele>57.206134</ele>
        <time>2026-05-04T22:42:52.734Z</time>
      </trkpt>
      <trkpt lat="43.554173" lon="10.634702">
        <ele>57.715940</ele>
        <time>2026-05-04T22:42:57.161Z</time>
      </trkpt>
      <trkpt lat="43.553622" lon="10.634638">
        <ele>62.572467</ele>
        <time>2026-05-04T22:43:41.039Z</time>
      </trkpt>
      <trkpt lat="43.553035" lon="10.634954">
        <ele>68.247726</ele>
        <time>2026-05-04T22:44:34.521Z</time>
      </trkpt>
      <trkpt lat="43.552584" lon="10.635133">
        <ele>72.851609</ele>
        <time>2026-05-04T22:45:16.225Z</time>
      </trkpt>
      <trkpt lat="43.552451" lon="10.635205">
        <ele>74.253220</ele>
        <time>2026-05-04T22:45:29.142Z</time>
      </trkpt>
      <trkpt lat="43.552143" lon="10.635370">
        <ele>77.494567</ele>
        <time>2026-05-04T22:45:57.990Z</time>
      </trkpt>
      <trkpt lat="43.551601" lon="10.635965">
        <ele>84.289414</ele>
        <time>2026-05-04T22:46:51.448Z</time>
      </trkpt>
      <trkpt lat="43.551570" lon="10.636099">
        <ele>84.883007</ele>
        <time>2026-05-04T22:46:58.395Z</time>
      </trkpt>
      <trkpt lat="43.551382" lon="10.636537">
        <ele>86.526078</ele>
        <time>2026-05-04T22:47:21.861Z</time>
      </trkpt>
      <trkpt lat="43.551353" lon="10.636585">
        <ele>86.727780</ele>
        <time>2026-05-04T22:47:24.505Z</time>
      </trkpt>
      <trkpt lat="43.551014" lon="10.637144">
        <ele>89.080408</ele>
        <time>2026-05-04T22:47:52.007Z</time>
      </trkpt>
      <trkpt lat="43.550128" lon="10.637190">
        <ele>92.778816</ele>
        <time>2026-05-04T22:48:32.838Z</time>
      </trkpt>
      <trkpt lat="43.549520" lon="10.637384">
        <ele>94.089942</ele>
        <time>2026-05-04T22:48:58.888Z</time>
      </trkpt>
      <trkpt lat="43.549210" lon="10.637445">
        <ele>94.747845</ele>
        <time>2026-05-04T22:49:09.755Z</time>
      </trkpt>
      <trkpt lat="43.549011" lon="10.637448">
        <ele>95.165970</ele>
        <time>2026-05-04T22:49:17.012Z</time>
      </trkpt>
      <trkpt lat="43.548831" lon="10.637563">
        <ele>95.582729</ele>
        <time>2026-05-04T22:49:24.664Z</time>
      </trkpt>
      <trkpt lat="43.548466" lon="10.637794">
        <ele>96.646595</ele>
        <time>2026-05-04T22:49:42.823Z</time>
      </trkpt>
      <trkpt lat="43.548317" lon="10.638004">
        <ele>98.163760</ele>
        <time>2026-05-04T22:49:53.361Z</time>
      </trkpt>
      <trkpt lat="43.548282" lon="10.638249">
        <ele>99.452946</ele>
        <time>2026-05-04T22:50:03.046Z</time>
      </trkpt>
      <trkpt lat="43.548255" lon="10.638556">
        <ele>101.049509</ele>
        <time>2026-05-04T22:50:16.170Z</time>
      </trkpt>
      <trkpt lat="43.548257" lon="10.638912">
        <ele>102.887472</ele>
        <time>2026-05-04T22:50:33.439Z</time>
      </trkpt>
      <trkpt lat="43.548383" lon="10.639285">
        <ele>105.012019</ele>
        <time>2026-05-04T22:50:56.121Z</time>
      </trkpt>
      <trkpt lat="43.548392" lon="10.639572">
        <ele>106.495086</ele>
        <time>2026-05-04T22:51:13.737Z</time>
      </trkpt>
      <trkpt lat="43.548357" lon="10.639781">
        <ele>107.602507</ele>
        <time>2026-05-04T22:51:27.344Z</time>
      </trkpt>
      <trkpt lat="43.548201" lon="10.639950">
        <ele>109.015289</ele>
        <time>2026-05-04T22:51:44.572Z</time>
      </trkpt>
      <trkpt lat="43.547938" lon="10.639876">
        <ele>110.405126</ele>
        <time>2026-05-04T22:52:07.089Z</time>
      </trkpt>
      <trkpt lat="43.547797" lon="10.639905">
        <ele>111.122952</ele>
        <time>2026-05-04T22:52:18.406Z</time>
      </trkpt>
      <trkpt lat="43.547554" lon="10.640095">
        <ele>112.529364</ele>
        <time>2026-05-04T22:52:38.710Z</time>
      </trkpt>
      <trkpt lat="43.547422" lon="10.640165">
        <ele>113.241434</ele>
        <time>2026-05-04T22:52:48.049Z</time>
      </trkpt>
      <trkpt lat="43.546817" lon="10.640487">
        <ele>116.506618</ele>
        <time>2026-05-04T22:53:21.724Z</time>
      </trkpt>
      <trkpt lat="43.546523" lon="10.640723">
        <ele>118.194704</ele>
        <time>2026-05-04T22:53:32.937Z</time>
      </trkpt>
      <trkpt lat="43.546347" lon="10.640864">
        <ele>117.704012</ele>
        <time>2026-05-04T22:53:38.639Z</time>
      </trkpt>
      <trkpt lat="43.545738" lon="10.641402">
        <ele>115.960483</ele>
        <time>2026-05-04T22:53:56.517Z</time>
      </trkpt>
      <trkpt lat="43.545483" lon="10.641464">
        <ele>115.336199</ele>
        <time>2026-05-04T22:54:02.799Z</time>
      </trkpt>
      <trkpt lat="43.545464" lon="10.641465">
        <ele>115.290356</ele>
        <time>2026-05-04T22:54:03.272Z</time>
      </trkpt>
      <trkpt lat="43.545179" lon="10.641481">
        <ele>114.602646</ele>
        <time>2026-05-04T22:54:10.473Z</time>
      </trkpt>
      <trkpt lat="43.544748" lon="10.641608">
        <ele>114.126480</ele>
        <time>2026-05-04T22:54:22.990Z</time>
      </trkpt>
      <trkpt lat="43.545179" lon="10.641481">
        <ele>114.974993</ele>
        <time>2026-05-04T22:54:40.140Z</time>
      </trkpt>
      <trkpt lat="43.545464" lon="10.641465">
        <ele>115.524153</ele>
        <time>2026-05-04T22:54:54.487Z</time>
      </trkpt>
      <trkpt lat="43.545483" lon="10.641464">
        <ele>115.560760</ele>
        <time>2026-05-04T22:54:55.467Z</time>
      </trkpt>
      <trkpt lat="43.545738" lon="10.641402">
        <ele>116.059273</ele>
        <time>2026-05-04T22:55:09.852Z</time>
      </trkpt>
      <trkpt lat="43.546347" lon="10.640864">
        <ele>117.138363</ele>
        <time>2026-05-04T22:55:45.545Z</time>
      </trkpt>
      <trkpt lat="43.546523" lon="10.640723">
        <ele>116.528680</ele>
        <time>2026-05-04T22:55:52.716Z</time>
      </trkpt>
      <trkpt lat="43.546347" lon="10.640864">
        <ele>115.918997</ele>
        <time>2026-05-04T22:55:58.803Z</time>
      </trkpt>
      <trkpt lat="43.545738" lon="10.641402">
        <ele>113.752673</ele>
        <time>2026-05-04T22:56:17.142Z</time>
      </trkpt>
      <trkpt lat="43.545483" lon="10.641464">
        <ele>112.977003</ele>
        <time>2026-05-04T22:56:23.171Z</time>
      </trkpt>
      <trkpt lat="43.545464" lon="10.641465">
        <ele>112.920044</ele>
        <time>2026-05-04T22:56:23.607Z</time>
      </trkpt>
      <trkpt lat="43.545179" lon="10.641481">
        <ele>112.065568</ele>
        <time>2026-05-04T22:56:30.122Z</time>
      </trkpt>
      <trkpt lat="43.544748" lon="10.641608">
        <ele>109.570849</ele>
        <time>2026-05-04T22:56:40.340Z</time>
      </trkpt>
      <trkpt lat="43.544461" lon="10.641692">
        <ele>107.828558</ele>
        <time>2026-05-04T22:56:47.310Z</time>
      </trkpt>
      <trkpt lat="43.544171" lon="10.641667">
        <ele>106.103024</ele>
        <time>2026-05-04T22:56:54.465Z</time>
      </trkpt>
      <trkpt lat="43.544003" lon="10.641901">
        <ele>104.685308</ele>
        <time>2026-05-04T22:57:00.304Z</time>
      </trkpt>
      <trkpt lat="43.543768" lon="10.642376">
        <ele>102.209794</ele>
        <time>2026-05-04T22:57:10.301Z</time>
      </trkpt>
      <trkpt lat="43.543622" lon="10.642734">
        <ele>99.575253</ele>
        <time>2026-05-04T22:57:17.053Z</time>
      </trkpt>
      <trkpt lat="43.543590" lon="10.642843">
        <ele>98.532858</ele>
        <time>2026-05-04T22:57:18.902Z</time>
      </trkpt>
      <trkpt lat="43.543590" lon="10.642843">
        <ele>98.532858</ele>
        <time>2026-05-04T22:57:18.944Z</time>
      </trkpt>
      <trkpt lat="43.543590" lon="10.642843">
        <ele>98.532858</ele>
        <time>2026-05-04T22:57:18.944Z</time>
      </trkpt>
      <trkpt lat="43.543202" lon="10.642130">
        <ele>90.630108</ele>
        <time>2026-05-04T22:57:46.722Z</time>
      </trkpt>
      <trkpt lat="43.542596" lon="10.641763">
        <ele>82.537048</ele>
        <time>2026-05-04T22:58:15.286Z</time>
      </trkpt>
      <trkpt lat="43.542110" lon="10.641119">
        <ele>74.841619</ele>
        <time>2026-05-04T22:58:44.379Z</time>
      </trkpt>
      <trkpt lat="43.542433" lon="10.640544">
        <ele>69.100921</ele>
        <time>2026-05-04T22:59:07.072Z</time>
      </trkpt>
      <trkpt lat="43.542369" lon="10.640369">
        <ele>67.554092</ele>
        <time>2026-05-04T22:59:09.390Z</time>
      </trkpt>
      <trkpt lat="43.542143" lon="10.639902">
        <ele>63.122893</ele>
        <time>2026-05-04T22:59:16.206Z</time>
      </trkpt>
      <trkpt lat="43.542026" lon="10.639676">
        <ele>60.931244</ele>
        <time>2026-05-04T22:59:19.721Z</time>
      </trkpt>
      <trkpt lat="43.541849" lon="10.639584">
        <ele>59.404542</ele>
        <time>2026-05-04T22:59:23.111Z</time>
      </trkpt>
      <trkpt lat="43.541592" lon="10.639561">
        <ele>58.441348</ele>
        <time>2026-05-04T22:59:27.890Z</time>
      </trkpt>
      <trkpt lat="43.541394" lon="10.639261">
        <ele>57.341425</ele>
        <time>2026-05-04T22:59:33.458Z</time>
      </trkpt>
      <trkpt lat="43.541066" lon="10.639719">
        <ele>55.595997</ele>
        <time>2026-05-04T22:59:40.537Z</time>
      </trkpt>
      <trkpt lat="43.540825" lon="10.640165">
        <ele>54.087890</ele>
        <time>2026-05-04T22:59:47.046Z</time>
      </trkpt>
      <trkpt lat="43.539860" lon="10.638907">
        <ele>52.071233</ele>
        <time>2026-05-04T23:00:10.059Z</time>
      </trkpt>
      <trkpt lat="43.539827" lon="10.638865">
        <ele>52.032469</ele>
        <time>2026-05-04T23:00:10.881Z</time>
      </trkpt>
      <trkpt lat="43.539692" lon="10.638600">
        <ele>51.829756</ele>
        <time>2026-05-04T23:00:15.429Z</time>
      </trkpt>
      <trkpt lat="43.539572" lon="10.638525">
        <ele>51.716014</ele>
        <time>2026-05-04T23:00:18.246Z</time>
      </trkpt>
      <trkpt lat="43.539013" lon="10.637884">
        <ele>52.019548</ele>
        <time>2026-05-04T23:00:40.448Z</time>
      </trkpt>
      <trkpt lat="43.538330" lon="10.637007">
        <ele>53.595330</ele>
        <time>2026-05-04T23:01:13.015Z</time>
      </trkpt>
      <trkpt lat="43.537964" lon="10.637620">
        <ele>54.450924</ele>
        <time>2026-05-04T23:01:34.601Z</time>
      </trkpt>
      <trkpt lat="43.537468" lon="10.638785">
        <ele>54.581643</ele>
        <time>2026-05-04T23:02:03.433Z</time>
      </trkpt>
      <trkpt lat="43.537023" lon="10.639219">
        <ele>54.654381</ele>
        <time>2026-05-04T23:02:20.398Z</time>
      </trkpt>
      <trkpt lat="43.536813" lon="10.639487">
        <ele>54.936766</ele>
        <time>2026-05-04T23:02:30.522Z</time>
      </trkpt>
      <trkpt lat="43.535485" lon="10.640495">
        <ele>59.402195</ele>
        <time>2026-05-04T23:03:41.121Z</time>
      </trkpt>
      <trkpt lat="43.535231" lon="10.640616">
        <ele>60.353771</ele>
        <time>2026-05-04T23:03:56.357Z</time>
      </trkpt>
      <trkpt lat="43.535032" lon="10.640640">
        <ele>61.381851</ele>
        <time>2026-05-04T23:04:07.850Z</time>
      </trkpt>
      <trkpt lat="43.534742" lon="10.640930">
        <ele>63.225307</ele>
        <time>2026-05-04T23:04:28.833Z</time>
      </trkpt>
      <trkpt lat="43.534540" lon="10.641063">
        <ele>64.377279</ele>
        <time>2026-05-04T23:04:42.217Z</time>
      </trkpt>
      <trkpt lat="43.534445" lon="10.641051">
        <ele>64.868252</ele>
        <time>2026-05-04T23:04:47.966Z</time>
      </trkpt>
      <trkpt lat="43.534386" lon="10.641043">
        <ele>65.173365</ele>
        <time>2026-05-04T23:04:51.579Z</time>
      </trkpt>
      <trkpt lat="43.532916" lon="10.639927">
        <ele>74.205480</ele>
        <time>2026-05-04T23:06:29.239Z</time>
      </trkpt>
      <trkpt lat="43.531197" lon="10.638543">
        <ele>85.468479</ele>
        <time>2026-05-04T23:08:31.341Z</time>
      </trkpt>
      <trkpt lat="43.531037" lon="10.638502">
        <ele>86.398377</ele>
        <time>2026-05-04T23:08:41.614Z</time>
      </trkpt>
      <trkpt lat="43.530804" lon="10.638510">
        <ele>87.730172</ele>
        <time>2026-05-04T23:08:56.129Z</time>
      </trkpt>
      <trkpt lat="43.530528" lon="10.638274">
        <ele>89.581393</ele>
        <time>2026-05-04T23:09:15.746Z</time>
      </trkpt>
      <trkpt lat="43.529618" lon="10.637191">
        <ele>93.976305</ele>
        <time>2026-05-04T23:10:18.761Z</time>
      </trkpt>
      <trkpt lat="43.528739" lon="10.635195">
        <ele>99.173000</ele>
        <time>2026-05-04T23:11:31.173Z</time>
      </trkpt>
      <trkpt lat="43.528634" lon="10.635096">
        <ele>99.522930</ele>
        <time>2026-05-04T23:11:36.816Z</time>
      </trkpt>
      <trkpt lat="43.528438" lon="10.634970">
        <ele>100.117874</ele>
        <time>2026-05-04T23:11:46.513Z</time>
      </trkpt>
      <trkpt lat="43.527312" lon="10.634251">
        <ele>105.950851</ele>
        <time>2026-05-04T23:12:51.320Z</time>
      </trkpt>
      <trkpt lat="43.527182" lon="10.634093">
        <ele>106.901650</ele>
        <time>2026-05-04T23:13:01.937Z</time>
      </trkpt>
      <trkpt lat="43.526285" lon="10.632517">
        <ele>116.171300</ele>
        <time>2026-05-04T23:14:40.629Z</time>
      </trkpt>
      <trkpt lat="43.526212" lon="10.632337">
        <ele>117.264723</ele>
        <time>2026-05-04T23:14:51.156Z</time>
      </trkpt>
      <trkpt lat="43.526156" lon="10.631661">
        <ele>120.871915</ele>
        <time>2026-05-04T23:15:25.709Z</time>
      </trkpt>
      <trkpt lat="43.525326" lon="10.631145">
        <ele>127.007208</ele>
        <time>2026-05-04T23:16:27.392Z</time>
      </trkpt>
      <trkpt lat="43.525244" lon="10.631134">
        <ele>127.517416</ele>
        <time>2026-05-04T23:16:32.865Z</time>
      </trkpt>
      <trkpt lat="43.524863" lon="10.631300">
        <ele>129.991820</ele>
        <time>2026-05-04T23:16:58.723Z</time>
      </trkpt>
      <trkpt lat="43.524832" lon="10.631292">
        <ele>130.187130</ele>
        <time>2026-05-04T23:17:00.720Z</time>
      </trkpt>
      <trkpt lat="43.524710" lon="10.631262">
        <ele>130.954569</ele>
        <time>2026-05-04T23:17:08.400Z</time>
      </trkpt>
      <trkpt lat="43.524499" lon="10.630774">
        <ele>133.505853</ele>
        <time>2026-05-04T23:17:32.788Z</time>
      </trkpt>
      <trkpt lat="43.524376" lon="10.630404">
        <ele>135.319338</ele>
        <time>2026-05-04T23:17:49.618Z</time>
      </trkpt>
      <trkpt lat="43.524281" lon="10.629760">
        <ele>137.707375</ele>
        <time>2026-05-04T23:18:16.690Z</time>
      </trkpt>
      <trkpt lat="43.524269" lon="10.629320">
        <ele>139.307332</ele>
        <time>2026-05-04T23:18:34.193Z</time>
      </trkpt>
      <trkpt lat="43.524297" lon="10.628682">
        <ele>141.629872</ele>
        <time>2026-05-04T23:18:59.627Z</time>
      </trkpt>
      <trkpt lat="43.524281" lon="10.627929">
        <ele>144.383207</ele>
        <time>2026-05-04T23:19:31.260Z</time>
      </trkpt>
      <trkpt lat="43.524240" lon="10.627779">
        <ele>145.064327</ele>
        <time>2026-05-04T23:19:38.253Z</time>
      </trkpt>
      <trkpt lat="43.523616" lon="10.627786">
        <ele>148.721040</ele>
        <time>2026-05-04T23:20:08.976Z</time>
      </trkpt>
      <trkpt lat="43.523574" lon="10.627775">
        <ele>148.971555</ele>
        <time>2026-05-04T23:20:11.155Z</time>
      </trkpt>
      <trkpt lat="43.523502" lon="10.627754">
        <ele>149.402802</ele>
        <time>2026-05-04T23:20:14.833Z</time>
      </trkpt>
      <trkpt lat="43.523212" lon="10.627352">
        <ele>151.812257</ele>
        <time>2026-05-04T23:20:36.129Z</time>
      </trkpt>
      <trkpt lat="43.523130" lon="10.627298">
        <ele>152.344740</ele>
        <time>2026-05-04T23:20:40.908Z</time>
      </trkpt>
      <trkpt lat="43.523009" lon="10.627261">
        <ele>153.071011</ele>
        <time>2026-05-04T23:20:47.423Z</time>
      </trkpt>
      <trkpt lat="43.522362" lon="10.627065">
        <ele>156.248445</ele>
        <time>2026-05-04T23:21:20.487Z</time>
      </trkpt>
      <trkpt lat="43.522177" lon="10.627009">
        <ele>156.993057</ele>
        <time>2026-05-04T23:21:29.082Z</time>
      </trkpt>
      <trkpt lat="43.521906" lon="10.626904">
        <ele>158.099698</ele>
        <time>2026-05-04T23:21:41.091Z</time>
      </trkpt>
      <trkpt lat="43.521856" lon="10.626885">
        <ele>158.303590</ele>
        <time>2026-05-04T23:21:43.200Z</time>
      </trkpt>
      <trkpt lat="43.521649" lon="10.626785">
        <ele>159.165863</ele>
        <time>2026-05-04T23:21:51.683Z</time>
      </trkpt>
      <trkpt lat="43.520851" lon="10.626285">
        <ele>162.332940</ele>
        <time>2026-05-04T23:22:19.704Z</time>
      </trkpt>
      <trkpt lat="43.520747" lon="10.626170">
        <ele>162.656314</ele>
        <time>2026-05-04T23:22:23.591Z</time>
      </trkpt>
      <trkpt lat="43.520587" lon="10.625712">
        <ele>163.550583</ele>
        <time>2026-05-04T23:22:34.767Z</time>
      </trkpt>
      <trkpt lat="43.520492" lon="10.625554">
        <ele>163.911631</ele>
        <time>2026-05-04T23:22:39.933Z</time>
      </trkpt>
      <trkpt lat="43.519877" lon="10.625045">
        <ele>165.651587</ele>
        <time>2026-05-04T23:23:04.292Z</time>
      </trkpt>
      <trkpt lat="43.519532" lon="10.624706">
        <ele>166.264520</ele>
        <time>2026-05-04T23:23:18.000Z</time>
      </trkpt>
      <trkpt lat="43.519480" lon="10.624764">
        <ele>166.271084</ele>
        <time>2026-05-04T23:23:20.042Z</time>
      </trkpt>
      <trkpt lat="43.519227" lon="10.625047">
        <ele>166.303055</ele>
        <time>2026-05-04T23:23:29.606Z</time>
      </trkpt>
      <trkpt lat="43.518749" lon="10.625593">
        <ele>166.363971</ele>
        <time>2026-05-04T23:23:43.245Z</time>
      </trkpt>
      <trkpt lat="43.518588" lon="10.625844">
        <ele>166.387820</ele>
        <time>2026-05-04T23:23:47.153Z</time>
      </trkpt>
      <trkpt lat="43.518113" lon="10.626764">
        <ele>164.741409</ele>
        <time>2026-05-04T23:23:59.291Z</time>
      </trkpt>
      <trkpt lat="43.518006" lon="10.626932">
        <ele>164.141703</ele>
        <time>2026-05-04T23:24:01.580Z</time>
      </trkpt>
      <trkpt lat="43.517610" lon="10.627168">
        <ele>162.546136</ele>
        <time>2026-05-04T23:24:07.518Z</time>
      </trkpt>
      <trkpt lat="43.517250" lon="10.627802">
        <ele>160.386414</ele>
        <time>2026-05-04T23:24:15.569Z</time>
      </trkpt>
      <trkpt lat="43.516586" lon="10.628316">
        <ele>156.725147</ele>
        <time>2026-05-04T23:24:25.859Z</time>
      </trkpt>
      <trkpt lat="43.516309" lon="10.628605">
        <ele>154.947285</ele>
        <time>2026-05-04T23:24:30.450Z</time>
      </trkpt>
      <trkpt lat="43.516233" lon="10.628751">
        <ele>154.280210</ele>
        <time>2026-05-04T23:24:32.165Z</time>
      </trkpt>
      <trkpt lat="43.516209" lon="10.628863">
        <ele>153.846726</ele>
        <time>2026-05-04T23:24:33.267Z</time>
      </trkpt>
      <trkpt lat="43.516194" lon="10.629310">
        <ele>152.185802</ele>
        <time>2026-05-04T23:24:37.525Z</time>
      </trkpt>
      <trkpt lat="43.516157" lon="10.629491">
        <ele>151.487794</ele>
        <time>2026-05-04T23:24:39.337Z</time>
      </trkpt>
      <trkpt lat="43.516093" lon="10.629638">
        <ele>150.851386</ele>
        <time>2026-05-04T23:24:40.989Z</time>
      </trkpt>
      <trkpt lat="43.515812" lon="10.630048">
        <ele>148.555360</ele>
        <time>2026-05-04T23:24:46.360Z</time>
      </trkpt>
      <trkpt lat="43.515669" lon="10.630121">
        <ele>147.687624</ele>
        <time>2026-05-04T23:24:48.308Z</time>
      </trkpt>
      <trkpt lat="43.515299" lon="10.630115">
        <ele>145.581935</ele>
        <time>2026-05-04T23:24:53.061Z</time>
      </trkpt>
      <trkpt lat="43.515218" lon="10.630169">
        <ele>145.069949</ele>
        <time>2026-05-04T23:24:54.222Z</time>
      </trkpt>
      <trkpt lat="43.515166" lon="10.630242">
        <ele>144.647667</ele>
        <time>2026-05-04T23:24:55.173Z</time>
      </trkpt>
      <trkpt lat="43.515136" lon="10.630361">
        <ele>144.127748</ele>
        <time>2026-05-04T23:24:56.347Z</time>
      </trkpt>
      <trkpt lat="43.515134" lon="10.630547">
        <ele>143.360074</ele>
        <time>2026-05-04T23:24:58.090Z</time>
      </trkpt>
      <trkpt lat="43.515246" lon="10.631057">
        <ele>141.161009</ele>
        <time>2026-05-04T23:25:03.145Z</time>
      </trkpt>
      <trkpt lat="43.515232" lon="10.631216">
        <ele>140.500027</ele>
        <time>2026-05-04T23:25:04.722Z</time>
      </trkpt>
      <trkpt lat="43.515191" lon="10.631323">
        <ele>140.067793</ele>
        <time>2026-05-04T23:25:05.949Z</time>
      </trkpt>
      <trkpt lat="43.515099" lon="10.631403">
        <ele>139.575285</ele>
        <time>2026-05-04T23:25:07.416Z</time>
      </trkpt>
      <trkpt lat="43.514970" lon="10.631408">
        <ele>138.990918</ele>
        <time>2026-05-04T23:25:09.152Z</time>
      </trkpt>
      <trkpt lat="43.514642" lon="10.631241">
        <ele>137.407662</ele>
        <time>2026-05-04T23:25:13.761Z</time>
      </trkpt>
      <trkpt lat="43.514551" lon="10.631192">
        <ele>136.965294</ele>
        <time>2026-05-04T23:25:15.043Z</time>
      </trkpt>
      <trkpt lat="43.514343" lon="10.631124">
        <ele>135.997322</ele>
        <time>2026-05-04T23:25:17.836Z</time>
      </trkpt>
      <trkpt lat="43.514165" lon="10.631161">
        <ele>135.182197</ele>
        <time>2026-05-04T23:25:20.207Z</time>
      </trkpt>
      <trkpt lat="43.513781" lon="10.631404">
        <ele>133.269010</ele>
        <time>2026-05-04T23:25:25.927Z</time>
      </trkpt>
      <trkpt lat="43.513382" lon="10.631804">
        <ele>132.283921</ele>
        <time>2026-05-04T23:25:33.522Z</time>
      </trkpt>
      <trkpt lat="43.513146" lon="10.631936">
        <ele>132.383241</ele>
        <time>2026-05-04T23:25:37.408Z</time>
      </trkpt>
      <trkpt lat="43.512976" lon="10.631890">
        <ele>132.450802</ele>
        <time>2026-05-04T23:25:40.026Z</time>
      </trkpt>
      <trkpt lat="43.512761" lon="10.631646">
        <ele>132.559396</ele>
        <time>2026-05-04T23:25:44.648Z</time>
      </trkpt>
      <trkpt lat="43.512671" lon="10.631599">
        <ele>132.596927</ele>
        <time>2026-05-04T23:25:46.916Z</time>
      </trkpt>
      <trkpt lat="43.512520" lon="10.631618">
        <ele>132.656060</ele>
        <time>2026-05-04T23:25:50.916Z</time>
      </trkpt>
      <trkpt lat="43.512348" lon="10.631725">
        <ele>132.729647</ele>
        <time>2026-05-04T23:25:57.137Z</time>
      </trkpt>
      <trkpt lat="43.512017" lon="10.631964">
        <ele>132.875360</ele>
        <time>2026-05-04T23:26:12.875Z</time>
      </trkpt>
      <trkpt lat="43.511962" lon="10.632018">
        <ele>133.003199</ele>
        <time>2026-05-04T23:26:15.967Z</time>
      </trkpt>
      <trkpt lat="43.511744" lon="10.632285">
        <ele>133.869291</ele>
        <time>2026-05-04T23:26:29.324Z</time>
      </trkpt>
      <trkpt lat="43.511329" lon="10.632636">
        <ele>135.315404</ele>
        <time>2026-05-04T23:26:47.297Z</time>
      </trkpt>
      <trkpt lat="43.511257" lon="10.632755">
        <ele>135.649250</ele>
        <time>2026-05-04T23:26:51.245Z</time>
      </trkpt>
      <trkpt lat="43.511223" lon="10.632904">
        <ele>135.985739</ele>
        <time>2026-05-04T23:26:55.183Z</time>
      </trkpt>
      <trkpt lat="43.511240" lon="10.633166">
        <ele>136.552395</ele>
        <time>2026-05-04T23:27:01.930Z</time>
      </trkpt>
      <trkpt lat="43.511320" lon="10.633429">
        <ele>137.166766</ele>
        <time>2026-05-04T23:27:08.574Z</time>
      </trkpt>
      <trkpt lat="43.511630" lon="10.633981">
        <ele>138.223350</ele>
        <time>2026-05-04T23:27:21.681Z</time>
      </trkpt>
      <trkpt lat="43.511728" lon="10.634246">
        <ele>138.215267</ele>
        <time>2026-05-04T23:27:26.135Z</time>
      </trkpt>
      <trkpt lat="43.511748" lon="10.634490">
        <ele>138.208595</ele>
        <time>2026-05-04T23:27:29.658Z</time>
      </trkpt>
      <trkpt lat="43.511716" lon="10.634627">
        <ele>138.204684</ele>
        <time>2026-05-04T23:27:31.674Z</time>
      </trkpt>
      <trkpt lat="43.511650" lon="10.634761">
        <ele>138.200283</ele>
        <time>2026-05-04T23:27:33.952Z</time>
      </trkpt>
      <trkpt lat="43.511440" lon="10.634956">
        <ele>138.190797</ele>
        <time>2026-05-04T23:27:38.625Z</time>
      </trkpt>
      <trkpt lat="43.510861" lon="10.635266">
        <ele>138.167526</ele>
        <time>2026-05-04T23:27:49.467Z</time>
      </trkpt>
      <trkpt lat="43.510646" lon="10.635280">
        <ele>138.148750</ele>
        <time>2026-05-04T23:27:53.176Z</time>
      </trkpt>
      <trkpt lat="43.510254" lon="10.635158">
        <ele>138.055850</ele>
        <time>2026-05-04T23:28:00.027Z</time>
      </trkpt>
      <trkpt lat="43.509928" lon="10.634980">
        <ele>137.974794</ele>
        <time>2026-05-04T23:28:05.914Z</time>
      </trkpt>
      <trkpt lat="43.509587" lon="10.634727">
        <ele>137.885276</ele>
        <time>2026-05-04T23:28:12.395Z</time>
      </trkpt>
      <trkpt lat="43.508793" lon="10.633931">
        <ele>137.963319</ele>
        <time>2026-05-04T23:28:37.285Z</time>
      </trkpt>
      <trkpt lat="43.508384" lon="10.633207">
        <ele>138.346364</ele>
        <time>2026-05-04T23:28:51.932Z</time>
      </trkpt>
      <trkpt lat="43.508278" lon="10.633142">
        <ele>138.413128</ele>
        <time>2026-05-04T23:28:54.546Z</time>
      </trkpt>
      <trkpt lat="43.508181" lon="10.633143">
        <ele>138.468953</ele>
        <time>2026-05-04T23:28:56.685Z</time>
      </trkpt>
      <trkpt lat="43.508069" lon="10.633215">
        <ele>138.540070</ele>
        <time>2026-05-04T23:28:59.331Z</time>
      </trkpt>
      <trkpt lat="43.507854" lon="10.633386">
        <ele>138.682913</ele>
        <time>2026-05-04T23:29:04.827Z</time>
      </trkpt>
      <trkpt lat="43.507769" lon="10.633384">
        <ele>138.731838</ele>
        <time>2026-05-04T23:29:06.687Z</time>
      </trkpt>
      <trkpt lat="43.507691" lon="10.633345">
        <ele>138.779587</ele>
        <time>2026-05-04T23:29:08.248Z</time>
      </trkpt>
      <trkpt lat="43.507636" lon="10.633245">
        <ele>138.891837</ele>
        <time>2026-05-04T23:29:10.086Z</time>
      </trkpt>
      <trkpt lat="43.507529" lon="10.632889">
        <ele>139.241056</ele>
        <time>2026-05-04T23:29:15.148Z</time>
      </trkpt>
      <trkpt lat="43.507413" lon="10.632663">
        <ele>139.491959</ele>
        <time>2026-05-04T23:29:18.521Z</time>
      </trkpt>
      <trkpt lat="43.507280" lon="10.632505">
        <ele>139.711316</ele>
        <time>2026-05-04T23:29:21.524Z</time>
      </trkpt>
      <trkpt lat="43.507044" lon="10.632342">
        <ele>140.041120</ele>
        <time>2026-05-04T23:29:27.759Z</time>
      </trkpt>
      <trkpt lat="43.506789" lon="10.632249">
        <ele>140.370693</ele>
        <time>2026-05-04T23:29:35.004Z</time>
      </trkpt>
      <trkpt lat="43.506291" lon="10.632139">
        <ele>141.000864</ele>
        <time>2026-05-04T23:29:51.077Z</time>
      </trkpt>
      <trkpt lat="43.506017" lon="10.632126">
        <ele>142.119728</ele>
        <time>2026-05-04T23:30:02.121Z</time>
      </trkpt>
      <trkpt lat="43.505792" lon="10.632169">
        <ele>143.102527</ele>
        <time>2026-05-04T23:30:11.742Z</time>
      </trkpt>
      <trkpt lat="43.505599" lon="10.632278">
        <ele>144.004909</ele>
        <time>2026-05-04T23:30:20.623Z</time>
      </trkpt>
      <trkpt lat="43.505212" lon="10.632500">
        <ele>145.818462</ele>
        <time>2026-05-04T23:30:38.292Z</time>
      </trkpt>
      <trkpt lat="43.505155" lon="10.632535">
        <ele>146.088433</ele>
        <time>2026-05-04T23:30:40.951Z</time>
      </trkpt>
      <trkpt lat="43.505110" lon="10.632614">
        <ele>146.403661</ele>
        <time>2026-05-04T23:30:43.977Z</time>
      </trkpt>
      <trkpt lat="43.505075" lon="10.632804">
        <ele>147.018841</ele>
        <time>2026-05-04T23:30:49.907Z</time>
      </trkpt>
      <trkpt lat="43.505175" lon="10.633567">
        <ele>149.360359</ele>
        <time>2026-05-04T23:31:14.657Z</time>
      </trkpt>
      <trkpt lat="43.505177" lon="10.633871">
        <ele>150.178120</ele>
        <time>2026-05-04T23:31:24.212Z</time>
      </trkpt>
      <trkpt lat="43.505131" lon="10.634148">
        <ele>150.942500</ele>
        <time>2026-05-04T23:31:32.471Z</time>
      </trkpt>
      <trkpt lat="43.505117" lon="10.634452">
        <ele>151.761874</ele>
        <time>2026-05-04T23:31:40.520Z</time>
      </trkpt>
      <trkpt lat="43.505246" lon="10.634958">
        <ele>153.204588</ele>
        <time>2026-05-04T23:31:54.243Z</time>
      </trkpt>
      <trkpt lat="43.505273" lon="10.635187">
        <ele>153.828658</ele>
        <time>2026-05-04T23:32:00.140Z</time>
      </trkpt>
      <trkpt lat="43.505260" lon="10.635335">
        <ele>154.229670</ele>
        <time>2026-05-04T23:32:03.925Z</time>
      </trkpt>
      <trkpt lat="43.505177" lon="10.635659">
        <ele>155.153955</ele>
        <time>2026-05-04T23:32:12.729Z</time>
      </trkpt>
      <trkpt lat="43.505175" lon="10.635873">
        <ele>155.764502</ele>
        <time>2026-05-04T23:32:18.058Z</time>
      </trkpt>
      <trkpt lat="43.505204" lon="10.635969">
        <ele>156.083408</ele>
        <time>2026-05-04T23:32:20.660Z</time>
      </trkpt>
      <trkpt lat="43.505429" lon="10.636388">
        <ele>157.682139</ele>
        <time>2026-05-04T23:32:33.744Z</time>
      </trkpt>
      <trkpt lat="43.505454" lon="10.636486">
        <ele>158.000712</ele>
        <time>2026-05-04T23:32:36.384Z</time>
      </trkpt>
      <trkpt lat="43.505448" lon="10.636667">
        <ele>158.556344</ele>
        <time>2026-05-04T23:32:41.007Z</time>
      </trkpt>
      <trkpt lat="43.505417" lon="10.636759">
        <ele>158.867429</ele>
        <time>2026-05-04T23:32:43.635Z</time>
      </trkpt>
      <trkpt lat="43.505311" lon="10.636862">
        <ele>159.415717</ele>
        <time>2026-05-04T23:32:48.353Z</time>
      </trkpt>
      <trkpt lat="43.505182" lon="10.636860">
        <ele>159.961160</ele>
        <time>2026-05-04T23:32:53.316Z</time>
      </trkpt>
      <trkpt lat="43.505131" lon="10.636811">
        <ele>160.223980</ele>
        <time>2026-05-04T23:32:55.789Z</time>
      </trkpt>
      <trkpt lat="43.505094" lon="10.636739">
        <ele>160.494577</ele>
        <time>2026-05-04T23:32:58.414Z</time>
      </trkpt>
      <trkpt lat="43.505014" lon="10.636378">
        <ele>161.652142</ele>
        <time>2026-05-04T23:33:10.486Z</time>
      </trkpt>
      <trkpt lat="43.504943" lon="10.636201">
        <ele>162.272411</ele>
        <time>2026-05-04T23:33:17.330Z</time>
      </trkpt>
      <trkpt lat="43.504693" lon="10.635811">
        <ele>164.361484</ele>
        <time>2026-05-04T23:33:35.953Z</time>
      </trkpt>
      <trkpt lat="43.504263" lon="10.635309">
        <ele>168.243132</ele>
        <time>2026-05-04T23:34:06.042Z</time>
      </trkpt>
      <trkpt lat="43.504161" lon="10.635253">
        <ele>168.999482</ele>
        <time>2026-05-04T23:34:12.349Z</time>
      </trkpt>
      <trkpt lat="43.504090" lon="10.635263">
        <ele>169.491151</ele>
        <time>2026-05-04T23:34:16.527Z</time>
      </trkpt>
      <trkpt lat="43.503997" lon="10.635332">
        <ele>170.218714</ele>
        <time>2026-05-04T23:34:22.639Z</time>
      </trkpt>
      <trkpt lat="43.503957" lon="10.635409">
        <ele>170.691970</ele>
        <time>2026-05-04T23:34:26.589Z</time>
      </trkpt>
      <trkpt lat="43.503832" lon="10.635914">
        <ele>173.358257</ele>
        <time>2026-05-04T23:34:48.726Z</time>
      </trkpt>
      <trkpt lat="43.503778" lon="10.636034">
        <ele>174.063902</ele>
        <time>2026-05-04T23:34:54.373Z</time>
      </trkpt>
      <trkpt lat="43.503736" lon="10.636126">
        <ele>174.607088</ele>
        <time>2026-05-04T23:34:58.655Z</time>
      </trkpt>
      <trkpt lat="43.503435" lon="10.636376">
        <ele>176.516738</ele>
        <time>2026-05-04T23:35:17.507Z</time>
      </trkpt>
      <trkpt lat="43.503234" lon="10.636516">
        <ele>177.557024</ele>
        <time>2026-05-04T23:35:29.585Z</time>
      </trkpt>
      <trkpt lat="43.503234" lon="10.636516">
        <ele>177.557024</ele>
        <time>2026-05-04T23:35:29.593Z</time>
      </trkpt>
      <trkpt lat="43.502597" lon="10.636905">
        <ele>180.775393</ele>
        <time>2026-05-04T23:35:59.439Z</time>
      </trkpt>
      <trkpt lat="43.502110" lon="10.637492">
        <ele>183.763657</ele>
        <time>2026-05-04T23:36:27.113Z</time>
      </trkpt>
      <trkpt lat="43.502050" lon="10.637566">
        <ele>183.308774</ele>
        <time>2026-05-04T23:36:28.421Z</time>
      </trkpt>
      <trkpt lat="43.501780" lon="10.637862">
        <ele>181.142730</ele>
        <time>2026-05-04T23:36:33.907Z</time>
      </trkpt>
      <trkpt lat="43.501671" lon="10.638032">
        <ele>180.109318</ele>
        <time>2026-05-04T23:36:36.253Z</time>
      </trkpt>
      <trkpt lat="43.501807" lon="10.638104">
        <ele>179.194560</ele>
        <time>2026-05-04T23:36:39.796Z</time>
      </trkpt>
      <trkpt lat="43.501868" lon="10.638178">
        <ele>178.684361</ele>
        <time>2026-05-04T23:36:41.674Z</time>
      </trkpt>
      <trkpt lat="43.502091" lon="10.638602">
        <ele>176.299002</ele>
        <time>2026-05-04T23:36:50.252Z</time>
      </trkpt>
      <trkpt lat="43.502154" lon="10.638791">
        <ele>175.351649</ele>
        <time>2026-05-04T23:36:53.550Z</time>
      </trkpt>
      <trkpt lat="43.502143" lon="10.639042">
        <ele>174.206375</ele>
        <time>2026-05-04T23:36:57.432Z</time>
      </trkpt>
      <trkpt lat="43.501951" lon="10.639862">
        <ele>167.762536</ele>
        <time>2026-05-04T23:37:10.337Z</time>
      </trkpt>
      <trkpt lat="43.501959" lon="10.640173">
        <ele>164.728959</ele>
        <time>2026-05-04T23:37:14.963Z</time>
      </trkpt>
      <trkpt lat="43.502340" lon="10.640860">
        <ele>156.298835</ele>
        <time>2026-05-04T23:37:27.729Z</time>
      </trkpt>
      <trkpt lat="43.502558" lon="10.641118">
        <ele>152.437664</ele>
        <time>2026-05-04T23:37:33.561Z</time>
      </trkpt>
      <trkpt lat="43.502581" lon="10.641429">
        <ele>149.390307</ele>
        <time>2026-05-04T23:37:38.180Z</time>
      </trkpt>
      <trkpt lat="43.502511" lon="10.641826">
        <ele>146.200056</ele>
        <time>2026-05-04T23:37:44.264Z</time>
      </trkpt>
      <trkpt lat="43.502542" lon="10.642255">
        <ele>143.141359</ele>
        <time>2026-05-04T23:37:50.774Z</time>
      </trkpt>
      <trkpt lat="43.502714" lon="10.643016">
        <ele>137.486250</ele>
        <time>2026-05-04T23:38:03.118Z</time>
      </trkpt>
      <trkpt lat="43.503072" lon="10.643928">
        <ele>130.454896</ele>
        <time>2026-05-04T23:38:20.113Z</time>
      </trkpt>
      <trkpt lat="43.503094" lon="10.644124">
        <ele>129.815657</ele>
        <time>2026-05-04T23:38:23.512Z</time>
      </trkpt>
      <trkpt lat="43.503227" lon="10.645366">
        <ele>125.769230</ele>
        <time>2026-05-04T23:38:46.224Z</time>
      </trkpt>
      <trkpt lat="43.503290" lon="10.645624">
        <ele>124.891826</ele>
        <time>2026-05-04T23:38:51.359Z</time>
      </trkpt>
      <trkpt lat="43.503912" lon="10.646203">
        <ele>121.484374</ele>
        <time>2026-05-04T23:39:10.338Z</time>
      </trkpt>
      <trkpt lat="43.504177" lon="10.647051">
        <ele>118.324885</ele>
        <time>2026-05-04T23:39:26.585Z</time>
      </trkpt>
      <trkpt lat="43.504901" lon="10.648659">
        <ele>112.414288</ele>
        <time>2026-05-04T23:39:59.433Z</time>
      </trkpt>
      <trkpt lat="43.505049" lon="10.650172">
        <ele>108.421253</ele>
        <time>2026-05-04T23:40:27.771Z</time>
      </trkpt>
      <trkpt lat="43.505757" lon="10.651824">
        <ele>105.571573</ele>
        <time>2026-05-04T23:41:06.842Z</time>
      </trkpt>
      <trkpt lat="43.506185" lon="10.652736">
        <ele>104.030169</ele>
        <time>2026-05-04T23:41:28.865Z</time>
      </trkpt>
      <trkpt lat="43.506870" lon="10.653830">
        <ele>101.529920</ele>
        <time>2026-05-04T23:41:57.378Z</time>
      </trkpt>
      <trkpt lat="43.506922" lon="10.653879">
        <ele>101.379692</ele>
        <time>2026-05-04T23:41:59.065Z</time>
      </trkpt>
      <trkpt lat="43.507516" lon="10.654431">
        <ele>98.817164</ele>
        <time>2026-05-04T23:42:17.894Z</time>
      </trkpt>
      <trkpt lat="43.508302" lon="10.654721">
        <ele>93.819139</ele>
        <time>2026-05-04T23:42:37.533Z</time>
      </trkpt>
      <trkpt lat="43.508800" lon="10.655437">
        <ele>89.399521</ele>
        <time>2026-05-04T23:42:53.482Z</time>
      </trkpt>
      <trkpt lat="43.508960" lon="10.655710">
        <ele>87.583746</ele>
        <time>2026-05-04T23:42:58.952Z</time>
      </trkpt>
      <trkpt lat="43.509013" lon="10.655847">
        <ele>86.760791</ele>
        <time>2026-05-04T23:43:01.377Z</time>
      </trkpt>
      <trkpt lat="43.509157" lon="10.656463">
        <ele>83.330527</ele>
        <time>2026-05-04T23:43:11.508Z</time>
      </trkpt>
      <trkpt lat="43.509227" lon="10.656552">
        <ele>82.634691</ele>
        <time>2026-05-04T23:43:13.607Z</time>
      </trkpt>
      <trkpt lat="43.509679" lon="10.656776">
        <ele>79.124683</ele>
        <time>2026-05-04T23:43:24.437Z</time>
      </trkpt>
      <trkpt lat="43.509751" lon="10.656852">
        <ele>78.462039</ele>
        <time>2026-05-04T23:43:26.562Z</time>
      </trkpt>
      <trkpt lat="43.510165" lon="10.656723">
        <ele>75.948194</ele>
        <time>2026-05-04T23:43:32.325Z</time>
      </trkpt>
      <trkpt lat="43.510260" lon="10.656671">
        <ele>75.866310</ele>
        <time>2026-05-04T23:43:33.800Z</time>
      </trkpt>
      <trkpt lat="43.510395" lon="10.656598">
        <ele>75.750138</ele>
        <time>2026-05-04T23:43:35.988Z</time>
      </trkpt>
      <trkpt lat="43.510643" lon="10.656384">
        <ele>75.515760</ele>
        <time>2026-05-04T23:43:40.792Z</time>
      </trkpt>
      <trkpt lat="43.511146" lon="10.655873">
        <ele>75.015231</ele>
        <time>2026-05-04T23:43:53.930Z</time>
      </trkpt>
      <trkpt lat="43.511192" lon="10.655823">
        <ele>74.968305</ele>
        <time>2026-05-04T23:43:55.264Z</time>
      </trkpt>
      <trkpt lat="43.512474" lon="10.654439">
        <ele>74.727369</ele>
        <time>2026-05-04T23:44:33.621Z</time>
      </trkpt>
      <trkpt lat="43.512824" lon="10.654714">
        <ele>74.779434</ele>
        <time>2026-05-04T23:44:41.005Z</time>
      </trkpt>
      <trkpt lat="43.514054" lon="10.655527">
        <ele>72.754572</ele>
        <time>2026-05-04T23:45:02.624Z</time>
      </trkpt>
      <trkpt lat="43.514351" lon="10.655771">
        <ele>72.114449</ele>
        <time>2026-05-04T23:45:07.861Z</time>
      </trkpt>
      <trkpt lat="43.514557" lon="10.656007">
        <ele>71.618560</ele>
        <time>2026-05-04T23:45:11.858Z</time>
      </trkpt>
      <trkpt lat="43.514758" lon="10.656306">
        <ele>71.242567</ele>
        <time>2026-05-04T23:45:16.263Z</time>
      </trkpt>
      <trkpt lat="43.514902" lon="10.656585">
        <ele>70.974724</ele>
        <time>2026-05-04T23:45:20.044Z</time>
      </trkpt>
      <trkpt lat="43.515226" lon="10.657432">
        <ele>70.225737</ele>
        <time>2026-05-04T23:45:31.243Z</time>
      </trkpt>
      <trkpt lat="43.515276" lon="10.657569">
        <ele>70.105779</ele>
        <time>2026-05-04T23:45:33.215Z</time>
      </trkpt>
      <trkpt lat="43.515593" lon="10.658468">
        <ele>69.616654</ele>
        <time>2026-05-04T23:45:48.242Z</time>
      </trkpt>
      <trkpt lat="43.515742" lon="10.658786">
        <ele>69.718231</ele>
        <time>2026-05-04T23:45:54.890Z</time>
      </trkpt>
      <trkpt lat="43.515828" lon="10.658910">
        <ele>69.764265</ele>
        <time>2026-05-04T23:45:57.939Z</time>
      </trkpt>
      <trkpt lat="43.515960" lon="10.659027">
        <ele>69.822319</ele>
        <time>2026-05-04T23:46:01.677Z</time>
      </trkpt>
      <trkpt lat="43.516305" lon="10.659190">
        <ele>69.957241</ele>
        <time>2026-05-04T23:46:09.877Z</time>
      </trkpt>
      <trkpt lat="43.516485" lon="10.659190">
        <ele>70.023835</ele>
        <time>2026-05-04T23:46:13.662Z</time>
      </trkpt>
      <trkpt lat="43.516738" lon="10.659119">
        <ele>70.119356</ele>
        <time>2026-05-04T23:46:18.808Z</time>
      </trkpt>
      <trkpt lat="43.516974" lon="10.658988">
        <ele>70.196156</ele>
        <time>2026-05-04T23:46:23.596Z</time>
      </trkpt>
      <trkpt lat="43.517400" lon="10.658672">
        <ele>69.871252</ele>
        <time>2026-05-04T23:46:32.206Z</time>
      </trkpt>
      <trkpt lat="43.517546" lon="10.658523">
        <ele>69.749254</ele>
        <time>2026-05-04T23:46:35.447Z</time>
      </trkpt>
      <trkpt lat="43.517809" lon="10.658167">
        <ele>69.501721</ele>
        <time>2026-05-04T23:46:42.035Z</time>
      </trkpt>
      <trkpt lat="43.518165" lon="10.657532">
        <ele>69.110778</ele>
        <time>2026-05-04T23:46:51.885Z</time>
      </trkpt>
      <trkpt lat="43.518329" lon="10.657204">
        <ele>68.898121</ele>
        <time>2026-05-04T23:46:56.700Z</time>
      </trkpt>
      <trkpt lat="43.518265" lon="10.657113">
        <ele>68.822453</ele>
        <time>2026-05-04T23:46:58.297Z</time>
      </trkpt>
      <trkpt lat="43.518280" lon="10.656929">
        <ele>68.711932</ele>
        <time>2026-05-04T23:47:00.676Z</time>
      </trkpt>
      <trkpt lat="43.518485" lon="10.656341">
        <ele>68.322498</ele>
        <time>2026-05-04T23:47:09.060Z</time>
      </trkpt>
      <trkpt lat="43.518606" lon="10.656119">
        <ele>68.156729</ele>
        <time>2026-05-04T23:47:12.679Z</time>
      </trkpt>
      <trkpt lat="43.519464" lon="10.655573">
        <ele>67.596277</ele>
        <time>2026-05-04T23:47:30.070Z</time>
      </trkpt>
      <trkpt lat="43.519914" lon="10.655139">
        <ele>67.847146</ele>
        <time>2026-05-04T23:47:42.621Z</time>
      </trkpt>
      <trkpt lat="43.520255" lon="10.654783">
        <ele>68.042537</ele>
        <time>2026-05-04T23:47:53.025Z</time>
      </trkpt>
      <trkpt lat="43.520917" lon="10.654090">
        <ele>68.318553</ele>
        <time>2026-05-04T23:48:13.432Z</time>
      </trkpt>
      <trkpt lat="43.521113" lon="10.653827">
        <ele>68.285190</ele>
        <time>2026-05-04T23:48:19.734Z</time>
      </trkpt>
      <trkpt lat="43.521327" lon="10.653457">
        <ele>68.243322</ele>
        <time>2026-05-04T23:48:27.052Z</time>
      </trkpt>
      <trkpt lat="43.521598" lon="10.652839">
        <ele>68.179433</ele>
        <time>2026-05-04T23:48:37.255Z</time>
      </trkpt>
      <trkpt lat="43.522272" lon="10.650678">
        <ele>66.460542</ele>
        <time>2026-05-04T23:49:07.472Z</time>
      </trkpt>
      <trkpt lat="43.522397" lon="10.650395">
        <ele>66.135278</ele>
        <time>2026-05-04T23:49:11.516Z</time>
      </trkpt>
      <trkpt lat="43.522589" lon="10.650102">
        <ele>65.747637</ele>
        <time>2026-05-04T23:49:16.307Z</time>
      </trkpt>
      <trkpt lat="43.522958" lon="10.649735">
        <ele>64.931480</ele>
        <time>2026-05-04T23:49:23.792Z</time>
      </trkpt>
      <trkpt lat="43.523131" lon="10.649649">
        <ele>64.592602</ele>
        <time>2026-05-04T23:49:26.767Z</time>
      </trkpt>
      <trkpt lat="43.523312" lon="10.649631">
        <ele>64.258193</ele>
        <time>2026-05-04T23:49:29.717Z</time>
      </trkpt>
      <trkpt lat="43.523646" lon="10.649585">
        <ele>63.639644</ele>
        <time>2026-05-04T23:49:35.159Z</time>
      </trkpt>
      <trkpt lat="43.523916" lon="10.649447">
        <ele>63.109026</ele>
        <time>2026-05-04T23:49:39.839Z</time>
      </trkpt>
      <trkpt lat="43.524231" lon="10.649147">
        <ele>62.403595</ele>
        <time>2026-05-04T23:49:46.318Z</time>
      </trkpt>
      <trkpt lat="43.524417" lon="10.648893">
        <ele>62.468227</ele>
        <time>2026-05-04T23:49:50.990Z</time>
      </trkpt>
      <trkpt lat="43.524474" lon="10.648774">
        <ele>62.509079</ele>
        <time>2026-05-04T23:49:52.898Z</time>
      </trkpt>
      <trkpt lat="43.524572" lon="10.648429">
        <ele>62.615212</ele>
        <time>2026-05-04T23:49:58.104Z</time>
      </trkpt>
      <trkpt lat="43.524640" lon="10.648273">
        <ele>62.667349</ele>
        <time>2026-05-04T23:50:00.890Z</time>
      </trkpt>
      <trkpt lat="43.524829" lon="10.648070">
        <ele>62.761982</ele>
        <time>2026-05-04T23:50:06.072Z</time>
      </trkpt>
      <trkpt lat="43.524981" lon="10.648005">
        <ele>62.824848</ele>
        <time>2026-05-04T23:50:09.146Z</time>
      </trkpt>
      <trkpt lat="43.525116" lon="10.648006">
        <ele>62.878179</ele>
        <time>2026-05-04T23:50:12.117Z</time>
      </trkpt>
      <trkpt lat="43.525244" lon="10.648056">
        <ele>62.930733</ele>
        <time>2026-05-04T23:50:15.484Z</time>
      </trkpt>
      <trkpt lat="43.525563" lon="10.648274">
        <ele>63.071373</ele>
        <time>2026-05-04T23:50:26.288Z</time>
      </trkpt>
      <trkpt lat="43.525685" lon="10.648307">
        <ele>63.294424</ele>
        <time>2026-05-04T23:50:30.643Z</time>
      </trkpt>
      <trkpt lat="43.525796" lon="10.648288">
        <ele>63.539371</ele>
        <time>2026-05-04T23:50:34.786Z</time>
      </trkpt>
      <trkpt lat="43.525977" lon="10.648180">
        <ele>63.971255</ele>
        <time>2026-05-04T23:50:41.852Z</time>
      </trkpt>
      <trkpt lat="43.525998" lon="10.648313">
        <ele>64.187387</ele>
        <time>2026-05-04T23:50:46.678Z</time>
      </trkpt>
      <trkpt lat="43.526128" lon="10.649105">
        <ele>65.476775</ele>
        <time>2026-05-04T23:51:12.959Z</time>
      </trkpt>
      <trkpt lat="43.526103" lon="10.649213">
        <ele>65.656788</ele>
        <time>2026-05-04T23:51:16.175Z</time>
      </trkpt>
      <trkpt lat="43.526060" lon="10.649266">
        <ele>65.783080</ele>
        <time>2026-05-04T23:51:18.525Z</time>
      </trkpt>
      <trkpt lat="43.525952" lon="10.649257">
        <ele>66.020024</ele>
        <time>2026-05-04T23:51:22.638Z</time>
      </trkpt>
      <trkpt lat="43.525609" lon="10.648952">
        <ele>66.913759</ele>
        <time>2026-05-04T23:51:39.797Z</time>
      </trkpt>
      <trkpt lat="43.525198" lon="10.648485">
        <ele>68.361224</ele>
        <time>2026-05-04T23:52:00.585Z</time>
      </trkpt>
      <trkpt lat="43.525092" lon="10.648476">
        <ele>68.655581</ele>
        <time>2026-05-04T23:52:04.508Z</time>
      </trkpt>
      <trkpt lat="43.525011" lon="10.648513">
        <ele>68.892083</ele>
        <time>2026-05-04T23:52:07.668Z</time>
      </trkpt>
      <trkpt lat="43.524925" lon="10.648639">
        <ele>69.239847</ele>
        <time>2026-05-04T23:52:12.451Z</time>
      </trkpt>
      <trkpt lat="43.524913" lon="10.648810">
        <ele>69.585111</ele>
        <time>2026-05-04T23:52:17.424Z</time>
      </trkpt>
      <trkpt lat="43.524942" lon="10.648946">
        <ele>69.870003</ele>
        <time>2026-05-04T23:52:21.706Z</time>
      </trkpt>
      <trkpt lat="43.525300" lon="10.649897">
        <ele>72.038314</ele>
        <time>2026-05-04T23:53:01.118Z</time>
      </trkpt>
      <trkpt lat="43.525372" lon="10.650060">
        <ele>72.756710</ele>
        <time>2026-05-04T23:53:09.491Z</time>
      </trkpt>
      <trkpt lat="43.525460" lon="10.650176">
        <ele>73.388618</ele>
        <time>2026-05-04T23:53:17.021Z</time>
      </trkpt>
      <trkpt lat="43.525837" lon="10.650332">
        <ele>75.431835</ele>
        <time>2026-05-04T23:53:41.652Z</time>
      </trkpt>
      <trkpt lat="43.525968" lon="10.650455">
        <ele>76.254493</ele>
        <time>2026-05-04T23:53:51.422Z</time>
      </trkpt>
      <trkpt lat="43.526067" lon="10.650598">
        <ele>76.998671</ele>
        <time>2026-05-04T23:54:00.141Z</time>
      </trkpt>
      <trkpt lat="43.526177" lon="10.650940">
        <ele>78.406871</ele>
        <time>2026-05-04T23:54:16.210Z</time>
      </trkpt>
      <trkpt lat="43.526466" lon="10.651330">
        <ele>80.505766</ele>
        <time>2026-05-04T23:54:38.764Z</time>
      </trkpt>
      <trkpt lat="43.526552" lon="10.651497">
        <ele>81.276730</ele>
        <time>2026-05-04T23:54:46.724Z</time>
      </trkpt>
      <trkpt lat="43.526644" lon="10.651804">
        <ele>82.679480</ele>
        <time>2026-05-04T23:54:59.705Z</time>
      </trkpt>
      <trkpt lat="43.526706" lon="10.652293">
        <ele>84.788551</ele>
        <time>2026-05-04T23:55:19.425Z</time>
      </trkpt>
      <trkpt lat="43.526849" lon="10.652694">
        <ele>86.687132</ele>
        <time>2026-05-04T23:55:38.303Z</time>
      </trkpt>
      <trkpt lat="43.526969" lon="10.652865">
        <ele>87.698188</ele>
        <time>2026-05-04T23:55:48.931Z</time>
      </trkpt>
      <trkpt lat="43.527286" lon="10.653129">
        <ele>89.868060</ele>
        <time>2026-05-04T23:56:12.839Z</time>
      </trkpt>
      <trkpt lat="43.527484" lon="10.653180">
        <ele>91.048328</ele>
        <time>2026-05-04T23:56:26.420Z</time>
      </trkpt>
      <trkpt lat="43.528038" lon="10.653130">
        <ele>95.011391</ele>
        <time>2026-05-04T23:57:05.350Z</time>
      </trkpt>
      <trkpt lat="43.528263" lon="10.653197">
        <ele>96.756037</ele>
        <time>2026-05-04T23:57:21.862Z</time>
      </trkpt>
      <trkpt lat="43.528694" lon="10.653595">
        <ele>100.687298</ele>
        <time>2026-05-04T23:57:58.766Z</time>
      </trkpt>
      <trkpt lat="43.529058" lon="10.654003">
        <ele>104.242330</ele>
        <time>2026-05-04T23:58:31.008Z</time>
      </trkpt>
      <trkpt lat="43.529514" lon="10.654833">
        <ele>109.137852</ele>
        <time>2026-05-04T23:59:23.650Z</time>
      </trkpt>
      <trkpt lat="43.529579" lon="10.655011">
        <ele>110.029488</ele>
        <time>2026-05-04T23:59:33.949Z</time>
      </trkpt>
      <trkpt lat="43.529595" lon="10.655408">
        <ele>111.808317</ele>
        <time>2026-05-04T23:59:54.180Z</time>
      </trkpt>
      <trkpt lat="43.529641" lon="10.655785">
        <ele>113.518645</ele>
        <time>2026-05-05T00:00:12.601Z</time>
      </trkpt>
      <trkpt lat="43.529874" lon="10.656389">
        <ele>116.579480</ele>
        <time>2026-05-05T00:00:39.919Z</time>
      </trkpt>
      <trkpt lat="43.529916" lon="10.656937">
        <ele>115.236275</ele>
        <time>2026-05-05T00:00:56.745Z</time>
      </trkpt>
      <trkpt lat="43.529958" lon="10.657184">
        <ele>114.593051</ele>
        <time>2026-05-05T00:01:02.584Z</time>
      </trkpt>
      <trkpt lat="43.529602" lon="10.657035">
        <ele>113.292078</ele>
        <time>2026-05-05T00:01:12.548Z</time>
      </trkpt>
      <trkpt lat="43.529228" lon="10.656680">
        <ele>111.704435</ele>
        <time>2026-05-05T00:01:23.231Z</time>
      </trkpt>
      <trkpt lat="43.529028" lon="10.656619">
        <ele>110.988147</ele>
        <time>2026-05-05T00:01:27.780Z</time>
      </trkpt>
      <trkpt lat="43.528173" lon="10.657409">
        <ele>99.775802</ele>
        <time>2026-05-05T00:01:49.422Z</time>
      </trkpt>
      <trkpt lat="43.527990" lon="10.657611">
        <ele>96.829752</ele>
        <time>2026-05-05T00:01:54.178Z</time>
      </trkpt>
      <trkpt lat="43.527868" lon="10.657947">
        <ele>93.405275</ele>
        <time>2026-05-05T00:01:59.683Z</time>
      </trkpt>
      <trkpt lat="43.527679" lon="10.658253">
        <ele>89.742022</ele>
        <time>2026-05-05T00:02:05.591Z</time>
      </trkpt>
      <trkpt lat="43.527471" lon="10.658485">
        <ele>86.986271</ele>
        <time>2026-05-05T00:02:11.023Z</time>
      </trkpt>
      <trkpt lat="43.527178" lon="10.658653">
        <ele>84.806950</ele>
        <time>2026-05-05T00:02:17.568Z</time>
      </trkpt>
      <trkpt lat="43.527092" lon="10.658796">
        <ele>83.881771</ele>
        <time>2026-05-05T00:02:20.385Z</time>
      </trkpt>
      <trkpt lat="43.527110" lon="10.658984">
        <ele>82.937460</ele>
        <time>2026-05-05T00:02:23.294Z</time>
      </trkpt>
      <trkpt lat="43.527288" lon="10.659369">
        <ele>80.663664</ele>
        <time>2026-05-05T00:02:30.574Z</time>
      </trkpt>
      <trkpt lat="43.527263" lon="10.659467">
        <ele>80.146330</ele>
        <time>2026-05-05T00:02:32.317Z</time>
      </trkpt>
      <trkpt lat="43.526805" lon="10.659813">
        <ele>76.559775</ele>
        <time>2026-05-05T00:02:45.756Z</time>
      </trkpt>
      <trkpt lat="43.526691" lon="10.659838">
        <ele>75.766977</ele>
        <time>2026-05-05T00:02:49.996Z</time>
      </trkpt>
      <trkpt lat="43.526490" lon="10.659704">
        <ele>76.806298</ele>
        <time>2026-05-05T00:03:00.467Z</time>
      </trkpt>
      <trkpt lat="43.526258" lon="10.659645">
        <ele>78.874711</ele>
        <time>2026-05-05T00:03:14.569Z</time>
      </trkpt>
      <trkpt lat="43.525939" lon="10.659739">
        <ele>81.734755</ele>
        <time>2026-05-05T00:03:38.431Z</time>
      </trkpt>
      <trkpt lat="43.524805" lon="10.660163">
        <ele>92.062560</ele>
        <time>2026-05-05T00:05:29.619Z</time>
      </trkpt>
      <trkpt lat="43.523355" lon="10.660795">
        <ele>105.783505</ele>
        <time>2026-05-05T00:07:33.017Z</time>
      </trkpt>
      <trkpt lat="43.523287" lon="10.660909">
        <ele>106.749278</ele>
        <time>2026-05-05T00:07:38.644Z</time>
      </trkpt>
      <trkpt lat="43.523343" lon="10.661901">
        <ele>108.848720</ele>
        <time>2026-05-05T00:08:12.462Z</time>
      </trkpt>
      <trkpt lat="43.523425" lon="10.662294">
        <ele>109.523025</ele>
        <time>2026-05-05T00:08:23.775Z</time>
      </trkpt>
      <trkpt lat="43.523655" lon="10.663145">
        <ele>111.020523</ele>
        <time>2026-05-05T00:08:46.722Z</time>
      </trkpt>
      <trkpt lat="43.523695" lon="10.663403">
        <ele>111.455059</ele>
        <time>2026-05-05T00:08:53.549Z</time>
      </trkpt>
      <trkpt lat="43.523627" lon="10.663624">
        <ele>111.779881</ele>
        <time>2026-05-05T00:09:00.166Z</time>
      </trkpt>
      <trkpt lat="43.523555" lon="10.663754">
        <ele>112.001213</ele>
        <time>2026-05-05T00:09:04.659Z</time>
      </trkpt>
      <trkpt lat="43.523495" lon="10.663994">
        <ele>112.344693</ele>
        <time>2026-05-05T00:09:11.658Z</time>
      </trkpt>
      <trkpt lat="43.523373" lon="10.664316">
        <ele>112.836253</ele>
        <time>2026-05-05T00:09:21.202Z</time>
      </trkpt>
      <trkpt lat="43.523360" lon="10.664492">
        <ele>113.075615</ele>
        <time>2026-05-05T00:09:25.842Z</time>
      </trkpt>
      <trkpt lat="43.523397" lon="10.664667">
        <ele>113.322252</ele>
        <time>2026-05-05T00:09:30.762Z</time>
      </trkpt>
      <trkpt lat="43.523525" lon="10.664996">
        <ele>113.827422</ele>
        <time>2026-05-05T00:09:41.491Z</time>
      </trkpt>
      <trkpt lat="43.523499" lon="10.665050">
        <ele>113.915125</ele>
        <time>2026-05-05T00:09:43.250Z</time>
      </trkpt>
      <trkpt lat="43.523430" lon="10.665670">
        <ele>114.763813</ele>
        <time>2026-05-05T00:10:04.334Z</time>
      </trkpt>
      <trkpt lat="43.523461" lon="10.666094">
        <ele>116.284085</ele>
        <time>2026-05-05T00:10:21.393Z</time>
      </trkpt>
      <trkpt lat="43.523612" lon="10.666657">
        <ele>118.538757</ele>
        <time>2026-05-05T00:10:45.832Z</time>
      </trkpt>
      <trkpt lat="43.523636" lon="10.666840">
        <ele>119.237262</ele>
        <time>2026-05-05T00:10:53.360Z</time>
      </trkpt>
      <trkpt lat="43.523610" lon="10.666947">
        <ele>119.661123</ele>
        <time>2026-05-05T00:10:58.042Z</time>
      </trkpt>
      <trkpt lat="43.523539" lon="10.667086">
        <ele>120.299748</ele>
        <time>2026-05-05T00:11:05.177Z</time>
      </trkpt>
      <trkpt lat="43.523422" lon="10.667210">
        <ele>121.064104</ele>
        <time>2026-05-05T00:11:13.842Z</time>
      </trkpt>
      <trkpt lat="43.522866" lon="10.667596">
        <ele>124.406026</ele>
        <time>2026-05-05T00:11:52.215Z</time>
      </trkpt>
      <trkpt lat="43.522591" lon="10.667993">
        <ele>127.959923</ele>
        <time>2026-05-05T00:12:18.931Z</time>
      </trkpt>
      <trkpt lat="43.522566" lon="10.668148">
        <ele>128.987750</ele>
        <time>2026-05-05T00:12:26.926Z</time>
      </trkpt>
      <trkpt lat="43.522601" lon="10.668444">
        <ele>130.929049</ele>
        <time>2026-05-05T00:12:42.810Z</time>
      </trkpt>
      <trkpt lat="43.522593" lon="10.668631">
        <ele>132.141594</ele>
        <time>2026-05-05T00:12:53.507Z</time>
      </trkpt>
      <trkpt lat="43.522531" lon="10.668798">
        <ele>133.356028</ele>
        <time>2026-05-05T00:13:04.544Z</time>
      </trkpt>
      <trkpt lat="43.521945" lon="10.669694">
        <ele>141.019072</ele>
        <time>2026-05-05T00:14:20.111Z</time>
      </trkpt>
      <trkpt lat="43.521831" lon="10.669721">
        <ele>141.896970</ele>
        <time>2026-05-05T00:14:30.218Z</time>
      </trkpt>
      <trkpt lat="43.521104" lon="10.669897">
        <ele>147.499088</ele>
        <time>2026-05-05T00:15:28.766Z</time>
      </trkpt>
      <trkpt lat="43.520961" lon="10.669959">
        <ele>148.636795</ele>
        <time>2026-05-05T00:15:39.122Z</time>
      </trkpt>
      <trkpt lat="43.520959" lon="10.670171">
        <ele>149.803635</ele>
        <time>2026-05-05T00:15:47.072Z</time>
      </trkpt>
      <trkpt lat="43.520863" lon="10.670667">
        <ele>152.628939</ele>
        <time>2026-05-05T00:16:03.790Z</time>
      </trkpt>
      <trkpt lat="43.520734" lon="10.671039">
        <ele>153.900717</ele>
        <time>2026-05-05T00:16:15.795Z</time>
      </trkpt>
      <trkpt lat="43.520544" lon="10.671333">
        <ele>154.037013</ele>
        <time>2026-05-05T00:16:24.429Z</time>
      </trkpt>
      <trkpt lat="43.520243" lon="10.671658">
        <ele>154.219470</ele>
        <time>2026-05-05T00:16:32.211Z</time>
      </trkpt>
      <trkpt lat="43.520180" lon="10.671731">
        <ele>154.258744</ele>
        <time>2026-05-05T00:16:33.748Z</time>
      </trkpt>
      <trkpt lat="43.519960" lon="10.671989">
        <ele>154.396579</ele>
        <time>2026-05-05T00:16:38.682Z</time>
      </trkpt>
      <trkpt lat="43.519857" lon="10.672247">
        <ele>154.498510</ele>
        <time>2026-05-05T00:16:42.289Z</time>
      </trkpt>
      <trkpt lat="43.519807" lon="10.672553">
        <ele>154.607070</ele>
        <time>2026-05-05T00:16:46.504Z</time>
      </trkpt>
      <trkpt lat="43.519757" lon="10.673506">
        <ele>152.877405</ele>
        <time>2026-05-05T00:16:57.380Z</time>
      </trkpt>
      <trkpt lat="43.519817" lon="10.673789">
        <ele>152.123128</ele>
        <time>2026-05-05T00:17:00.390Z</time>
      </trkpt>
      <trkpt lat="43.519905" lon="10.673962">
        <ele>151.582531</ele>
        <time>2026-05-05T00:17:02.651Z</time>
      </trkpt>
      <trkpt lat="43.519996" lon="10.674076">
        <ele>151.148810</ele>
        <time>2026-05-05T00:17:04.607Z</time>
      </trkpt>
      <trkpt lat="43.519798" lon="10.674039">
        <ele>150.443909</ele>
        <time>2026-05-05T00:17:09.877Z</time>
      </trkpt>
      <trkpt lat="43.519587" lon="10.673931">
        <ele>149.649909</ele>
        <time>2026-05-05T00:17:15.591Z</time>
      </trkpt>
      <trkpt lat="43.519489" lon="10.673942">
        <ele>149.303034</ele>
        <time>2026-05-05T00:17:17.986Z</time>
      </trkpt>
      <trkpt lat="43.519444" lon="10.674050">
        <ele>148.984386</ele>
        <time>2026-05-05T00:17:20.198Z</time>
      </trkpt>
      <trkpt lat="43.519503" lon="10.674323">
        <ele>148.127065</ele>
        <time>2026-05-05T00:17:24.991Z</time>
      </trkpt>
      <trkpt lat="43.519631" lon="10.674619">
        <ele>146.002674</ele>
        <time>2026-05-05T00:17:30.561Z</time>
      </trkpt>
      <trkpt lat="43.519695" lon="10.674768">
        <ele>144.935181</ele>
        <time>2026-05-05T00:17:33.252Z</time>
      </trkpt>
      <trkpt lat="43.519697" lon="10.674892">
        <ele>144.170640</ele>
        <time>2026-05-05T00:17:35.187Z</time>
      </trkpt>
      <trkpt lat="43.519649" lon="10.675009">
        <ele>143.342012</ele>
        <time>2026-05-05T00:17:37.312Z</time>
      </trkpt>
      <trkpt lat="43.519330" lon="10.675079">
        <ele>140.596194</ele>
        <time>2026-05-05T00:17:44.358Z</time>
      </trkpt>
      <trkpt lat="43.519086" lon="10.675418">
        <ele>137.651914</ele>
        <time>2026-05-05T00:17:51.944Z</time>
      </trkpt>
      <trkpt lat="43.518645" lon="10.675712">
        <ele>133.488056</ele>
        <time>2026-05-05T00:18:02.501Z</time>
      </trkpt>
      <trkpt lat="43.518470" lon="10.675739">
        <ele>132.000421</ele>
        <time>2026-05-05T00:18:06.335Z</time>
      </trkpt>
      <trkpt lat="43.518426" lon="10.675727">
        <ele>131.622460</ele>
        <time>2026-05-05T00:18:07.324Z</time>
      </trkpt>
      <trkpt lat="43.517740" lon="10.675536">
        <ele>125.725014</ele>
        <time>2026-05-05T00:18:22.899Z</time>
      </trkpt>
      <trkpt lat="43.517670" lon="10.675471">
        <ele>125.013870</ele>
        <time>2026-05-05T00:18:24.768Z</time>
      </trkpt>
      <trkpt lat="43.517610" lon="10.675267">
        <ele>123.668632</ele>
        <time>2026-05-05T00:18:28.309Z</time>
      </trkpt>
      <trkpt lat="43.517560" lon="10.674806">
        <ele>120.820210</ele>
        <time>2026-05-05T00:18:35.769Z</time>
      </trkpt>
      <trkpt lat="43.517511" lon="10.674756">
        <ele>120.306544</ele>
        <time>2026-05-05T00:18:37.112Z</time>
      </trkpt>
      <trkpt lat="43.517447" lon="10.674752">
        <ele>119.766674</ele>
        <time>2026-05-05T00:18:38.518Z</time>
      </trkpt>
      <trkpt lat="43.517198" lon="10.675047">
        <ele>117.391326</ele>
        <time>2026-05-05T00:18:45.743Z</time>
      </trkpt>
      <trkpt lat="43.516774" lon="10.675412">
        <ele>115.008939</ele>
        <time>2026-05-05T00:18:56.844Z</time>
      </trkpt>
      <trkpt lat="43.516622" lon="10.675460">
        <ele>114.265701</ele>
        <time>2026-05-05T00:19:00.361Z</time>
      </trkpt>
      <trkpt lat="43.516110" lon="10.675418">
        <ele>111.821019</ele>
        <time>2026-05-05T00:19:12.515Z</time>
      </trkpt>
      <trkpt lat="43.515938" lon="10.675535">
        <ele>110.906889</ele>
        <time>2026-05-05T00:19:17.636Z</time>
      </trkpt>
      <trkpt lat="43.515825" lon="10.675648">
        <ele>110.241576</ele>
        <time>2026-05-05T00:19:21.589Z</time>
      </trkpt>
      <trkpt lat="43.515183" lon="10.676294">
        <ele>111.979066</ele>
        <time>2026-05-05T00:19:54.500Z</time>
      </trkpt>
      <trkpt lat="43.514869" lon="10.676609">
        <ele>113.686674</ele>
        <time>2026-05-05T00:20:17.359Z</time>
      </trkpt>
      <trkpt lat="43.514736" lon="10.676699">
        <ele>114.338189</ele>
        <time>2026-05-05T00:20:26.842Z</time>
      </trkpt>
      <trkpt lat="43.513743" lon="10.676994">
        <ele>119.245539</ele>
        <time>2026-05-05T00:21:34.302Z</time>
      </trkpt>
      <trkpt lat="43.513589" lon="10.676855">
        <ele>120.282252</ele>
        <time>2026-05-05T00:21:46.052Z</time>
      </trkpt>
      <trkpt lat="43.513508" lon="10.676823">
        <ele>120.756842</ele>
        <time>2026-05-05T00:21:51.293Z</time>
      </trkpt>
      <trkpt lat="43.513417" lon="10.676882">
        <ele>121.323234</ele>
        <time>2026-05-05T00:21:57.490Z</time>
      </trkpt>
      <trkpt lat="43.513372" lon="10.677145">
        <ele>122.427027</ele>
        <time>2026-05-05T00:22:09.252Z</time>
      </trkpt>
      <trkpt lat="43.513331" lon="10.677247">
        <ele>122.903394</ele>
        <time>2026-05-05T00:22:14.243Z</time>
      </trkpt>
      <trkpt lat="43.513136" lon="10.677501">
        <ele>124.414301</ele>
        <time>2026-05-05T00:22:29.982Z</time>
      </trkpt>
      <trkpt lat="43.512837" lon="10.677890">
        <ele>126.729721</ele>
        <time>2026-05-05T00:22:53.882Z</time>
      </trkpt>
      <trkpt lat="43.512666" lon="10.677998">
        <ele>127.593701</ele>
        <time>2026-05-05T00:23:04.008Z</time>
      </trkpt>
      <trkpt lat="43.512409" lon="10.677896">
        <ele>128.400863</ele>
        <time>2026-05-05T00:23:17.344Z</time>
      </trkpt>
      <trkpt lat="43.512273" lon="10.677708">
        <ele>128.982089</ele>
        <time>2026-05-05T00:23:26.667Z</time>
      </trkpt>
      <trkpt lat="43.512222" lon="10.677703">
        <ele>129.136405</ele>
        <time>2026-05-05T00:23:29.240Z</time>
      </trkpt>
      <trkpt lat="43.511933" lon="10.677815">
        <ele>130.042453</ele>
        <time>2026-05-05T00:23:43.888Z</time>
      </trkpt>
      <trkpt lat="43.511845" lon="10.677906">
        <ele>130.374445</ele>
        <time>2026-05-05T00:23:49.136Z</time>
      </trkpt>
      <trkpt lat="43.511619" lon="10.678346">
        <ele>131.554634</ele>
        <time>2026-05-05T00:24:07.799Z</time>
      </trkpt>
      <trkpt lat="43.511382" lon="10.678502">
        <ele>132.347264</ele>
        <time>2026-05-05T00:24:19.343Z</time>
      </trkpt>
      <trkpt lat="43.510783" lon="10.678807">
        <ele>133.023899</ele>
        <time>2026-05-05T00:24:41.287Z</time>
      </trkpt>
      <trkpt lat="43.510689" lon="10.678936">
        <ele>133.085433</ele>
        <time>2026-05-05T00:24:45.468Z</time>
      </trkpt>
      <trkpt lat="43.510592" lon="10.679178">
        <ele>133.178475</ele>
        <time>2026-05-05T00:24:51.742Z</time>
      </trkpt>
      <trkpt lat="43.510391" lon="10.679543">
        <ele>133.332691</ele>
        <time>2026-05-05T00:25:02.247Z</time>
      </trkpt>
      <trkpt lat="43.509732" lon="10.680095">
        <ele>133.718942</ele>
        <time>2026-05-05T00:25:28.369Z</time>
      </trkpt>
      <trkpt lat="43.509585" lon="10.680395">
        <ele>133.899409</ele>
        <time>2026-05-05T00:25:37.169Z</time>
      </trkpt>
      <trkpt lat="43.509297" lon="10.680674">
        <ele>134.141318</ele>
        <time>2026-05-05T00:25:48.609Z</time>
      </trkpt>
      <trkpt lat="43.509053" lon="10.680804">
        <ele>134.321099</ele>
        <time>2026-05-05T00:25:57.293Z</time>
      </trkpt>
      <trkpt lat="43.508923" lon="10.680765">
        <ele>134.412536</ele>
        <time>2026-05-05T00:26:01.937Z</time>
      </trkpt>
      <trkpt lat="43.508659" lon="10.680497">
        <ele>134.637852</ele>
        <time>2026-05-05T00:26:14.029Z</time>
      </trkpt>
      <trkpt lat="43.508550" lon="10.680422">
        <ele>134.721576</ele>
        <time>2026-05-05T00:26:18.562Z</time>
      </trkpt>
      <trkpt lat="43.508402" lon="10.680465">
        <ele>134.825527</ele>
        <time>2026-05-05T00:26:24.332Z</time>
      </trkpt>
      <trkpt lat="43.508232" lon="10.680739">
        <ele>135.477880</ele>
        <time>2026-05-05T00:26:34.284Z</time>
      </trkpt>
      <trkpt lat="43.507936" lon="10.681501">
        <ele>137.386246</ele>
        <time>2026-05-05T00:27:00.180Z</time>
      </trkpt>
      <trkpt lat="43.507769" lon="10.681582">
        <ele>137.925122</ele>
        <time>2026-05-05T00:27:08.632Z</time>
      </trkpt>
      <trkpt lat="43.507021" lon="10.681597">
        <ele>140.202236</ele>
        <time>2026-05-05T00:27:48.284Z</time>
      </trkpt>
      <trkpt lat="43.506192" lon="10.681431">
        <ele>144.010198</ele>
        <time>2026-05-05T00:28:36.654Z</time>
      </trkpt>
      <trkpt lat="43.505536" lon="10.681099">
        <ele>147.247814</ele>
        <time>2026-05-05T00:29:16.291Z</time>
      </trkpt>
      <trkpt lat="43.505291" lon="10.680723">
        <ele>148.748472</ele>
        <time>2026-05-05T00:29:35.724Z</time>
      </trkpt>
      <trkpt lat="43.505106" lon="10.679945">
        <ele>149.488130</ele>
        <time>2026-05-05T00:30:03.260Z</time>
      </trkpt>
      <trkpt lat="43.504978" lon="10.679580">
        <ele>149.854393</ele>
        <time>2026-05-05T00:30:14.586Z</time>
      </trkpt>
      <trkpt lat="43.504803" lon="10.679478">
        <ele>150.091040</ele>
        <time>2026-05-05T00:30:21.281Z</time>
      </trkpt>
      <trkpt lat="43.504009" lon="10.679215">
        <ele>150.703304</ele>
        <time>2026-05-05T00:30:46.055Z</time>
      </trkpt>
      <trkpt lat="43.503429" lon="10.679129">
        <ele>149.898952</ele>
        <time>2026-05-05T00:31:02.021Z</time>
      </trkpt>
      <trkpt lat="43.502924" lon="10.679376">
        <ele>149.160105</ele>
        <time>2026-05-05T00:31:16.497Z</time>
      </trkpt>
      <trkpt lat="43.502371" lon="10.680009">
        <ele>148.679620</ele>
        <time>2026-05-05T00:31:37.137Z</time>
      </trkpt>
      <trkpt lat="43.501527" lon="10.681071">
        <ele>150.118271</ele>
        <time>2026-05-05T00:32:21.115Z</time>
      </trkpt>
      <trkpt lat="43.501250" lon="10.681254">
        <ele>150.504992</ele>
        <time>2026-05-05T00:32:35.569Z</time>
      </trkpt>
      <trkpt lat="43.500943" lon="10.681329">
        <ele>150.967559</ele>
        <time>2026-05-05T00:32:49.879Z</time>
      </trkpt>
      <trkpt lat="43.500328" lon="10.681404">
        <ele>152.021055</ele>
        <time>2026-05-05T00:33:16.679Z</time>
      </trkpt>
      <trkpt lat="43.500259" lon="10.681440">
        <ele>152.146942</ele>
        <time>2026-05-05T00:33:19.801Z</time>
      </trkpt>
      <trkpt lat="43.499585" lon="10.681790">
        <ele>153.375899</ele>
        <time>2026-05-05T00:33:48.054Z</time>
      </trkpt>
      <trkpt lat="43.498635" lon="10.682134">
        <ele>153.476663</ele>
        <time>2026-05-05T00:34:21.275Z</time>
      </trkpt>
      <trkpt lat="43.498495" lon="10.682321">
        <ele>153.400699</ele>
        <time>2026-05-05T00:34:27.319Z</time>
      </trkpt>
      <trkpt lat="43.498406" lon="10.682552">
        <ele>153.326762</ele>
        <time>2026-05-05T00:34:33.043Z</time>
      </trkpt>
      <trkpt lat="43.498200" lon="10.683678">
        <ele>152.664363</ele>
        <time>2026-05-05T00:34:57.140Z</time>
      </trkpt>
      <trkpt lat="43.498211" lon="10.683963">
        <ele>152.199241</ele>
        <time>2026-05-05T00:35:02.744Z</time>
      </trkpt>
      <trkpt lat="43.498301" lon="10.684365">
        <ele>151.513608</ele>
        <time>2026-05-05T00:35:10.941Z</time>
      </trkpt>
      <trkpt lat="43.498441" lon="10.684810">
        <ele>150.723123</ele>
        <time>2026-05-05T00:35:20.336Z</time>
      </trkpt>
      <trkpt lat="43.498431" lon="10.685138">
        <ele>150.188111</ele>
        <time>2026-05-05T00:35:26.660Z</time>
      </trkpt>
      <trkpt lat="43.498367" lon="10.685524">
        <ele>149.542825</ele>
        <time>2026-05-05T00:35:34.271Z</time>
      </trkpt>
      <trkpt lat="43.498083" lon="10.686162">
        <ele>148.577182</ele>
        <time>2026-05-05T00:35:48.839Z</time>
      </trkpt>
      <trkpt lat="43.497820" lon="10.686662">
        <ele>147.933766</ele>
        <time>2026-05-05T00:36:01.107Z</time>
      </trkpt>
      <trkpt lat="43.497709" lon="10.686951">
        <ele>147.593094</ele>
        <time>2026-05-05T00:36:07.706Z</time>
      </trkpt>
      <trkpt lat="43.496881" lon="10.693098">
        <ele>144.302885</ele>
        <time>2026-05-05T00:38:24.812Z</time>
      </trkpt>
      <trkpt lat="43.496764" lon="10.693849">
        <ele>143.758444</ele>
        <time>2026-05-05T00:38:42.121Z</time>
      </trkpt>
      <trkpt lat="43.496709" lon="10.694064">
        <ele>143.596856</ele>
        <time>2026-05-05T00:38:47.194Z</time>
      </trkpt>
      <trkpt lat="43.496632" lon="10.694203">
        <ele>143.472891</ele>
        <time>2026-05-05T00:38:51.117Z</time>
      </trkpt>
      <trkpt lat="43.496598" lon="10.694263">
        <ele>143.418926</ele>
        <time>2026-05-05T00:38:52.755Z</time>
      </trkpt>
      <trkpt lat="43.496355" lon="10.694429">
        <ele>143.153939</ele>
        <time>2026-05-05T00:39:01.046Z</time>
      </trkpt>
      <trkpt lat="43.495438" lon="10.694735">
        <ele>141.516880</ele>
        <time>2026-05-05T00:39:26.455Z</time>
      </trkpt>
      <trkpt lat="43.495048" lon="10.695099">
        <ele>140.322898</ele>
        <time>2026-05-05T00:39:39.029Z</time>
      </trkpt>
      <trkpt lat="43.493293" lon="10.696864">
        <ele>134.153425</ele>
        <time>2026-05-05T00:40:36.096Z</time>
      </trkpt>
      <trkpt lat="43.492849" lon="10.697352">
        <ele>132.291762</ele>
        <time>2026-05-05T00:40:50.822Z</time>
      </trkpt>
      <trkpt lat="43.492722" lon="10.697669">
        <ele>131.011545</ele>
        <time>2026-05-05T00:40:57.415Z</time>
      </trkpt>
      <trkpt lat="43.492510" lon="10.698491">
        <ele>127.927360</ele>
        <time>2026-05-05T00:41:12.637Z</time>
      </trkpt>
      <trkpt lat="43.492409" lon="10.699203">
        <ele>125.362559</ele>
        <time>2026-05-05T00:41:25.034Z</time>
      </trkpt>
      <trkpt lat="43.492237" lon="10.699564">
        <ele>123.831613</ele>
        <time>2026-05-05T00:41:32.451Z</time>
      </trkpt>
      <trkpt lat="43.492142" lon="10.699847">
        <ele>122.633692</ele>
        <time>2026-05-05T00:41:37.833Z</time>
      </trkpt>
      <trkpt lat="43.492150" lon="10.700325">
        <ele>120.796916</ele>
        <time>2026-05-05T00:41:46.107Z</time>
      </trkpt>
      <trkpt lat="43.492117" lon="10.701075">
        <ele>117.910416</ele>
        <time>2026-05-05T00:41:59.252Z</time>
      </trkpt>
      <trkpt lat="43.492032" lon="10.701611">
        <ele>115.802692</ele>
        <time>2026-05-05T00:42:08.945Z</time>
      </trkpt>
      <trkpt lat="43.491537" lon="10.702985">
        <ele>109.289724</ele>
        <time>2026-05-05T00:42:34.971Z</time>
      </trkpt>
      <trkpt lat="43.491331" lon="10.703655">
        <ele>106.104894</ele>
        <time>2026-05-05T00:42:47.188Z</time>
      </trkpt>
      <trkpt lat="43.490683" lon="10.706059">
        <ele>94.762017</ele>
        <time>2026-05-05T00:43:30.547Z</time>
      </trkpt>
      <trkpt lat="43.490533" lon="10.706536">
        <ele>92.462074</ele>
        <time>2026-05-05T00:43:39.296Z</time>
      </trkpt>
      <trkpt lat="43.490288" lon="10.706895">
        <ele>90.556946</ele>
        <time>2026-05-05T00:43:47.624Z</time>
      </trkpt>
      <trkpt lat="43.489899" lon="10.707684">
        <ele>86.869585</ele>
        <time>2026-05-05T00:44:03.856Z</time>
      </trkpt>
      <trkpt lat="43.489705" lon="10.708156">
        <ele>84.772677</ele>
        <time>2026-05-05T00:44:13.257Z</time>
      </trkpt>
      <trkpt lat="43.489682" lon="10.708484">
        <ele>83.498919</ele>
        <time>2026-05-05T00:44:19.149Z</time>
      </trkpt>
      <trkpt lat="43.489733" lon="10.708747">
        <ele>82.693268</ele>
        <time>2026-05-05T00:44:24.083Z</time>
      </trkpt>
      <trkpt lat="43.490135" lon="10.709162">
        <ele>81.398722</ele>
        <time>2026-05-05T00:44:36.942Z</time>
      </trkpt>
      <trkpt lat="43.490147" lon="10.709295">
        <ele>81.148101</ele>
        <time>2026-05-05T00:44:39.498Z</time>
      </trkpt>
      <trkpt lat="43.490616" lon="10.709649">
        <ele>79.769875</ele>
        <time>2026-05-05T00:44:47.544Z</time>
      </trkpt>
      <trkpt lat="43.491104" lon="10.710108">
        <ele>78.282917</ele>
        <time>2026-05-05T00:44:56.877Z</time>
      </trkpt>
      <trkpt lat="43.491173" lon="10.710194">
        <ele>78.251109</ele>
        <time>2026-05-05T00:44:58.419Z</time>
      </trkpt>
      <trkpt lat="43.491173" lon="10.710194">
        <ele>78.251109</ele>
        <time>2026-05-05T00:44:58.424Z</time>
      </trkpt>
      <trkpt lat="43.491774" lon="10.711038">
        <ele>77.957748</ele>
        <time>2026-05-05T00:45:35.117Z</time>
      </trkpt>
      <trkpt lat="43.492375" lon="10.711882">
        <ele>77.676292</ele>
        <time>2026-05-05T00:46:11.810Z</time>
      </trkpt>
      <trkpt lat="43.492976" lon="10.712726">
        <ele>77.770744</ele>
        <time>2026-05-05T00:46:48.504Z</time>
      </trkpt>
      <trkpt lat="43.493751" lon="10.713308">
        <ele>77.867903</ele>
        <time>2026-05-05T00:47:26.248Z</time>
      </trkpt>
      <trkpt lat="43.494526" lon="10.713890">
        <ele>76.295788</ele>
        <time>2026-05-05T00:48:03.995Z</time>
      </trkpt>
      <trkpt lat="43.495300" lon="10.714473">
        <ele>74.662268</ele>
        <time>2026-05-05T00:48:41.727Z</time>
      </trkpt>
      <trkpt lat="43.496075" lon="10.715055">
        <ele>73.096687</ele>
        <time>2026-05-05T00:49:19.479Z</time>
      </trkpt>
      <trkpt lat="43.496850" lon="10.715637">
        <ele>71.536671</ele>
        <time>2026-05-05T00:49:57.225Z</time>
      </trkpt>
      <trkpt lat="43.496850" lon="10.715637">
        <ele>71.536671</ele>
        <time>2026-05-05T00:49:57.240Z</time>
      </trkpt>
      <trkpt lat="43.497333" lon="10.716318">
        <ele>70.734612</ele>
        <time>2026-05-05T00:50:26.789Z</time>
      </trkpt>
      <trkpt lat="43.497817" lon="10.716998">
        <ele>70.002851</ele>
        <time>2026-05-05T00:50:56.345Z</time>
      </trkpt>
      <trkpt lat="43.498300" lon="10.717679">
        <ele>69.294680</ele>
        <time>2026-05-05T00:51:25.894Z</time>
      </trkpt>
      <trkpt lat="43.498784" lon="10.718359">
        <ele>68.655443</ele>
        <time>2026-05-05T00:51:55.440Z</time>
      </trkpt>
      <trkpt lat="43.498793" lon="10.718419">
        <ele>68.614332</ele>
        <time>2026-05-05T00:51:56.180Z</time>
      </trkpt>
      <trkpt lat="43.498934" lon="10.720415">
        <ele>67.839503</ele>
        <time>2026-05-05T00:52:21.265Z</time>
      </trkpt>
      <trkpt lat="43.498973" lon="10.720650">
        <ele>67.853996</ele>
        <time>2026-05-05T00:52:24.570Z</time>
      </trkpt>
      <trkpt lat="43.498862" lon="10.720698">
        <ele>67.863637</ele>
        <time>2026-05-05T00:52:27.498Z</time>
      </trkpt>
      <trkpt lat="43.498829" lon="10.720740">
        <ele>67.867359</ele>
        <time>2026-05-05T00:52:28.636Z</time>
      </trkpt>
      <trkpt lat="43.498805" lon="10.720924">
        <ele>67.878598</ele>
        <time>2026-05-05T00:52:32.078Z</time>
      </trkpt>
      <trkpt lat="43.498816" lon="10.721380">
        <ele>67.906027</ele>
        <time>2026-05-05T00:52:40.611Z</time>
      </trkpt>
      <trkpt lat="43.498841" lon="10.721566">
        <ele>67.917399</ele>
        <time>2026-05-05T00:52:45.123Z</time>
      </trkpt>
      <trkpt lat="43.498918" lon="10.721787">
        <ele>67.932138</ele>
        <time>2026-05-05T00:52:51.014Z</time>
      </trkpt>
      <trkpt lat="43.498982" lon="10.721835">
        <ele>67.938176</ele>
        <time>2026-05-05T00:52:53.426Z</time>
      </trkpt>
      <trkpt lat="43.498680" lon="10.723358">
        <ele>71.381594</ele>
        <time>2026-05-05T00:53:28.734Z</time>
      </trkpt>
      <trkpt lat="43.498621" lon="10.723645">
        <ele>72.056075</ele>
        <time>2026-05-05T00:53:37.267Z</time>
      </trkpt>
      <trkpt lat="43.498499" lon="10.724306">
        <ele>73.641247</ele>
        <time>2026-05-05T00:53:58.679Z</time>
      </trkpt>
      <trkpt lat="43.498060" lon="10.724166">
        <ele>76.248317</ele>
        <time>2026-05-05T00:54:20.836Z</time>
      </trkpt>
      <trkpt lat="43.497768" lon="10.724196">
        <ele>77.942474</ele>
        <time>2026-05-05T00:54:39.408Z</time>
      </trkpt>
      <trkpt lat="43.497577" lon="10.724115">
        <ele>79.098683</ele>
        <time>2026-05-05T00:54:51.639Z</time>
      </trkpt>
      <trkpt lat="43.497180" lon="10.723799">
        <ele>81.751073</ele>
        <time>2026-05-05T00:55:18.906Z</time>
      </trkpt>
      <trkpt lat="43.496604" lon="10.723649">
        <ele>85.382729</ele>
        <time>2026-05-05T00:55:55.019Z</time>
      </trkpt>
      <trkpt lat="43.495206" lon="10.723199">
        <ele>95.367482</ele>
        <time>2026-05-05T00:57:31.590Z</time>
      </trkpt>
      <trkpt lat="43.494993" lon="10.723032">
        <ele>97.038585</ele>
        <time>2026-05-05T00:57:48.971Z</time>
      </trkpt>
      <trkpt lat="43.494417" lon="10.722790">
        <ele>100.997816</ele>
        <time>2026-05-05T00:58:31.687Z</time>
      </trkpt>
      <trkpt lat="43.494184" lon="10.722763">
        <ele>102.535207</ele>
        <time>2026-05-05T00:58:48.039Z</time>
      </trkpt>
      <trkpt lat="43.494149" lon="10.722768">
        <ele>102.766566</ele>
        <time>2026-05-05T00:58:50.434Z</time>
      </trkpt>
      <trkpt lat="43.493861" lon="10.722801">
        <ele>104.666713</ele>
        <time>2026-05-05T00:59:09.663Z</time>
      </trkpt>
      <trkpt lat="43.493192" lon="10.723037">
        <ele>108.572500</ele>
        <time>2026-05-05T00:59:50.253Z</time>
      </trkpt>
      <trkpt lat="43.493005" lon="10.723053">
        <ele>108.951352</ele>
        <time>2026-05-05T00:59:59.609Z</time>
      </trkpt>
      <trkpt lat="43.492448" lon="10.722898">
        <ele>110.100357</ele>
        <time>2026-05-05T01:00:23.895Z</time>
      </trkpt>
      <trkpt lat="43.492328" lon="10.722549">
        <ele>110.666907</ele>
        <time>2026-05-05T01:00:34.172Z</time>
      </trkpt>
      <trkpt lat="43.492156" lon="10.722425">
        <ele>111.059396</ele>
        <time>2026-05-05T01:00:40.800Z</time>
      </trkpt>
      <trkpt lat="43.491988" lon="10.722188">
        <ele>111.545472</ele>
        <time>2026-05-05T01:00:48.860Z</time>
      </trkpt>
      <trkpt lat="43.491900" lon="10.721669">
        <ele>112.233801</ele>
        <time>2026-05-05T01:01:01.659Z</time>
      </trkpt>
      <trkpt lat="43.491787" lon="10.721495">
        <ele>112.496226</ele>
        <time>2026-05-05T01:01:07.229Z</time>
      </trkpt>
      <trkpt lat="43.491491" lon="10.721299">
        <ele>113.004872</ele>
        <time>2026-05-05T01:01:18.401Z</time>
      </trkpt>
      <trkpt lat="43.491121" lon="10.720618">
        <ele>113.960945</ele>
        <time>2026-05-05T01:01:41.445Z</time>
      </trkpt>
      <trkpt lat="43.490946" lon="10.720446">
        <ele>114.293864</ele>
        <time>2026-05-05T01:01:50.709Z</time>
      </trkpt>
      <trkpt lat="43.490355" lon="10.720242">
        <ele>116.200769</ele>
        <time>2026-05-05T01:02:21.243Z</time>
      </trkpt>
      <trkpt lat="43.489911" lon="10.719711">
        <ele>118.785065</ele>
        <time>2026-05-05T01:02:56.179Z</time>
      </trkpt>
      <trkpt lat="43.489607" lon="10.719539">
        <ele>120.229765</ele>
        <time>2026-05-05T01:03:15.868Z</time>
      </trkpt>
      <trkpt lat="43.489183" lon="10.719550">
        <ele>122.094142</ele>
        <time>2026-05-05T01:03:40.242Z</time>
      </trkpt>
      <trkpt lat="43.488949" lon="10.719679">
        <ele>122.761927</ele>
        <time>2026-05-05T01:03:53.403Z</time>
      </trkpt>
      <trkpt lat="43.487903" lon="10.719802">
        <ele>123.881015</ele>
        <time>2026-05-05T01:04:31.258Z</time>
      </trkpt>
      <trkpt lat="43.487291" lon="10.719684">
        <ele>124.537739</ele>
        <time>2026-05-05T01:04:50.061Z</time>
      </trkpt>
      <trkpt lat="43.487000" lon="10.719529">
        <ele>124.381888</ele>
        <time>2026-05-05T01:04:59.853Z</time>
      </trkpt>
      <trkpt lat="43.486681" lon="10.719344">
        <ele>124.208996</ele>
        <time>2026-05-05T01:05:10.791Z</time>
      </trkpt>
      <trkpt lat="43.486440" lon="10.718936">
        <ele>124.018304</ele>
        <time>2026-05-05T01:05:23.085Z</time>
      </trkpt>
      <trkpt lat="43.485829" lon="10.718383">
        <ele>123.653143</ele>
        <time>2026-05-05T01:05:45.279Z</time>
      </trkpt>
      <trkpt lat="43.484477" lon="10.717528">
        <ele>121.540705</ele>
        <time>2026-05-05T01:06:25.384Z</time>
      </trkpt>
      <trkpt lat="43.484007" lon="10.717093">
        <ele>121.151766</ele>
        <time>2026-05-05T01:06:43.598Z</time>
      </trkpt>
      <trkpt lat="43.483872" lon="10.717008">
        <ele>121.214365</ele>
        <time>2026-05-05T01:06:49.085Z</time>
      </trkpt>
      <trkpt lat="43.483711" lon="10.716905">
        <ele>121.289228</ele>
        <time>2026-05-05T01:06:55.818Z</time>
      </trkpt>
      <trkpt lat="43.483590" lon="10.716777">
        <ele>121.353561</ele>
        <time>2026-05-05T01:07:01.646Z</time>
      </trkpt>
      <trkpt lat="43.483318" lon="10.716393">
        <ele>121.517786</ele>
        <time>2026-05-05T01:07:16.259Z</time>
      </trkpt>
      <trkpt lat="43.483201" lon="10.716171">
        <ele>121.601754</ele>
        <time>2026-05-05T01:07:23.248Z</time>
      </trkpt>
      <trkpt lat="43.482968" lon="10.716050">
        <ele>121.706770</ele>
        <time>2026-05-05T01:07:31.607Z</time>
      </trkpt>
      <trkpt lat="43.482629" lon="10.715980">
        <ele>121.840827</ele>
        <time>2026-05-05T01:07:42.415Z</time>
      </trkpt>
      <trkpt lat="43.482069" lon="10.716039">
        <ele>122.010925</ele>
        <time>2026-05-05T01:07:59.964Z</time>
      </trkpt>
      <trkpt lat="43.481811" lon="10.716026">
        <ele>122.089115</ele>
        <time>2026-05-05T01:08:08.374Z</time>
      </trkpt>
      <trkpt lat="43.481395" lon="10.715618">
        <ele>122.243753</ele>
        <time>2026-05-05T01:08:26.135Z</time>
      </trkpt>
      <trkpt lat="43.481278" lon="10.715393">
        <ele>122.304584</ele>
        <time>2026-05-05T01:08:33.329Z</time>
      </trkpt>
      <trkpt lat="43.481107" lon="10.715296">
        <ele>122.357833</ele>
        <time>2026-05-05T01:08:40.029Z</time>
      </trkpt>
      <trkpt lat="43.480745" lon="10.715194">
        <ele>122.299436</ele>
        <time>2026-05-05T01:08:53.064Z</time>
      </trkpt>
      <trkpt lat="43.479947" lon="10.715548">
        <ele>122.166941</ele>
        <time>2026-05-05T01:09:18.529Z</time>
      </trkpt>
      <trkpt lat="43.479367" lon="10.715634">
        <ele>122.074743</ele>
        <time>2026-05-05T01:09:35.713Z</time>
      </trkpt>
      <trkpt lat="43.478935" lon="10.715500">
        <ele>122.856694</ele>
        <time>2026-05-05T01:09:50.100Z</time>
      </trkpt>
      <trkpt lat="43.478783" lon="10.715350">
        <ele>123.188058</ele>
        <time>2026-05-05T01:09:56.853Z</time>
      </trkpt>
      <trkpt lat="43.478596" lon="10.715039">
        <ele>123.707531</ele>
        <time>2026-05-05T01:10:08.423Z</time>
      </trkpt>
      <trkpt lat="43.478398" lon="10.715103">
        <ele>124.068002</ele>
        <time>2026-05-05T01:10:17.350Z</time>
      </trkpt>
      <trkpt lat="43.478071" lon="10.715264">
        <ele>124.683475</ele>
        <time>2026-05-05T01:10:33.564Z</time>
      </trkpt>
      <trkpt lat="43.477767" lon="10.715462">
        <ele>125.294609</ele>
        <time>2026-05-05T01:10:50.031Z</time>
      </trkpt>
      <trkpt lat="43.477066" lon="10.715559">
        <ele>127.661599</ele>
        <time>2026-05-05T01:11:26.001Z</time>
      </trkpt>
      <trkpt lat="43.476210" lon="10.715741">
        <ele>130.571527</ele>
        <time>2026-05-05T01:12:09.739Z</time>
      </trkpt>
      <trkpt lat="43.475840" lon="10.715881">
        <ele>131.606410</ele>
        <time>2026-05-05T01:12:26.598Z</time>
      </trkpt>
      <trkpt lat="43.475279" lon="10.716230">
        <ele>132.727506</ele>
        <time>2026-05-05T01:12:50.256Z</time>
      </trkpt>
      <trkpt lat="43.474668" lon="10.716734">
        <ele>134.024519</ele>
        <time>2026-05-05T01:13:17.392Z</time>
      </trkpt>
      <trkpt lat="43.474509" lon="10.716814">
        <ele>134.332820</ele>
        <time>2026-05-05T01:13:24.337Z</time>
      </trkpt>
      <trkpt lat="43.473975" lon="10.716686">
        <ele>135.780539</ele>
        <time>2026-05-05T01:13:47.664Z</time>
      </trkpt>
      <trkpt lat="43.473921" lon="10.716707">
        <ele>135.946452</ele>
        <time>2026-05-05T01:13:50.258Z</time>
      </trkpt>
      <trkpt lat="43.473695" lon="10.717023">
        <ele>136.898497</ele>
        <time>2026-05-05T01:14:05.762Z</time>
      </trkpt>
      <trkpt lat="43.473135" lon="10.717705">
        <ele>139.108419</ele>
        <time>2026-05-05T01:14:42.722Z</time>
      </trkpt>
      <trkpt lat="43.472963" lon="10.717812">
        <ele>139.666443</ele>
        <time>2026-05-05T01:14:51.656Z</time>
      </trkpt>
      <trkpt lat="43.471068" lon="10.720398">
        <ele>149.751751</ele>
        <time>2026-05-05T01:16:57.601Z</time>
      </trkpt>
      <trkpt lat="43.470309" lon="10.721531">
        <ele>155.771295</ele>
        <time>2026-05-05T01:18:12.423Z</time>
      </trkpt>
      <trkpt lat="43.470173" lon="10.721852">
        <ele>157.382618</ele>
        <time>2026-05-05T01:18:31.555Z</time>
      </trkpt>
      <trkpt lat="43.470379" lon="10.722460">
        <ele>160.291415</ele>
        <time>2026-05-05T01:19:04.221Z</time>
      </trkpt>
      <trkpt lat="43.470415" lon="10.722661">
        <ele>161.188900</ele>
        <time>2026-05-05T01:19:13.812Z</time>
      </trkpt>
      <trkpt lat="43.469778" lon="10.724206">
        <ele>166.473524</ele>
        <time>2026-05-05T01:20:25.245Z</time>
      </trkpt>
      <trkpt lat="43.469746" lon="10.724081">
        <ele>166.589862</ele>
        <time>2026-05-05T01:20:28.211Z</time>
      </trkpt>
      <trkpt lat="43.469720" lon="10.723799">
        <ele>166.839361</ele>
        <time>2026-05-05T01:20:34.005Z</time>
      </trkpt>
      <trkpt lat="43.469687" lon="10.722748">
        <ele>167.762684</ele>
        <time>2026-05-05T01:20:48.143Z</time>
      </trkpt>
      <trkpt lat="43.469653" lon="10.722604">
        <ele>167.895593</ele>
        <time>2026-05-05T01:20:49.872Z</time>
      </trkpt>
      <trkpt lat="43.469593" lon="10.722469">
        <ele>168.034536</ele>
        <time>2026-05-05T01:20:51.641Z</time>
      </trkpt>
      <trkpt lat="43.469505" lon="10.722359">
        <ele>168.012827</ele>
        <time>2026-05-05T01:20:53.446Z</time>
      </trkpt>
      <trkpt lat="43.469453" lon="10.722325">
        <ele>168.002144</ele>
        <time>2026-05-05T01:20:54.299Z</time>
      </trkpt>
      <trkpt lat="43.469284" lon="10.722215">
        <ele>167.967454</ele>
        <time>2026-05-05T01:20:57.110Z</time>
      </trkpt>
      <trkpt lat="43.468902" lon="10.722207">
        <ele>167.896547</ele>
        <time>2026-05-05T01:21:02.941Z</time>
      </trkpt>
      <trkpt lat="43.468709" lon="10.722144">
        <ele>167.859734</ele>
        <time>2026-05-05T01:21:06.039Z</time>
      </trkpt>
      <trkpt lat="43.467549" lon="10.721386">
        <ele>168.930615</ele>
        <time>2026-05-05T01:21:40.250Z</time>
      </trkpt>
      <trkpt lat="43.467431" lon="10.721380">
        <ele>169.269365</ele>
        <time>2026-05-05T01:21:45.006Z</time>
      </trkpt>
      <trkpt lat="43.467340" lon="10.721240">
        <ele>169.660673</ele>
        <time>2026-05-05T01:21:50.566Z</time>
      </trkpt>
      <trkpt lat="43.467141" lon="10.721047">
        <ele>170.358813</ele>
        <time>2026-05-05T01:22:00.613Z</time>
      </trkpt>
      <trkpt lat="43.467067" lon="10.720916">
        <ele>170.704448</ele>
        <time>2026-05-05T01:22:05.667Z</time>
      </trkpt>
      <trkpt lat="43.466949" lon="10.720414">
        <ele>171.803116</ele>
        <time>2026-05-05T01:22:21.329Z</time>
      </trkpt>
      <trkpt lat="43.466567" lon="10.719596">
        <ele>172.233741</ele>
        <time>2026-05-05T01:22:42.421Z</time>
      </trkpt>
      <trkpt lat="43.466504" lon="10.719360">
        <ele>171.894278</ele>
        <time>2026-05-05T01:22:45.769Z</time>
      </trkpt>
      <trkpt lat="43.466399" lon="10.718751">
        <ele>171.049257</ele>
        <time>2026-05-05T01:22:52.912Z</time>
      </trkpt>
      <trkpt lat="43.466319" lon="10.718547">
        <ele>170.736229</ele>
        <time>2026-05-05T01:22:55.361Z</time>
      </trkpt>
      <trkpt lat="43.466253" lon="10.718432">
        <ele>170.538307</ele>
        <time>2026-05-05T01:22:56.880Z</time>
      </trkpt>
      <trkpt lat="43.465838" lon="10.717993">
        <ele>169.565118</ele>
        <time>2026-05-05T01:23:03.986Z</time>
      </trkpt>
      <trkpt lat="43.465537" lon="10.717549">
        <ele>167.099197</ele>
        <time>2026-05-05T01:23:09.742Z</time>
      </trkpt>
      <trkpt lat="43.465373" lon="10.717268">
        <ele>165.572674</ele>
        <time>2026-05-05T01:23:13.142Z</time>
      </trkpt>
      <trkpt lat="43.465329" lon="10.717142">
        <ele>164.980721</ele>
        <time>2026-05-05T01:23:14.462Z</time>
      </trkpt>
      <trkpt lat="43.465219" lon="10.716391">
        <ele>161.737258</ele>
        <time>2026-05-05T01:23:21.612Z</time>
      </trkpt>
      <trkpt lat="43.465060" lon="10.715867">
        <ele>159.332827</ele>
        <time>2026-05-05T01:23:26.880Z</time>
      </trkpt>
      <trkpt lat="43.464854" lon="10.715339">
        <ele>157.841006</ele>
        <time>2026-05-05T01:23:32.470Z</time>
      </trkpt>
      <trkpt lat="43.464704" lon="10.715017">
        <ele>156.981306</ele>
        <time>2026-05-05T01:23:36.162Z</time>
      </trkpt>
      <trkpt lat="43.464514" lon="10.714712">
        <ele>156.078193</ele>
        <time>2026-05-05T01:23:40.228Z</time>
      </trkpt>
      <trkpt lat="43.464276" lon="10.714404">
        <ele>155.067357</ele>
        <time>2026-05-05T01:23:45.142Z</time>
      </trkpt>
      <trkpt lat="43.464065" lon="10.714057">
        <ele>154.050216</ele>
        <time>2026-05-05T01:23:50.797Z</time>
      </trkpt>
      <trkpt lat="43.463932" lon="10.713694">
        <ele>153.777706</ele>
        <time>2026-05-05T01:23:56.945Z</time>
      </trkpt>
      <trkpt lat="43.463602" lon="10.713014">
        <ele>155.630586</ele>
        <time>2026-05-05T01:24:13.526Z</time>
      </trkpt>
      <trkpt lat="43.463444" lon="10.712747">
        <ele>156.410918</ele>
        <time>2026-05-05T01:24:22.323Z</time>
      </trkpt>
      <trkpt lat="43.463250" lon="10.712755">
        <ele>157.016634</ele>
        <time>2026-05-05T01:24:32.187Z</time>
      </trkpt>
      <trkpt lat="43.462990" lon="10.712684">
        <ele>157.843839</ele>
        <time>2026-05-05T01:24:46.570Z</time>
      </trkpt>
      <trkpt lat="43.462827" lon="10.712594">
        <ele>158.391867</ele>
        <time>2026-05-05T01:24:56.515Z</time>
      </trkpt>
      <trkpt lat="43.462445" lon="10.712212">
        <ele>160.763315</ele>
        <time>2026-05-05T01:25:24.572Z</time>
      </trkpt>
      <trkpt lat="43.462172" lon="10.711719">
        <ele>163.753539</ele>
        <time>2026-05-05T01:25:53.360Z</time>
      </trkpt>
      <trkpt lat="43.462048" lon="10.711595">
        <ele>164.771496</ele>
        <time>2026-05-05T01:26:03.605Z</time>
      </trkpt>
      <trkpt lat="43.461871" lon="10.711563">
        <ele>165.957519</ele>
        <time>2026-05-05T01:26:15.714Z</time>
      </trkpt>
      <trkpt lat="43.461198" lon="10.711535">
        <ele>170.430794</ele>
        <time>2026-05-05T01:27:01.911Z</time>
      </trkpt>
      <trkpt lat="43.460841" lon="10.711477">
        <ele>172.372350</ele>
        <time>2026-05-05T01:27:26.779Z</time>
      </trkpt>
      <trkpt lat="43.460570" lon="10.711409">
        <ele>173.748315</ele>
        <time>2026-05-05T01:27:45.183Z</time>
      </trkpt>
      <trkpt lat="43.460210" lon="10.711233">
        <ele>175.656451</ele>
        <time>2026-05-05T01:28:09.215Z</time>
      </trkpt>
      <trkpt lat="43.460000" lon="10.711053">
        <ele>176.891894</ele>
        <time>2026-05-05T01:28:23.342Z</time>
      </trkpt>
      <trkpt lat="43.459907" lon="10.710935">
        <ele>177.523446</ele>
        <time>2026-05-05T01:28:30.056Z</time>
      </trkpt>
      <trkpt lat="43.459862" lon="10.710822">
        <ele>177.990772</ele>
        <time>2026-05-05T01:28:34.767Z</time>
      </trkpt>
      <trkpt lat="43.459843" lon="10.710538">
        <ele>179.024861</ele>
        <time>2026-05-05T01:28:44.712Z</time>
      </trkpt>
      <trkpt lat="43.459911" lon="10.710332">
        <ele>179.845383</ele>
        <time>2026-05-05T01:28:51.963Z</time>
      </trkpt>
      <trkpt lat="43.459944" lon="10.710136">
        <ele>179.872275</ele>
        <time>2026-05-05T01:28:57.833Z</time>
      </trkpt>
      <trkpt lat="43.459918" lon="10.709948">
        <ele>179.713054</ele>
        <time>2026-05-05T01:29:02.897Z</time>
      </trkpt>
      <trkpt lat="43.459876" lon="10.709867">
        <ele>179.630237</ele>
        <time>2026-05-05T01:29:05.330Z</time>
      </trkpt>
      <trkpt lat="43.459792" lon="10.709792">
        <ele>179.515507</ele>
        <time>2026-05-05T01:29:08.532Z</time>
      </trkpt>
      <trkpt lat="43.459640" lon="10.709739">
        <ele>179.335796</ele>
        <time>2026-05-05T01:29:13.221Z</time>
      </trkpt>
      <trkpt lat="43.457648" lon="10.709365">
        <ele>177.778381</ele>
        <time>2026-05-05T01:30:06.977Z</time>
      </trkpt>
      <trkpt lat="43.457226" lon="10.709285">
        <ele>177.690707</ele>
        <time>2026-05-05T01:30:19.938Z</time>
      </trkpt>
      <trkpt lat="43.457113" lon="10.709127">
        <ele>177.657569</ele>
        <time>2026-05-05T01:30:25.692Z</time>
      </trkpt>
      <trkpt lat="43.456941" lon="10.708630">
        <ele>177.575308</ele>
        <time>2026-05-05T01:30:42.688Z</time>
      </trkpt>
      <trkpt lat="43.456730" lon="10.708138">
        <ele>180.452301</ele>
        <time>2026-05-05T01:31:04.672Z</time>
      </trkpt>
      <trkpt lat="43.456485" lon="10.707760">
        <ele>183.121002</ele>
        <time>2026-05-05T01:31:27.917Z</time>
      </trkpt>
      <trkpt lat="43.455831" lon="10.706993">
        <ele>189.352172</ele>
        <time>2026-05-05T01:32:32.932Z</time>
      </trkpt>
      <trkpt lat="43.455676" lon="10.706751">
        <ele>191.280975</ele>
        <time>2026-05-05T01:32:52.739Z</time>
      </trkpt>
      <trkpt lat="43.455477" lon="10.706238">
        <ele>195.971987</ele>
        <time>2026-05-05T01:33:30.225Z</time>
      </trkpt>
      <trkpt lat="43.455382" lon="10.706059">
        <ele>197.760303</ele>
        <time>2026-05-05T01:33:45.182Z</time>
      </trkpt>
      <trkpt lat="43.455198" lon="10.705833">
        <ele>200.499139</ele>
        <time>2026-05-05T01:34:08.599Z</time>
      </trkpt>
      <trkpt lat="43.455026" lon="10.705683">
        <ele>202.760824</ele>
        <time>2026-05-05T01:34:28.196Z</time>
      </trkpt>
      <trkpt lat="43.454539" lon="10.704913">
        <ele>210.923891</ele>
        <time>2026-05-05T01:35:33.026Z</time>
      </trkpt>
      <trkpt lat="43.454461" lon="10.704750">
        <ele>212.204568</ele>
        <time>2026-05-05T01:35:44.517Z</time>
      </trkpt>
      <trkpt lat="43.454426" lon="10.704613">
        <ele>213.157300</ele>
        <time>2026-05-05T01:35:52.917Z</time>
      </trkpt>
      <trkpt lat="43.454377" lon="10.704276">
        <ele>215.411887</ele>
        <time>2026-05-05T01:36:12.233Z</time>
      </trkpt>
      <trkpt lat="43.454312" lon="10.704113">
        <ele>216.631860</ele>
        <time>2026-05-05T01:36:22.306Z</time>
      </trkpt>
      <trkpt lat="43.454246" lon="10.704050">
        <ele>217.357468</ele>
        <time>2026-05-05T01:36:28.122Z</time>
      </trkpt>
      <trkpt lat="43.454066" lon="10.704011">
        <ele>219.004055</ele>
        <time>2026-05-05T01:36:41.206Z</time>
      </trkpt>
      <trkpt lat="43.453080" lon="10.704125">
        <ele>227.789456</ele>
        <time>2026-05-05T01:37:53.853Z</time>
      </trkpt>
      <trkpt lat="43.452901" lon="10.704205">
        <ele>229.246163</ele>
        <time>2026-05-05T01:38:09.691Z</time>
      </trkpt>
      <trkpt lat="43.452549" lon="10.704435">
        <ele>232.261922</ele>
        <time>2026-05-05T01:38:42.603Z</time>
      </trkpt>
      <trkpt lat="43.452315" lon="10.704602">
        <ele>234.301937</ele>
        <time>2026-05-05T01:39:04.117Z</time>
      </trkpt>
      <trkpt lat="43.452089" lon="10.704820">
        <ele>236.437633</ele>
        <time>2026-05-05T01:39:25.374Z</time>
      </trkpt>
      <trkpt lat="43.451988" lon="10.704986">
        <ele>237.654767</ele>
        <time>2026-05-05T01:39:36.670Z</time>
      </trkpt>
      <trkpt lat="43.451908" lon="10.705399">
        <ele>240.056800</ele>
        <time>2026-05-05T01:39:56.156Z</time>
      </trkpt>
      <trkpt lat="43.451825" lon="10.705620">
        <ele>240.470657</ele>
        <time>2026-05-05T01:40:05.136Z</time>
      </trkpt>
      <trkpt lat="43.451616" lon="10.706002">
        <ele>239.236815</ele>
        <time>2026-05-05T01:40:17.710Z</time>
      </trkpt>
      <trkpt lat="43.451272" lon="10.706478">
        <ele>237.504331</ele>
        <time>2026-05-05T01:40:30.436Z</time>
      </trkpt>
      <trkpt lat="43.451194" lon="10.706539">
        <ele>237.185634</ele>
        <time>2026-05-05T01:40:32.562Z</time>
      </trkpt>
      <trkpt lat="43.451200" lon="10.707397">
        <ele>234.972365</ele>
        <time>2026-05-05T01:40:46.652Z</time>
      </trkpt>
      <trkpt lat="43.451161" lon="10.708121">
        <ele>231.241403</ele>
        <time>2026-05-05T01:40:58.074Z</time>
      </trkpt>
      <trkpt lat="43.450923" lon="10.708840">
        <ele>226.266295</ele>
        <time>2026-05-05T01:41:10.459Z</time>
      </trkpt>
      <trkpt lat="43.450699" lon="10.709243">
        <ele>223.070755</ele>
        <time>2026-05-05T01:41:18.512Z</time>
      </trkpt>
      <trkpt lat="43.450644" lon="10.709471">
        <ele>221.558111</ele>
        <time>2026-05-05T01:41:22.347Z</time>
      </trkpt>
      <trkpt lat="43.450438" lon="10.709793">
        <ele>218.855963</ele>
        <time>2026-05-05T01:41:29.285Z</time>
      </trkpt>
      <trkpt lat="43.450345" lon="10.709993">
        <ele>217.910795</ele>
        <time>2026-05-05T01:41:33.183Z</time>
      </trkpt>
      <trkpt lat="43.450298" lon="10.710211">
        <ele>217.029811</ele>
        <time>2026-05-05T01:41:36.936Z</time>
      </trkpt>
      <trkpt lat="43.450280" lon="10.710917">
        <ele>214.293089</ele>
        <time>2026-05-05T01:41:48.963Z</time>
      </trkpt>
      <trkpt lat="43.450164" lon="10.711587">
        <ele>211.624722</ele>
        <time>2026-05-05T01:42:01.275Z</time>
      </trkpt>
      <trkpt lat="43.449870" lon="10.712783">
        <ele>206.585002</ele>
        <time>2026-05-05T01:42:24.480Z</time>
      </trkpt>
      <trkpt lat="43.449692" lon="10.713065">
        <ele>205.050233</ele>
        <time>2026-05-05T01:42:31.127Z</time>
      </trkpt>
      <trkpt lat="43.449663" lon="10.713169">
        <ele>204.592668</ele>
        <time>2026-05-05T01:42:33.071Z</time>
      </trkpt>
      <trkpt lat="43.449671" lon="10.713314">
        <ele>203.995417</ele>
        <time>2026-05-05T01:42:35.595Z</time>
      </trkpt>
      <trkpt lat="43.449729" lon="10.713443">
        <ele>203.372219</ele>
        <time>2026-05-05T01:42:38.187Z</time>
      </trkpt>
      <trkpt lat="43.449994" lon="10.713746">
        <ele>201.423816</ele>
        <time>2026-05-05T01:42:46.124Z</time>
      </trkpt>
      <trkpt lat="43.450380" lon="10.714113">
        <ele>198.722531</ele>
        <time>2026-05-05T01:42:56.640Z</time>
      </trkpt>
      <trkpt lat="43.450697" lon="10.714290">
        <ele>196.412169</ele>
        <time>2026-05-05T01:43:04.211Z</time>
      </trkpt>
      <trkpt lat="43.450830" lon="10.714443">
        <ele>195.241764</ele>
        <time>2026-05-05T01:43:08.030Z</time>
      </trkpt>
      <trkpt lat="43.451065" lon="10.714864">
        <ele>192.637727</ele>
        <time>2026-05-05T01:43:16.619Z</time>
      </trkpt>
      <trkpt lat="43.451420" lon="10.715350">
        <ele>189.257123</ele>
        <time>2026-05-05T01:43:28.066Z</time>
      </trkpt>
      <trkpt lat="43.451651" lon="10.715602">
        <ele>187.266828</ele>
        <time>2026-05-05T01:43:35.144Z</time>
      </trkpt>
      <trkpt lat="43.451716" lon="10.715739">
        <ele>186.646271</ele>
        <time>2026-05-05T01:43:38.070Z</time>
      </trkpt>
      <trkpt lat="43.451711" lon="10.716007">
        <ele>185.923621</ele>
        <time>2026-05-05T01:43:43.030Z</time>
      </trkpt>
      <trkpt lat="43.451760" lon="10.716160">
        <ele>185.472849</ele>
        <time>2026-05-05T01:43:46.178Z</time>
      </trkpt>
      <trkpt lat="43.451850" lon="10.716254">
        <ele>185.053467</ele>
        <time>2026-05-05T01:43:49.139Z</time>
      </trkpt>
      <trkpt lat="43.452146" lon="10.716460">
        <ele>183.822071</ele>
        <time>2026-05-05T01:43:57.943Z</time>
      </trkpt>
      <trkpt lat="43.452212" lon="10.716560">
        <ele>183.457767</ele>
        <time>2026-05-05T01:44:00.532Z</time>
      </trkpt>
      <trkpt lat="43.452284" lon="10.716712">
        <ele>182.968536</ele>
        <time>2026-05-05T01:44:04.002Z</time>
      </trkpt>
      <trkpt lat="43.452352" lon="10.717026">
        <ele>182.085277</ele>
        <time>2026-05-05T01:44:10.155Z</time>
      </trkpt>
      <trkpt lat="43.452409" lon="10.717142">
        <ele>181.707699</ele>
        <time>2026-05-05T01:44:12.728Z</time>
      </trkpt>
      <trkpt lat="43.452568" lon="10.717341">
        <ele>180.910017</ele>
        <time>2026-05-05T01:44:18.132Z</time>
      </trkpt>
      <trkpt lat="43.452670" lon="10.717598">
        <ele>180.106097</ele>
        <time>2026-05-05T01:44:23.409Z</time>
      </trkpt>
      <trkpt lat="43.452889" lon="10.718714">
        <ele>176.342705</ele>
        <time>2026-05-05T01:44:43.542Z</time>
      </trkpt>
      <trkpt lat="43.453857" lon="10.720526">
        <ele>172.292754</ele>
        <time>2026-05-05T01:45:23.857Z</time>
      </trkpt>
      <trkpt lat="43.453992" lon="10.720779">
        <ele>172.348281</ele>
        <time>2026-05-05T01:45:31.451Z</time>
      </trkpt>
      <trkpt lat="43.454206" lon="10.721333">
        <ele>172.459258</ele>
        <time>2026-05-05T01:45:51.270Z</time>
      </trkpt>
      <trkpt lat="43.454455" lon="10.721494">
        <ele>172.526265</ele>
        <time>2026-05-05T01:46:05.721Z</time>
      </trkpt>
      <trkpt lat="43.454521" lon="10.721741">
        <ele>172.676651</ele>
        <time>2026-05-05T01:46:16.667Z</time>
      </trkpt>
      <trkpt lat="43.454498" lon="10.722068">
        <ele>173.305184</ele>
        <time>2026-05-05T01:46:31.585Z</time>
      </trkpt>
      <trkpt lat="43.454517" lon="10.722213">
        <ele>173.587075</ele>
        <time>2026-05-05T01:46:38.371Z</time>
      </trkpt>
      <trkpt lat="43.454611" lon="10.722540">
        <ele>174.259943</ele>
        <time>2026-05-05T01:46:54.048Z</time>
      </trkpt>
      <trkpt lat="43.455000" lon="10.723307">
        <ele>176.049991</ele>
        <time>2026-05-05T01:47:28.535Z</time>
      </trkpt>
      <trkpt lat="43.455132" lon="10.723645">
        <ele>176.784272</ele>
        <time>2026-05-05T01:47:38.201Z</time>
      </trkpt>
      <trkpt lat="43.455339" lon="10.724063">
        <ele>176.416183</ele>
        <time>2026-05-05T01:47:48.655Z</time>
      </trkpt>
      <trkpt lat="43.456749" lon="10.726145">
        <ele>165.075433</ele>
        <time>2026-05-05T01:48:36.566Z</time>
      </trkpt>
      <trkpt lat="43.456978" lon="10.726520">
        <ele>162.736978</ele>
        <time>2026-05-05T01:48:44.591Z</time>
      </trkpt>
      <trkpt lat="43.457150" lon="10.726885">
        <ele>160.660422</ele>
        <time>2026-05-05T01:48:51.745Z</time>
      </trkpt>
      <trkpt lat="43.457266" lon="10.727303">
        <ele>158.524993</ele>
        <time>2026-05-05T01:48:59.191Z</time>
      </trkpt>
      <trkpt lat="43.457531" lon="10.728596">
        <ele>151.736068</ele>
        <time>2026-05-05T01:49:22.190Z</time>
      </trkpt>
      <trkpt lat="43.457586" lon="10.728763">
        <ele>150.778830</ele>
        <time>2026-05-05T01:49:25.328Z</time>
      </trkpt>
      <trkpt lat="43.457823" lon="10.729133">
        <ele>148.203065</ele>
        <time>2026-05-05T01:49:33.610Z</time>
      </trkpt>
      <trkpt lat="43.457866" lon="10.729304">
        <ele>147.258437</ele>
        <time>2026-05-05T01:49:36.560Z</time>
      </trkpt>
      <trkpt lat="43.457928" lon="10.729991">
        <ele>143.644826</ele>
        <time>2026-05-05T01:49:47.611Z</time>
      </trkpt>
      <trkpt lat="43.457928" lon="10.729991">
        <ele>143.644826</ele>
        <time>2026-05-05T01:49:47.637Z</time>
      </trkpt>
      <trkpt lat="43.457928" lon="10.729991">
        <ele>143.644826</ele>
        <time>2026-05-05T01:49:47.637Z</time>
      </trkpt>
      <trkpt lat="43.457377" lon="10.730614">
        <ele>137.182126</ele>
        <time>2026-05-05T01:50:18.246Z</time>
      </trkpt>
      <trkpt lat="43.456826" lon="10.731237">
        <ele>130.593325</ele>
        <time>2026-05-05T01:50:48.876Z</time>
      </trkpt>
      <trkpt lat="43.456275" lon="10.731860">
        <ele>125.239442</ele>
        <time>2026-05-05T01:51:19.427Z</time>
      </trkpt>
      <trkpt lat="43.456966" lon="10.732375">
        <ele>121.462717</ele>
        <time>2026-05-05T01:51:53.062Z</time>
      </trkpt>
      <trkpt lat="43.457656" lon="10.732891">
        <ele>117.884679</ele>
        <time>2026-05-05T01:52:26.648Z</time>
      </trkpt>
      <trkpt lat="43.457652" lon="10.732947">
        <ele>117.846976</ele>
        <time>2026-05-05T01:52:27.720Z</time>
      </trkpt>
      <trkpt lat="43.457739" lon="10.733292">
        <ele>117.602268</ele>
        <time>2026-05-05T01:52:31.664Z</time>
      </trkpt>
      <trkpt lat="43.457836" lon="10.733521">
        <ele>117.424620</ele>
        <time>2026-05-05T01:52:34.553Z</time>
      </trkpt>
      <trkpt lat="43.457952" lon="10.733689">
        <ele>117.269266</ele>
        <time>2026-05-05T01:52:37.135Z</time>
      </trkpt>
      <trkpt lat="43.458112" lon="10.733842">
        <ele>117.089488</ele>
        <time>2026-05-05T01:52:40.229Z</time>
      </trkpt>
      <trkpt lat="43.458847" lon="10.734335">
        <ele>116.334913</ele>
        <time>2026-05-05T01:52:55.735Z</time>
      </trkpt>
      <trkpt lat="43.459379" lon="10.734744">
        <ele>118.339160</ele>
        <time>2026-05-05T01:53:14.509Z</time>
      </trkpt>
      <trkpt lat="43.459443" lon="10.734611">
        <ele>118.782711</ele>
        <time>2026-05-05T01:53:18.692Z</time>
      </trkpt>
      <trkpt lat="43.459564" lon="10.734470">
        <ele>119.389597</ele>
        <time>2026-05-05T01:53:24.680Z</time>
      </trkpt>
      <trkpt lat="43.459736" lon="10.734408">
        <ele>120.070430</ele>
        <time>2026-05-05T01:53:31.860Z</time>
      </trkpt>
      <trkpt lat="43.459976" lon="10.734391">
        <ele>120.990706</ele>
        <time>2026-05-05T01:53:42.336Z</time>
      </trkpt>
      <trkpt lat="43.460501" lon="10.734164">
        <ele>123.097842</ele>
        <time>2026-05-05T01:54:08.543Z</time>
      </trkpt>
      <trkpt lat="43.460674" lon="10.734125">
        <ele>123.911552</ele>
        <time>2026-05-05T01:54:17.170Z</time>
      </trkpt>
      <trkpt lat="43.461587" lon="10.734094">
        <ele>128.224936</ele>
        <time>2026-05-05T01:54:58.489Z</time>
      </trkpt>
      <trkpt lat="43.461724" lon="10.734040">
        <ele>128.897943</ele>
        <time>2026-05-05T01:55:04.330Z</time>
      </trkpt>
      <trkpt lat="43.461866" lon="10.733913">
        <ele>129.697526</ele>
        <time>2026-05-05T01:55:11.064Z</time>
      </trkpt>
      <trkpt lat="43.461995" lon="10.733725">
        <ele>130.584406</ele>
        <time>2026-05-05T01:55:18.374Z</time>
      </trkpt>
      <trkpt lat="43.462094" lon="10.733461">
        <ele>131.603068</ele>
        <time>2026-05-05T01:55:26.487Z</time>
      </trkpt>
      <trkpt lat="43.462193" lon="10.733012">
        <ele>133.366995</ele>
        <time>2026-05-05T01:55:38.762Z</time>
      </trkpt>
      <trkpt lat="43.462210" lon="10.732607">
        <ele>134.896282</ele>
        <time>2026-05-05T01:55:49.313Z</time>
      </trkpt>
      <trkpt lat="43.462192" lon="10.732377">
        <ele>135.768343</ele>
        <time>2026-05-05T01:55:55.785Z</time>
      </trkpt>
      <trkpt lat="43.461993" lon="10.731857">
        <ele>137.984381</ele>
        <time>2026-05-05T01:56:14.324Z</time>
      </trkpt>
      <trkpt lat="43.461920" lon="10.731595">
        <ele>139.042322</ele>
        <time>2026-05-05T01:56:24.510Z</time>
      </trkpt>
      <trkpt lat="43.461900" lon="10.731395">
        <ele>139.803391</ele>
        <time>2026-05-05T01:56:32.385Z</time>
      </trkpt>
      <trkpt lat="43.461919" lon="10.731244">
        <ele>140.381112</ele>
        <time>2026-05-05T01:56:38.693Z</time>
      </trkpt>
      <trkpt lat="43.461977" lon="10.731068">
        <ele>141.162042</ele>
        <time>2026-05-05T01:56:46.905Z</time>
      </trkpt>
      <trkpt lat="43.462083" lon="10.730954">
        <ele>142.179538</ele>
        <time>2026-05-05T01:56:55.002Z</time>
      </trkpt>
      <trkpt lat="43.462253" lon="10.730896">
        <ele>143.504714</ele>
        <time>2026-05-05T01:57:05.815Z</time>
      </trkpt>
      <trkpt lat="43.462426" lon="10.730902">
        <ele>144.814152</ele>
        <time>2026-05-05T01:57:16.705Z</time>
      </trkpt>
      <trkpt lat="43.462623" lon="10.730962">
        <ele>146.340761</ele>
        <time>2026-05-05T01:57:29.733Z</time>
      </trkpt>
      <trkpt lat="43.462869" lon="10.731090">
        <ele>148.330467</ele>
        <time>2026-05-05T01:57:46.924Z</time>
      </trkpt>
      <trkpt lat="43.463152" lon="10.731305">
        <ele>150.775791</ele>
        <time>2026-05-05T01:58:06.313Z</time>
      </trkpt>
      <trkpt lat="43.463476" lon="10.731459">
        <ele>153.369158</ele>
        <time>2026-05-05T01:58:24.924Z</time>
      </trkpt>
      <trkpt lat="43.463749" lon="10.731433">
        <ele>154.846135</ele>
        <time>2026-05-05T01:58:38.572Z</time>
      </trkpt>
      <trkpt lat="43.463865" lon="10.731326">
        <ele>155.151278</ele>
        <time>2026-05-05T01:58:44.873Z</time>
      </trkpt>
      <trkpt lat="43.463959" lon="10.731180">
        <ele>155.460912</ele>
        <time>2026-05-05T01:58:50.658Z</time>
      </trkpt>
      <trkpt lat="43.464041" lon="10.730992">
        <ele>155.808893</ele>
        <time>2026-05-05T01:58:56.710Z</time>
      </trkpt>
      <trkpt lat="43.464084" lon="10.731117">
        <ele>156.028356</ele>
        <time>2026-05-05T01:59:01.498Z</time>
      </trkpt>
      <trkpt lat="43.463961" lon="10.731884">
        <ele>157.274571</ele>
        <time>2026-05-05T01:59:25.365Z</time>
      </trkpt>
      <trkpt lat="43.463578" lon="10.735000">
        <ele>154.760925</ele>
        <time>2026-05-05T02:00:32.359Z</time>
      </trkpt>
      <trkpt lat="43.464014" lon="10.735509">
        <ele>148.913046</ele>
        <time>2026-05-05T02:00:44.940Z</time>
      </trkpt>
      <trkpt lat="43.464091" lon="10.735563">
        <ele>147.912336</ele>
        <time>2026-05-05T02:00:46.776Z</time>
      </trkpt>
      <trkpt lat="43.464901" lon="10.735703">
        <ele>138.457265</ele>
        <time>2026-05-05T02:01:03.424Z</time>
      </trkpt>
      <trkpt lat="43.465158" lon="10.735853">
        <ele>135.224591</ele>
        <time>2026-05-05T02:01:09.042Z</time>
      </trkpt>
      <trkpt lat="43.465423" lon="10.735917">
        <ele>132.513451</ele>
        <time>2026-05-05T02:01:14.481Z</time>
      </trkpt>
      <trkpt lat="43.465875" lon="10.736132">
        <ele>128.342996</ele>
        <time>2026-05-05T02:01:24.350Z</time>
      </trkpt>
      <trkpt lat="43.466365" lon="10.736303">
        <ele>123.934482</ele>
        <time>2026-05-05T02:01:35.387Z</time>
      </trkpt>
      <trkpt lat="43.466435" lon="10.736422">
        <ele>122.964883</ele>
        <time>2026-05-05T02:01:37.886Z</time>
      </trkpt>
      <trkpt lat="43.466435" lon="10.736582">
        <ele>121.952096</ele>
        <time>2026-05-05T02:01:40.599Z</time>
      </trkpt>
      <trkpt lat="43.466334" lon="10.737054">
        <ele>118.837225</ele>
        <time>2026-05-05T02:01:49.277Z</time>
      </trkpt>
      <trkpt lat="43.466194" lon="10.737344">
        <ele>118.502308</ele>
        <time>2026-05-05T02:01:56.048Z</time>
      </trkpt>
      <trkpt lat="43.466209" lon="10.737484">
        <ele>118.779025</ele>
        <time>2026-05-05T02:01:59.008Z</time>
      </trkpt>
      <trkpt lat="43.466389" lon="10.737687">
        <ele>119.405709</ele>
        <time>2026-05-05T02:02:06.374Z</time>
      </trkpt>
      <trkpt lat="43.466934" lon="10.738020">
        <ele>121.011916</ele>
        <time>2026-05-05T02:02:33.243Z</time>
      </trkpt>
      <trkpt lat="43.467572" lon="10.738256">
        <ele>122.791646</ele>
        <time>2026-05-05T02:03:13.636Z</time>
      </trkpt>
      <trkpt lat="43.467899" lon="10.738417">
        <ele>125.481781</ele>
        <time>2026-05-05T02:03:38.687Z</time>
      </trkpt>
      <trkpt lat="43.468186" lon="10.738481">
        <ele>127.940386</ele>
        <time>2026-05-05T02:04:00.957Z</time>
      </trkpt>
      <trkpt lat="43.468244" lon="10.738333">
        <ele>128.972683</ele>
        <time>2026-05-05T02:04:08.791Z</time>
      </trkpt>
      <trkpt lat="43.468435" lon="10.738142">
        <ele>130.968430</ele>
        <time>2026-05-05T02:04:23.940Z</time>
      </trkpt>
      <trkpt lat="43.468635" lon="10.738076">
        <ele>132.707567</ele>
        <time>2026-05-05T02:04:37.021Z</time>
      </trkpt>
      <trkpt lat="43.468981" lon="10.738048">
        <ele>135.638570</ele>
        <time>2026-05-05T02:04:58.508Z</time>
      </trkpt>
      <trkpt lat="43.469216" lon="10.737941">
        <ele>137.731546</ele>
        <time>2026-05-05T02:05:13.823Z</time>
      </trkpt>
      <trkpt lat="43.469319" lon="10.737820">
        <ele>139.162291</ele>
        <time>2026-05-05T02:05:22.347Z</time>
      </trkpt>
      <trkpt lat="43.469721" lon="10.737082">
        <ele>146.960242</ele>
        <time>2026-05-05T02:06:08.472Z</time>
      </trkpt>
      <trkpt lat="43.469920" lon="10.736610">
        <ele>151.573225</ele>
        <time>2026-05-05T02:06:40.925Z</time>
      </trkpt>
      <trkpt lat="43.470009" lon="10.736399">
        <ele>153.635616</ele>
        <time>2026-05-05T02:06:56.670Z</time>
      </trkpt>
      <trkpt lat="43.470199" lon="10.736040">
        <ele>157.390447</ele>
        <time>2026-05-05T02:07:26.519Z</time>
      </trkpt>
      <trkpt lat="43.470249" lon="10.735857">
        <ele>159.042886</ele>
        <time>2026-05-05T02:07:39.455Z</time>
      </trkpt>
      <trkpt lat="43.470346" lon="10.735265">
        <ele>163.637062</ele>
        <time>2026-05-05T02:08:17.732Z</time>
      </trkpt>
      <trkpt lat="43.470409" lon="10.734801">
        <ele>167.208945</ele>
        <time>2026-05-05T02:08:43.867Z</time>
      </trkpt>
      <trkpt lat="43.470321" lon="10.734293">
        <ele>171.160836</ele>
        <time>2026-05-05T02:09:10.002Z</time>
      </trkpt>
      <trkpt lat="43.470308" lon="10.734055">
        <ele>172.966815</ele>
        <time>2026-05-05T02:09:21.266Z</time>
      </trkpt>
      <trkpt lat="43.470307" lon="10.734031">
        <ele>173.148716</ele>
        <time>2026-05-05T02:09:22.393Z</time>
      </trkpt>
      <trkpt lat="43.470370" lon="10.733643">
        <ele>176.157196</ele>
        <time>2026-05-05T02:09:39.233Z</time>
      </trkpt>
      <trkpt lat="43.470391" lon="10.733291">
        <ele>178.631811</ele>
        <time>2026-05-05T02:09:53.001Z</time>
      </trkpt>
      <trkpt lat="43.470511" lon="10.733278">
        <ele>179.642230</ele>
        <time>2026-05-05T02:10:00.127Z</time>
      </trkpt>
      <trkpt lat="43.470573" lon="10.733128">
        <ele>180.693837</ele>
        <time>2026-05-05T02:10:07.728Z</time>
      </trkpt>
      <trkpt lat="43.470659" lon="10.732623">
        <ele>183.853833</ele>
        <time>2026-05-05T02:10:31.747Z</time>
      </trkpt>
      <trkpt lat="43.470789" lon="10.732124">
        <ele>187.083641</ele>
        <time>2026-05-05T02:10:59.094Z</time>
      </trkpt>
      <trkpt lat="43.470842" lon="10.731922">
        <ele>188.392163</ele>
        <time>2026-05-05T02:11:10.844Z</time>
      </trkpt>
      <trkpt lat="43.470777" lon="10.730707">
        <ele>194.807737</ele>
        <time>2026-05-05T02:12:12.873Z</time>
      </trkpt>
      <trkpt lat="43.470705" lon="10.730667">
        <ele>195.233387</ele>
        <time>2026-05-05T02:12:17.817Z</time>
      </trkpt>
      <trkpt lat="43.470659" lon="10.730259">
        <ele>196.876338</ele>
        <time>2026-05-05T02:12:34.066Z</time>
      </trkpt>
      <trkpt lat="43.470455" lon="10.729273">
        <ele>200.956071</ele>
        <time>2026-05-05T02:13:07.362Z</time>
      </trkpt>
      <trkpt lat="43.470915" lon="10.728846">
        <ele>202.854897</ele>
        <time>2026-05-05T02:13:23.414Z</time>
      </trkpt>
      <trkpt lat="43.471240" lon="10.728633">
        <ele>202.984503</ele>
        <time>2026-05-05T02:13:31.476Z</time>
      </trkpt>
      <trkpt lat="43.471493" lon="10.728522">
        <ele>203.080122</ele>
        <time>2026-05-05T02:13:36.826Z</time>
      </trkpt>
      <trkpt lat="43.471896" lon="10.728311">
        <ele>203.235376</ele>
        <time>2026-05-05T02:13:44.952Z</time>
      </trkpt>
      <trkpt lat="43.471992" lon="10.728375">
        <ele>203.273782</ele>
        <time>2026-05-05T02:13:46.781Z</time>
      </trkpt>
      <trkpt lat="43.472101" lon="10.728383">
        <ele>203.313092</ele>
        <time>2026-05-05T02:13:48.671Z</time>
      </trkpt>
      <trkpt lat="43.472345" lon="10.728318">
        <ele>203.402590</ele>
        <time>2026-05-05T02:13:52.920Z</time>
      </trkpt>
      <trkpt lat="43.472752" lon="10.728058">
        <ele>204.023672</ele>
        <time>2026-05-05T02:14:01.400Z</time>
      </trkpt>
      <trkpt lat="43.472862" lon="10.727983">
        <ele>204.211093</ele>
        <time>2026-05-05T02:14:04.392Z</time>
      </trkpt>
      <trkpt lat="43.472996" lon="10.727909">
        <ele>204.431548</ele>
        <time>2026-05-05T02:14:08.255Z</time>
      </trkpt>
      <trkpt lat="43.473122" lon="10.727891">
        <ele>204.624996</ele>
        <time>2026-05-05T02:14:11.820Z</time>
      </trkpt>
      <trkpt lat="43.473431" lon="10.727985">
        <ele>205.108238</ele>
        <time>2026-05-05T02:14:20.972Z</time>
      </trkpt>
      <trkpt lat="43.474176" lon="10.728260">
        <ele>206.200155</ele>
        <time>2026-05-05T02:14:46.405Z</time>
      </trkpt>
      <trkpt lat="43.474321" lon="10.728303">
        <ele>206.260328</ele>
        <time>2026-05-05T02:14:51.460Z</time>
      </trkpt>
      <trkpt lat="43.474678" lon="10.728408">
        <ele>206.408425</ele>
        <time>2026-05-05T02:15:02.706Z</time>
      </trkpt>
      <trkpt lat="43.475250" lon="10.728399">
        <ele>206.640501</ele>
        <time>2026-05-05T02:15:16.203Z</time>
      </trkpt>
      <trkpt lat="43.475409" lon="10.728480">
        <ele>206.709274</ele>
        <time>2026-05-05T02:15:19.193Z</time>
      </trkpt>
      <trkpt lat="43.476174" lon="10.728883">
        <ele>204.489076</ele>
        <time>2026-05-05T02:15:31.903Z</time>
      </trkpt>
      <trkpt lat="43.476350" lon="10.729038">
        <ele>203.058624</ele>
        <time>2026-05-05T02:15:34.780Z</time>
      </trkpt>
      <trkpt lat="43.476401" lon="10.729079">
        <ele>202.654262</ele>
        <time>2026-05-05T02:15:35.569Z</time>
      </trkpt>
      <trkpt lat="43.476612" lon="10.729229">
        <ele>201.028282</ele>
        <time>2026-05-05T02:15:38.678Z</time>
      </trkpt>
      <trkpt lat="43.476855" lon="10.729282">
        <ele>199.343384</ele>
        <time>2026-05-05T02:15:41.758Z</time>
      </trkpt>
      <trkpt lat="43.477054" lon="10.729352">
        <ele>197.936836</ele>
        <time>2026-05-05T02:15:44.272Z</time>
      </trkpt>
      <trkpt lat="43.477106" lon="10.729952">
        <ele>194.933881</ele>
        <time>2026-05-05T02:15:49.470Z</time>
      </trkpt>
      <trkpt lat="43.477273" lon="10.730348">
        <ele>190.952113</ele>
        <time>2026-05-05T02:15:53.322Z</time>
      </trkpt>
      <trkpt lat="43.477351" lon="10.730728">
        <ele>187.248963</ele>
        <time>2026-05-05T02:15:56.622Z</time>
      </trkpt>
      <trkpt lat="43.477387" lon="10.731189">
        <ele>182.901122</ele>
        <time>2026-05-05T02:16:00.451Z</time>
      </trkpt>
      <trkpt lat="43.477453" lon="10.731578">
        <ele>179.155019</ele>
        <time>2026-05-05T02:16:03.740Z</time>
      </trkpt>
      <trkpt lat="43.477530" lon="10.731782">
        <ele>176.998764</ele>
        <time>2026-05-05T02:16:05.645Z</time>
      </trkpt>
      <trkpt lat="43.477632" lon="10.731911">
        <ele>175.209730</ele>
        <time>2026-05-05T02:16:07.246Z</time>
      </trkpt>
      <trkpt lat="43.477674" lon="10.731916">
        <ele>174.664963</ele>
        <time>2026-05-05T02:16:07.728Z</time>
      </trkpt>
      <trkpt lat="43.477760" lon="10.731927">
        <ele>173.548849</ele>
        <time>2026-05-05T02:16:08.738Z</time>
      </trkpt>
      <trkpt lat="43.477868" lon="10.732704">
        <ele>167.151206</ele>
        <time>2026-05-05T02:16:15.558Z</time>
      </trkpt>
      <trkpt lat="43.478013" lon="10.733001">
        <ele>164.452565</ele>
        <time>2026-05-05T02:16:18.717Z</time>
      </trkpt>
      <trkpt lat="43.478338" lon="10.733482">
        <ele>159.497776</ele>
        <time>2026-05-05T02:16:24.469Z</time>
      </trkpt>
      <trkpt lat="43.478491" lon="10.733721">
        <ele>157.095055</ele>
        <time>2026-05-05T02:16:27.239Z</time>
      </trkpt>
      <trkpt lat="43.478577" lon="10.733979">
        <ele>154.954648</ele>
        <time>2026-05-05T02:16:29.717Z</time>
      </trkpt>
      <trkpt lat="43.478605" lon="10.734117">
        <ele>153.874393</ele>
        <time>2026-05-05T02:16:30.960Z</time>
      </trkpt>
      <trkpt lat="43.478635" lon="10.734662">
        <ele>149.225136</ele>
        <time>2026-05-05T02:16:35.617Z</time>
      </trkpt>
      <trkpt lat="43.478857" lon="10.735729">
        <ele>139.329789</ele>
        <time>2026-05-05T02:16:44.885Z</time>
      </trkpt>
      <trkpt lat="43.478966" lon="10.736005">
        <ele>136.528509</ele>
        <time>2026-05-05T02:16:49.575Z</time>
      </trkpt>
      <trkpt lat="43.479067" lon="10.736153">
        <ele>134.717308</ele>
        <time>2026-05-05T02:16:52.605Z</time>
      </trkpt>
      <trkpt lat="43.479258" lon="10.736231">
        <ele>132.269908</ele>
        <time>2026-05-05T02:16:56.750Z</time>
      </trkpt>
      <trkpt lat="43.479503" lon="10.736427">
        <ele>129.416651</ele>
        <time>2026-05-05T02:17:02.692Z</time>
      </trkpt>
      <trkpt lat="43.479787" lon="10.736781">
        <ele>126.384247</ele>
        <time>2026-05-05T02:17:10.882Z</time>
      </trkpt>
      <trkpt lat="43.480558" lon="10.737494">
        <ele>119.031594</ele>
        <time>2026-05-05T02:17:31.991Z</time>
      </trkpt>
      <trkpt lat="43.480711" lon="10.737589">
        <ele>117.702713</ele>
        <time>2026-05-05T02:17:36.006Z</time>
      </trkpt>
      <trkpt lat="43.481249" lon="10.737637">
        <ele>114.544358</ele>
        <time>2026-05-05T02:17:48.991Z</time>
      </trkpt>
      <trkpt lat="43.481628" lon="10.737671">
        <ele>112.698031</ele>
        <time>2026-05-05T02:17:58.118Z</time>
      </trkpt>
      <trkpt lat="43.481959" lon="10.737795">
        <ele>111.030558</ele>
        <time>2026-05-05T02:18:06.321Z</time>
      </trkpt>
      <trkpt lat="43.482610" lon="10.738205">
        <ele>107.557308</ele>
        <time>2026-05-05T02:18:23.687Z</time>
      </trkpt>
      <trkpt lat="43.482898" lon="10.738387">
        <ele>106.623540</ele>
        <time>2026-05-05T02:18:31.858Z</time>
      </trkpt>
      <trkpt lat="43.483132" lon="10.738646">
        <ele>105.739028</ele>
        <time>2026-05-05T02:18:39.539Z</time>
      </trkpt>
      <trkpt lat="43.482898" lon="10.738387">
        <ele>104.854516</ele>
        <time>2026-05-05T02:18:47.390Z</time>
      </trkpt>
      <trkpt lat="43.482610" lon="10.738205">
        <ele>103.920747</ele>
        <time>2026-05-05T02:18:55.901Z</time>
      </trkpt>
      <trkpt lat="43.482898" lon="10.738387">
        <ele>102.986979</ele>
        <time>2026-05-05T02:19:04.654Z</time>
      </trkpt>
      <trkpt lat="43.483132" lon="10.738646">
        <ele>102.088846</ele>
        <time>2026-05-05T02:19:13.003Z</time>
      </trkpt>
      <trkpt lat="43.483297" lon="10.738828">
        <ele>101.414094</ele>
        <time>2026-05-05T02:19:18.662Z</time>
      </trkpt>
      <trkpt lat="43.483882" lon="10.739474">
        <ele>99.020742</ele>
        <time>2026-05-05T02:19:37.512Z</time>
      </trkpt>
      <trkpt lat="43.483972" lon="10.739672">
        <ele>98.479486</ele>
        <time>2026-05-05T02:19:41.800Z</time>
      </trkpt>
      <trkpt lat="43.484058" lon="10.740447">
        <ele>96.663269</ele>
        <time>2026-05-05T02:19:56.271Z</time>
      </trkpt>
      <trkpt lat="43.484832" lon="10.741533">
        <ele>94.211060</ele>
        <time>2026-05-05T02:20:25.750Z</time>
      </trkpt>
      <trkpt lat="43.485750" lon="10.742762">
        <ele>90.326080</ele>
        <time>2026-05-05T02:21:02.205Z</time>
      </trkpt>
      <trkpt lat="43.486140" lon="10.742440">
        <ele>88.416162</ele>
        <time>2026-05-05T02:21:13.887Z</time>
      </trkpt>
      <trkpt lat="43.486233" lon="10.742446">
        <ele>88.025030</ele>
        <time>2026-05-05T02:21:16.185Z</time>
      </trkpt>
      <trkpt lat="43.486540" lon="10.742655">
        <ele>86.586535</ele>
        <time>2026-05-05T02:21:24.383Z</time>
      </trkpt>
      <trkpt lat="43.487638" lon="10.742537">
        <ele>80.188069</ele>
        <time>2026-05-05T02:21:48.889Z</time>
      </trkpt>
      <trkpt lat="43.488281" lon="10.742711">
        <ele>75.854925</ele>
        <time>2026-05-05T02:22:03.657Z</time>
      </trkpt>
      <trkpt lat="43.488431" lon="10.742916">
        <ele>74.458082</ele>
        <time>2026-05-05T02:22:08.661Z</time>
      </trkpt>
      <trkpt lat="43.488663" lon="10.742640">
        <ele>72.977761</ele>
        <time>2026-05-05T02:22:12.823Z</time>
      </trkpt>
      <trkpt lat="43.488954" lon="10.742356">
        <ele>72.407321</ele>
        <time>2026-05-05T02:22:18.038Z</time>
      </trkpt>
      <trkpt lat="43.490140" lon="10.741542">
        <ele>70.287693</ele>
        <time>2026-05-05T02:22:41.895Z</time>
      </trkpt>
      <trkpt lat="43.490746" lon="10.740959">
        <ele>68.994837</ele>
        <time>2026-05-05T02:22:54.565Z</time>
      </trkpt>
      <trkpt lat="43.491122" lon="10.740421">
        <ele>68.045799</ele>
        <time>2026-05-05T02:23:02.890Z</time>
      </trkpt>
      <trkpt lat="43.492283" lon="10.741247">
        <ele>65.182749</ele>
        <time>2026-05-05T02:23:23.417Z</time>
      </trkpt>
      <trkpt lat="43.492287" lon="10.741250">
        <ele>65.171420</ele>
        <time>2026-05-05T02:23:23.489Z</time>
      </trkpt>
      <trkpt lat="43.493038" lon="10.741739">
        <ele>63.105034</ele>
        <time>2026-05-05T02:23:36.789Z</time>
      </trkpt>
      <trkpt lat="43.493094" lon="10.741802">
        <ele>62.925201</ele>
        <time>2026-05-05T02:23:37.939Z</time>
      </trkpt>
      <trkpt lat="43.493140" lon="10.741952">
        <ele>62.637677</ele>
        <time>2026-05-05T02:23:39.842Z</time>
      </trkpt>
      <trkpt lat="43.493034" lon="10.742283">
        <ele>62.207589</ele>
        <time>2026-05-05T02:23:44.150Z</time>
      </trkpt>
      <trkpt lat="43.493032" lon="10.742331">
        <ele>62.150437</ele>
        <time>2026-05-05T02:23:44.715Z</time>
      </trkpt>
      <trkpt lat="43.493031" lon="10.742378">
        <ele>62.094545</ele>
        <time>2026-05-05T02:23:45.271Z</time>
      </trkpt>
      <trkpt lat="43.493074" lon="10.742494">
        <ele>61.939698</ele>
        <time>2026-05-05T02:23:46.813Z</time>
      </trkpt>
      <trkpt lat="43.493256" lon="10.742864">
        <ele>61.408313</ele>
        <time>2026-05-05T02:23:52.138Z</time>
      </trkpt>
      <trkpt lat="43.493383" lon="10.743099">
        <ele>61.059980</ele>
        <time>2026-05-05T02:23:55.645Z</time>
      </trkpt>
      <trkpt lat="43.492923" lon="10.743683">
        <ele>60.035277</ele>
        <time>2026-05-05T02:24:13.198Z</time>
      </trkpt>
      <trkpt lat="43.492481" lon="10.743904">
        <ele>59.715367</ele>
        <time>2026-05-05T02:24:27.394Z</time>
      </trkpt>
      <trkpt lat="43.491897" lon="10.744449">
        <ele>59.748335</ele>
        <time>2026-05-05T02:24:50.619Z</time>
      </trkpt>
      <trkpt lat="43.491444" lon="10.745061">
        <ele>59.777985</ele>
        <time>2026-05-05T02:25:11.988Z</time>
      </trkpt>
      <trkpt lat="43.491358" lon="10.745306">
        <ele>59.789601</ele>
        <time>2026-05-05T02:25:18.557Z</time>
      </trkpt>
      <trkpt lat="43.491191" lon="10.745622">
        <ele>59.922022</ele>
        <time>2026-05-05T02:25:28.037Z</time>
      </trkpt>
      <trkpt lat="43.490938" lon="10.746390">
        <ele>60.207718</ele>
        <time>2026-05-05T02:25:48.624Z</time>
      </trkpt>
      <trkpt lat="43.490649" lon="10.747114">
        <ele>60.487618</ele>
        <time>2026-05-05T02:26:09.159Z</time>
      </trkpt>
      <trkpt lat="43.490297" lon="10.747752">
        <ele>60.807321</ele>
        <time>2026-05-05T02:26:29.579Z</time>
      </trkpt>
      <trkpt lat="43.489962" lon="10.748597">
        <ele>61.252244</ele>
        <time>2026-05-05T02:26:54.151Z</time>
      </trkpt>
      <trkpt lat="43.489202" lon="10.750165">
        <ele>62.038908</ele>
        <time>2026-05-05T02:27:41.496Z</time>
      </trkpt>
      <trkpt lat="43.488895" lon="10.750632">
        <ele>62.259940</ele>
        <time>2026-05-05T02:27:57.350Z</time>
      </trkpt>
      <trkpt lat="43.488480" lon="10.751395">
        <ele>62.594405</ele>
        <time>2026-05-05T02:28:21.119Z</time>
      </trkpt>
      <trkpt lat="43.487597" lon="10.752600">
        <ele>62.810476</ele>
        <time>2026-05-05T02:29:01.764Z</time>
      </trkpt>
      <trkpt lat="43.487109" lon="10.753153">
        <ele>62.903601</ele>
        <time>2026-05-05T02:29:21.770Z</time>
      </trkpt>
      <trkpt lat="43.486586" lon="10.753627">
        <ele>63.088939</ele>
        <time>2026-05-05T02:29:41.895Z</time>
      </trkpt>
      <trkpt lat="43.485928" lon="10.754155">
        <ele>63.318553</ele>
        <time>2026-05-05T02:30:07.414Z</time>
      </trkpt>
      <trkpt lat="43.485192" lon="10.754431">
        <ele>63.648630</ele>
        <time>2026-05-05T02:30:33.820Z</time>
      </trkpt>
      <trkpt lat="43.484019" lon="10.754549">
        <ele>64.360755</ele>
        <time>2026-05-05T02:31:15.168Z</time>
      </trkpt>
      <trkpt lat="43.483351" lon="10.754821">
        <ele>64.740473</ele>
        <time>2026-05-05T02:31:38.881Z</time>
      </trkpt>
      <trkpt lat="43.483100" lon="10.755139">
        <ele>64.911369</ele>
        <time>2026-05-05T02:31:50.321Z</time>
      </trkpt>
      <trkpt lat="43.482752" lon="10.755189">
        <ele>65.086751</ele>
        <time>2026-05-05T02:32:02.100Z</time>
      </trkpt>
      <trkpt lat="43.482523" lon="10.755336">
        <ele>65.213378</ele>
        <time>2026-05-05T02:32:10.548Z</time>
      </trkpt>
      <trkpt lat="43.484158" lon="10.759628">
        <ele>68.442178</ele>
        <time>2026-05-05T02:34:14.796Z</time>
      </trkpt>
      <trkpt lat="43.484281" lon="10.759636">
        <ele>68.611572</ele>
        <time>2026-05-05T02:34:19.672Z</time>
      </trkpt>
      <trkpt lat="43.484697" lon="10.759107">
        <ele>70.018404</ele>
        <time>2026-05-05T02:34:44.005Z</time>
      </trkpt>
      <trkpt lat="43.485318" lon="10.758319">
        <ele>74.553272</ele>
        <time>2026-05-05T02:35:30.741Z</time>
      </trkpt>
      <trkpt lat="43.485816" lon="10.757858">
        <ele>77.776145</ele>
        <time>2026-05-05T02:36:11.282Z</time>
      </trkpt>
      <trkpt lat="43.486027" lon="10.757772">
        <ele>78.984102</ele>
        <time>2026-05-05T02:36:26.747Z</time>
      </trkpt>
      <trkpt lat="43.486338" lon="10.757815">
        <ele>81.021347</ele>
        <time>2026-05-05T02:36:49.002Z</time>
      </trkpt>
      <trkpt lat="43.487739" lon="10.758437">
        <ele>90.591435</ele>
        <time>2026-05-05T02:38:24.334Z</time>
      </trkpt>
      <trkpt lat="43.488315" lon="10.758780">
        <ele>92.918474</ele>
        <time>2026-05-05T02:38:58.340Z</time>
      </trkpt>
      <trkpt lat="43.489857" lon="10.758449">
        <ele>98.290555</ele>
        <time>2026-05-05T02:40:10.317Z</time>
      </trkpt>
      <trkpt lat="43.490012" lon="10.758415">
        <ele>98.708640</ele>
        <time>2026-05-05T02:40:17.159Z</time>
      </trkpt>
      <trkpt lat="43.492610" lon="10.759440">
        <ele>106.321785</ele>
        <time>2026-05-05T02:42:17.874Z</time>
      </trkpt>
      <trkpt lat="43.492813" lon="10.759521">
        <ele>106.944826</ele>
        <time>2026-05-05T02:42:28.353Z</time>
      </trkpt>
      <trkpt lat="43.493328" lon="10.759567">
        <ele>109.353737</ele>
        <time>2026-05-05T02:42:55.317Z</time>
      </trkpt>
      <trkpt lat="43.494870" lon="10.759775">
        <ele>117.542100</ele>
        <time>2026-05-05T02:44:28.011Z</time>
      </trkpt>
      <trkpt lat="43.495523" lon="10.759864">
        <ele>121.311171</ele>
        <time>2026-05-05T02:45:11.998Z</time>
      </trkpt>
      <trkpt lat="43.495981" lon="10.760175">
        <ele>124.243738</ele>
        <time>2026-05-05T02:45:45.855Z</time>
      </trkpt>
      <trkpt lat="43.496465" lon="10.760293">
        <ele>127.066941</ele>
        <time>2026-05-05T02:46:13.570Z</time>
      </trkpt>
      <trkpt lat="43.496748" lon="10.760540">
        <ele>127.177632</ele>
        <time>2026-05-05T02:46:29.497Z</time>
      </trkpt>
      <trkpt lat="43.496784" lon="10.760572">
        <ele>127.190054</ele>
        <time>2026-05-05T02:46:31.309Z</time>
      </trkpt>
      <trkpt lat="43.497281" lon="10.761661">
        <ele>127.460709</ele>
        <time>2026-05-05T02:47:00.549Z</time>
      </trkpt>
      <trkpt lat="43.497502" lon="10.761930">
        <ele>127.546205</ele>
        <time>2026-05-05T02:47:08.315Z</time>
      </trkpt>
      <trkpt lat="43.498059" lon="10.762610">
        <ele>127.829801</ele>
        <time>2026-05-05T02:47:28.457Z</time>
      </trkpt>
      <trkpt lat="43.498624" lon="10.762679">
        <ele>128.064398</ele>
        <time>2026-05-05T02:47:46.058Z</time>
      </trkpt>
      <trkpt lat="43.498993" lon="10.762739">
        <ele>128.218072</ele>
        <time>2026-05-05T02:48:00.602Z</time>
      </trkpt>
      <trkpt lat="43.499297" lon="10.762879">
        <ele>128.406911</ele>
        <time>2026-05-05T02:48:15.452Z</time>
      </trkpt>
      <trkpt lat="43.499787" lon="10.762964">
        <ele>131.552511</ele>
        <time>2026-05-05T02:48:42.687Z</time>
      </trkpt>
      <trkpt lat="43.501149" lon="10.763512">
        <ele>140.556248</ele>
        <time>2026-05-05T02:50:21.270Z</time>
      </trkpt>
      <trkpt lat="43.501701" lon="10.764209">
        <ele>145.122402</ele>
        <time>2026-05-05T02:51:14.347Z</time>
      </trkpt>
      <trkpt lat="43.501865" lon="10.764565">
        <ele>146.988439</ele>
        <time>2026-05-05T02:51:33.271Z</time>
      </trkpt>
      <trkpt lat="43.501943" lon="10.764735">
        <ele>147.878495</ele>
        <time>2026-05-05T02:51:41.796Z</time>
      </trkpt>
      <trkpt lat="43.502301" lon="10.765239">
        <ele>150.876833</ele>
        <time>2026-05-05T02:52:09.006Z</time>
      </trkpt>
      <trkpt lat="43.502744" lon="10.765636">
        <ele>152.338394</ele>
        <time>2026-05-05T02:52:33.574Z</time>
      </trkpt>
      <trkpt lat="43.503382" lon="10.765765">
        <ele>154.122102</ele>
        <time>2026-05-05T02:53:03.527Z</time>
      </trkpt>
      <trkpt lat="43.503943" lon="10.765733">
        <ele>155.675263</ele>
        <time>2026-05-05T02:53:28.826Z</time>
      </trkpt>
      <trkpt lat="43.504308" lon="10.765893">
        <ele>155.368137</ele>
        <time>2026-05-05T02:53:43.118Z</time>
      </trkpt>
      <trkpt lat="43.504464" lon="10.766344">
        <ele>154.979050</ele>
        <time>2026-05-05T02:53:54.341Z</time>
      </trkpt>
      <trkpt lat="43.504781" lon="10.766848">
        <ele>154.459576</ele>
        <time>2026-05-05T02:54:07.344Z</time>
      </trkpt>
      <trkpt lat="43.505047" lon="10.767005">
        <ele>154.148930</ele>
        <time>2026-05-05T02:54:14.564Z</time>
      </trkpt>
      <trkpt lat="43.504636" lon="10.768570">
        <ele>155.240228</ele>
        <time>2026-05-05T02:54:34.664Z</time>
      </trkpt>
      <trkpt lat="43.504617" lon="10.768928">
        <ele>155.651254</ele>
        <time>2026-05-05T02:54:44.232Z</time>
      </trkpt>
      <trkpt lat="43.504653" lon="10.769099">
        <ele>155.855139</ele>
        <time>2026-05-05T02:54:49.696Z</time>
      </trkpt>
      <trkpt lat="43.504739" lon="10.769301">
        <ele>156.123342</ele>
        <time>2026-05-05T02:54:57.510Z</time>
      </trkpt>
      <trkpt lat="43.504985" lon="10.769626">
        <ele>156.664459</ele>
        <time>2026-05-05T02:55:15.359Z</time>
      </trkpt>
      <trkpt lat="43.505044" lon="10.769760">
        <ele>157.076332</ele>
        <time>2026-05-05T02:55:21.781Z</time>
      </trkpt>
      <trkpt lat="43.505075" lon="10.770104">
        <ele>157.987125</ele>
        <time>2026-05-05T02:55:35.983Z</time>
      </trkpt>
      <trkpt lat="43.504990" lon="10.771041">
        <ele>160.468231</ele>
        <time>2026-05-05T02:56:06.077Z</time>
      </trkpt>
      <trkpt lat="43.505027" lon="10.771335">
        <ele>161.252245</ele>
        <time>2026-05-05T02:56:12.287Z</time>
      </trkpt>
      <trkpt lat="43.505185" lon="10.771901">
        <ele>162.845722</ele>
        <time>2026-05-05T02:56:23.067Z</time>
      </trkpt>
      <trkpt lat="43.505372" lon="10.772293">
        <ele>163.831815</ele>
        <time>2026-05-05T02:56:31.041Z</time>
      </trkpt>
      <trkpt lat="43.505424" lon="10.772403">
        <ele>164.082684</ele>
        <time>2026-05-05T02:56:33.304Z</time>
      </trkpt>
      <trkpt lat="43.505588" lon="10.772577">
        <ele>164.627810</ele>
        <time>2026-05-05T02:56:38.222Z</time>
      </trkpt>
      <trkpt lat="43.506170" lon="10.772938">
        <ele>166.308949</ele>
        <time>2026-05-05T02:56:58.241Z</time>
      </trkpt>
      <trkpt lat="43.506485" lon="10.773059">
        <ele>167.170339</ele>
        <time>2026-05-05T02:57:12.422Z</time>
      </trkpt>
      <trkpt lat="43.506792" lon="10.773062">
        <ele>167.996561</ele>
        <time>2026-05-05T02:57:26.638Z</time>
      </trkpt>
      <trkpt lat="43.506907" lon="10.773116">
        <ele>168.400507</ele>
        <time>2026-05-05T02:57:32.018Z</time>
      </trkpt>
      <trkpt lat="43.507233" lon="10.773414">
        <ele>169.701061</ele>
        <time>2026-05-05T02:57:48.423Z</time>
      </trkpt>
      <trkpt lat="43.507505" lon="10.773477">
        <ele>170.618141</ele>
        <time>2026-05-05T02:57:59.164Z</time>
      </trkpt>
      <trkpt lat="43.507933" lon="10.773452">
        <ele>172.042530</ele>
        <time>2026-05-05T02:58:14.533Z</time>
      </trkpt>
      <trkpt lat="43.508026" lon="10.773409">
        <ele>172.368682</ele>
        <time>2026-05-05T02:58:17.849Z</time>
      </trkpt>
      <trkpt lat="43.508248" lon="10.773301">
        <ele>173.151439</ele>
        <time>2026-05-05T02:58:25.766Z</time>
      </trkpt>
      <trkpt lat="43.508281" lon="10.773286">
        <ele>173.266974</ele>
        <time>2026-05-05T02:58:26.907Z</time>
      </trkpt>
      <trkpt lat="43.509582" lon="10.772795">
        <ele>175.430569</ele>
        <time>2026-05-05T02:59:05.510Z</time>
      </trkpt>
      <trkpt lat="43.509743" lon="10.772717">
        <ele>175.656656</ele>
        <time>2026-05-05T02:59:10.327Z</time>
      </trkpt>
      <trkpt lat="43.510296" lon="10.772304">
        <ele>175.692543</ele>
        <time>2026-05-05T02:59:25.975Z</time>
      </trkpt>
      <trkpt lat="43.510382" lon="10.772199">
        <ele>175.277674</ele>
        <time>2026-05-05T02:59:28.075Z</time>
      </trkpt>
      <trkpt lat="43.510500" lon="10.772045">
        <ele>174.690869</ele>
        <time>2026-05-05T02:59:30.863Z</time>
      </trkpt>
      <trkpt lat="43.510795" lon="10.771794">
        <ele>173.438909</ele>
        <time>2026-05-05T02:59:36.329Z</time>
      </trkpt>
      <trkpt lat="43.511010" lon="10.771558">
        <ele>172.446395</ele>
        <time>2026-05-05T02:59:40.422Z</time>
      </trkpt>
      <trkpt lat="43.512140" lon="10.770890">
        <ele>166.872495</ele>
        <time>2026-05-05T03:00:08.751Z</time>
      </trkpt>
      <trkpt lat="43.513379" lon="10.770542">
        <ele>159.387646</ele>
        <time>2026-05-05T03:00:38.032Z</time>
      </trkpt>
      <trkpt lat="43.513758" lon="10.770576">
        <ele>158.865637</ele>
        <time>2026-05-05T03:00:47.642Z</time>
      </trkpt>
      <trkpt lat="43.514288" lon="10.770750">
        <ele>158.433442</ele>
        <time>2026-05-05T03:01:03.196Z</time>
      </trkpt>
      <trkpt lat="43.514641" lon="10.770667">
        <ele>158.149370</ele>
        <time>2026-05-05T03:01:15.313Z</time>
      </trkpt>
      <trkpt lat="43.514925" lon="10.770556">
        <ele>157.915201</ele>
        <time>2026-05-05T03:01:26.775Z</time>
      </trkpt>
      <trkpt lat="43.515375" lon="10.770842">
        <ele>157.950395</ele>
        <time>2026-05-05T03:01:48.020Z</time>
      </trkpt>
      <trkpt lat="43.515985" lon="10.771388">
        <ele>158.717714</ele>
        <time>2026-05-05T03:02:19.371Z</time>
      </trkpt>
      <trkpt lat="43.516213" lon="10.771543">
        <ele>158.985925</ele>
        <time>2026-05-05T03:02:28.779Z</time>
      </trkpt>
      <trkpt lat="43.516400" lon="10.771752">
        <ele>159.239899</ele>
        <time>2026-05-05T03:02:36.795Z</time>
      </trkpt>
      <trkpt lat="43.516540" lon="10.772111">
        <ele>159.551784</ele>
        <time>2026-05-05T03:02:45.970Z</time>
      </trkpt>
      <trkpt lat="43.516754" lon="10.772492">
        <ele>158.698736</ele>
        <time>2026-05-05T03:02:56.220Z</time>
      </trkpt>
      <trkpt lat="43.517419" lon="10.773291">
        <ele>156.040503</ele>
        <time>2026-05-05T03:03:19.787Z</time>
      </trkpt>
      <trkpt lat="43.518411" lon="10.773801">
        <ele>151.154255</ele>
        <time>2026-05-05T03:03:45.178Z</time>
      </trkpt>
      <trkpt lat="43.518723" lon="10.773839">
        <ele>149.009694</ele>
        <time>2026-05-05T03:03:52.281Z</time>
      </trkpt>
      <trkpt lat="43.519178" lon="10.773565">
        <ele>145.610254</ele>
        <time>2026-05-05T03:04:03.439Z</time>
      </trkpt>
      <trkpt lat="43.519532" lon="10.773404">
        <ele>143.058025</ele>
        <time>2026-05-05T03:04:11.722Z</time>
      </trkpt>
      <trkpt lat="43.521403" lon="10.772970">
        <ele>129.352442</ele>
        <time>2026-05-05T03:04:54.460Z</time>
      </trkpt>
      <trkpt lat="43.521745" lon="10.772970">
        <ele>127.193676</ele>
        <time>2026-05-05T03:05:02.435Z</time>
      </trkpt>
      <trkpt lat="43.522025" lon="10.773168">
        <ele>125.291704</ele>
        <time>2026-05-05T03:05:09.971Z</time>
      </trkpt>
      <trkpt lat="43.522659" lon="10.773393">
        <ele>121.334660</ele>
        <time>2026-05-05T03:05:25.652Z</time>
      </trkpt>
      <trkpt lat="43.522826" lon="10.773264">
        <ele>120.177679</ele>
        <time>2026-05-05T03:05:30.089Z</time>
      </trkpt>
      <trkpt lat="43.522892" lon="10.772943">
        <ele>118.715319</ele>
        <time>2026-05-05T03:05:35.647Z</time>
      </trkpt>
      <trkpt lat="43.522873" lon="10.772814">
        <ele>118.138386</ele>
        <time>2026-05-05T03:05:37.824Z</time>
      </trkpt>
      <trkpt lat="43.523021" lon="10.772873">
        <ele>117.215226</ele>
        <time>2026-05-05T03:05:41.319Z</time>
      </trkpt>
      <trkpt lat="43.523196" lon="10.773109">
        <ele>115.752140</ele>
        <time>2026-05-05T03:05:46.872Z</time>
      </trkpt>
      <trkpt lat="43.523281" lon="10.773302">
        <ele>114.773397</ele>
        <time>2026-05-05T03:05:50.613Z</time>
      </trkpt>
      <trkpt lat="43.523538" lon="10.773576">
        <ele>112.831632</ele>
        <time>2026-05-05T03:05:58.051Z</time>
      </trkpt>
      <trkpt lat="43.523690" lon="10.773603">
        <ele>111.915531</ele>
        <time>2026-05-05T03:06:01.549Z</time>
      </trkpt>
      <trkpt lat="43.523947" lon="10.773527">
        <ele>110.344367</ele>
        <time>2026-05-05T03:06:07.567Z</time>
      </trkpt>
      <trkpt lat="43.524343" lon="10.773307">
        <ele>107.792398</ele>
        <time>2026-05-05T03:06:17.831Z</time>
      </trkpt>
      <trkpt lat="43.524627" lon="10.773184">
        <ele>106.309088</ele>
        <time>2026-05-05T03:06:25.370Z</time>
      </trkpt>
      <trkpt lat="43.524946" lon="10.773216">
        <ele>104.881071</ele>
        <time>2026-05-05T03:06:33.725Z</time>
      </trkpt>
      <trkpt lat="43.525359" lon="10.773361">
        <ele>102.978320</ele>
        <time>2026-05-05T03:06:44.803Z</time>
      </trkpt>
      <trkpt lat="43.525782" lon="10.773635">
        <ele>100.891805</ele>
        <time>2026-05-05T03:06:56.383Z</time>
      </trkpt>
      <trkpt lat="43.526043" lon="10.773865">
        <ele>99.508948</ele>
        <time>2026-05-05T03:07:03.682Z</time>
      </trkpt>
      <trkpt lat="43.526300" lon="10.773924">
        <ele>97.855448</ele>
        <time>2026-05-05T03:07:09.663Z</time>
      </trkpt>
      <trkpt lat="43.526910" lon="10.773801">
        <ele>93.430075</ele>
        <time>2026-05-05T03:07:23.490Z</time>
      </trkpt>
      <trkpt lat="43.527089" lon="10.773619">
        <ele>91.833721</ele>
        <time>2026-05-05T03:07:28.409Z</time>
      </trkpt>
      <trkpt lat="43.527820" lon="10.772621">
        <ele>84.747588</ele>
        <time>2026-05-05T03:07:51.615Z</time>
      </trkpt>
      <trkpt lat="43.528330" lon="10.772036">
        <ele>80.776587</ele>
        <time>2026-05-05T03:08:07.215Z</time>
      </trkpt>
      <trkpt lat="43.528684" lon="10.771703">
        <ele>78.211404</ele>
        <time>2026-05-05T03:08:17.449Z</time>
      </trkpt>
      <trkpt lat="43.529256" lon="10.771462">
        <ele>74.611376</ele>
        <time>2026-05-05T03:08:31.650Z</time>
      </trkpt>
      <trkpt lat="43.529808" lon="10.771033">
        <ele>70.730358</ele>
        <time>2026-05-05T03:08:46.319Z</time>
      </trkpt>
      <trkpt lat="43.529956" lon="10.771033">
        <ele>69.823804</ele>
        <time>2026-05-05T03:08:49.701Z</time>
      </trkpt>
      <trkpt lat="43.530115" lon="10.771532">
        <ele>67.403183</ele>
        <time>2026-05-05T03:08:58.733Z</time>
      </trkpt>
      <trkpt lat="43.530158" lon="10.771752">
        <ele>66.391289</ele>
        <time>2026-05-05T03:09:02.520Z</time>
      </trkpt>
      <trkpt lat="43.530290" lon="10.771945">
        <ele>65.212994</ele>
        <time>2026-05-05T03:09:06.980Z</time>
      </trkpt>
      <trkpt lat="43.530675" lon="10.772095">
        <ele>63.894731</ele>
        <time>2026-05-05T03:09:16.433Z</time>
      </trkpt>
      <trkpt lat="43.530959" lon="10.772159">
        <ele>63.310527</ele>
        <time>2026-05-05T03:09:23.577Z</time>
      </trkpt>
      <trkpt lat="43.531060" lon="10.772326">
        <ele>62.990432</ele>
        <time>2026-05-05T03:09:27.657Z</time>
      </trkpt>
      <trkpt lat="43.531029" lon="10.772760">
        <ele>62.348554</ele>
        <time>2026-05-05T03:09:36.341Z</time>
      </trkpt>
      <trkpt lat="43.531111" lon="10.773050">
        <ele>61.890402</ele>
        <time>2026-05-05T03:09:43.034Z</time>
      </trkpt>
      <trkpt lat="43.532027" lon="10.774717">
        <ele>61.444244</ele>
        <time>2026-05-05T03:10:40.575Z</time>
      </trkpt>
      <trkpt lat="43.530467" lon="10.776604">
        <ele>62.340125</ele>
        <time>2026-05-05T03:11:21.367Z</time>
      </trkpt>
      <trkpt lat="43.530406" lon="10.776680">
        <ele>62.363875</ele>
        <time>2026-05-05T03:11:23.090Z</time>
      </trkpt>
      <trkpt lat="43.529342" lon="10.778003">
        <ele>63.353426</ele>
        <time>2026-05-05T03:11:55.448Z</time>
      </trkpt>
      <trkpt lat="43.528992" lon="10.778439">
        <ele>63.768441</ele>
        <time>2026-05-05T03:12:06.311Z</time>
      </trkpt>
      <trkpt lat="43.525965" lon="10.781195">
        <ele>70.992921</ele>
        <time>2026-05-05T03:13:42.785Z</time>
      </trkpt>
      <trkpt lat="43.526585" lon="10.783169">
        <ele>80.885233</ele>
        <time>2026-05-05T03:15:14.046Z</time>
      </trkpt>
      <trkpt lat="43.527104" lon="10.784071">
        <ele>87.177685</ele>
        <time>2026-05-05T03:16:02.083Z</time>
      </trkpt>
      <trkpt lat="43.527244" lon="10.784384">
        <ele>89.350314</ele>
        <time>2026-05-05T03:16:17.179Z</time>
      </trkpt>
      <trkpt lat="43.527484" lon="10.784601">
        <ele>91.688551</ele>
        <time>2026-05-05T03:16:33.899Z</time>
      </trkpt>
      <trkpt lat="43.527667" lon="10.784655">
        <ele>93.213360</ele>
        <time>2026-05-05T03:16:45.258Z</time>
      </trkpt>
      <trkpt lat="43.528108" lon="10.784709">
        <ele>96.820715</ele>
        <time>2026-05-05T03:17:13.189Z</time>
      </trkpt>
      <trkpt lat="43.528669" lon="10.784604">
        <ele>101.669878</ele>
        <time>2026-05-05T03:17:51.486Z</time>
      </trkpt>
      <trkpt lat="43.529532" lon="10.784749">
        <ele>109.671591</ele>
        <time>2026-05-05T03:18:47.301Z</time>
      </trkpt>
      <trkpt lat="43.529907" lon="10.784705">
        <ele>113.135533</ele>
        <time>2026-05-05T03:19:11.624Z</time>
      </trkpt>
      <trkpt lat="43.530050" lon="10.784594">
        <ele>114.645805</ele>
        <time>2026-05-05T03:19:23.007Z</time>
      </trkpt>
      <trkpt lat="43.530432" lon="10.784145">
        <ele>119.166219</ele>
        <time>2026-05-05T03:19:59.531Z</time>
      </trkpt>
      <trkpt lat="43.530544" lon="10.784116">
        <ele>120.181590</ele>
        <time>2026-05-05T03:20:07.614Z</time>
      </trkpt>
      <trkpt lat="43.530586" lon="10.784131">
        <ele>120.568158</ele>
        <time>2026-05-05T03:20:10.778Z</time>
      </trkpt>
      <trkpt lat="43.530666" lon="10.784333">
        <ele>122.055062</ele>
        <time>2026-05-05T03:20:22.568Z</time>
      </trkpt>
      <trkpt lat="43.530831" lon="10.784927">
        <ele>126.164251</ele>
        <time>2026-05-05T03:20:53.890Z</time>
      </trkpt>
      <trkpt lat="43.530873" lon="10.785159">
        <ele>127.708965</ele>
        <time>2026-05-05T03:21:05.502Z</time>
      </trkpt>
      <trkpt lat="43.530852" lon="10.785318">
        <ele>128.752994</ele>
        <time>2026-05-05T03:21:13.384Z</time>
      </trkpt>
      <trkpt lat="43.530617" lon="10.785985">
        <ele>132.965313</ele>
        <time>2026-05-05T03:21:44.984Z</time>
      </trkpt>
      <trkpt lat="43.530596" lon="10.786110">
        <ele>133.439766</ele>
        <time>2026-05-05T03:21:49.428Z</time>
      </trkpt>
      <trkpt lat="43.531415" lon="10.787375">
        <ele>139.710856</ele>
        <time>2026-05-05T03:22:37.987Z</time>
      </trkpt>
      <trkpt lat="43.531790" lon="10.788061">
        <ele>143.342945</ele>
        <time>2026-05-05T03:23:07.755Z</time>
      </trkpt>
      <trkpt lat="43.531937" lon="10.788196">
        <ele>144.512902</ele>
        <time>2026-05-05T03:23:17.072Z</time>
      </trkpt>
      <trkpt lat="43.532756" lon="10.788645">
        <ele>150.351482</ele>
        <time>2026-05-05T03:24:06.684Z</time>
      </trkpt>
      <trkpt lat="43.533617" lon="10.789152">
        <ele>156.493558</ele>
        <time>2026-05-05T03:24:58.763Z</time>
      </trkpt>
      <trkpt lat="43.534843" lon="10.789874">
        <ele>165.109553</ele>
        <time>2026-05-05T03:26:08.381Z</time>
      </trkpt>
      <trkpt lat="43.535931" lon="10.790800">
        <ele>171.017812</ele>
        <time>2026-05-05T03:27:10.707Z</time>
      </trkpt>
      <trkpt lat="43.536047" lon="10.790852">
        <ele>171.581502</ele>
        <time>2026-05-05T03:27:15.147Z</time>
      </trkpt>
      <trkpt lat="43.536206" lon="10.790862">
        <ele>172.317081</ele>
        <time>2026-05-05T03:27:20.518Z</time>
      </trkpt>
      <trkpt lat="43.536540" lon="10.790778">
        <ele>173.361114</ele>
        <time>2026-05-05T03:27:30.309Z</time>
      </trkpt>
      <trkpt lat="43.537019" lon="10.790825">
        <ele>173.625039</ele>
        <time>2026-05-05T03:27:41.392Z</time>
      </trkpt>
      <trkpt lat="43.537066" lon="10.790808">
        <ele>173.651743</ele>
        <time>2026-05-05T03:27:42.431Z</time>
      </trkpt>
      <trkpt lat="43.537627" lon="10.790608">
        <ele>173.970200</ele>
        <time>2026-05-05T03:27:53.513Z</time>
      </trkpt>
      <trkpt lat="43.538034" lon="10.790636">
        <ele>174.194166</ele>
        <time>2026-05-05T03:28:01.753Z</time>
      </trkpt>
      <trkpt lat="43.538325" lon="10.790768">
        <ele>174.230958</ele>
        <time>2026-05-05T03:28:09.357Z</time>
      </trkpt>
      <trkpt lat="43.538468" lon="10.790843">
        <ele>174.182926</ele>
        <time>2026-05-05T03:28:13.303Z</time>
      </trkpt>
      <trkpt lat="43.538999" lon="10.791633">
        <ele>173.937729</ele>
        <time>2026-05-05T03:28:29.964Z</time>
      </trkpt>
      <trkpt lat="43.539047" lon="10.791684">
        <ele>173.918707</ele>
        <time>2026-05-05T03:28:31.047Z</time>
      </trkpt>
      <trkpt lat="43.539196" lon="10.792073">
        <ele>173.818574</ele>
        <time>2026-05-05T03:28:36.355Z</time>
      </trkpt>
      <trkpt lat="43.539588" lon="10.793039">
        <ele>172.702732</ele>
        <time>2026-05-05T03:28:48.876Z</time>
      </trkpt>
      <trkpt lat="43.539569" lon="10.793400">
        <ele>172.137783</ele>
        <time>2026-05-05T03:28:53.023Z</time>
      </trkpt>
      <trkpt lat="43.539533" lon="10.793550">
        <ele>171.891158</ele>
        <time>2026-05-05T03:28:54.869Z</time>
      </trkpt>
      <trkpt lat="43.539449" lon="10.793687">
        <ele>171.611088</ele>
        <time>2026-05-05T03:28:57.018Z</time>
      </trkpt>
      <trkpt lat="43.539062" lon="10.794115">
        <ele>170.543076</ele>
        <time>2026-05-05T03:29:04.978Z</time>
      </trkpt>
      <trkpt lat="43.539013" lon="10.794246">
        <ele>170.312987</ele>
        <time>2026-05-05T03:29:06.516Z</time>
      </trkpt>
      <trkpt lat="43.538949" lon="10.794687">
        <ele>169.248179</ele>
        <time>2026-05-05T03:29:11.106Z</time>
      </trkpt>
      <trkpt lat="43.538908" lon="10.794965">
        <ele>168.107690</ele>
        <time>2026-05-05T03:29:13.967Z</time>
      </trkpt>
      <trkpt lat="43.538819" lon="10.795147">
        <ele>167.225113</ele>
        <time>2026-05-05T03:29:16.132Z</time>
      </trkpt>
      <trkpt lat="43.538681" lon="10.795324">
        <ele>166.180115</ele>
        <time>2026-05-05T03:29:18.607Z</time>
      </trkpt>
      <trkpt lat="43.538389" lon="10.795492">
        <ele>164.425568</ele>
        <time>2026-05-05T03:29:22.667Z</time>
      </trkpt>
      <trkpt lat="43.538217" lon="10.795726">
        <ele>163.085864</ele>
        <time>2026-05-05T03:29:25.713Z</time>
      </trkpt>
      <trkpt lat="43.538088" lon="10.796174">
        <ele>161.147944</ele>
        <time>2026-05-05T03:29:30.042Z</time>
      </trkpt>
      <trkpt lat="43.538091" lon="10.796322">
        <ele>160.552725</ele>
        <time>2026-05-05T03:29:31.378Z</time>
      </trkpt>
      <trkpt lat="43.538123" lon="10.796459">
        <ele>159.974076</ele>
        <time>2026-05-05T03:29:32.694Z</time>
      </trkpt>
      <trkpt lat="43.538299" lon="10.797045">
        <ele>159.504041</ele>
        <time>2026-05-05T03:29:38.797Z</time>
      </trkpt>
      <trkpt lat="43.538349" lon="10.797294">
        <ele>159.349896</ele>
        <time>2026-05-05T03:29:41.402Z</time>
      </trkpt>
      <trkpt lat="43.538505" lon="10.798449">
        <ele>158.648976</ele>
        <time>2026-05-05T03:29:57.787Z</time>
      </trkpt>
      <trkpt lat="43.538518" lon="10.798812">
        <ele>158.432150</ele>
        <time>2026-05-05T03:30:08.741Z</time>
      </trkpt>
      <trkpt lat="43.538453" lon="10.799194">
        <ele>159.047507</ele>
        <time>2026-05-05T03:30:22.329Z</time>
      </trkpt>
      <trkpt lat="43.538051" lon="10.800249">
        <ele>161.546061</ele>
        <time>2026-05-05T03:31:04.243Z</time>
      </trkpt>
      <trkpt lat="43.537739" lon="10.800785">
        <ele>162.987113</ele>
        <time>2026-05-05T03:31:20.209Z</time>
      </trkpt>
      <trkpt lat="43.537179" lon="10.801285">
        <ele>161.083750</ele>
        <time>2026-05-05T03:31:29.645Z</time>
      </trkpt>
      <trkpt lat="43.536894" lon="10.801756">
        <ele>158.659735</ele>
        <time>2026-05-05T03:31:35.191Z</time>
      </trkpt>
      <trkpt lat="43.536806" lon="10.802026">
        <ele>157.490097</ele>
        <time>2026-05-05T03:31:37.798Z</time>
      </trkpt>
      <trkpt lat="43.536754" lon="10.802322">
        <ele>156.286739</ele>
        <time>2026-05-05T03:31:40.497Z</time>
      </trkpt>
      <trkpt lat="43.536712" lon="10.803606">
        <ele>153.762256</ele>
        <time>2026-05-05T03:31:52.660Z</time>
      </trkpt>
      <trkpt lat="43.536525" lon="10.804446">
        <ele>153.732107</ele>
        <time>2026-05-05T03:32:08.072Z</time>
      </trkpt>
      <trkpt lat="43.536245" lon="10.805207">
        <ele>153.702825</ele>
        <time>2026-05-05T03:32:31.538Z</time>
      </trkpt>
      <trkpt lat="43.536077" lon="10.805665">
        <ele>154.221261</ele>
        <time>2026-05-05T03:32:45.660Z</time>
      </trkpt>
      <trkpt lat="43.536020" lon="10.806221">
        <ele>154.924995</ele>
        <time>2026-05-05T03:32:59.026Z</time>
      </trkpt>
      <trkpt lat="43.536142" lon="10.807645">
        <ele>156.722025</ele>
        <time>2026-05-05T03:33:20.521Z</time>
      </trkpt>
      <trkpt lat="43.536100" lon="10.808201">
        <ele>158.036002</ele>
        <time>2026-05-05T03:33:30.940Z</time>
      </trkpt>
      <trkpt lat="43.535983" lon="10.808803">
        <ele>159.597806</ele>
        <time>2026-05-05T03:33:46.856Z</time>
      </trkpt>
      <trkpt lat="43.536030" lon="10.809265">
        <ele>160.766861</ele>
        <time>2026-05-05T03:34:01.178Z</time>
      </trkpt>
      <trkpt lat="43.536137" lon="10.809667">
        <ele>161.839972</ele>
        <time>2026-05-05T03:34:15.183Z</time>
      </trkpt>
      <trkpt lat="43.536455" lon="10.810223">
        <ele>163.542475</ele>
        <time>2026-05-05T03:34:37.699Z</time>
      </trkpt>
      <trkpt lat="43.536443" lon="10.811171">
        <ele>165.627032</ele>
        <time>2026-05-05T03:35:03.654Z</time>
      </trkpt>
      <trkpt lat="43.536501" lon="10.811507">
        <ele>166.386403</ele>
        <time>2026-05-05T03:35:12.397Z</time>
      </trkpt>
      <trkpt lat="43.536624" lon="10.811808">
        <ele>167.146066</ele>
        <time>2026-05-05T03:35:20.791Z</time>
      </trkpt>
      <trkpt lat="43.536756" lon="10.812058">
        <ele>167.826039</ele>
        <time>2026-05-05T03:35:28.384Z</time>
      </trkpt>
      <trkpt lat="43.537044" lon="10.812488">
        <ele>168.030304</ele>
        <time>2026-05-05T03:35:39.422Z</time>
      </trkpt>
      <trkpt lat="43.537486" lon="10.812941">
        <ele>166.839481</ele>
        <time>2026-05-05T03:35:48.398Z</time>
      </trkpt>
      <trkpt lat="43.537548" lon="10.813141">
        <ele>166.498469</ele>
        <time>2026-05-05T03:35:50.670Z</time>
      </trkpt>
      <trkpt lat="43.537548" lon="10.813370">
        <ele>166.139459</ele>
        <time>2026-05-05T03:35:52.984Z</time>
      </trkpt>
      <trkpt lat="43.537174" lon="10.814192">
        <ele>164.617987</ele>
        <time>2026-05-05T03:36:02.639Z</time>
      </trkpt>
      <trkpt lat="43.537140" lon="10.814343">
        <ele>164.519256</ele>
        <time>2026-05-05T03:36:04.189Z</time>
      </trkpt>
      <trkpt lat="43.537191" lon="10.814693">
        <ele>164.337019</ele>
        <time>2026-05-05T03:36:07.737Z</time>
      </trkpt>
      <trkpt lat="43.537268" lon="10.814967">
        <ele>164.187010</ele>
        <time>2026-05-05T03:36:10.799Z</time>
      </trkpt>
      <trkpt lat="43.537482" lon="10.815668">
        <ele>163.798739</ele>
        <time>2026-05-05T03:36:20.388Z</time>
      </trkpt>
      <trkpt lat="43.537795" lon="10.816452">
        <ele>163.341859</ele>
        <time>2026-05-05T03:36:39.883Z</time>
      </trkpt>
      <trkpt lat="43.538463" lon="10.818007">
        <ele>165.691662</ele>
        <time>2026-05-05T03:37:19.862Z</time>
      </trkpt>
      <trkpt lat="43.538479" lon="10.818080">
        <ele>165.793416</ele>
        <time>2026-05-05T03:37:21.449Z</time>
      </trkpt>
      <trkpt lat="43.538764" lon="10.819374">
        <ele>166.255663</ele>
        <time>2026-05-05T03:37:45.249Z</time>
      </trkpt>
      <trkpt lat="43.539001" lon="10.820275">
        <ele>165.751400</ele>
        <time>2026-05-05T03:37:57.363Z</time>
      </trkpt>
      <trkpt lat="43.539054" lon="10.821160">
        <ele>165.139725</ele>
        <time>2026-05-05T03:38:07.217Z</time>
      </trkpt>
      <trkpt lat="43.539065" lon="10.821354">
        <ele>164.713300</ele>
        <time>2026-05-05T03:38:09.299Z</time>
      </trkpt>
      <trkpt lat="43.539077" lon="10.821500">
        <ele>164.391309</ele>
        <time>2026-05-05T03:38:10.864Z</time>
      </trkpt>
      <trkpt lat="43.539419" lon="10.823931">
        <ele>158.902946</ele>
        <time>2026-05-05T03:38:36.630Z</time>
      </trkpt>
      <trkpt lat="43.539893" lon="10.827293">
        <ele>151.372925</ele>
        <time>2026-05-05T03:39:12.308Z</time>
      </trkpt>
      <trkpt lat="43.540002" lon="10.828069">
        <ele>149.800080</ele>
        <time>2026-05-05T03:39:21.157Z</time>
      </trkpt>
      <trkpt lat="43.540113" lon="10.827941">
        <ele>149.402949</ele>
        <time>2026-05-05T03:39:25.114Z</time>
      </trkpt>
      <trkpt lat="43.540486" lon="10.827254">
        <ele>146.965040</ele>
        <time>2026-05-05T03:39:41.885Z</time>
      </trkpt>
      <trkpt lat="43.540789" lon="10.826230">
        <ele>143.664756</ele>
        <time>2026-05-05T03:40:02.111Z</time>
      </trkpt>
      <trkpt lat="43.540955" lon="10.825533">
        <ele>141.251492</ele>
        <time>2026-05-05T03:40:14.530Z</time>
      </trkpt>
      <trkpt lat="43.541808" lon="10.822743">
        <ele>124.314397</ele>
        <time>2026-05-05T03:41:03.638Z</time>
      </trkpt>
      <trkpt lat="43.541815" lon="10.821850">
        <ele>118.677781</ele>
        <time>2026-05-05T03:41:17.917Z</time>
      </trkpt>
      <trkpt lat="43.541981" lon="10.821425">
        <ele>115.630705</ele>
        <time>2026-05-05T03:41:25.542Z</time>
      </trkpt>
      <trkpt lat="43.542195" lon="10.820989">
        <ele>112.243105</ele>
        <time>2026-05-05T03:41:33.782Z</time>
      </trkpt>
      <trkpt lat="43.542534" lon="10.819758">
        <ele>102.532822</ele>
        <time>2026-05-05T03:41:54.178Z</time>
      </trkpt>
      <trkpt lat="43.542656" lon="10.817827">
        <ele>90.316926</ele>
        <time>2026-05-05T03:42:24.199Z</time>
      </trkpt>
      <trkpt lat="43.542713" lon="10.817520">
        <ele>88.769060</ele>
        <time>2026-05-05T03:42:29.285Z</time>
      </trkpt>
      <trkpt lat="43.542784" lon="10.817357">
        <ele>87.840246</ele>
        <time>2026-05-05T03:42:32.389Z</time>
      </trkpt>
      <trkpt lat="43.542888" lon="10.817248">
        <ele>86.960187</ele>
        <time>2026-05-05T03:42:35.387Z</time>
      </trkpt>
      <trkpt lat="43.543256" lon="10.817075">
        <ele>84.340534</ele>
        <time>2026-05-05T03:42:44.745Z</time>
      </trkpt>
      <trkpt lat="43.543354" lon="10.817029">
        <ele>83.643020</ele>
        <time>2026-05-05T03:42:47.356Z</time>
      </trkpt>
      <trkpt lat="43.543766" lon="10.816849">
        <ele>82.581079</ele>
        <time>2026-05-05T03:42:59.189Z</time>
      </trkpt>
      <trkpt lat="43.543932" lon="10.816740">
        <ele>82.829368</ele>
        <time>2026-05-05T03:43:04.928Z</time>
      </trkpt>
      <trkpt lat="43.544169" lon="10.816730">
        <ele>83.149599</ele>
        <time>2026-05-05T03:43:13.667Z</time>
      </trkpt>
      <trkpt lat="43.544327" lon="10.816947">
        <ele>83.450697</ele>
        <time>2026-05-05T03:43:22.970Z</time>
      </trkpt>
      <trkpt lat="43.544437" lon="10.817220">
        <ele>83.756463</ele>
        <time>2026-05-05T03:43:33.433Z</time>
      </trkpt>
      <trkpt lat="43.544610" lon="10.818814">
        <ele>86.716797</ele>
        <time>2026-05-05T03:44:29.580Z</time>
      </trkpt>
      <trkpt lat="43.544635" lon="10.819083">
        <ele>87.562189</ele>
        <time>2026-05-05T03:44:39.408Z</time>
      </trkpt>
      <trkpt lat="43.544722" lon="10.819540">
        <ele>89.035063</ele>
        <time>2026-05-05T03:44:57.005Z</time>
      </trkpt>
      <trkpt lat="43.544919" lon="10.819856">
        <ele>90.334314</ele>
        <time>2026-05-05T03:45:13.281Z</time>
      </trkpt>
      <trkpt lat="43.545385" lon="10.820510">
        <ele>93.770555</ele>
        <time>2026-05-05T03:45:51.725Z</time>
      </trkpt>
      <trkpt lat="43.545622" lon="10.821719">
        <ele>100.654850</ele>
        <time>2026-05-05T03:46:53.138Z</time>
      </trkpt>
      <trkpt lat="43.545890" lon="10.822493">
        <ele>105.369816</ele>
        <time>2026-05-05T03:47:40.573Z</time>
      </trkpt>
      <trkpt lat="43.546056" lon="10.822787">
        <ele>107.825300</ele>
        <time>2026-05-05T03:48:01.978Z</time>
      </trkpt>
      <trkpt lat="43.546183" lon="10.822831">
        <ele>109.119515</ele>
        <time>2026-05-05T03:48:12.455Z</time>
      </trkpt>
      <trkpt lat="43.546348" lon="10.822678">
        <ele>111.084457</ele>
        <time>2026-05-05T03:48:28.688Z</time>
      </trkpt>
      <trkpt lat="43.546791" lon="10.820684">
        <ele>125.807319</ele>
        <time>2026-05-05T03:50:33.599Z</time>
      </trkpt>
      <trkpt lat="43.546862" lon="10.820467">
        <ele>127.341714</ele>
        <time>2026-05-05T03:50:47.871Z</time>
      </trkpt>
      <trkpt lat="43.546918" lon="10.820371">
        <ele>128.135890</ele>
        <time>2026-05-05T03:50:55.208Z</time>
      </trkpt>
      <trkpt lat="43.547133" lon="10.820365">
        <ele>130.047975</ele>
        <time>2026-05-05T03:51:12.784Z</time>
      </trkpt>
      <trkpt lat="43.547762" lon="10.821251">
        <ele>138.040685</ele>
        <time>2026-05-05T03:52:23.501Z</time>
      </trkpt>
      <trkpt lat="43.548401" lon="10.822101">
        <ele>141.079227</ele>
        <time>2026-05-05T03:53:17.142Z</time>
      </trkpt>
      <trkpt lat="43.548729" lon="10.822379">
        <ele>141.772342</ele>
        <time>2026-05-05T03:53:32.884Z</time>
      </trkpt>
      <trkpt lat="43.550294" lon="10.822776">
        <ele>139.819837</ele>
        <time>2026-05-05T03:54:15.181Z</time>
      </trkpt>
      <trkpt lat="43.550423" lon="10.822809">
        <ele>139.322846</ele>
        <time>2026-05-05T03:54:18.446Z</time>
      </trkpt>
      <trkpt lat="43.551094" lon="10.822940">
        <ele>136.755723</ele>
        <time>2026-05-05T03:54:34.979Z</time>
      </trkpt>
      <trkpt lat="43.551299" lon="10.822929">
        <ele>135.721030</ele>
        <time>2026-05-05T03:54:39.886Z</time>
      </trkpt>
      <trkpt lat="43.551497" lon="10.822809">
        <ele>134.182497</ele>
        <time>2026-05-05T03:54:44.994Z</time>
      </trkpt>
      <trkpt lat="43.555428" lon="10.815758">
        <ele>88.686348</ele>
        <time>2026-05-05T03:57:10.879Z</time>
      </trkpt>
      <trkpt lat="43.555529" lon="10.815646">
        <ele>87.800257</ele>
        <time>2026-05-05T03:57:13.862Z</time>
      </trkpt>
      <trkpt lat="43.556835" lon="10.815182">
        <ele>81.054206</ele>
        <time>2026-05-05T03:57:45.724Z</time>
      </trkpt>
      <trkpt lat="43.557036" lon="10.815173">
        <ele>80.165072</ele>
        <time>2026-05-05T03:57:50.606Z</time>
      </trkpt>
      <trkpt lat="43.557906" lon="10.815348">
        <ele>77.765965</ele>
        <time>2026-05-05T03:58:13.821Z</time>
      </trkpt>
      <trkpt lat="43.557987" lon="10.815364">
        <ele>77.801981</ele>
        <time>2026-05-05T03:58:16.207Z</time>
      </trkpt>
      <trkpt lat="43.559383" lon="10.815695">
        <ele>78.431663</ele>
        <time>2026-05-05T03:59:11.295Z</time>
      </trkpt>
      <trkpt lat="43.559590" lon="10.815780">
        <ele>78.761281</ele>
        <time>2026-05-05T03:59:20.861Z</time>
      </trkpt>
      <trkpt lat="43.560699" lon="10.816855">
        <ele>80.829702</ele>
        <time>2026-05-05T04:00:15.911Z</time>
      </trkpt>
      <trkpt lat="43.560871" lon="10.817067">
        <ele>81.167860</ele>
        <time>2026-05-05T04:00:24.539Z</time>
      </trkpt>
      <trkpt lat="43.561907" lon="10.818879">
        <ele>81.132840</ele>
        <time>2026-05-05T04:01:18.851Z</time>
      </trkpt>
      <trkpt lat="43.562119" lon="10.819170">
        <ele>80.996136</ele>
        <time>2026-05-05T04:01:27.158Z</time>
      </trkpt>
      <trkpt lat="43.562252" lon="10.819248">
        <ele>80.889441</ele>
        <time>2026-05-05T04:01:31.122Z</time>
      </trkpt>
      <trkpt lat="43.562394" lon="10.819240">
        <ele>80.784514</ele>
        <time>2026-05-05T04:01:34.965Z</time>
      </trkpt>
      <trkpt lat="43.562762" lon="10.819036">
        <ele>80.491714</ele>
        <time>2026-05-05T04:01:45.733Z</time>
      </trkpt>
      <trkpt lat="43.563069" lon="10.818800">
        <ele>80.232259</ele>
        <time>2026-05-05T04:01:55.491Z</time>
      </trkpt>
      <trkpt lat="43.563196" lon="10.818710">
        <ele>80.126853</ele>
        <time>2026-05-05T04:01:59.674Z</time>
      </trkpt>
      <trkpt lat="43.563359" lon="10.818611">
        <ele>79.995369</ele>
        <time>2026-05-05T04:02:05.100Z</time>
      </trkpt>
      <trkpt lat="43.563563" lon="10.818534">
        <ele>79.839221</ele>
        <time>2026-05-05T04:02:12.067Z</time>
      </trkpt>
      <trkpt lat="43.563696" lon="10.818551">
        <ele>80.229017</ele>
        <time>2026-05-05T04:02:16.979Z</time>
      </trkpt>
      <trkpt lat="43.563845" lon="10.818652">
        <ele>81.074756</ele>
        <time>2026-05-05T04:02:23.806Z</time>
      </trkpt>
      <trkpt lat="43.564347" lon="10.819727">
        <ele>85.796005</ele>
        <time>2026-05-05T04:03:05.692Z</time>
      </trkpt>
      <trkpt lat="43.565085" lon="10.820700">
        <ele>92.231745</ele>
        <time>2026-05-05T04:04:06.450Z</time>
      </trkpt>
      <trkpt lat="43.565344" lon="10.821006">
        <ele>95.026291</ele>
        <time>2026-05-05T04:04:27.615Z</time>
      </trkpt>
      <trkpt lat="43.565579" lon="10.821163">
        <ele>97.166289</ele>
        <time>2026-05-05T04:04:43.702Z</time>
      </trkpt>
      <trkpt lat="43.565893" lon="10.821288">
        <ele>99.844919</ele>
        <time>2026-05-05T04:05:03.574Z</time>
      </trkpt>
      <trkpt lat="43.567102" lon="10.821649">
        <ele>109.865975</ele>
        <time>2026-05-05T04:06:21.929Z</time>
      </trkpt>
      <trkpt lat="43.568004" lon="10.821885">
        <ele>117.249653</ele>
        <time>2026-05-05T04:07:18.011Z</time>
      </trkpt>
      <trkpt lat="43.568152" lon="10.821959">
        <ele>118.434211</ele>
        <time>2026-05-05T04:07:26.730Z</time>
      </trkpt>
      <trkpt lat="43.568252" lon="10.822141">
        <ele>119.447520</ele>
        <time>2026-05-05T04:07:35.602Z</time>
      </trkpt>
      <trkpt lat="43.568318" lon="10.822387">
        <ele>120.611264</ele>
        <time>2026-05-05T04:07:45.261Z</time>
      </trkpt>
      <trkpt lat="43.568437" lon="10.824075">
        <ele>128.135086</ele>
        <time>2026-05-05T04:08:46.006Z</time>
      </trkpt>
      <trkpt lat="43.568518" lon="10.824525">
        <ele>130.012232</ele>
        <time>2026-05-05T04:09:02.336Z</time>
      </trkpt>
      <trkpt lat="43.568566" lon="10.824981">
        <ele>131.690544</ele>
        <time>2026-05-05T04:09:18.124Z</time>
      </trkpt>
      <trkpt lat="43.568646" lon="10.825162">
        <ele>132.462775</ele>
        <time>2026-05-05T04:09:25.198Z</time>
      </trkpt>
      <trkpt lat="43.568791" lon="10.824918">
        <ele>133.612171</ele>
        <time>2026-05-05T04:09:35.320Z</time>
      </trkpt>
      <trkpt lat="43.568762" lon="10.824738">
        <ele>134.283790</ele>
        <time>2026-05-05T04:09:41.236Z</time>
      </trkpt>
      <trkpt lat="43.568961" lon="10.823709">
        <ele>138.162876</ele>
        <time>2026-05-05T04:10:12.651Z</time>
      </trkpt>
      <trkpt lat="43.569026" lon="10.823229">
        <ele>141.054614</ele>
        <time>2026-05-05T04:10:26.370Z</time>
      </trkpt>
      <trkpt lat="43.569105" lon="10.822112">
        <ele>147.799356</ele>
        <time>2026-05-05T04:11:14.774Z</time>
      </trkpt>
      <trkpt lat="43.569088" lon="10.821869">
        <ele>149.266504</ele>
        <time>2026-05-05T04:11:27.877Z</time>
      </trkpt>
      <trkpt lat="43.568884" lon="10.820663">
        <ele>156.565582</ele>
        <time>2026-05-05T04:12:37.279Z</time>
      </trkpt>
      <trkpt lat="43.568891" lon="10.820485">
        <ele>157.593713</ele>
        <time>2026-05-05T04:12:46.970Z</time>
      </trkpt>
      <trkpt lat="43.569023" lon="10.820059">
        <ele>160.265929</ele>
        <time>2026-05-05T04:13:10.505Z</time>
      </trkpt>
      <trkpt lat="43.569471" lon="10.819116">
        <ele>166.769581</ele>
        <time>2026-05-05T04:13:50.788Z</time>
      </trkpt>
      <trkpt lat="43.569507" lon="10.818798">
        <ele>167.767641</ele>
        <time>2026-05-05T04:13:59.055Z</time>
      </trkpt>
      <trkpt lat="43.569478" lon="10.818530">
        <ele>168.174914</ele>
        <time>2026-05-05T04:14:05.183Z</time>
      </trkpt>
      <trkpt lat="43.569431" lon="10.818364">
        <ele>168.442787</ele>
        <time>2026-05-05T04:14:09.148Z</time>
      </trkpt>
      <trkpt lat="43.568921" lon="10.817122">
        <ele>170.588482</ele>
        <time>2026-05-05T04:14:37.717Z</time>
      </trkpt>
      <trkpt lat="43.568273" lon="10.815734">
        <ele>171.492974</ele>
        <time>2026-05-05T04:15:04.264Z</time>
      </trkpt>
      <trkpt lat="43.568189" lon="10.815388">
        <ele>171.579801</ele>
        <time>2026-05-05T04:15:08.765Z</time>
      </trkpt>
      <trkpt lat="43.568014" lon="10.813851">
        <ele>171.870607</ele>
        <time>2026-05-05T04:15:31.503Z</time>
      </trkpt>
      <trkpt lat="43.568009" lon="10.813665">
        <ele>171.893323</ele>
        <time>2026-05-05T04:15:34.936Z</time>
      </trkpt>
      <trkpt lat="43.568024" lon="10.813498">
        <ele>171.913862</ele>
        <time>2026-05-05T04:15:37.972Z</time>
      </trkpt>
      <trkpt lat="43.568073" lon="10.813304">
        <ele>171.938937</ele>
        <time>2026-05-05T04:15:41.688Z</time>
      </trkpt>
      <trkpt lat="43.568231" lon="10.812910">
        <ele>171.993898</ele>
        <time>2026-05-05T04:15:49.689Z</time>
      </trkpt>
      <trkpt lat="43.568225" lon="10.812686">
        <ele>172.021255</ele>
        <time>2026-05-05T04:15:53.607Z</time>
      </trkpt>
      <trkpt lat="43.567779" lon="10.810979">
        <ele>169.963048</ele>
        <time>2026-05-05T04:16:15.001Z</time>
      </trkpt>
      <trkpt lat="43.567743" lon="10.810704">
        <ele>169.488172</ele>
        <time>2026-05-05T04:16:17.902Z</time>
      </trkpt>
      <trkpt lat="43.567788" lon="10.810541">
        <ele>169.191759</ele>
        <time>2026-05-05T04:16:19.726Z</time>
      </trkpt>
      <trkpt lat="43.567991" lon="10.810128">
        <ele>168.343698</ele>
        <time>2026-05-05T04:16:24.872Z</time>
      </trkpt>
      <trkpt lat="43.568072" lon="10.810016">
        <ele>168.074792</ele>
        <time>2026-05-05T04:16:26.474Z</time>
      </trkpt>
      <trkpt lat="43.568196" lon="10.809933">
        <ele>167.823777</ele>
        <time>2026-05-05T04:16:28.389Z</time>
      </trkpt>
      <trkpt lat="43.568457" lon="10.809877">
        <ele>167.576920</ele>
        <time>2026-05-05T04:16:32.014Z</time>
      </trkpt>
      <trkpt lat="43.568558" lon="10.809791">
        <ele>167.466007</ele>
        <time>2026-05-05T04:16:33.660Z</time>
      </trkpt>
      <trkpt lat="43.568664" lon="10.809656">
        <ele>167.331207</ele>
        <time>2026-05-05T04:16:35.688Z</time>
      </trkpt>
      <trkpt lat="43.569074" lon="10.808998">
        <ele>166.743536</ele>
        <time>2026-05-05T04:16:45.656Z</time>
      </trkpt>
      <trkpt lat="43.569356" lon="10.808709">
        <ele>166.415272</ele>
        <time>2026-05-05T04:16:53.991Z</time>
      </trkpt>
      <trkpt lat="43.569503" lon="10.808641">
        <ele>166.270376</ele>
        <time>2026-05-05T04:16:58.720Z</time>
      </trkpt>
      <trkpt lat="43.569613" lon="10.808633">
        <ele>166.300303</ele>
        <time>2026-05-05T04:17:02.324Z</time>
      </trkpt>
      <trkpt lat="43.570054" lon="10.808845">
        <ele>168.364682</ele>
        <time>2026-05-05T04:17:21.230Z</time>
      </trkpt>
      <trkpt lat="43.570173" lon="10.808867">
        <ele>168.895438</ele>
        <time>2026-05-05T04:17:27.043Z</time>
      </trkpt>
      <trkpt lat="43.570307" lon="10.808843">
        <ele>169.492774</ele>
        <time>2026-05-05T04:17:33.814Z</time>
      </trkpt>
      <trkpt lat="43.570425" lon="10.808761">
        <ele>170.076798</ele>
        <time>2026-05-05T04:17:40.672Z</time>
      </trkpt>
      <trkpt lat="43.570530" lon="10.808635">
        <ele>170.691872</ele>
        <time>2026-05-05T04:17:47.879Z</time>
      </trkpt>
      <trkpt lat="43.571082" lon="10.807730">
        <ele>174.557837</ele>
        <time>2026-05-05T04:18:24.597Z</time>
      </trkpt>
      <trkpt lat="43.571145" lon="10.807545">
        <ele>175.361186</ele>
        <time>2026-05-05T04:18:29.395Z</time>
      </trkpt>
      <trkpt lat="43.571175" lon="10.807380">
        <ele>176.029735</ele>
        <time>2026-05-05T04:18:33.129Z</time>
      </trkpt>
      <trkpt lat="43.571176" lon="10.807215">
        <ele>176.678201</ele>
        <time>2026-05-05T04:18:36.791Z</time>
      </trkpt>
      <trkpt lat="43.571044" lon="10.806407">
        <ele>179.933333</ele>
        <time>2026-05-05T04:18:59.833Z</time>
      </trkpt>
      <trkpt lat="43.570981" lon="10.805871">
        <ele>182.067335</ele>
        <time>2026-05-05T04:19:19.555Z</time>
      </trkpt>
      <trkpt lat="43.570989" lon="10.805643">
        <ele>182.964419</ele>
        <time>2026-05-05T04:19:29.230Z</time>
      </trkpt>
      <trkpt lat="43.571084" lon="10.804794">
        <ele>187.199692</ele>
        <time>2026-05-05T04:20:10.913Z</time>
      </trkpt>
      <trkpt lat="43.571086" lon="10.804343">
        <ele>189.595627</ele>
        <time>2026-05-05T04:20:33.330Z</time>
      </trkpt>
      <trkpt lat="43.571056" lon="10.804130">
        <ele>190.748349</ele>
        <time>2026-05-05T04:20:43.711Z</time>
      </trkpt>
      <trkpt lat="43.571002" lon="10.803918">
        <ele>191.942151</ele>
        <time>2026-05-05T04:20:53.902Z</time>
      </trkpt>
      <trkpt lat="43.570917" lon="10.803760">
        <ele>192.987598</ele>
        <time>2026-05-05T04:21:02.302Z</time>
      </trkpt>
      <trkpt lat="43.570820" lon="10.803662">
        <ele>193.869014</ele>
        <time>2026-05-05T04:21:09.064Z</time>
      </trkpt>
      <trkpt lat="43.570123" lon="10.803218">
        <ele>196.476292</ele>
        <time>2026-05-05T04:21:40.428Z</time>
      </trkpt>
      <trkpt lat="43.570007" lon="10.803017">
        <ele>196.130981</ele>
        <time>2026-05-05T04:21:44.081Z</time>
      </trkpt>
      <trkpt lat="43.569829" lon="10.802583">
        <ele>195.460825</ele>
        <time>2026-05-05T04:21:49.627Z</time>
      </trkpt>
      <trkpt lat="43.569713" lon="10.802341">
        <ele>195.070905</ele>
        <time>2026-05-05T04:21:52.742Z</time>
      </trkpt>
      <trkpt lat="43.569622" lon="10.802137">
        <ele>194.748984</ele>
        <time>2026-05-05T04:21:55.265Z</time>
      </trkpt>
      <trkpt lat="43.569522" lon="10.801934">
        <ele>194.419117</ele>
        <time>2026-05-05T04:21:57.807Z</time>
      </trkpt>
      <trkpt lat="43.569485" lon="10.801888">
        <ele>194.326759</ele>
        <time>2026-05-05T04:21:58.514Z</time>
      </trkpt>
      <trkpt lat="43.569415" lon="10.801825">
        <ele>194.171768</ele>
        <time>2026-05-05T04:21:59.681Z</time>
      </trkpt>
      <trkpt lat="43.569313" lon="10.801792">
        <ele>193.977463</ele>
        <time>2026-05-05T04:22:01.136Z</time>
      </trkpt>
      <trkpt lat="43.568902" lon="10.801925">
        <ele>192.351109</ele>
        <time>2026-05-05T04:22:06.900Z</time>
      </trkpt>
      <trkpt lat="43.568300" lon="10.801922">
        <ele>189.540397</ele>
        <time>2026-05-05T04:22:15.198Z</time>
      </trkpt>
      <trkpt lat="43.567880" lon="10.801901">
        <ele>187.578161</ele>
        <time>2026-05-05T04:22:21.281Z</time>
      </trkpt>
      <trkpt lat="43.567594" lon="10.801855">
        <ele>186.233811</ele>
        <time>2026-05-05T04:22:25.683Z</time>
      </trkpt>
      <trkpt lat="43.567331" lon="10.801778">
        <ele>185.208445</ele>
        <time>2026-05-05T04:22:29.889Z</time>
      </trkpt>
      <trkpt lat="43.566944" lon="10.801600">
        <ele>184.474367</ele>
        <time>2026-05-05T04:22:36.384Z</time>
      </trkpt>
      <trkpt lat="43.565896" lon="10.800914">
        <ele>182.387078</ele>
        <time>2026-05-05T04:22:55.559Z</time>
      </trkpt>
      <trkpt lat="43.565828" lon="10.800860">
        <ele>182.245897</ele>
        <time>2026-05-05T04:22:57.062Z</time>
      </trkpt>
      <trkpt lat="43.565668" lon="10.800631">
        <ele>182.297731</ele>
        <time>2026-05-05T04:23:01.654Z</time>
      </trkpt>
      <trkpt lat="43.565560" lon="10.800494">
        <ele>182.466281</ele>
        <time>2026-05-05T04:23:05.165Z</time>
      </trkpt>
      <trkpt lat="43.565399" lon="10.800412">
        <ele>182.663468</ele>
        <time>2026-05-05T04:23:09.705Z</time>
      </trkpt>
      <trkpt lat="43.565131" lon="10.800430">
        <ele>182.971770</ele>
        <time>2026-05-05T04:23:17.882Z</time>
      </trkpt>
      <trkpt lat="43.564920" lon="10.800397">
        <ele>183.215764</ele>
        <time>2026-05-05T04:23:25.401Z</time>
      </trkpt>
      <trkpt lat="43.564261" lon="10.800061">
        <ele>184.022990</ele>
        <time>2026-05-05T04:23:49.755Z</time>
      </trkpt>
      <trkpt lat="43.563928" lon="10.799816">
        <ele>182.995906</ele>
        <time>2026-05-05T04:23:58.783Z</time>
      </trkpt>
      <trkpt lat="43.563881" lon="10.799766">
        <ele>182.700632</ele>
        <time>2026-05-05T04:23:59.958Z</time>
      </trkpt>
      <trkpt lat="43.563836" lon="10.799661">
        <ele>182.260803</ele>
        <time>2026-05-05T04:24:01.593Z</time>
      </trkpt>
      <trkpt lat="43.563787" lon="10.799449">
        <ele>181.458509</ele>
        <time>2026-05-05T04:24:04.374Z</time>
      </trkpt>
      <trkpt lat="43.563693" lon="10.799206">
        <ele>180.465360</ele>
        <time>2026-05-05T04:24:07.548Z</time>
      </trkpt>
      <trkpt lat="43.563586" lon="10.799068">
        <ele>179.736658</ele>
        <time>2026-05-05T04:24:09.763Z</time>
      </trkpt>
      <trkpt lat="43.563286" lon="10.798799">
        <ele>177.956539</ele>
        <time>2026-05-05T04:24:14.869Z</time>
      </trkpt>
      <trkpt lat="43.562252" lon="10.797828">
        <ele>170.004487</ele>
        <time>2026-05-05T04:24:32.000Z</time>
      </trkpt>
      <trkpt lat="43.562151" lon="10.797758">
        <ele>169.164281</ele>
        <time>2026-05-05T04:24:33.601Z</time>
      </trkpt>
      <trkpt lat="43.561405" lon="10.797508">
        <ele>163.457323</ele>
        <time>2026-05-05T04:24:44.740Z</time>
      </trkpt>
      <trkpt lat="43.561001" lon="10.797453">
        <ele>160.640581</ele>
        <time>2026-05-05T04:24:50.837Z</time>
      </trkpt>
      <trkpt lat="43.560605" lon="10.797458">
        <ele>158.112952</ele>
        <time>2026-05-05T04:24:56.717Z</time>
      </trkpt>
      <trkpt lat="43.560403" lon="10.797397">
        <ele>156.793151</ele>
        <time>2026-05-05T04:24:59.729Z</time>
      </trkpt>
      <trkpt lat="43.560213" lon="10.797231">
        <ele>155.357837</ele>
        <time>2026-05-05T04:25:02.959Z</time>
      </trkpt>
      <trkpt lat="43.559509" lon="10.796039">
        <ele>148.877444</ele>
        <time>2026-05-05T04:25:18.919Z</time>
      </trkpt>
      <trkpt lat="43.559359" lon="10.795851">
        <ele>147.966721</ele>
        <time>2026-05-05T04:25:21.905Z</time>
      </trkpt>
      <trkpt lat="43.558848" lon="10.795372">
        <ele>145.190304</ele>
        <time>2026-05-05T04:25:31.391Z</time>
      </trkpt>
      <trkpt lat="43.558718" lon="10.795215">
        <ele>144.413868</ele>
        <time>2026-05-05T04:25:34.209Z</time>
      </trkpt>
      <trkpt lat="43.558361" lon="10.794529">
        <ele>142.128704</ele>
        <time>2026-05-05T04:25:44.582Z</time>
      </trkpt>
      <trkpt lat="43.558222" lon="10.794175">
        <ele>141.779129</ele>
        <time>2026-05-05T04:25:49.856Z</time>
      </trkpt>
      <trkpt lat="43.558168" lon="10.793676">
        <ele>141.341074</ele>
        <time>2026-05-05T04:25:56.750Z</time>
      </trkpt>
      <trkpt lat="43.557829" lon="10.792345">
        <ele>140.175788</ele>
        <time>2026-05-05T04:26:16.134Z</time>
      </trkpt>
      <trkpt lat="43.557822" lon="10.792234">
        <ele>140.294280</ele>
        <time>2026-05-05T04:26:17.805Z</time>
      </trkpt>
      <trkpt lat="43.557849" lon="10.792069">
        <ele>140.474172</ele>
        <time>2026-05-05T04:26:20.455Z</time>
      </trkpt>
      <trkpt lat="43.557850" lon="10.792067">
        <ele>140.476756</ele>
        <time>2026-05-05T04:26:20.494Z</time>
      </trkpt>
      <trkpt lat="43.558000" lon="10.791745">
        <ele>140.883846</ele>
        <time>2026-05-05T04:26:27.341Z</time>
      </trkpt>
      <trkpt lat="43.558035" lon="10.791617">
        <ele>141.029339</ele>
        <time>2026-05-05T04:26:30.078Z</time>
      </trkpt>
      <trkpt lat="43.558075" lon="10.791387">
        <ele>141.280883</ele>
        <time>2026-05-05T04:26:35.147Z</time>
      </trkpt>
      <trkpt lat="43.558059" lon="10.791061">
        <ele>141.628371</ele>
        <time>2026-05-05T04:26:42.879Z</time>
      </trkpt>
      <trkpt lat="43.557946" lon="10.790764">
        <ele>141.985110</ele>
        <time>2026-05-05T04:26:51.256Z</time>
      </trkpt>
      <trkpt lat="43.557471" lon="10.789834">
        <ele>143.463081</ele>
        <time>2026-05-05T04:27:19.053Z</time>
      </trkpt>
      <trkpt lat="43.557402" lon="10.789620">
        <ele>143.873949</ele>
        <time>2026-05-05T04:27:24.165Z</time>
      </trkpt>
      <trkpt lat="43.557361" lon="10.789184">
        <ele>144.645174</ele>
        <time>2026-05-05T04:27:33.684Z</time>
      </trkpt>
      <trkpt lat="43.557320" lon="10.788985">
        <ele>145.008085</ele>
        <time>2026-05-05T04:27:38.296Z</time>
      </trkpt>
      <trkpt lat="43.557006" lon="10.788224">
        <ele>146.544218</ele>
        <time>2026-05-05T04:27:59.420Z</time>
      </trkpt>
      <trkpt lat="43.556781" lon="10.787514">
        <ele>147.848612</ele>
        <time>2026-05-05T04:28:21.521Z</time>
      </trkpt>
      <trkpt lat="43.556696" lon="10.787313">
        <ele>148.227610</ele>
        <time>2026-05-05T04:28:27.868Z</time>
      </trkpt>
      <trkpt lat="43.556295" lon="10.786632">
        <ele>149.656622</ele>
        <time>2026-05-05T04:28:49.014Z</time>
      </trkpt>
      <trkpt lat="43.556104" lon="10.786350">
        <ele>150.285235</ele>
        <time>2026-05-05T04:28:56.744Z</time>
      </trkpt>
      <trkpt lat="43.555908" lon="10.786126">
        <ele>150.857150</ele>
        <time>2026-05-05T04:29:03.392Z</time>
      </trkpt>
      <trkpt lat="43.555694" lon="10.785944">
        <ele>151.745070</ele>
        <time>2026-05-05T04:29:10.322Z</time>
      </trkpt>
      <trkpt lat="43.555647" lon="10.785859">
        <ele>152.149877</ele>
        <time>2026-05-05T04:29:12.486Z</time>
      </trkpt>
      <trkpt lat="43.555630" lon="10.785650">
        <ele>152.946165</ele>
        <time>2026-05-05T04:29:16.924Z</time>
      </trkpt>
      <trkpt lat="43.555735" lon="10.785192">
        <ele>154.764951</ele>
        <time>2026-05-05T04:29:28.506Z</time>
      </trkpt>
      <trkpt lat="43.555736" lon="10.785087">
        <ele>155.162537</ele>
        <time>2026-05-05T04:29:31.582Z</time>
      </trkpt>
      <trkpt lat="43.555720" lon="10.784968">
        <ele>155.620785</ele>
        <time>2026-05-05T04:29:35.402Z</time>
      </trkpt>
      <trkpt lat="43.555475" lon="10.784236">
        <ele>158.673600</ele>
        <time>2026-05-05T04:30:08.976Z</time>
      </trkpt>
      <trkpt lat="43.555451" lon="10.784079">
        <ele>159.281119</ele>
        <time>2026-05-05T04:30:16.604Z</time>
      </trkpt>
      <trkpt lat="43.555529" lon="10.782981">
        <ele>163.626330</ele>
        <time>2026-05-05T04:31:10.739Z</time>
      </trkpt>
      <trkpt lat="43.555655" lon="10.782064">
        <ele>167.366081</ele>
        <time>2026-05-05T04:31:45.002Z</time>
      </trkpt>
      <trkpt lat="43.555788" lon="10.781657">
        <ele>169.154995</ele>
        <time>2026-05-05T04:31:55.992Z</time>
      </trkpt>
      <trkpt lat="43.555840" lon="10.781327">
        <ele>170.508150</ele>
        <time>2026-05-05T04:32:02.118Z</time>
      </trkpt>
      <trkpt lat="43.555796" lon="10.780962">
        <ele>171.084976</ele>
        <time>2026-05-05T04:32:08.146Z</time>
      </trkpt>
      <trkpt lat="43.555431" lon="10.779865">
        <ele>172.943238</ele>
        <time>2026-05-05T04:32:33.289Z</time>
      </trkpt>
      <trkpt lat="43.555411" lon="10.779709">
        <ele>173.187122</ele>
        <time>2026-05-05T04:32:37.600Z</time>
      </trkpt>
      <trkpt lat="43.555403" lon="10.779203">
        <ele>173.966272</ele>
        <time>2026-05-05T04:32:51.841Z</time>
      </trkpt>
      <trkpt lat="43.555409" lon="10.778662">
        <ele>173.641747</ele>
        <time>2026-05-05T04:33:05.367Z</time>
      </trkpt>
      <trkpt lat="43.555330" lon="10.778000">
        <ele>172.067809</ele>
        <time>2026-05-05T04:33:18.005Z</time>
      </trkpt>
      <trkpt lat="43.554951" lon="10.777612">
        <ele>170.540159</ele>
        <time>2026-05-05T04:33:25.423Z</time>
      </trkpt>
      <trkpt lat="43.554909" lon="10.777523">
        <ele>170.291003</ele>
        <time>2026-05-05T04:33:26.462Z</time>
      </trkpt>
      <trkpt lat="43.554885" lon="10.777316">
        <ele>169.799211</ele>
        <time>2026-05-05T04:33:28.457Z</time>
      </trkpt>
      <trkpt lat="43.554892" lon="10.777153">
        <ele>169.416146</ele>
        <time>2026-05-05T04:33:29.980Z</time>
      </trkpt>
      <trkpt lat="43.554958" lon="10.776767">
        <ele>168.425270</ele>
        <time>2026-05-05T04:33:33.623Z</time>
      </trkpt>
      <trkpt lat="43.554954" lon="10.776627">
        <ele>167.484659</ele>
        <time>2026-05-05T04:33:34.898Z</time>
      </trkpt>
      <trkpt lat="43.554890" lon="10.776385">
        <ele>165.755212</ele>
        <time>2026-05-05T04:33:37.242Z</time>
      </trkpt>
      <trkpt lat="43.554685" lon="10.776009">
        <ele>162.596383</ele>
        <time>2026-05-05T04:33:41.540Z</time>
      </trkpt>
      <trkpt lat="43.554460" lon="10.775652">
        <ele>159.420136</ele>
        <time>2026-05-05T04:33:45.904Z</time>
      </trkpt>
      <trkpt lat="43.554165" lon="10.775347">
        <ele>156.005362</ele>
        <time>2026-05-05T04:33:50.615Z</time>
      </trkpt>
      <trkpt lat="43.554117" lon="10.775253">
        <ele>155.233374</ele>
        <time>2026-05-05T04:33:51.674Z</time>
      </trkpt>
      <trkpt lat="43.554076" lon="10.775108">
        <ele>154.188443</ele>
        <time>2026-05-05T04:33:53.130Z</time>
      </trkpt>
      <trkpt lat="43.554076" lon="10.774959">
        <ele>153.188126</ele>
        <time>2026-05-05T04:33:54.550Z</time>
      </trkpt>
      <trkpt lat="43.554125" lon="10.774509">
        <ele>150.808230</ele>
        <time>2026-05-05T04:33:58.981Z</time>
      </trkpt>
      <trkpt lat="43.554177" lon="10.774137">
        <ele>149.261203</ele>
        <time>2026-05-05T04:34:02.716Z</time>
      </trkpt>
      <trkpt lat="43.554177" lon="10.773746">
        <ele>147.664590</ele>
        <time>2026-05-05T04:34:06.595Z</time>
      </trkpt>
      <trkpt lat="43.554105" lon="10.771519">
        <ele>140.446620</ele>
        <time>2026-05-05T04:34:29.779Z</time>
      </trkpt>
      <trkpt lat="43.554130" lon="10.771254">
        <ele>140.006223</ele>
        <time>2026-05-05T04:34:32.907Z</time>
      </trkpt>
      <trkpt lat="43.554167" lon="10.771147">
        <ele>139.810846</ele>
        <time>2026-05-05T04:34:34.325Z</time>
      </trkpt>
      <trkpt lat="43.554644" lon="10.769775">
        <ele>137.914647</ele>
        <time>2026-05-05T04:34:53.514Z</time>
      </trkpt>
      <trkpt lat="43.554924" lon="10.769357">
        <ele>138.720698</ele>
        <time>2026-05-05T04:35:04.439Z</time>
      </trkpt>
      <trkpt lat="43.556065" lon="10.767925">
        <ele>141.383521</ele>
        <time>2026-05-05T04:35:57.822Z</time>
      </trkpt>
      <trkpt lat="43.556053" lon="10.767857">
        <ele>141.423466</ele>
        <time>2026-05-05T04:35:59.735Z</time>
      </trkpt>
      <trkpt lat="43.555861" lon="10.767476">
        <ele>141.688327</ele>
        <time>2026-05-05T04:36:12.438Z</time>
      </trkpt>
      <trkpt lat="43.555750" lon="10.767166">
        <ele>141.885676</ele>
        <time>2026-05-05T04:36:20.379Z</time>
      </trkpt>
      <trkpt lat="43.555675" lon="10.766792">
        <ele>142.107158</ele>
        <time>2026-05-05T04:36:26.926Z</time>
      </trkpt>
      <trkpt lat="43.555700" lon="10.766718">
        <ele>142.153757</ele>
        <time>2026-05-05T04:36:28.171Z</time>
      </trkpt>
      <trkpt lat="43.555778" lon="10.766637">
        <ele>142.230639</ele>
        <time>2026-05-05T04:36:29.879Z</time>
      </trkpt>
      <trkpt lat="43.556001" lon="10.766580">
        <ele>142.409253</ele>
        <time>2026-05-05T04:36:33.703Z</time>
      </trkpt>
      <trkpt lat="43.556248" lon="10.766479">
        <ele>142.157273</ele>
        <time>2026-05-05T04:36:37.827Z</time>
      </trkpt>
      <trkpt lat="43.556315" lon="10.766420">
        <ele>141.639176</ele>
        <time>2026-05-05T04:36:39.071Z</time>
      </trkpt>
      <trkpt lat="43.556836" lon="10.765826">
        <ele>137.233766</ele>
        <time>2026-05-05T04:36:48.808Z</time>
      </trkpt>
      <trkpt lat="43.556926" lon="10.765637">
        <ele>136.165446</ele>
        <time>2026-05-05T04:36:50.954Z</time>
      </trkpt>
      <trkpt lat="43.557214" lon="10.764691">
        <ele>131.318313</ele>
        <time>2026-05-05T04:37:00.489Z</time>
      </trkpt>
      <trkpt lat="43.557276" lon="10.764560">
        <ele>130.578905</ele>
        <time>2026-05-05T04:37:01.957Z</time>
      </trkpt>
      <trkpt lat="43.557352" lon="10.764461">
        <ele>129.896851</ele>
        <time>2026-05-05T04:37:03.292Z</time>
      </trkpt>
      <trkpt lat="43.557629" lon="10.764307">
        <ele>127.947960</ele>
        <time>2026-05-05T04:37:07.168Z</time>
      </trkpt>
      <trkpt lat="43.557675" lon="10.764209">
        <ele>127.395767</ele>
        <time>2026-05-05T04:37:08.296Z</time>
      </trkpt>
      <trkpt lat="43.557687" lon="10.764097">
        <ele>126.860334</ele>
        <time>2026-05-05T04:37:09.364Z</time>
      </trkpt>
      <trkpt lat="43.557576" lon="10.763554">
        <ele>124.192142</ele>
        <time>2026-05-05T04:37:14.873Z</time>
      </trkpt>
      <trkpt lat="43.557569" lon="10.763416">
        <ele>123.537909</ele>
        <time>2026-05-05T04:37:16.267Z</time>
      </trkpt>
      <trkpt lat="43.557621" lon="10.762563">
        <ele>119.489613</ele>
        <time>2026-05-05T04:37:25.188Z</time>
      </trkpt>
      <trkpt lat="43.557474" lon="10.761725">
        <ele>116.344653</ele>
        <time>2026-05-05T04:37:34.400Z</time>
      </trkpt>
      <trkpt lat="43.557274" lon="10.760764">
        <ele>112.811641</ele>
        <time>2026-05-05T04:37:44.905Z</time>
      </trkpt>
      <trkpt lat="43.557067" lon="10.759744">
        <ele>108.623885</ele>
        <time>2026-05-05T04:37:55.495Z</time>
      </trkpt>
      <trkpt lat="43.557053" lon="10.759593">
        <ele>107.896321</ele>
        <time>2026-05-05T04:37:56.985Z</time>
      </trkpt>
      <trkpt lat="43.557137" lon="10.759368">
        <ele>106.686658</ele>
        <time>2026-05-05T04:37:59.450Z</time>
      </trkpt>
      <trkpt lat="43.557535" lon="10.758834">
        <ele>103.025613</ele>
        <time>2026-05-05T04:38:06.884Z</time>
      </trkpt>
      <trkpt lat="43.557710" lon="10.758479">
        <ele>100.973624</ele>
        <time>2026-05-05T04:38:11.050Z</time>
      </trkpt>
      <trkpt lat="43.557780" lon="10.758247">
        <ele>99.772560</ele>
        <time>2026-05-05T04:38:13.502Z</time>
      </trkpt>
      <trkpt lat="43.557948" lon="10.757265">
        <ele>95.109806</ele>
        <time>2026-05-05T04:38:23.514Z</time>
      </trkpt>
      <trkpt lat="43.557972" lon="10.756882">
        <ele>93.355816</ele>
        <time>2026-05-05T04:38:27.402Z</time>
      </trkpt>
      <trkpt lat="43.557936" lon="10.756680">
        <ele>92.406713</ele>
        <time>2026-05-05T04:38:29.520Z</time>
      </trkpt>
      <trkpt lat="43.557906" lon="10.756510">
        <ele>91.608408</ele>
        <time>2026-05-05T04:38:31.308Z</time>
      </trkpt>
      <trkpt lat="43.557795" lon="10.756209">
        <ele>90.067478</ele>
        <time>2026-05-05T04:38:34.710Z</time>
      </trkpt>
      <trkpt lat="43.557781" lon="10.756028">
        <ele>89.236958</ele>
        <time>2026-05-05T04:38:36.516Z</time>
      </trkpt>
      <trkpt lat="43.557804" lon="10.755937">
        <ele>88.797234</ele>
        <time>2026-05-05T04:38:37.464Z</time>
      </trkpt>
      <trkpt lat="43.558147" lon="10.755187">
        <ele>83.775056</ele>
        <time>2026-05-05T04:38:46.020Z</time>
      </trkpt>
      <trkpt lat="43.558443" lon="10.753754">
        <ele>74.204551</ele>
        <time>2026-05-05T04:38:59.849Z</time>
      </trkpt>
      <trkpt lat="43.558552" lon="10.752803">
        <ele>68.266160</ele>
        <time>2026-05-05T04:39:08.757Z</time>
      </trkpt>
      <trkpt lat="43.558627" lon="10.752525">
        <ele>66.507967</ele>
        <time>2026-05-05T04:39:11.533Z</time>
      </trkpt>
      <trkpt lat="43.558670" lon="10.752434">
        <ele>65.864076</ele>
        <time>2026-05-05T04:39:12.558Z</time>
      </trkpt>
      <trkpt lat="43.558751" lon="10.752357">
        <ele>65.059601</ele>
        <time>2026-05-05T04:39:13.838Z</time>
      </trkpt>
      <trkpt lat="43.559117" lon="10.752161">
        <ele>61.848606</ele>
        <time>2026-05-05T04:39:18.952Z</time>
      </trkpt>
      <trkpt lat="43.559190" lon="10.752029">
        <ele>60.864446</ele>
        <time>2026-05-05T04:39:20.527Z</time>
      </trkpt>
      <trkpt lat="43.559201" lon="10.751924">
        <ele>60.235645</ele>
        <time>2026-05-05T04:39:21.541Z</time>
      </trkpt>
      <trkpt lat="43.559135" lon="10.751078">
        <ele>55.967966</ele>
        <time>2026-05-05T04:39:29.830Z</time>
      </trkpt>
      <trkpt lat="43.559111" lon="10.750986">
        <ele>55.734363</ele>
        <time>2026-05-05T04:39:30.794Z</time>
      </trkpt>
      <trkpt lat="43.558839" lon="10.750442">
        <ele>54.155360</ele>
        <time>2026-05-05T04:39:37.544Z</time>
      </trkpt>
      <trkpt lat="43.557419" lon="10.747756">
        <ele>49.454418</ele>
        <time>2026-05-05T04:40:45.951Z</time>
      </trkpt>
      <trkpt lat="43.556127" lon="10.745230">
        <ele>51.064445</ele>
        <time>2026-05-05T04:42:03.102Z</time>
      </trkpt>
      <trkpt lat="43.556127" lon="10.745230">
        <ele>51.064445</ele>
        <time>2026-05-05T04:42:03.196Z</time>
      </trkpt>
      <trkpt lat="43.556127" lon="10.745230">
        <ele>51.064445</ele>
        <time>2026-05-05T04:42:03.196Z</time>
      </trkpt>
      <trkpt lat="43.555391" lon="10.745287">
        <ele>55.057224</ele>
        <time>2026-05-05T04:42:34.753Z</time>
      </trkpt>
      <trkpt lat="43.554656" lon="10.745344">
        <ele>59.212235</ele>
        <time>2026-05-05T04:43:06.297Z</time>
      </trkpt>
      <trkpt lat="43.553920" lon="10.745402">
        <ele>63.769481</ele>
        <time>2026-05-05T04:43:37.883Z</time>
      </trkpt>
      <trkpt lat="43.553185" lon="10.745459">
        <ele>68.703463</ele>
        <time>2026-05-05T04:44:09.428Z</time>
      </trkpt>
      <trkpt lat="43.552449" lon="10.745516">
        <ele>73.567958</ele>
        <time>2026-05-05T04:44:41.013Z</time>
      </trkpt>
      <trkpt lat="43.552201" lon="10.745558">
        <ele>74.856204</ele>
        <time>2026-05-05T04:44:56.496Z</time>
      </trkpt>
      <trkpt lat="43.551833" lon="10.745514">
        <ele>76.760666</ele>
        <time>2026-05-05T04:45:17.531Z</time>
      </trkpt>
      <trkpt lat="43.551662" lon="10.745537">
        <ele>77.646495</ele>
        <time>2026-05-05T04:45:26.831Z</time>
      </trkpt>
      <trkpt lat="43.551219" lon="10.745659">
        <ele>79.975586</ele>
        <time>2026-05-05T04:45:51.420Z</time>
      </trkpt>
      <trkpt lat="43.551228" lon="10.745518">
        <ele>80.504507</ele>
        <time>2026-05-05T04:45:56.947Z</time>
      </trkpt>
      <trkpt lat="43.551196" lon="10.745432">
        <ele>80.865745</ele>
        <time>2026-05-05T04:46:00.634Z</time>
      </trkpt>
      <trkpt lat="43.550948" lon="10.745439">
        <ele>82.144663</ele>
        <time>2026-05-05T04:46:13.890Z</time>
      </trkpt>
      <trkpt lat="43.550872" lon="10.745365">
        <ele>82.639709</ele>
        <time>2026-05-05T04:46:18.848Z</time>
      </trkpt>
      <trkpt lat="43.550089" lon="10.745589">
        <ele>88.497222</ele>
        <time>2026-05-05T04:47:07.231Z</time>
      </trkpt>
      <trkpt lat="43.550046" lon="10.745656">
        <ele>88.972339</ele>
        <time>2026-05-05T04:47:11.622Z</time>
      </trkpt>
      <trkpt lat="43.550041" lon="10.745736">
        <ele>89.398636</ele>
        <time>2026-05-05T04:47:15.619Z</time>
      </trkpt>
      <trkpt lat="43.550035" lon="10.745834">
        <ele>89.920772</ele>
        <time>2026-05-05T04:47:20.726Z</time>
      </trkpt>
      <trkpt lat="43.550003" lon="10.745889">
        <ele>90.295212</ele>
        <time>2026-05-05T04:47:24.382Z</time>
      </trkpt>
      <trkpt lat="43.548897" lon="10.746714">
        <ele>100.586163</ele>
        <time>2026-05-05T04:49:03.577Z</time>
      </trkpt>
      <trkpt lat="43.546409" lon="10.748572">
        <ele>126.657511</ele>
        <time>2026-05-05T04:52:48.367Z</time>
      </trkpt>
      <trkpt lat="43.546356" lon="10.748595">
        <ele>127.159033</ele>
        <time>2026-05-05T04:52:52.328Z</time>
      </trkpt>
      <trkpt lat="43.546295" lon="10.748580">
        <ele>127.718337</ele>
        <time>2026-05-05T04:52:56.783Z</time>
      </trkpt>
      <trkpt lat="43.545966" lon="10.748171">
        <ele>130.174211</ele>
        <time>2026-05-05T04:53:27.566Z</time>
      </trkpt>
      <trkpt lat="43.545839" lon="10.748190">
        <ele>130.677471</ele>
        <time>2026-05-05T04:53:36.140Z</time>
      </trkpt>
      <trkpt lat="43.545605" lon="10.747947">
        <ele>131.831295</ele>
        <time>2026-05-05T04:53:54.158Z</time>
      </trkpt>
      <trkpt lat="43.545135" lon="10.747603">
        <ele>133.927327</ele>
        <time>2026-05-05T04:54:21.547Z</time>
      </trkpt>
      <trkpt lat="43.544952" lon="10.747415">
        <ele>134.826192</ele>
        <time>2026-05-05T04:54:32.286Z</time>
      </trkpt>
      <trkpt lat="43.543779" lon="10.745672">
        <ele>133.599721</ele>
        <time>2026-05-05T04:55:20.940Z</time>
      </trkpt>
      <trkpt lat="43.543695" lon="10.745273">
        <ele>133.072607</ele>
        <time>2026-05-05T04:55:28.626Z</time>
      </trkpt>
      <trkpt lat="43.543835" lon="10.744579">
        <ele>131.404516</ele>
        <time>2026-05-05T04:55:41.955Z</time>
      </trkpt>
      <trkpt lat="43.543851" lon="10.744257">
        <ele>130.588421</ele>
        <time>2026-05-05T04:55:47.784Z</time>
      </trkpt>
      <trkpt lat="43.543946" lon="10.743692">
        <ele>129.121875</ele>
        <time>2026-05-05T04:55:58.403Z</time>
      </trkpt>
      <trkpt lat="43.543946" lon="10.743182">
        <ele>127.832331</ele>
        <time>2026-05-05T04:56:07.915Z</time>
      </trkpt>
      <trkpt lat="43.543960" lon="10.742806">
        <ele>126.880354</ele>
        <time>2026-05-05T04:56:14.888Z</time>
      </trkpt>
      <trkpt lat="43.544136" lon="10.742236">
        <ele>125.722587</ele>
        <time>2026-05-05T04:56:26.235Z</time>
      </trkpt>
      <trkpt lat="43.544251" lon="10.741698">
        <ele>124.740244</ele>
        <time>2026-05-05T04:56:36.503Z</time>
      </trkpt>
      <trkpt lat="43.544620" lon="10.740678">
        <ele>122.743742</ele>
        <time>2026-05-05T04:56:59.183Z</time>
      </trkpt>
      <trkpt lat="43.544731" lon="10.740421">
        <ele>122.202965</ele>
        <time>2026-05-05T04:57:05.709Z</time>
      </trkpt>
      <trkpt lat="43.545043" lon="10.739840">
        <ele>120.663953</ele>
        <time>2026-05-05T04:57:22.054Z</time>
      </trkpt>
      <trkpt lat="43.545209" lon="10.739378">
        <ele>119.566442</ele>
        <time>2026-05-05T04:57:32.941Z</time>
      </trkpt>
      <trkpt lat="43.545286" lon="10.739254">
        <ele>119.218911</ele>
        <time>2026-05-05T04:57:36.130Z</time>
      </trkpt>
      <trkpt lat="43.545711" lon="10.738845">
        <ele>117.697320</ele>
        <time>2026-05-05T04:57:49.164Z</time>
      </trkpt>
      <trkpt lat="43.545773" lon="10.738665">
        <ele>117.273152</ele>
        <time>2026-05-05T04:57:52.567Z</time>
      </trkpt>
      <trkpt lat="43.545822" lon="10.738405">
        <ele>115.984063</ele>
        <time>2026-05-05T04:57:57.024Z</time>
      </trkpt>
      <trkpt lat="43.545905" lon="10.737961">
        <ele>112.786206</ele>
        <time>2026-05-05T04:58:04.392Z</time>
      </trkpt>
      <trkpt lat="43.546457" lon="10.736518">
        <ele>101.406964</ele>
        <time>2026-05-05T04:58:29.488Z</time>
      </trkpt>
      <trkpt lat="43.546437" lon="10.736251">
        <ele>99.528456</ele>
        <time>2026-05-05T04:58:33.592Z</time>
      </trkpt>
      <trkpt lat="43.546287" lon="10.735543">
        <ele>94.193056</ele>
        <time>2026-05-05T04:58:44.929Z</time>
      </trkpt>
      <trkpt lat="43.546047" lon="10.734863">
        <ele>88.722331</ele>
        <time>2026-05-05T04:58:56.664Z</time>
      </trkpt>
      <trkpt lat="43.545984" lon="10.734517">
        <ele>86.141869</ele>
        <time>2026-05-05T04:59:02.253Z</time>
      </trkpt>
      <trkpt lat="43.545956" lon="10.734358">
        <ele>84.958324</ele>
        <time>2026-05-05T04:59:04.822Z</time>
      </trkpt>
      <trkpt lat="43.545947" lon="10.734136">
        <ele>83.350032</ele>
        <time>2026-05-05T04:59:08.333Z</time>
      </trkpt>
      <trkpt lat="43.545959" lon="10.733909">
        <ele>81.714045</ele>
        <time>2026-05-05T04:59:11.946Z</time>
      </trkpt>
      <trkpt lat="43.546014" lon="10.733578">
        <ele>79.702071</ele>
        <time>2026-05-05T04:59:17.337Z</time>
      </trkpt>
      <trkpt lat="43.546341" lon="10.732411">
        <ele>72.289194</ele>
        <time>2026-05-05T04:59:37.354Z</time>
      </trkpt>
      <trkpt lat="43.546394" lon="10.731954">
        <ele>69.547146</ele>
        <time>2026-05-05T04:59:44.901Z</time>
      </trkpt>
      <trkpt lat="43.546630" lon="10.731015">
        <ele>64.461888</ele>
        <time>2026-05-05T05:00:01.208Z</time>
      </trkpt>
      <trkpt lat="43.546853" lon="10.730584">
        <ele>62.065577</ele>
        <time>2026-05-05T05:00:09.961Z</time>
      </trkpt>
      <trkpt lat="43.547250" lon="10.729940">
        <ele>58.239863</ele>
        <time>2026-05-05T05:00:24.114Z</time>
      </trkpt>
      <trkpt lat="43.547659" lon="10.729140">
        <ele>55.534328</ele>
        <time>2026-05-05T05:00:41.207Z</time>
      </trkpt>
      <trkpt lat="43.547941" lon="10.728602">
        <ele>55.095868</ele>
        <time>2026-05-05T05:00:54.041Z</time>
      </trkpt>
      <trkpt lat="43.548069" lon="10.728343">
        <ele>54.888852</ele>
        <time>2026-05-05T05:01:00.773Z</time>
      </trkpt>
      <trkpt lat="43.548123" lon="10.728153">
        <ele>54.754077</ele>
        <time>2026-05-05T05:01:05.524Z</time>
      </trkpt>
      <trkpt lat="43.548146" lon="10.727947">
        <ele>54.616434</ele>
        <time>2026-05-05T05:01:10.891Z</time>
      </trkpt>
      <trkpt lat="43.548123" lon="10.727748">
        <ele>54.483357</ele>
        <time>2026-05-05T05:01:16.601Z</time>
      </trkpt>
      <trkpt lat="43.547974" lon="10.727172">
        <ele>55.031989</ele>
        <time>2026-05-05T05:01:36.610Z</time>
      </trkpt>
      <trkpt lat="43.547834" lon="10.726633">
        <ele>57.906225</ele>
        <time>2026-05-05T05:01:58.826Z</time>
      </trkpt>
      <trkpt lat="43.547674" lon="10.726266">
        <ele>60.056142</ele>
        <time>2026-05-05T05:02:18.323Z</time>
      </trkpt>
      <trkpt lat="43.547626" lon="10.726215">
        <ele>60.475743</ele>
        <time>2026-05-05T05:02:22.339Z</time>
      </trkpt>
      <trkpt lat="43.547503" lon="10.726191">
        <ele>61.336114</ele>
        <time>2026-05-05T05:02:30.997Z</time>
      </trkpt>
      <trkpt lat="43.547190" lon="10.726269">
        <ele>63.539019</ele>
        <time>2026-05-05T05:02:54.792Z</time>
      </trkpt>
      <trkpt lat="43.547120" lon="10.726253">
        <ele>64.030445</ele>
        <time>2026-05-05T05:03:00.439Z</time>
      </trkpt>
      <trkpt lat="43.546235" lon="10.725552">
        <ele>73.137713</ele>
        <time>2026-05-05T05:04:27.295Z</time>
      </trkpt>
      <trkpt lat="43.546176" lon="10.725552">
        <ele>73.733592</ele>
        <time>2026-05-05T05:04:32.595Z</time>
      </trkpt>
      <trkpt lat="43.546104" lon="10.725608">
        <ele>74.568358</ele>
        <time>2026-05-05T05:04:40.130Z</time>
      </trkpt>
      <trkpt lat="43.545874" lon="10.725995">
        <ele>78.231945</ele>
        <time>2026-05-05T05:05:12.048Z</time>
      </trkpt>
      <trkpt lat="43.545591" lon="10.726205">
        <ele>81.477337</ele>
        <time>2026-05-05T05:05:38.857Z</time>
      </trkpt>
      <trkpt lat="43.545483" lon="10.726194">
        <ele>82.571065</ele>
        <time>2026-05-05T05:05:47.611Z</time>
      </trkpt>
      <trkpt lat="43.544122" lon="10.724977">
        <ele>96.736235</ele>
        <time>2026-05-05T05:07:44.089Z</time>
      </trkpt>
      <trkpt lat="43.543721" lon="10.724587">
        <ele>100.988914</ele>
        <time>2026-05-05T05:08:22.052Z</time>
      </trkpt>
      <trkpt lat="43.543684" lon="10.724489">
        <ele>101.735521</ele>
        <time>2026-05-05T05:08:28.381Z</time>
      </trkpt>
      <trkpt lat="43.543689" lon="10.724345">
        <ele>102.709616</ele>
        <time>2026-05-05T05:08:36.810Z</time>
      </trkpt>
      <trkpt lat="43.543782" lon="10.724029">
        <ele>105.014046</ele>
        <time>2026-05-05T05:08:57.240Z</time>
      </trkpt>
      <trkpt lat="43.544010" lon="10.723564">
        <ele>108.807278</ele>
        <time>2026-05-05T05:09:31.499Z</time>
      </trkpt>
      <trkpt lat="43.544057" lon="10.723394">
        <ele>110.036645</ele>
        <time>2026-05-05T05:09:42.956Z</time>
      </trkpt>
      <trkpt lat="43.544047" lon="10.723117">
        <ele>111.910588</ele>
        <time>2026-05-05T05:10:00.531Z</time>
      </trkpt>
      <trkpt lat="43.544088" lon="10.722878">
        <ele>113.570063</ele>
        <time>2026-05-05T05:10:14.242Z</time>
      </trkpt>
      <trkpt lat="43.544272" lon="10.722417">
        <ele>116.990559</ele>
        <time>2026-05-05T05:10:37.917Z</time>
      </trkpt>
      <trkpt lat="43.544364" lon="10.722250">
        <ele>117.562284</ele>
        <time>2026-05-05T05:10:45.719Z</time>
      </trkpt>
      <trkpt lat="43.544497" lon="10.721996">
        <ele>118.416340</ele>
        <time>2026-05-05T05:10:55.390Z</time>
      </trkpt>
      <trkpt lat="43.544719" lon="10.721754">
        <ele>119.480268</ele>
        <time>2026-05-05T05:11:06.054Z</time>
      </trkpt>
      <trkpt lat="43.544801" lon="10.721668">
        <ele>119.867594</ele>
        <time>2026-05-05T05:11:09.919Z</time>
      </trkpt>
      <trkpt lat="43.544801" lon="10.721668">
        <ele>119.867594</ele>
        <time>2026-05-05T05:11:09.965Z</time>
      </trkpt>
      <trkpt lat="43.545459" lon="10.721456">
        <ele>122.408452</ele>
        <time>2026-05-05T05:11:38.866Z</time>
      </trkpt>
      <trkpt lat="43.546117" lon="10.721245">
        <ele>125.719634</ele>
        <time>2026-05-05T05:12:07.763Z</time>
      </trkpt>
      <trkpt lat="43.546775" lon="10.721034">
        <ele>129.782468</ele>
        <time>2026-05-05T05:12:36.694Z</time>
      </trkpt>
      <trkpt lat="43.546802" lon="10.721026">
        <ele>129.948554</ele>
        <time>2026-05-05T05:12:38.331Z</time>
      </trkpt>
      <trkpt lat="43.547028" lon="10.721004">
        <ele>131.311144</ele>
        <time>2026-05-05T05:12:51.469Z</time>
      </trkpt>
      <trkpt lat="43.547058" lon="10.721006">
        <ele>131.491780</ele>
        <time>2026-05-05T05:12:53.232Z</time>
      </trkpt>
      <trkpt lat="43.547071" lon="10.721006">
        <ele>131.569965</ele>
        <time>2026-05-05T05:12:54.047Z</time>
      </trkpt>
      <trkpt lat="43.547114" lon="10.721010">
        <ele>131.829163</ele>
        <time>2026-05-05T05:12:56.762Z</time>
      </trkpt>
      <trkpt lat="43.547369" lon="10.721014">
        <ele>133.362885</ele>
        <time>2026-05-05T05:13:12.459Z</time>
      </trkpt>
      <trkpt lat="43.547625" lon="10.720931">
        <ele>134.866548</ele>
        <time>2026-05-05T05:13:29.150Z</time>
      </trkpt>
      <trkpt lat="43.547672" lon="10.720905">
        <ele>135.120015</ele>
        <time>2026-05-05T05:13:32.298Z</time>
      </trkpt>
      <trkpt lat="43.547728" lon="10.720876">
        <ele>135.419420</ele>
        <time>2026-05-05T05:13:36.224Z</time>
      </trkpt>
      <trkpt lat="43.547864" lon="10.720831">
        <ele>136.119478</ele>
        <time>2026-05-05T05:13:45.042Z</time>
      </trkpt>
      <trkpt lat="43.547912" lon="10.720885">
        <ele>136.429494</ele>
        <time>2026-05-05T05:13:48.827Z</time>
      </trkpt>
      <trkpt lat="43.548178" lon="10.720943">
        <ele>137.777494</ele>
        <time>2026-05-05T05:14:05.179Z</time>
      </trkpt>
      <trkpt lat="43.548379" lon="10.720963">
        <ele>138.786222</ele>
        <time>2026-05-05T05:14:16.110Z</time>
      </trkpt>
      <trkpt lat="43.548519" lon="10.720979">
        <ele>139.489399</ele>
        <time>2026-05-05T05:14:22.564Z</time>
      </trkpt>
      <trkpt lat="43.548763" lon="10.721008">
        <ele>140.715275</ele>
        <time>2026-05-05T05:14:32.272Z</time>
      </trkpt>
      <trkpt lat="43.549058" lon="10.721006">
        <ele>142.191929</ele>
        <time>2026-05-05T05:14:41.877Z</time>
      </trkpt>
      <trkpt lat="43.549022" lon="10.720555">
        <ele>143.256526</ele>
        <time>2026-05-05T05:14:50.877Z</time>
      </trkpt>
      <trkpt lat="43.549014" lon="10.720328">
        <ele>142.730236</ele>
        <time>2026-05-05T05:14:54.301Z</time>
      </trkpt>
      <trkpt lat="43.549037" lon="10.720340">
        <ele>142.651672</ele>
        <time>2026-05-05T05:14:54.832Z</time>
      </trkpt>
      <trkpt lat="43.549337" lon="10.720447">
        <ele>141.661649</ele>
        <time>2026-05-05T05:14:59.963Z</time>
      </trkpt>
      <trkpt lat="43.549387" lon="10.720502">
        <ele>141.457339</ele>
        <time>2026-05-05T05:15:00.954Z</time>
      </trkpt>
      <trkpt lat="43.549391" lon="10.720840">
        <ele>140.674525</ele>
        <time>2026-05-05T05:15:04.603Z</time>
      </trkpt>
      <trkpt lat="43.549429" lon="10.721338">
        <ele>139.514929</ele>
        <time>2026-05-05T05:15:09.562Z</time>
      </trkpt>
      <trkpt lat="43.549498" lon="10.721354">
        <ele>139.291379</ele>
        <time>2026-05-05T05:15:10.481Z</time>
      </trkpt>
      <trkpt lat="43.549572" lon="10.721390">
        <ele>139.040679</ele>
        <time>2026-05-05T05:15:11.545Z</time>
      </trkpt>
      <trkpt lat="43.549647" lon="10.721221">
        <ele>138.581790</ele>
        <time>2026-05-05T05:15:13.466Z</time>
      </trkpt>
      <trkpt lat="43.549679" lon="10.720826">
        <ele>137.457701</ele>
        <time>2026-05-05T05:15:17.190Z</time>
      </trkpt>
      <trkpt lat="43.549692" lon="10.720558">
        <ele>135.145143</ele>
        <time>2026-05-05T05:15:19.610Z</time>
      </trkpt>
      <trkpt lat="43.549691" lon="10.720280">
        <ele>132.751620</ele>
        <time>2026-05-05T05:15:22.068Z</time>
      </trkpt>
      <trkpt lat="43.549602" lon="10.720057">
        <ele>130.559816</ele>
        <time>2026-05-05T05:15:24.285Z</time>
      </trkpt>
      <trkpt lat="43.549538" lon="10.719940">
        <ele>129.297785</ele>
        <time>2026-05-05T05:15:25.546Z</time>
      </trkpt>
      <trkpt lat="43.549438" lon="10.719753">
        <ele>127.296966</ele>
        <time>2026-05-05T05:15:27.499Z</time>
      </trkpt>
      <trkpt lat="43.549535" lon="10.719666">
        <ele>125.922630</ele>
        <time>2026-05-05T05:15:28.830Z</time>
      </trkpt>
      <trkpt lat="43.549646" lon="10.719647">
        <ele>124.593944</ele>
        <time>2026-05-05T05:15:30.101Z</time>
      </trkpt>
      <trkpt lat="43.550045" lon="10.719835">
        <ele>119.585432</ele>
        <time>2026-05-05T05:15:34.857Z</time>
      </trkpt>
      <trkpt lat="43.550120" lon="10.719803">
        <ele>118.652875</ele>
        <time>2026-05-05T05:15:35.751Z</time>
      </trkpt>
      <trkpt lat="43.550164" lon="10.719739">
        <ele>117.893393</ele>
        <time>2026-05-05T05:15:36.475Z</time>
      </trkpt>
      <trkpt lat="43.550181" lon="10.719698">
        <ele>117.486716</ele>
        <time>2026-05-05T05:15:36.866Z</time>
      </trkpt>
      <trkpt lat="43.550419" lon="10.719221">
        <ele>113.625877</ele>
        <time>2026-05-05T05:15:41.659Z</time>
      </trkpt>
      <trkpt lat="43.550583" lon="10.718919">
        <ele>111.321574</ele>
        <time>2026-05-05T05:15:44.817Z</time>
      </trkpt>
      <trkpt lat="43.550877" lon="10.718513">
        <ele>107.817071</ele>
        <time>2026-05-05T05:15:49.760Z</time>
      </trkpt>
      <trkpt lat="43.551231" lon="10.718148">
        <ele>104.093814</ele>
        <time>2026-05-05T05:15:55.530Z</time>
      </trkpt>
      <trkpt lat="43.551390" lon="10.718047">
        <ele>102.619073</ele>
        <time>2026-05-05T05:15:58.286Z</time>
      </trkpt>
      <trkpt lat="43.551737" lon="10.717973">
        <ele>101.046273</ele>
        <time>2026-05-05T05:16:05.092Z</time>
      </trkpt>
      <trkpt lat="43.552181" lon="10.717893">
        <ele>100.633863</ele>
        <time>2026-05-05T05:16:15.130Z</time>
      </trkpt>
      <trkpt lat="43.552302" lon="10.717868">
        <ele>100.521175</ele>
        <time>2026-05-05T05:16:18.108Z</time>
      </trkpt>
      <trkpt lat="43.552452" lon="10.717868">
        <ele>100.383020</ele>
        <time>2026-05-05T05:16:22.002Z</time>
      </trkpt>
      <trkpt lat="43.552635" lon="10.717928">
        <ele>100.209778</ele>
        <time>2026-05-05T05:16:27.098Z</time>
      </trkpt>
      <trkpt lat="43.552786" lon="10.717976">
        <ele>100.067059</ele>
        <time>2026-05-05T05:16:30.370Z</time>
      </trkpt>
      <trkpt lat="43.553456" lon="10.717951">
        <ele>98.895490</ele>
        <time>2026-05-05T05:16:40.543Z</time>
      </trkpt>
      <trkpt lat="43.553702" lon="10.717894">
        <ele>97.507776</ele>
        <time>2026-05-05T05:16:43.912Z</time>
      </trkpt>
      <trkpt lat="43.554709" lon="10.717626">
        <ele>91.802364</ele>
        <time>2026-05-05T05:16:56.869Z</time>
      </trkpt>
      <trkpt lat="43.554771" lon="10.717682">
        <ele>91.390120</ele>
        <time>2026-05-05T05:16:58.520Z</time>
      </trkpt>
      <trkpt lat="43.555014" lon="10.717733">
        <ele>90.022710</ele>
        <time>2026-05-05T05:17:04.129Z</time>
      </trkpt>
      <trkpt lat="43.555255" lon="10.717847">
        <ele>89.088927</ele>
        <time>2026-05-05T05:17:10.063Z</time>
      </trkpt>
      <trkpt lat="43.556314" lon="10.718435">
        <ele>85.977330</ele>
        <time>2026-05-05T05:17:40.307Z</time>
      </trkpt>
      <trkpt lat="43.556435" lon="10.718518">
        <ele>85.608999</ele>
        <time>2026-05-05T05:17:44.410Z</time>
      </trkpt>
      <trkpt lat="43.556718" lon="10.718545">
        <ele>84.835745</ele>
        <time>2026-05-05T05:17:52.960Z</time>
      </trkpt>
      <trkpt lat="43.557754" lon="10.718470">
        <ele>83.295511</ele>
        <time>2026-05-05T05:18:24.223Z</time>
      </trkpt>
      <trkpt lat="43.558015" lon="10.718488">
        <ele>82.930245</ele>
        <time>2026-05-05T05:18:31.642Z</time>
      </trkpt>
      <trkpt lat="43.558594" lon="10.718618">
        <ele>82.022439</ele>
        <time>2026-05-05T05:18:47.676Z</time>
      </trkpt>
      <trkpt lat="43.558700" lon="10.718674">
        <ele>81.333777</ele>
        <time>2026-05-05T05:18:50.667Z</time>
      </trkpt>
      <trkpt lat="43.558808" lon="10.719009">
        <ele>79.721659</ele>
        <time>2026-05-05T05:18:57.606Z</time>
      </trkpt>
      <trkpt lat="43.558835" lon="10.719265">
        <ele>78.584215</ele>
        <time>2026-05-05T05:19:02.362Z</time>
      </trkpt>
      <trkpt lat="43.558895" lon="10.719378">
        <ele>77.968280</ele>
        <time>2026-05-05T05:19:04.917Z</time>
      </trkpt>
      <trkpt lat="43.559867" lon="10.719589">
        <ele>71.998283</ele>
        <time>2026-05-05T05:19:27.253Z</time>
      </trkpt>
      <trkpt lat="43.560173" lon="10.719732">
        <ele>69.280470</ele>
        <time>2026-05-05T05:19:34.199Z</time>
      </trkpt>
      <trkpt lat="43.561163" lon="10.720311">
        <ele>58.587317</ele>
        <time>2026-05-05T05:19:56.713Z</time>
      </trkpt>
      <trkpt lat="43.561621" lon="10.720797">
        <ele>53.225399</ele>
        <time>2026-05-05T05:20:09.294Z</time>
      </trkpt>
      <trkpt lat="43.561885" lon="10.720598">
        <ele>52.554858</ele>
        <time>2026-05-05T05:20:13.629Z</time>
      </trkpt>
      <trkpt lat="43.562182" lon="10.720249">
        <ele>51.685332</ele>
        <time>2026-05-05T05:20:19.568Z</time>
      </trkpt>
      <trkpt lat="43.566599" lon="10.722687">
        <ele>43.523163</ele>
        <time>2026-05-05T05:21:50.191Z</time>
      </trkpt>
      <trkpt lat="43.568741" lon="10.723464">
        <ele>42.315720</ele>
        <time>2026-05-05T05:22:34.334Z</time>
      </trkpt>
      <trkpt lat="43.568977" lon="10.723461">
        <ele>42.237709</ele>
        <time>2026-05-05T05:22:39.163Z</time>
      </trkpt>
      <trkpt lat="43.570123" lon="10.722989">
        <ele>41.849678</ele>
        <time>2026-05-05T05:23:04.002Z</time>
      </trkpt>
      <trkpt lat="43.571157" lon="10.722691">
        <ele>41.551321</ele>
        <time>2026-05-05T05:23:25.649Z</time>
      </trkpt>
      <trkpt lat="43.571443" lon="10.722357">
        <ele>41.445503</ele>
        <time>2026-05-05T05:23:33.339Z</time>
      </trkpt>
      <trkpt lat="43.571642" lon="10.722014">
        <ele>41.378505</ele>
        <time>2026-05-05T05:23:39.933Z</time>
      </trkpt>
      <trkpt lat="43.571118" lon="10.719130">
        <ele>41.106021</ele>
        <time>2026-05-05T05:24:25.882Z</time>
      </trkpt>
      <trkpt lat="43.571120" lon="10.719033">
        <ele>41.079159</ele>
        <time>2026-05-05T05:24:27.347Z</time>
      </trkpt>
      <trkpt lat="43.571132" lon="10.718481">
        <ele>40.926287</ele>
        <time>2026-05-05T05:24:35.509Z</time>
      </trkpt>
      <trkpt lat="43.573172" lon="10.718053">
        <ele>40.049673</ele>
        <time>2026-05-05T05:25:11.877Z</time>
      </trkpt>
      <trkpt lat="43.573649" lon="10.717957">
        <ele>39.829836</ele>
        <time>2026-05-05T05:25:20.740Z</time>
      </trkpt>
      <trkpt lat="43.574325" lon="10.717746">
        <ele>39.701634</ele>
        <time>2026-05-05T05:25:34.144Z</time>
      </trkpt>
      <trkpt lat="43.574887" lon="10.717517">
        <ele>39.627811</ele>
        <time>2026-05-05T05:25:45.328Z</time>
      </trkpt>
      <trkpt lat="43.576166" lon="10.717112">
        <ele>39.346969</ele>
        <time>2026-05-05T05:26:09.455Z</time>
      </trkpt>
      <trkpt lat="43.577539" lon="10.716951">
        <ele>38.956122</ele>
        <time>2026-05-05T05:26:34.609Z</time>
      </trkpt>
      <trkpt lat="43.579048" lon="10.716774">
        <ele>38.630626</ele>
        <time>2026-05-05T05:27:02.826Z</time>
      </trkpt>
      <trkpt lat="43.580380" lon="10.716590">
        <ele>38.495886</ele>
        <time>2026-05-05T05:27:28.195Z</time>
      </trkpt>
      <trkpt lat="43.580428" lon="10.713915">
        <ele>38.245676</ele>
        <time>2026-05-05T05:28:04.848Z</time>
      </trkpt>
      <trkpt lat="43.580984" lon="10.713807">
        <ele>38.114635</ele>
        <time>2026-05-05T05:28:22.257Z</time>
      </trkpt>
      <trkpt lat="43.582573" lon="10.713499">
        <ele>37.478273</ele>
        <time>2026-05-05T05:29:11.283Z</time>
      </trkpt>
      <trkpt lat="43.584995" lon="10.713022">
        <ele>36.179719</ele>
        <time>2026-05-05T05:30:25.645Z</time>
      </trkpt>
      <trkpt lat="43.585182" lon="10.712934">
        <ele>36.066162</ele>
        <time>2026-05-05T05:30:31.855Z</time>
      </trkpt>
      <trkpt lat="43.585756" lon="10.712345">
        <ele>35.655083</ele>
        <time>2026-05-05T05:30:53.631Z</time>
      </trkpt>
      <trkpt lat="43.586152" lon="10.711956">
        <ele>35.400124</ele>
        <time>2026-05-05T05:31:07.618Z</time>
      </trkpt>
      <trkpt lat="43.586343" lon="10.711816">
        <ele>35.296193</ele>
        <time>2026-05-05T05:31:13.856Z</time>
      </trkpt>
      <trkpt lat="43.586557" lon="10.711834">
        <ele>35.193152</ele>
        <time>2026-05-05T05:31:20.158Z</time>
      </trkpt>
      <trkpt lat="43.586669" lon="10.711904">
        <ele>35.134065</ele>
        <time>2026-05-05T05:31:23.820Z</time>
      </trkpt>
      <trkpt lat="43.586801" lon="10.712059">
        <ele>35.050781</ele>
        <time>2026-05-05T05:31:29.037Z</time>
      </trkpt>
      <trkpt lat="43.586943" lon="10.712347">
        <ele>34.929499</ele>
        <time>2026-05-05T05:31:36.644Z</time>
      </trkpt>
      <trkpt lat="43.587114" lon="10.712704">
        <ele>34.780505</ele>
        <time>2026-05-05T05:31:46.026Z</time>
      </trkpt>
      <trkpt lat="43.587241" lon="10.713014">
        <ele>34.667856</ele>
        <time>2026-05-05T05:31:54.322Z</time>
      </trkpt>
      <trkpt lat="43.587275" lon="10.713247">
        <ele>34.842242</ele>
        <time>2026-05-05T05:32:00.493Z</time>
      </trkpt>
      <trkpt lat="43.587179" lon="10.713478">
        <ele>35.037640</ele>
        <time>2026-05-05T05:32:05.774Z</time>
      </trkpt>
      <trkpt lat="43.586894" lon="10.713912">
        <ele>35.467447</ele>
        <time>2026-05-05T05:32:18.463Z</time>
      </trkpt>
      <trkpt lat="43.587166" lon="10.714722">
        <ele>36.122502</ele>
        <time>2026-05-05T05:32:43.002Z</time>
      </trkpt>
      <trkpt lat="43.587124" lon="10.714924">
        <ele>36.276693</ele>
        <time>2026-05-05T05:32:48.341Z</time>
      </trkpt>
      <trkpt lat="43.587070" lon="10.714999">
        <ele>36.354281</ele>
        <time>2026-05-05T05:32:51.029Z</time>
      </trkpt>
      <trkpt lat="43.586927" lon="10.715092">
        <ele>36.493119</ele>
        <time>2026-05-05T05:32:56.622Z</time>
      </trkpt>
      <trkpt lat="43.586874" lon="10.715161">
        <ele>36.518327</ele>
        <time>2026-05-05T05:32:59.181Z</time>
      </trkpt>
      <trkpt lat="43.586774" lon="10.715522">
        <ele>36.615198</ele>
        <time>2026-05-05T05:33:08.990Z</time>
      </trkpt>
      <trkpt lat="43.586868" lon="10.715704">
        <ele>36.671224</ele>
        <time>2026-05-05T05:33:12.583Z</time>
      </trkpt>
      <trkpt lat="43.587068" lon="10.716466">
        <ele>36.874362</ele>
        <time>2026-05-05T05:33:24.656Z</time>
      </trkpt>
      <trkpt lat="43.587162" lon="10.716710">
        <ele>36.943630</ele>
        <time>2026-05-05T05:33:28.682Z</time>
      </trkpt>
      <trkpt lat="43.587478" lon="10.717075">
        <ele>37.086197</ele>
        <time>2026-05-05T05:33:37.532Z</time>
      </trkpt>
      <trkpt lat="43.587506" lon="10.717123">
        <ele>37.101644</ele>
        <time>2026-05-05T05:33:38.514Z</time>
      </trkpt>
      <trkpt lat="43.587541" lon="10.717188">
        <ele>37.126005</ele>
        <time>2026-05-05T05:33:39.818Z</time>
      </trkpt>
      <trkpt lat="43.587628" lon="10.717447">
        <ele>37.214181</ele>
        <time>2026-05-05T05:33:44.422Z</time>
      </trkpt>
      <trkpt lat="43.587917" lon="10.718376">
        <ele>37.526446</ele>
        <time>2026-05-05T05:34:00.792Z</time>
      </trkpt>
      <trkpt lat="43.588037" lon="10.719392">
        <ele>37.844381</ele>
        <time>2026-05-05T05:34:17.436Z</time>
      </trkpt>
      <trkpt lat="43.588175" lon="10.719600">
        <ele>37.969645</ele>
        <time>2026-05-05T05:34:22.056Z</time>
      </trkpt>
      <trkpt lat="43.589031" lon="10.720146">
        <ele>38.626941</ele>
        <time>2026-05-05T05:34:43.990Z</time>
      </trkpt>
      <trkpt lat="43.589054" lon="10.720141">
        <ele>38.643171</ele>
        <time>2026-05-05T05:34:44.525Z</time>
      </trkpt>
      <trkpt lat="43.589492" lon="10.720028">
        <ele>38.953774</ele>
        <time>2026-05-05T05:34:54.961Z</time>
      </trkpt>
      <trkpt lat="43.590473" lon="10.719775">
        <ele>39.624988</ele>
        <time>2026-05-05T05:35:18.677Z</time>
      </trkpt>
      <trkpt lat="43.591253" lon="10.719367">
        <ele>40.179309</ele>
        <time>2026-05-05T05:35:37.225Z</time>
      </trkpt>
      <trkpt lat="43.591324" lon="10.719325">
        <ele>40.230642</ele>
        <time>2026-05-05T05:35:38.862Z</time>
      </trkpt>
      <trkpt lat="43.592133" lon="10.718857">
        <ele>40.353235</ele>
        <time>2026-05-05T05:35:56.855Z</time>
      </trkpt>
      <trkpt lat="43.592235" lon="10.718791">
        <ele>40.358203</ele>
        <time>2026-05-05T05:35:59.010Z</time>
      </trkpt>
      <trkpt lat="43.592422" lon="10.718689">
        <ele>40.367070</ele>
        <time>2026-05-05T05:36:02.798Z</time>
      </trkpt>
      <trkpt lat="43.592537" lon="10.718625">
        <ele>40.372538</ele>
        <time>2026-05-05T05:36:05.107Z</time>
      </trkpt>
      <trkpt lat="43.592959" lon="10.718390">
        <ele>40.392605</ele>
        <time>2026-05-05T05:36:13.625Z</time>
      </trkpt>
      <trkpt lat="43.592987" lon="10.718373">
        <ele>40.393954</ele>
        <time>2026-05-05T05:36:14.203Z</time>
      </trkpt>
      <trkpt lat="43.593417" lon="10.718142">
        <ele>40.262925</ele>
        <time>2026-05-05T05:36:22.871Z</time>
      </trkpt>
      <trkpt lat="43.593488" lon="10.718104">
        <ele>40.231137</ele>
        <time>2026-05-05T05:36:24.300Z</time>
      </trkpt>
      <trkpt lat="43.593721" lon="10.718042">
        <ele>40.132082</ele>
        <time>2026-05-05T05:36:28.683Z</time>
      </trkpt>
      <trkpt lat="43.594403" lon="10.718080">
        <ele>39.847152</ele>
        <time>2026-05-05T05:36:40.753Z</time>
      </trkpt>
      <trkpt lat="43.594685" lon="10.718035">
        <ele>39.728649</ele>
        <time>2026-05-05T05:36:45.662Z</time>
      </trkpt>
      <trkpt lat="43.594848" lon="10.717932">
        <ele>39.653818</ele>
        <time>2026-05-05T05:36:48.816Z</time>
      </trkpt>
      <trkpt lat="43.595233" lon="10.717551">
        <ele>39.620862</ele>
        <time>2026-05-05T05:36:57.410Z</time>
      </trkpt>
      <trkpt lat="43.595565" lon="10.717210">
        <ele>39.595667</ele>
        <time>2026-05-05T05:37:05.115Z</time>
      </trkpt>
      <trkpt lat="43.596009" lon="10.716759">
        <ele>39.562105</ele>
        <time>2026-05-05T05:37:15.658Z</time>
      </trkpt>
      <trkpt lat="43.596131" lon="10.716635">
        <ele>39.552881</ele>
        <time>2026-05-05T05:37:18.765Z</time>
      </trkpt>
      <trkpt lat="43.596724" lon="10.715875">
        <ele>39.666548</ele>
        <time>2026-05-05T05:37:36.963Z</time>
      </trkpt>
      <trkpt lat="43.596884" lon="10.715721">
        <ele>39.708621</ele>
        <time>2026-05-05T05:37:41.007Z</time>
      </trkpt>
      <trkpt lat="43.597208" lon="10.715503">
        <ele>39.786371</ele>
        <time>2026-05-05T05:37:48.357Z</time>
      </trkpt>
      <trkpt lat="43.597281" lon="10.715456">
        <ele>39.803746</ele>
        <time>2026-05-05T05:37:49.951Z</time>
      </trkpt>
      <trkpt lat="43.597298" lon="10.715443">
        <ele>39.807939</ele>
        <time>2026-05-05T05:37:50.351Z</time>
      </trkpt>
      <trkpt lat="43.597473" lon="10.715303">
        <ele>39.851568</ele>
        <time>2026-05-05T05:37:54.332Z</time>
      </trkpt>
      <trkpt lat="43.597735" lon="10.714979">
        <ele>39.927440</ele>
        <time>2026-05-05T05:38:01.026Z</time>
      </trkpt>
      <trkpt lat="43.598035" lon="10.714575">
        <ele>39.652204</ele>
        <time>2026-05-05T05:38:08.724Z</time>
      </trkpt>
      <trkpt lat="43.598217" lon="10.714247">
        <ele>39.455513</ele>
        <time>2026-05-05T05:38:13.936Z</time>
      </trkpt>
      <trkpt lat="43.599284" lon="10.712245">
        <ele>38.432953</ele>
        <time>2026-05-05T05:38:44.695Z</time>
      </trkpt>
      <trkpt lat="43.599992" lon="10.710941">
        <ele>38.000045</ele>
        <time>2026-05-05T05:39:06.400Z</time>
      </trkpt>
      <trkpt lat="43.601108" lon="10.709538">
        <ele>38.528798</ele>
        <time>2026-05-05T05:39:39.583Z</time>
      </trkpt>
      <trkpt lat="43.601579" lon="10.708962">
        <ele>38.490185</ele>
        <time>2026-05-05T05:39:52.440Z</time>
      </trkpt>
      <trkpt lat="43.601817" lon="10.708671">
        <ele>38.414787</ele>
        <time>2026-05-05T05:39:58.458Z</time>
      </trkpt>
      <trkpt lat="43.601905" lon="10.708552">
        <ele>38.385573</ele>
        <time>2026-05-05T05:40:00.714Z</time>
      </trkpt>
      <trkpt lat="43.602326" lon="10.708012">
        <ele>38.249287</ele>
        <time>2026-05-05T05:40:10.849Z</time>
      </trkpt>
      <trkpt lat="43.602665" lon="10.707566">
        <ele>38.165995</ele>
        <time>2026-05-05T05:40:18.986Z</time>
      </trkpt>
      <trkpt lat="43.602920" lon="10.707247">
        <ele>38.160143</ele>
        <time>2026-05-05T05:40:25.149Z</time>
      </trkpt>
      <trkpt lat="43.603041" lon="10.707136">
        <ele>38.157673</ele>
        <time>2026-05-05T05:40:27.797Z</time>
      </trkpt>
      <trkpt lat="43.603256" lon="10.706982">
        <ele>38.153553</ele>
        <time>2026-05-05T05:40:32.416Z</time>
      </trkpt>
      <trkpt lat="43.603382" lon="10.706898">
        <ele>38.151174</ele>
        <time>2026-05-05T05:40:35.440Z</time>
      </trkpt>
      <trkpt lat="43.603470" lon="10.706832">
        <ele>38.149470</ele>
        <time>2026-05-05T05:40:37.567Z</time>
      </trkpt>
      <trkpt lat="43.603552" lon="10.706771">
        <ele>38.147886</ele>
        <time>2026-05-05T05:40:39.550Z</time>
      </trkpt>
      <trkpt lat="43.603656" lon="10.706685">
        <ele>38.145825</ele>
        <time>2026-05-05T05:40:41.879Z</time>
      </trkpt>
      <trkpt lat="43.603982" lon="10.706301">
        <ele>38.138537</ele>
        <time>2026-05-05T05:40:50.408Z</time>
      </trkpt>
      <trkpt lat="43.604097" lon="10.706082">
        <ele>38.255480</ele>
        <time>2026-05-05T05:40:54.629Z</time>
      </trkpt>
      <trkpt lat="43.604102" lon="10.705834">
        <ele>38.409253</ele>
        <time>2026-05-05T05:40:58.632Z</time>
      </trkpt>
      <trkpt lat="43.603994" lon="10.705405">
        <ele>38.690765</ele>
        <time>2026-05-05T05:41:06.335Z</time>
      </trkpt>
      <trkpt lat="43.603882" lon="10.704927">
        <ele>39.002161</ele>
        <time>2026-05-05T05:41:15.269Z</time>
      </trkpt>
      <trkpt lat="43.603896" lon="10.704531">
        <ele>39.247900</ele>
        <time>2026-05-05T05:41:22.532Z</time>
      </trkpt>
      <trkpt lat="43.603997" lon="10.704033">
        <ele>39.568447</ele>
        <time>2026-05-05T05:41:31.096Z</time>
      </trkpt>
      <trkpt lat="43.604041" lon="10.703886">
        <ele>39.667036</ele>
        <time>2026-05-05T05:41:33.933Z</time>
      </trkpt>
      <trkpt lat="43.604114" lon="10.703717">
        <ele>39.690422</ele>
        <time>2026-05-05T05:41:37.585Z</time>
      </trkpt>
      <trkpt lat="43.604191" lon="10.703619">
        <ele>39.701092</ele>
        <time>2026-05-05T05:41:40.254Z</time>
      </trkpt>
      <trkpt lat="43.604274" lon="10.703548">
        <ele>39.711040</ele>
        <time>2026-05-05T05:41:42.688Z</time>
      </trkpt>
      <trkpt lat="43.604500" lon="10.703366">
        <ele>39.737697</ele>
        <time>2026-05-05T05:41:48.861Z</time>
      </trkpt>
      <trkpt lat="43.604605" lon="10.703131">
        <ele>39.758071</ele>
        <time>2026-05-05T05:41:53.130Z</time>
      </trkpt>
      <trkpt lat="43.604677" lon="10.702869">
        <ele>39.778747</ele>
        <time>2026-05-05T05:41:57.122Z</time>
      </trkpt>
      <trkpt lat="43.604690" lon="10.702813">
        <ele>39.783086</ele>
        <time>2026-05-05T05:41:57.917Z</time>
      </trkpt>
      <trkpt lat="43.604778" lon="10.702458">
        <ele>39.810771</ele>
        <time>2026-05-05T05:42:02.798Z</time>
      </trkpt>
      <trkpt lat="43.604927" lon="10.701724">
        <ele>39.904043</ele>
        <time>2026-05-05T05:42:12.113Z</time>
      </trkpt>
      <trkpt lat="43.604946" lon="10.701636">
        <ele>39.948573</ele>
        <time>2026-05-05T05:42:13.261Z</time>
      </trkpt>
      <trkpt lat="43.605045" lon="10.701273">
        <ele>40.136669</ele>
        <time>2026-05-05T05:42:18.188Z</time>
      </trkpt>
      <trkpt lat="43.605246" lon="10.700807">
        <ele>40.399693</ele>
        <time>2026-05-05T05:42:25.513Z</time>
      </trkpt>
      <trkpt lat="43.605352" lon="10.700560">
        <ele>40.538922</ele>
        <time>2026-05-05T05:42:29.975Z</time>
      </trkpt>
      <trkpt lat="43.605515" lon="10.700679">
        <ele>40.662393</ele>
        <time>2026-05-05T05:42:34.631Z</time>
      </trkpt>
      <trkpt lat="43.605175" lon="10.701932">
        <ele>44.095049</ele>
        <time>2026-05-05T05:43:03.338Z</time>
      </trkpt>
      <trkpt lat="43.605086" lon="10.702378">
        <ele>46.854113</ele>
        <time>2026-05-05T05:43:17.776Z</time>
      </trkpt>
      <trkpt lat="43.605073" lon="10.702443">
        <ele>47.256283</ele>
        <time>2026-05-05T05:43:20.163Z</time>
      </trkpt>
      <trkpt lat="43.605011" lon="10.702739">
        <ele>49.093977</ele>
        <time>2026-05-05T05:43:32.347Z</time>
      </trkpt>
      <trkpt lat="43.604951" lon="10.702903">
        <ele>50.189814</ele>
        <time>2026-05-05T05:43:40.758Z</time>
      </trkpt>
      <trkpt lat="43.605078" lon="10.702938">
        <ele>51.256436</ele>
        <time>2026-05-05T05:43:49.873Z</time>
      </trkpt>
      <trkpt lat="43.605245" lon="10.703031">
        <ele>52.739501</ele>
        <time>2026-05-05T05:44:03.972Z</time>
      </trkpt>
      <trkpt lat="43.605600" lon="10.703144">
        <ele>55.740015</ele>
        <time>2026-05-05T05:44:37.203Z</time>
      </trkpt>
      <trkpt lat="43.605866" lon="10.703260">
        <ele>59.909046</ele>
        <time>2026-05-05T05:45:06.321Z</time>
      </trkpt>
      <trkpt lat="43.606034" lon="10.703285">
        <ele>62.507370</ele>
        <time>2026-05-05T05:45:26.050Z</time>
      </trkpt>
      <trkpt lat="43.606101" lon="10.703262">
        <ele>63.568994</ele>
        <time>2026-05-05T05:45:34.460Z</time>
      </trkpt>
      <trkpt lat="43.606172" lon="10.703096">
        <ele>65.715703</ele>
        <time>2026-05-05T05:45:51.269Z</time>
      </trkpt>
      <trkpt lat="43.606199" lon="10.703080">
        <ele>66.167496</ele>
        <time>2026-05-05T05:45:54.861Z</time>
      </trkpt>
      <trkpt lat="43.606283" lon="10.703146">
        <ele>67.653598</ele>
        <time>2026-05-05T05:46:06.161Z</time>
      </trkpt>
      <trkpt lat="43.606472" lon="10.703080">
        <ele>70.651360</ele>
        <time>2026-05-05T05:46:28.523Z</time>
      </trkpt>
      <trkpt lat="43.606524" lon="10.703089">
        <ele>71.457229</ele>
        <time>2026-05-05T05:46:34.301Z</time>
      </trkpt>
      <trkpt lat="43.606870" lon="10.703407">
        <ele>77.848229</ele>
        <time>2026-05-05T05:47:18.006Z</time>
      </trkpt>
      <trkpt lat="43.606929" lon="10.703600">
        <ele>80.180845</ele>
        <time>2026-05-05T05:47:31.501Z</time>
      </trkpt>
      <trkpt lat="43.606939" lon="10.703829">
        <ele>82.735266</ele>
        <time>2026-05-05T05:47:46.838Z</time>
      </trkpt>
      <trkpt lat="43.606911" lon="10.704274">
        <ele>85.316722</ele>
        <time>2026-05-05T05:48:12.012Z</time>
      </trkpt>
      <trkpt lat="43.606892" lon="10.704322">
        <ele>85.576574</ele>
        <time>2026-05-05T05:48:14.494Z</time>
      </trkpt>
      <trkpt lat="43.606889" lon="10.704345">
        <ele>85.687586</ele>
        <time>2026-05-05T05:48:15.393Z</time>
      </trkpt>
      <trkpt lat="43.606922" lon="10.704327">
        <ele>85.920345</ele>
        <time>2026-05-05T05:48:17.550Z</time>
      </trkpt>
      <trkpt lat="43.606939" lon="10.704267">
        <ele>86.226396</ele>
        <time>2026-05-05T05:48:20.248Z</time>
      </trkpt>
      <trkpt lat="43.607030" lon="10.704158">
        <ele>87.016623</ele>
        <time>2026-05-05T05:48:27.058Z</time>
      </trkpt>
      <trkpt lat="43.607130" lon="10.704034">
        <ele>87.898267</ele>
        <time>2026-05-05T05:48:34.142Z</time>
      </trkpt>
      <trkpt lat="43.607209" lon="10.703936">
        <ele>88.594893</ele>
        <time>2026-05-05T05:48:39.428Z</time>
      </trkpt>
      <trkpt lat="43.607216" lon="10.703783">
        <ele>89.323110</ele>
        <time>2026-05-05T05:48:44.764Z</time>
      </trkpt>
      <trkpt lat="43.607209" lon="10.703936">
        <ele>90.051327</ele>
        <time>2026-05-05T05:48:49.436Z</time>
      </trkpt>
      <trkpt lat="43.607130" lon="10.704034">
        <ele>90.747953</ele>
        <time>2026-05-05T05:48:53.557Z</time>
      </trkpt>
      <trkpt lat="43.607030" lon="10.704158">
        <ele>91.629598</ele>
        <time>2026-05-05T05:48:59.192Z</time>
      </trkpt>
      <trkpt lat="43.606939" lon="10.704267">
        <ele>92.419825</ele>
        <time>2026-05-05T05:49:04.635Z</time>
      </trkpt>
      <trkpt lat="43.606922" lon="10.704327">
        <ele>92.725876</ele>
        <time>2026-05-05T05:49:06.523Z</time>
      </trkpt>
      <trkpt lat="43.607330" lon="10.704295">
        <ele>95.424424</ele>
        <time>2026-05-05T05:49:25.659Z</time>
      </trkpt>
      <trkpt lat="43.607591" lon="10.704487">
        <ele>97.851951</ele>
        <time>2026-05-05T05:49:42.271Z</time>
      </trkpt>
      <trkpt lat="43.607685" lon="10.704583">
        <ele>98.811657</ele>
        <time>2026-05-05T05:49:49.249Z</time>
      </trkpt>
      <trkpt lat="43.607782" lon="10.704675">
        <ele>99.777616</ele>
        <time>2026-05-05T05:49:56.393Z</time>
      </trkpt>
      <trkpt lat="43.608150" lon="10.704876">
        <ele>103.026179</ele>
        <time>2026-05-05T05:50:22.803Z</time>
      </trkpt>
      <trkpt lat="43.608632" lon="10.705032">
        <ele>107.090089</ele>
        <time>2026-05-05T05:50:55.044Z</time>
      </trkpt>
      <trkpt lat="43.608743" lon="10.705110">
        <ele>108.112447</ele>
        <time>2026-05-05T05:51:03.237Z</time>
      </trkpt>
      <trkpt lat="43.609093" lon="10.705744">
        <ele>113.264440</ele>
        <time>2026-05-05T05:51:40.978Z</time>
      </trkpt>
      <trkpt lat="43.609263" lon="10.705904">
        <ele>115.206991</ele>
        <time>2026-05-05T05:51:54.197Z</time>
      </trkpt>
      <trkpt lat="43.609704" lon="10.705978">
        <ele>119.401820</ele>
        <time>2026-05-05T05:52:23.900Z</time>
      </trkpt>
      <trkpt lat="43.610044" lon="10.706212">
        <ele>122.988857</ele>
        <time>2026-05-05T05:52:52.853Z</time>
      </trkpt>
      <trkpt lat="43.610479" lon="10.706298">
        <ele>127.126713</ele>
        <time>2026-05-05T05:53:22.591Z</time>
      </trkpt>
      <trkpt lat="43.610697" lon="10.706221">
        <ele>128.787859</ele>
        <time>2026-05-05T05:53:37.203Z</time>
      </trkpt>
      <trkpt lat="43.610942" lon="10.706008">
        <ele>130.925034</ele>
        <time>2026-05-05T05:53:55.394Z</time>
      </trkpt>
      <trkpt lat="43.610999" lon="10.705971">
        <ele>131.389986</ele>
        <time>2026-05-05T05:53:59.160Z</time>
      </trkpt>
      <trkpt lat="43.611166" lon="10.705877">
        <ele>132.721289</ele>
        <time>2026-05-05T05:54:09.881Z</time>
      </trkpt>
      <trkpt lat="43.611356" lon="10.705862">
        <ele>134.126225</ele>
        <time>2026-05-05T05:54:21.101Z</time>
      </trkpt>
      <trkpt lat="43.611736" lon="10.705964">
        <ele>136.984004</ele>
        <time>2026-05-05T05:54:42.958Z</time>
      </trkpt>
      <trkpt lat="43.612055" lon="10.706110">
        <ele>139.464903</ele>
        <time>2026-05-05T05:54:59.136Z</time>
      </trkpt>
      <trkpt lat="43.612444" lon="10.706333">
        <ele>141.394904</ele>
        <time>2026-05-05T05:55:18.147Z</time>
      </trkpt>
      <trkpt lat="43.612546" lon="10.706423">
        <ele>141.811794</ele>
        <time>2026-05-05T05:55:23.955Z</time>
      </trkpt>
      <trkpt lat="43.612805" lon="10.706899">
        <ele>143.296660</ele>
        <time>2026-05-05T05:55:43.337Z</time>
      </trkpt>
      <trkpt lat="43.613016" lon="10.706789">
        <ele>144.073455</ele>
        <time>2026-05-05T05:55:52.470Z</time>
      </trkpt>
      <trkpt lat="43.613758" lon="10.706632">
        <ele>146.581498</ele>
        <time>2026-05-05T05:56:14.128Z</time>
      </trkpt>
      <trkpt lat="43.613923" lon="10.706459">
        <ele>146.744478</ele>
        <time>2026-05-05T05:56:18.711Z</time>
      </trkpt>
      <trkpt lat="43.614107" lon="10.706173">
        <ele>146.962413</ele>
        <time>2026-05-05T05:56:25.693Z</time>
      </trkpt>
      <trkpt lat="43.614182" lon="10.706027">
        <ele>147.064383</ele>
        <time>2026-05-05T05:56:29.425Z</time>
      </trkpt>
      <trkpt lat="43.614219" lon="10.705847">
        <ele>147.170965</ele>
        <time>2026-05-05T05:56:33.330Z</time>
      </trkpt>
      <trkpt lat="43.614235" lon="10.705547">
        <ele>147.342311</ele>
        <time>2026-05-05T05:56:39.481Z</time>
      </trkpt>
      <trkpt lat="43.614274" lon="10.705472">
        <ele>147.394909</ele>
        <time>2026-05-05T05:56:41.387Z</time>
      </trkpt>
      <trkpt lat="43.614331" lon="10.705449">
        <ele>147.441628</ele>
        <time>2026-05-05T05:56:43.044Z</time>
      </trkpt>
      <trkpt lat="43.614689" lon="10.705613">
        <ele>147.738373</ele>
        <time>2026-05-05T05:56:53.469Z</time>
      </trkpt>
      <trkpt lat="43.614948" lon="10.705682">
        <ele>147.945898</ele>
        <time>2026-05-05T05:57:00.098Z</time>
      </trkpt>
      <trkpt lat="43.615704" lon="10.705561">
        <ele>145.228253</ele>
        <time>2026-05-05T05:57:13.911Z</time>
      </trkpt>
      <trkpt lat="43.615843" lon="10.705483">
        <ele>144.660719</ele>
        <time>2026-05-05T05:57:16.217Z</time>
      </trkpt>
      <trkpt lat="43.616114" lon="10.705153">
        <ele>143.294110</ele>
        <time>2026-05-05T05:57:21.537Z</time>
      </trkpt>
      <trkpt lat="43.616227" lon="10.704939">
        <ele>142.568727</ele>
        <time>2026-05-05T05:57:24.323Z</time>
      </trkpt>
      <trkpt lat="43.616410" lon="10.704705">
        <ele>141.625403</ele>
        <time>2026-05-05T05:57:27.939Z</time>
      </trkpt>
      <trkpt lat="43.616564" lon="10.704580">
        <ele>141.068560</ele>
        <time>2026-05-05T05:57:30.533Z</time>
      </trkpt>
      <trkpt lat="43.616807" lon="10.704466">
        <ele>140.621771</ele>
        <time>2026-05-05T05:57:34.305Z</time>
      </trkpt>
      <trkpt lat="43.617057" lon="10.704303">
        <ele>140.140478</ele>
        <time>2026-05-05T05:57:38.517Z</time>
      </trkpt>
      <trkpt lat="43.617112" lon="10.704233">
        <ele>140.010275</ele>
        <time>2026-05-05T05:57:39.686Z</time>
      </trkpt>
      <trkpt lat="43.617318" lon="10.703780">
        <ele>139.336023</ele>
        <time>2026-05-05T05:57:46.258Z</time>
      </trkpt>
      <trkpt lat="43.617553" lon="10.703187">
        <ele>138.483961</ele>
        <time>2026-05-05T05:57:58.105Z</time>
      </trkpt>
      <trkpt lat="43.617547" lon="10.703107">
        <ele>138.382590</ele>
        <time>2026-05-05T05:58:00.012Z</time>
      </trkpt>
      <trkpt lat="43.617515" lon="10.703052">
        <ele>138.293657</ele>
        <time>2026-05-05T05:58:01.752Z</time>
      </trkpt>
      <trkpt lat="43.617446" lon="10.703024">
        <ele>138.168454</ele>
        <time>2026-05-05T05:58:04.325Z</time>
      </trkpt>
      <trkpt lat="43.617351" lon="10.702934">
        <ele>138.195463</ele>
        <time>2026-05-05T05:58:08.791Z</time>
      </trkpt>
      <trkpt lat="43.617262" lon="10.702732">
        <ele>138.857906</ele>
        <time>2026-05-05T05:58:15.869Z</time>
      </trkpt>
      <trkpt lat="43.617262" lon="10.702638">
        <ele>139.121239</ele>
        <time>2026-05-05T05:58:18.789Z</time>
      </trkpt>
      <trkpt lat="43.617391" lon="10.702299">
        <ele>140.194114</ele>
        <time>2026-05-05T05:58:31.281Z</time>
      </trkpt>
      <trkpt lat="43.617415" lon="10.702070">
        <ele>140.842324</ele>
        <time>2026-05-05T05:58:38.847Z</time>
      </trkpt>
      <trkpt lat="43.617764" lon="10.701412">
        <ele>143.127408</ele>
        <time>2026-05-05T05:59:05.523Z</time>
      </trkpt>
      <trkpt lat="43.617842" lon="10.701214">
        <ele>143.758884</ele>
        <time>2026-05-05T05:59:13.034Z</time>
      </trkpt>
      <trkpt lat="43.617908" lon="10.700923">
        <ele>144.613156</ele>
        <time>2026-05-05T05:59:22.527Z</time>
      </trkpt>
      <trkpt lat="43.617953" lon="10.700438">
        <ele>144.626743</ele>
        <time>2026-05-05T05:59:35.642Z</time>
      </trkpt>
      <trkpt lat="43.618101" lon="10.700395">
        <ele>144.405783</ele>
        <time>2026-05-05T05:59:42.207Z</time>
      </trkpt>
      <trkpt lat="43.618164" lon="10.700410">
        <ele>144.312382</ele>
        <time>2026-05-05T05:59:44.935Z</time>
      </trkpt>
      <trkpt lat="43.618836" lon="10.701329">
        <ele>142.930806</ele>
        <time>2026-05-05T06:00:12.481Z</time>
      </trkpt>
      <trkpt lat="43.619059" lon="10.701495">
        <ele>142.560704</ele>
        <time>2026-05-05T06:00:18.605Z</time>
      </trkpt>
      <trkpt lat="43.619197" lon="10.701500">
        <ele>142.283400</ele>
        <time>2026-05-05T06:00:21.767Z</time>
      </trkpt>
      <trkpt lat="43.619770" lon="10.701412">
        <ele>135.952923</ele>
        <time>2026-05-05T06:00:34.234Z</time>
      </trkpt>
      <trkpt lat="43.620249" lon="10.701254">
        <ele>130.545486</ele>
        <time>2026-05-05T06:00:44.397Z</time>
      </trkpt>
      <trkpt lat="43.620828" lon="10.700946">
        <ele>123.732780</ele>
        <time>2026-05-05T06:00:57.136Z</time>
      </trkpt>
      <trkpt lat="43.621415" lon="10.700162">
        <ele>116.271553</ele>
        <time>2026-05-05T06:01:14.301Z</time>
      </trkpt>
      <trkpt lat="43.621526" lon="10.700048">
        <ele>115.043690</ele>
        <time>2026-05-05T06:01:17.320Z</time>
      </trkpt>
      <trkpt lat="43.621677" lon="10.700001">
        <ele>113.669629</ele>
        <time>2026-05-05T06:01:20.766Z</time>
      </trkpt>
      <trkpt lat="43.621969" lon="10.699987">
        <ele>111.075932</ele>
        <time>2026-05-05T06:01:27.381Z</time>
      </trkpt>
      <trkpt lat="43.622597" lon="10.699717">
        <ele>105.883815</ele>
        <time>2026-05-05T06:01:42.729Z</time>
      </trkpt>
      <trkpt lat="43.622982" lon="10.699601">
        <ele>103.981987</ele>
        <time>2026-05-05T06:01:52.131Z</time>
      </trkpt>
      <trkpt lat="43.623073" lon="10.699521">
        <ele>103.461395</ele>
        <time>2026-05-05T06:01:54.725Z</time>
      </trkpt>
      <trkpt lat="43.623479" lon="10.698936">
        <ele>100.629976</ele>
        <time>2026-05-05T06:02:08.850Z</time>
      </trkpt>
      <trkpt lat="43.623519" lon="10.698776">
        <ele>100.038580</ele>
        <time>2026-05-05T06:02:11.836Z</time>
      </trkpt>
      <trkpt lat="43.623469" lon="10.698324">
        <ele>98.441078</ele>
        <time>2026-05-05T06:02:20.050Z</time>
      </trkpt>
      <trkpt lat="43.623531" lon="10.697836">
        <ele>97.642364</ele>
        <time>2026-05-05T06:02:29.193Z</time>
      </trkpt>
      <trkpt lat="43.623557" lon="10.697406">
        <ele>97.247488</ele>
        <time>2026-05-05T06:02:37.536Z</time>
      </trkpt>
      <trkpt lat="43.623564" lon="10.697286">
        <ele>97.137316</ele>
        <time>2026-05-05T06:02:39.930Z</time>
      </trkpt>
      <trkpt lat="43.623604" lon="10.697071">
        <ele>96.934169</ele>
        <time>2026-05-05T06:02:44.476Z</time>
      </trkpt>
      <trkpt lat="43.623736" lon="10.696646">
        <ele>96.510952</ele>
        <time>2026-05-05T06:02:54.499Z</time>
      </trkpt>
      <trkpt lat="43.623735" lon="10.695868">
        <ele>95.798981</ele>
        <time>2026-05-05T06:03:13.995Z</time>
      </trkpt>
      <trkpt lat="43.623796" lon="10.695745">
        <ele>95.709144</ele>
        <time>2026-05-05T06:03:17.804Z</time>
      </trkpt>
      <trkpt lat="43.624061" lon="10.695626">
        <ele>95.802184</ele>
        <time>2026-05-05T06:03:27.435Z</time>
      </trkpt>
      <trkpt lat="43.624262" lon="10.695133">
        <ele>95.938943</ele>
        <time>2026-05-05T06:03:41.204Z</time>
      </trkpt>
      <trkpt lat="43.624401" lon="10.694860">
        <ele>96.019614</ele>
        <time>2026-05-05T06:03:45.701Z</time>
      </trkpt>
      <trkpt lat="43.624436" lon="10.694739">
        <ele>96.051108</ele>
        <time>2026-05-05T06:03:47.397Z</time>
      </trkpt>
      <trkpt lat="43.624457" lon="10.694412">
        <ele>96.130455</ele>
        <time>2026-05-05T06:03:51.522Z</time>
      </trkpt>
      <trkpt lat="43.624310" lon="10.692929">
        <ele>98.450956</ele>
        <time>2026-05-05T06:04:15.752Z</time>
      </trkpt>
      <trkpt lat="43.624003" lon="10.691700">
        <ele>101.966374</ele>
        <time>2026-05-05T06:04:55.479Z</time>
      </trkpt>
      <trkpt lat="43.624006" lon="10.691581">
        <ele>102.288337</ele>
        <time>2026-05-05T06:04:59.998Z</time>
      </trkpt>
      <trkpt lat="43.624041" lon="10.691480">
        <ele>102.591113</ele>
        <time>2026-05-05T06:05:04.382Z</time>
      </trkpt>
      <trkpt lat="43.624273" lon="10.691187">
        <ele>104.103991</ele>
        <time>2026-05-05T06:05:21.854Z</time>
      </trkpt>
      <trkpt lat="43.624617" lon="10.690841">
        <ele>106.414354</ele>
        <time>2026-05-05T06:05:44.829Z</time>
      </trkpt>
      <trkpt lat="43.625022" lon="10.690346">
        <ele>109.350389</ele>
        <time>2026-05-05T06:06:11.436Z</time>
      </trkpt>
      <trkpt lat="43.625077" lon="10.690235">
        <ele>109.879064</ele>
        <time>2026-05-05T06:06:15.800Z</time>
      </trkpt>
      <trkpt lat="43.625142" lon="10.689981">
        <ele>110.937896</ele>
        <time>2026-05-05T06:06:24.148Z</time>
      </trkpt>
      <trkpt lat="43.625211" lon="10.689198">
        <ele>112.863974</ele>
        <time>2026-05-05T06:06:46.334Z</time>
      </trkpt>
      <trkpt lat="43.625172" lon="10.688172">
        <ele>113.120848</ele>
        <time>2026-05-05T06:07:06.904Z</time>
      </trkpt>
      <trkpt lat="43.625204" lon="10.687636">
        <ele>113.255313</ele>
        <time>2026-05-05T06:07:13.357Z</time>
      </trkpt>
      <trkpt lat="43.625186" lon="10.687303">
        <ele>113.338802</ele>
        <time>2026-05-05T06:07:17.032Z</time>
      </trkpt>
      <trkpt lat="43.624919" lon="10.686612">
        <ele>112.192500</ele>
        <time>2026-05-05T06:07:25.140Z</time>
      </trkpt>
      <trkpt lat="43.624869" lon="10.686395">
        <ele>111.657894</ele>
        <time>2026-05-05T06:07:27.401Z</time>
      </trkpt>
      <trkpt lat="43.624777" lon="10.684736">
        <ele>107.751873</ele>
        <time>2026-05-05T06:07:44.151Z</time>
      </trkpt>
      <trkpt lat="43.624657" lon="10.683996">
        <ele>107.791375</ele>
        <time>2026-05-05T06:07:53.221Z</time>
      </trkpt>
      <trkpt lat="43.624609" lon="10.683806">
        <ele>107.856017</ele>
        <time>2026-05-05T06:07:56.290Z</time>
      </trkpt>
      <trkpt lat="43.624416" lon="10.683284">
        <ele>108.044300</ele>
        <time>2026-05-05T06:08:07.366Z</time>
      </trkpt>
      <trkpt lat="43.624403" lon="10.683087">
        <ele>108.107843</ele>
        <time>2026-05-05T06:08:11.812Z</time>
      </trkpt>
      <trkpt lat="43.624463" lon="10.682941">
        <ele>108.161772</ele>
        <time>2026-05-05T06:08:15.705Z</time>
      </trkpt>
      <trkpt lat="43.624549" lon="10.683206">
        <ele>108.255059</ele>
        <time>2026-05-05T06:08:21.841Z</time>
      </trkpt>
      <trkpt lat="43.624706" lon="10.683307">
        <ele>108.331912</ele>
        <time>2026-05-05T06:08:26.693Z</time>
      </trkpt>
      <trkpt lat="43.625366" lon="10.683398">
        <ele>108.648297</ele>
        <time>2026-05-05T06:08:43.677Z</time>
      </trkpt>
      <trkpt lat="43.625753" lon="10.683250">
        <ele>108.841854</ele>
        <time>2026-05-05T06:08:52.224Z</time>
      </trkpt>
      <trkpt lat="43.625999" lon="10.683226">
        <ele>108.960726</ele>
        <time>2026-05-05T06:09:00.007Z</time>
      </trkpt>
      <trkpt lat="43.626285" lon="10.682886">
        <ele>109.142598</ele>
        <time>2026-05-05T06:09:11.711Z</time>
      </trkpt>
      <trkpt lat="43.626454" lon="10.682657">
        <ele>109.249061</ele>
        <time>2026-05-05T06:09:18.853Z</time>
      </trkpt>
      <trkpt lat="43.626590" lon="10.682385">
        <ele>109.318560</ele>
        <time>2026-05-05T06:09:26.216Z</time>
      </trkpt>
      <trkpt lat="43.626832" lon="10.681899">
        <ele>109.442574</ele>
        <time>2026-05-05T06:09:39.715Z</time>
      </trkpt>
      <trkpt lat="43.627261" lon="10.681864">
        <ele>109.567388</ele>
        <time>2026-05-05T06:09:54.453Z</time>
      </trkpt>
      <trkpt lat="43.628007" lon="10.682302">
        <ele>109.630305</ele>
        <time>2026-05-05T06:10:24.390Z</time>
      </trkpt>
      <trkpt lat="43.628399" lon="10.682381">
        <ele>109.283174</ele>
        <time>2026-05-05T06:10:36.799Z</time>
      </trkpt>
      <trkpt lat="43.628636" lon="10.682491">
        <ele>109.064093</ele>
        <time>2026-05-05T06:10:44.358Z</time>
      </trkpt>
      <trkpt lat="43.629519" lon="10.683464">
        <ele>107.546717</ele>
        <time>2026-05-05T06:11:16.883Z</time>
      </trkpt>
      <trkpt lat="43.629731" lon="10.683582">
        <ele>106.380434</ele>
        <time>2026-05-05T06:11:22.694Z</time>
      </trkpt>
      <trkpt lat="43.629929" lon="10.683609">
        <ele>105.365174</ele>
        <time>2026-05-05T06:11:27.594Z</time>
      </trkpt>
      <trkpt lat="43.630182" lon="10.683561">
        <ele>104.062055</ele>
        <time>2026-05-05T06:11:33.676Z</time>
      </trkpt>
      <trkpt lat="43.630387" lon="10.683447">
        <ele>102.934427</ele>
        <time>2026-05-05T06:11:38.788Z</time>
      </trkpt>
      <trkpt lat="43.630753" lon="10.683384">
        <ele>101.052370</ele>
        <time>2026-05-05T06:11:47.261Z</time>
      </trkpt>
      <trkpt lat="43.631005" lon="10.683287">
        <ele>99.717496</ele>
        <time>2026-05-05T06:11:53.205Z</time>
      </trkpt>
      <trkpt lat="43.631378" lon="10.683046">
        <ele>98.167652</ele>
        <time>2026-05-05T06:12:02.549Z</time>
      </trkpt>
      <trkpt lat="43.632132" lon="10.682643">
        <ele>95.679326</ele>
        <time>2026-05-05T06:12:22.258Z</time>
      </trkpt>
      <trkpt lat="43.632391" lon="10.682396">
        <ele>94.710690</ele>
        <time>2026-05-05T06:12:31.467Z</time>
      </trkpt>
      <trkpt lat="43.632582" lon="10.682096">
        <ele>93.820611</ele>
        <time>2026-05-05T06:12:41.580Z</time>
      </trkpt>
      <trkpt lat="43.632854" lon="10.681844">
        <ele>93.150342</ele>
        <time>2026-05-05T06:12:54.519Z</time>
      </trkpt>
      <trkpt lat="43.633394" lon="10.681728">
        <ele>92.332841</ele>
        <time>2026-05-05T06:13:16.536Z</time>
      </trkpt>
      <trkpt lat="43.633511" lon="10.681677">
        <ele>92.149314</ele>
        <time>2026-05-05T06:13:20.524Z</time>
      </trkpt>
      <trkpt lat="43.633654" lon="10.681476">
        <ele>91.844159</ele>
        <time>2026-05-05T06:13:26.512Z</time>
      </trkpt>
      <trkpt lat="43.633726" lon="10.681112">
        <ele>91.435605</ele>
        <time>2026-05-05T06:13:33.754Z</time>
      </trkpt>
      <trkpt lat="43.633800" lon="10.680921">
        <ele>91.201046</ele>
        <time>2026-05-05T06:13:37.637Z</time>
      </trkpt>
      <trkpt lat="43.633924" lon="10.680698">
        <ele>90.896577</ele>
        <time>2026-05-05T06:13:42.520Z</time>
      </trkpt>
      <trkpt lat="43.634012" lon="10.680578">
        <ele>90.529582</ele>
        <time>2026-05-05T06:13:45.435Z</time>
      </trkpt>
      <trkpt lat="43.634122" lon="10.680484">
        <ele>89.813864</ele>
        <time>2026-05-05T06:13:48.450Z</time>
      </trkpt>
      <trkpt lat="43.634402" lon="10.680326">
        <ele>88.140203</ele>
        <time>2026-05-05T06:13:55.299Z</time>
      </trkpt>
      <trkpt lat="43.634771" lon="10.680173">
        <ele>86.008322</ele>
        <time>2026-05-05T06:14:03.874Z</time>
      </trkpt>
      <trkpt lat="43.635499" lon="10.679961">
        <ele>81.891319</ele>
        <time>2026-05-05T06:14:21.100Z</time>
      </trkpt>
      <trkpt lat="43.635835" lon="10.679816">
        <ele>80.610669</ele>
        <time>2026-05-05T06:14:30.498Z</time>
      </trkpt>
      <trkpt lat="43.636223" lon="10.679757">
        <ele>80.083679</ele>
        <time>2026-05-05T06:14:43.185Z</time>
      </trkpt>
      <trkpt lat="43.637186" lon="10.679526">
        <ele>78.764115</ele>
        <time>2026-05-05T06:15:15.234Z</time>
      </trkpt>
      <trkpt lat="43.637318" lon="10.679462">
        <ele>78.575253</ele>
        <time>2026-05-05T06:15:19.097Z</time>
      </trkpt>
      <trkpt lat="43.637490" lon="10.679189">
        <ele>77.746261</ele>
        <time>2026-05-05T06:15:25.943Z</time>
      </trkpt>
      <trkpt lat="43.637540" lon="10.678980">
        <ele>76.950646</ele>
        <time>2026-05-05T06:15:29.947Z</time>
      </trkpt>
      <trkpt lat="43.637781" lon="10.678609">
        <ele>75.148757</ele>
        <time>2026-05-05T06:15:38.647Z</time>
      </trkpt>
      <trkpt lat="43.637847" lon="10.678459">
        <ele>74.514261</ele>
        <time>2026-05-05T06:15:41.640Z</time>
      </trkpt>
      <trkpt lat="43.637847" lon="10.678304">
        <ele>73.954029</ele>
        <time>2026-05-05T06:15:44.248Z</time>
      </trkpt>
      <trkpt lat="43.637878" lon="10.678186">
        <ele>73.500299</ele>
        <time>2026-05-05T06:15:46.334Z</time>
      </trkpt>
      <trkpt lat="43.637932" lon="10.678116">
        <ele>73.130510</ele>
        <time>2026-05-05T06:15:48.024Z</time>
      </trkpt>
      <trkpt lat="43.638002" lon="10.678073">
        <ele>72.747924</ele>
        <time>2026-05-05T06:15:49.773Z</time>
      </trkpt>
      <trkpt lat="43.638138" lon="10.678078">
        <ele>72.068470</ele>
        <time>2026-05-05T06:15:52.902Z</time>
      </trkpt>
      <trkpt lat="43.638204" lon="10.678052">
        <ele>71.725717</ele>
        <time>2026-05-05T06:15:54.496Z</time>
      </trkpt>
      <trkpt lat="43.638253" lon="10.677981">
        <ele>71.371119</ele>
        <time>2026-05-05T06:15:56.151Z</time>
      </trkpt>
      <trkpt lat="43.638351" lon="10.677923">
        <ele>70.838680</ele>
        <time>2026-05-05T06:15:58.657Z</time>
      </trkpt>
      <trkpt lat="43.638879" lon="10.678009">
        <ele>68.076441</ele>
        <time>2026-05-05T06:16:11.275Z</time>
      </trkpt>
      <trkpt lat="43.639115" lon="10.677820">
        <ele>66.595747</ele>
        <time>2026-05-05T06:16:17.771Z</time>
      </trkpt>
      <trkpt lat="43.639209" lon="10.677708">
        <ele>65.921983</ele>
        <time>2026-05-05T06:16:20.718Z</time>
      </trkpt>
      <trkpt lat="43.639388" lon="10.677622">
        <ele>64.893255</ele>
        <time>2026-05-05T06:16:25.177Z</time>
      </trkpt>
      <trkpt lat="43.639520" lon="10.677510">
        <ele>64.052413</ele>
        <time>2026-05-05T06:16:28.827Z</time>
      </trkpt>
      <trkpt lat="43.639543" lon="10.677435">
        <ele>63.732417</ele>
        <time>2026-05-05T06:16:30.215Z</time>
      </trkpt>
      <trkpt lat="43.639546" lon="10.677069">
        <ele>62.294512</ele>
        <time>2026-05-05T06:16:36.431Z</time>
      </trkpt>
      <trkpt lat="43.639524" lon="10.676297">
        <ele>59.619256</ele>
        <time>2026-05-05T06:16:49.682Z</time>
      </trkpt>
      <trkpt lat="43.639557" lon="10.676171">
        <ele>59.576250</ele>
        <time>2026-05-05T06:16:52.029Z</time>
      </trkpt>
      <trkpt lat="43.639628" lon="10.676023">
        <ele>59.519262</ele>
        <time>2026-05-05T06:16:55.161Z</time>
      </trkpt>
      <trkpt lat="43.639804" lon="10.675761">
        <ele>59.404532</ele>
        <time>2026-05-05T06:17:01.730Z</time>
      </trkpt>
      <trkpt lat="43.639876" lon="10.675712">
        <ele>59.368938</ele>
        <time>2026-05-05T06:17:03.885Z</time>
      </trkpt>
      <trkpt lat="43.639990" lon="10.675420">
        <ele>59.262456</ele>
        <time>2026-05-05T06:17:10.931Z</time>
      </trkpt>
      <trkpt lat="43.640069" lon="10.675297">
        <ele>59.209675</ele>
        <time>2026-05-05T06:17:14.760Z</time>
      </trkpt>
      <trkpt lat="43.640322" lon="10.674991">
        <ele>59.060565</ele>
        <time>2026-05-05T06:17:28.010Z</time>
      </trkpt>
      <trkpt lat="43.640375" lon="10.674822">
        <ele>59.001452</ele>
        <time>2026-05-05T06:17:34.110Z</time>
      </trkpt>
      <trkpt lat="43.640581" lon="10.674620">
        <ele>58.889429</ele>
        <time>2026-05-05T06:17:46.644Z</time>
      </trkpt>
      <trkpt lat="43.640664" lon="10.674485">
        <ele>58.971825</ele>
        <time>2026-05-05T06:17:53.387Z</time>
      </trkpt>
      <trkpt lat="43.640971" lon="10.674565">
        <ele>59.750702</ele>
        <time>2026-05-05T06:18:09.800Z</time>
      </trkpt>
      <trkpt lat="43.640978" lon="10.674567">
        <ele>59.768523</ele>
        <time>2026-05-05T06:18:10.114Z</time>
      </trkpt>
      <trkpt lat="43.641153" lon="10.674648">
        <ele>60.228643</ele>
        <time>2026-05-05T06:18:19.687Z</time>
      </trkpt>
      <trkpt lat="43.641253" lon="10.674642">
        <ele>60.478189</ele>
        <time>2026-05-05T06:18:25.005Z</time>
      </trkpt>
      <trkpt lat="43.641343" lon="10.674591">
        <ele>60.720704</ele>
        <time>2026-05-05T06:18:29.910Z</time>
      </trkpt>
      <trkpt lat="43.641518" lon="10.674653">
        <ele>61.171110</ele>
        <time>2026-05-05T06:18:39.093Z</time>
      </trkpt>
      <trkpt lat="43.641792" lon="10.674540">
        <ele>61.883998</ele>
        <time>2026-05-05T06:18:52.156Z</time>
      </trkpt>
      <trkpt lat="43.642069" lon="10.674610">
        <ele>62.586044</ele>
        <time>2026-05-05T06:19:03.526Z</time>
      </trkpt>
      <trkpt lat="43.642312" lon="10.674527">
        <ele>63.210104</ele>
        <time>2026-05-05T06:19:12.779Z</time>
      </trkpt>
      <trkpt lat="43.642481" lon="10.674502">
        <ele>63.194407</ele>
        <time>2026-05-05T06:19:18.301Z</time>
      </trkpt>
      <trkpt lat="43.643268" lon="10.674530">
        <ele>62.243435</ele>
        <time>2026-05-05T06:19:40.688Z</time>
      </trkpt>
      <trkpt lat="43.643451" lon="10.674478">
        <ele>62.017755</ele>
        <time>2026-05-05T06:19:45.840Z</time>
      </trkpt>
      <trkpt lat="43.643673" lon="10.674330">
        <ele>61.720015</ele>
        <time>2026-05-05T06:19:52.600Z</time>
      </trkpt>
      <trkpt lat="43.643943" lon="10.674147">
        <ele>61.356751</ele>
        <time>2026-05-05T06:20:00.896Z</time>
      </trkpt>
      <trkpt lat="43.644188" lon="10.674135">
        <ele>61.051909</ele>
        <time>2026-05-05T06:20:07.715Z</time>
      </trkpt>
      <trkpt lat="43.644435" lon="10.674071">
        <ele>60.723060</ele>
        <time>2026-05-05T06:20:14.693Z</time>
      </trkpt>
      <trkpt lat="43.644718" lon="10.673848">
        <ele>60.296760</ele>
        <time>2026-05-05T06:20:23.851Z</time>
      </trkpt>
      <trkpt lat="43.645308" lon="10.673535">
        <ele>59.469767</ele>
        <time>2026-05-05T06:20:42.459Z</time>
      </trkpt>
      <trkpt lat="43.645650" lon="10.673057">
        <ele>58.833251</ele>
        <time>2026-05-05T06:20:56.698Z</time>
      </trkpt>
      <trkpt lat="43.645905" lon="10.672837">
        <ele>58.282580</ele>
        <time>2026-05-05T06:21:05.344Z</time>
      </trkpt>
      <trkpt lat="43.646108" lon="10.672553">
        <ele>57.744590</ele>
        <time>2026-05-05T06:21:13.451Z</time>
      </trkpt>
      <trkpt lat="43.646170" lon="10.672419">
        <ele>57.530238</ele>
        <time>2026-05-05T06:21:16.682Z</time>
      </trkpt>
      <trkpt lat="43.646434" lon="10.672161">
        <ele>56.928034</ele>
        <time>2026-05-05T06:21:25.847Z</time>
      </trkpt>
      <trkpt lat="43.646911" lon="10.671764">
        <ele>55.890982</ele>
        <time>2026-05-05T06:21:41.027Z</time>
      </trkpt>
      <trkpt lat="43.647020" lon="10.671797">
        <ele>55.683162</ele>
        <time>2026-05-05T06:21:43.957Z</time>
      </trkpt>
      <trkpt lat="43.647315" lon="10.671728">
        <ele>54.807633</ele>
        <time>2026-05-05T06:21:51.763Z</time>
      </trkpt>
      <trkpt lat="43.647377" lon="10.671700">
        <ele>54.570977</ele>
        <time>2026-05-05T06:21:53.460Z</time>
      </trkpt>
      <trkpt lat="43.647451" lon="10.671603">
        <ele>54.200924</ele>
        <time>2026-05-05T06:21:56.080Z</time>
      </trkpt>
      <trkpt lat="43.647547" lon="10.671270">
        <ele>53.259843</ele>
        <time>2026-05-05T06:22:02.733Z</time>
      </trkpt>
      <trkpt lat="43.647602" lon="10.671174">
        <ele>52.938373</ele>
        <time>2026-05-05T06:22:04.996Z</time>
      </trkpt>
      <trkpt lat="43.647618" lon="10.671051">
        <ele>52.610275</ele>
        <time>2026-05-05T06:22:07.305Z</time>
      </trkpt>
      <trkpt lat="43.647567" lon="10.670590">
        <ele>51.385914</ele>
        <time>2026-05-05T06:22:15.864Z</time>
      </trkpt>
      <trkpt lat="43.647571" lon="10.670434">
        <ele>50.976098</ele>
        <time>2026-05-05T06:22:18.670Z</time>
      </trkpt>
      <trkpt lat="43.647858" lon="10.670273">
        <ele>49.852281</ele>
        <time>2026-05-05T06:22:26.253Z</time>
      </trkpt>
      <trkpt lat="43.647954" lon="10.670160">
        <ele>49.394755</ele>
        <time>2026-05-05T06:22:29.336Z</time>
      </trkpt>
      <trkpt lat="43.648043" lon="10.670139">
        <ele>49.067171</ele>
        <time>2026-05-05T06:22:31.536Z</time>
      </trkpt>
      <trkpt lat="43.648145" lon="10.670197">
        <ele>48.647268</ele>
        <time>2026-05-05T06:22:34.233Z</time>
      </trkpt>
      <trkpt lat="43.648242" lon="10.670203">
        <ele>48.269128</ele>
        <time>2026-05-05T06:22:36.633Z</time>
      </trkpt>
      <trkpt lat="43.648455" lon="10.670112">
        <ele>47.400878</ele>
        <time>2026-05-05T06:22:42.188Z</time>
      </trkpt>
      <trkpt lat="43.648796" lon="10.670043">
        <ele>46.058713</ele>
        <time>2026-05-05T06:22:50.837Z</time>
      </trkpt>
      <trkpt lat="43.648868" lon="10.669985">
        <ele>45.734155</ele>
        <time>2026-05-05T06:22:52.931Z</time>
      </trkpt>
      <trkpt lat="43.649056" lon="10.669834">
        <ele>44.887331</ele>
        <time>2026-05-05T06:22:58.435Z</time>
      </trkpt>
      <trkpt lat="43.649134" lon="10.669678">
        <ele>44.352988</ele>
        <time>2026-05-05T06:23:01.890Z</time>
      </trkpt>
      <trkpt lat="43.649208" lon="10.669598">
        <ele>43.987100</ele>
        <time>2026-05-05T06:23:04.261Z</time>
      </trkpt>
      <trkpt lat="43.649619" lon="10.669431">
        <ele>42.318736</ele>
        <time>2026-05-05T06:23:15.070Z</time>
      </trkpt>
      <trkpt lat="43.649774" lon="10.669410">
        <ele>41.723042</ele>
        <time>2026-05-05T06:23:18.999Z</time>
      </trkpt>
      <trkpt lat="43.650003" lon="10.669458">
        <ele>40.865687</ele>
        <time>2026-05-05T06:23:24.845Z</time>
      </trkpt>
      <trkpt lat="43.650050" lon="10.669415">
        <ele>40.657046</ele>
        <time>2026-05-05T06:23:26.260Z</time>
      </trkpt>
      <trkpt lat="43.650311" lon="10.669532">
        <ele>39.641384</ele>
        <time>2026-05-05T06:23:33.207Z</time>
      </trkpt>
      <trkpt lat="43.650423" lon="10.669533">
        <ele>39.226798</ele>
        <time>2026-05-05T06:23:36.059Z</time>
      </trkpt>
      <trkpt lat="43.650861" lon="10.669356">
        <ele>37.537621</ele>
        <time>2026-05-05T06:23:47.665Z</time>
      </trkpt>
      <trkpt lat="43.651067" lon="10.669473">
        <ele>36.713218</ele>
        <time>2026-05-05T06:23:53.308Z</time>
      </trkpt>
      <trkpt lat="43.651273" lon="10.669452">
        <ele>35.948621</ele>
        <time>2026-05-05T06:23:58.521Z</time>
      </trkpt>
      <trkpt lat="43.651669" lon="10.669333">
        <ele>34.244105</ele>
        <time>2026-05-05T06:24:08.655Z</time>
      </trkpt>
      <trkpt lat="43.652096" lon="10.669150">
        <ele>32.179051</ele>
        <time>2026-05-05T06:24:19.688Z</time>
      </trkpt>
      <trkpt lat="43.652241" lon="10.669088">
        <ele>31.477945</ele>
        <time>2026-05-05T06:24:23.408Z</time>
      </trkpt>
      <trkpt lat="43.652769" lon="10.668805">
        <ele>28.862025</ele>
        <time>2026-05-05T06:24:37.061Z</time>
      </trkpt>
      <trkpt lat="43.653000" lon="10.668731">
        <ele>27.766702</ele>
        <time>2026-05-05T06:24:42.733Z</time>
      </trkpt>
      <trkpt lat="43.653489" lon="10.668605">
        <ele>25.738115</ele>
        <time>2026-05-05T06:24:54.536Z</time>
      </trkpt>
      <trkpt lat="43.654801" lon="10.668603">
        <ele>20.767993</ele>
        <time>2026-05-05T06:25:27.268Z</time>
      </trkpt>
      <trkpt lat="43.654959" lon="10.668945">
        <ele>20.085648</ele>
        <time>2026-05-05T06:25:31.987Z</time>
      </trkpt>
      <trkpt lat="43.654998" lon="10.669189">
        <ele>19.994878</ele>
        <time>2026-05-05T06:25:35.058Z</time>
      </trkpt>
      <trkpt lat="43.654895" lon="10.669979">
        <ele>19.703287</ele>
        <time>2026-05-05T06:25:45.903Z</time>
      </trkpt>
      <trkpt lat="43.654779" lon="10.670621">
        <ele>19.462918</ele>
        <time>2026-05-05T06:25:55.912Z</time>
      </trkpt>
      <trkpt lat="43.654707" lon="10.670877">
        <ele>19.363146</ele>
        <time>2026-05-05T06:26:00.007Z</time>
      </trkpt>
      <trkpt lat="43.654546" lon="10.671250">
        <ele>19.184622</ele>
        <time>2026-05-05T06:26:06.191Z</time>
      </trkpt>
      <trkpt lat="43.654542" lon="10.671318">
        <ele>19.147853</ele>
        <time>2026-05-05T06:26:07.097Z</time>
      </trkpt>
      <trkpt lat="43.654563" lon="10.671370">
        <ele>19.115757</ele>
        <time>2026-05-05T06:26:07.880Z</time>
      </trkpt>
      <trkpt lat="43.654689" lon="10.671470">
        <ele>19.007526</ele>
        <time>2026-05-05T06:26:10.501Z</time>
      </trkpt>
      <trkpt lat="43.654861" lon="10.671561">
        <ele>18.870336</ele>
        <time>2026-05-05T06:26:13.758Z</time>
      </trkpt>
      <trkpt lat="43.654984" lon="10.671555">
        <ele>18.778655</ele>
        <time>2026-05-05T06:26:15.891Z</time>
      </trkpt>
      <trkpt lat="43.655034" lon="10.671507">
        <ele>18.733307</ele>
        <time>2026-05-05T06:26:16.931Z</time>
      </trkpt>
      <trkpt lat="43.655072" lon="10.671393">
        <ele>18.665660</ele>
        <time>2026-05-05T06:26:18.475Z</time>
      </trkpt>
      <trkpt lat="43.655107" lon="10.671114">
        <ele>18.513051</ele>
        <time>2026-05-05T06:26:21.939Z</time>
      </trkpt>
      <trkpt lat="43.655145" lon="10.671026">
        <ele>18.457819</ele>
        <time>2026-05-05T06:26:23.172Z</time>
      </trkpt>
      <trkpt lat="43.655198" lon="10.670987">
        <ele>18.413092</ele>
        <time>2026-05-05T06:26:24.195Z</time>
      </trkpt>
      <trkpt lat="43.655309" lon="10.670988">
        <ele>18.330406</ele>
        <time>2026-05-05T06:26:26.046Z</time>
      </trkpt>
      <trkpt lat="43.655633" lon="10.669201">
        <ele>17.186875</ele>
        <time>2026-05-05T06:26:48.474Z</time>
      </trkpt>
      <trkpt lat="43.655727" lon="10.668610">
        <ele>16.774696</ele>
        <time>2026-05-05T06:26:55.878Z</time>
      </trkpt>
      <trkpt lat="43.655750" lon="10.667597">
        <ele>16.099911</ele>
        <time>2026-05-05T06:27:08.475Z</time>
      </trkpt>
      <trkpt lat="43.655692" lon="10.667082">
        <ele>15.787176</ele>
        <time>2026-05-05T06:27:14.966Z</time>
      </trkpt>
      <trkpt lat="43.655528" lon="10.666199">
        <ele>15.240170</ele>
        <time>2026-05-05T06:27:26.298Z</time>
      </trkpt>
      <trkpt lat="43.655464" lon="10.665582">
        <ele>14.866166</ele>
        <time>2026-05-05T06:27:34.050Z</time>
      </trkpt>
      <trkpt lat="43.655470" lon="10.665231">
        <ele>14.680354</ele>
        <time>2026-05-05T06:27:38.431Z</time>
      </trkpt>
      <trkpt lat="43.655479" lon="10.665189">
        <ele>14.663694</ele>
        <time>2026-05-05T06:27:38.974Z</time>
      </trkpt>
      <trkpt lat="43.655513" lon="10.665033">
        <ele>14.601730</ele>
        <time>2026-05-05T06:27:41.017Z</time>
      </trkpt>
      <trkpt lat="43.656283" lon="10.662786">
        <ele>13.745208</ele>
        <time>2026-05-05T06:28:13.110Z</time>
      </trkpt>
      <trkpt lat="43.656688" lon="10.661145">
        <ele>13.568199</ele>
        <time>2026-05-05T06:28:37.446Z</time>
      </trkpt>
      <trkpt lat="43.657002" lon="10.659775">
        <ele>13.478548</ele>
        <time>2026-05-05T06:28:56.707Z</time>
      </trkpt>
      <trkpt lat="43.657237" lon="10.658731">
        <ele>13.429004</ele>
        <time>2026-05-05T06:29:12.207Z</time>
      </trkpt>
      <trkpt lat="43.657387" lon="10.657927">
        <ele>13.496936</ele>
        <time>2026-05-05T06:29:23.245Z</time>
      </trkpt>
      <trkpt lat="43.657395" lon="10.657877">
        <ele>13.506828</ele>
        <time>2026-05-05T06:29:23.995Z</time>
      </trkpt>
      <trkpt lat="43.657423" lon="10.657738">
        <ele>13.534700</ele>
        <time>2026-05-05T06:29:26.045Z</time>
      </trkpt>
      <trkpt lat="43.657441" lon="10.657652">
        <ele>13.551994</ele>
        <time>2026-05-05T06:29:27.331Z</time>
      </trkpt>
      <trkpt lat="43.657500" lon="10.657425">
        <ele>13.598587</ele>
        <time>2026-05-05T06:29:30.973Z</time>
      </trkpt>
      <trkpt lat="43.657617" lon="10.657011">
        <ele>13.684444</ele>
        <time>2026-05-05T06:29:38.103Z</time>
      </trkpt>
      <trkpt lat="43.657579" lon="10.656910">
        <ele>13.706435</ele>
        <time>2026-05-05T06:29:39.903Z</time>
      </trkpt>
      <trkpt lat="43.657509" lon="10.656861">
        <ele>13.727385</ele>
        <time>2026-05-05T06:29:41.594Z</time>
      </trkpt>
      <trkpt lat="43.657177" lon="10.656876">
        <ele>13.816077</ele>
        <time>2026-05-05T06:29:48.411Z</time>
      </trkpt>
      <trkpt lat="43.657019" lon="10.656847">
        <ele>13.858633</ele>
        <time>2026-05-05T06:29:51.386Z</time>
      </trkpt>
      <trkpt lat="43.655925" lon="10.656518">
        <ele>14.672708</ele>
        <time>2026-05-05T06:30:16.871Z</time>
      </trkpt>
      <trkpt lat="43.655724" lon="10.656318">
        <ele>14.866953</ele>
        <time>2026-05-05T06:30:23.154Z</time>
      </trkpt>
      <trkpt lat="43.655156" lon="10.655430">
        <ele>15.410014</ele>
        <time>2026-05-05T06:30:43.375Z</time>
      </trkpt>
      <trkpt lat="43.655007" lon="10.655208">
        <ele>15.488016</ele>
        <time>2026-05-05T06:30:48.552Z</time>
      </trkpt>
      <trkpt lat="43.654903" lon="10.655318">
        <ele>15.534642</ele>
        <time>2026-05-05T06:30:51.655Z</time>
      </trkpt>
      <trkpt lat="43.654796" lon="10.655337">
        <ele>15.573050</ele>
        <time>2026-05-05T06:30:54.129Z</time>
      </trkpt>
      <trkpt lat="43.654638" lon="10.655129">
        <ele>15.650737</ele>
        <time>2026-05-05T06:30:58.823Z</time>
      </trkpt>
      <trkpt lat="43.654473" lon="10.654784">
        <ele>15.757268</ele>
        <time>2026-05-05T06:31:04.661Z</time>
      </trkpt>
      <trkpt lat="43.654321" lon="10.654235">
        <ele>15.908689</ele>
        <time>2026-05-05T06:31:12.453Z</time>
      </trkpt>
      <trkpt lat="43.654288" lon="10.654089">
        <ele>15.940378</ele>
        <time>2026-05-05T06:31:14.465Z</time>
      </trkpt>
      <trkpt lat="43.654069" lon="10.653378">
        <ele>15.853528</ele>
        <time>2026-05-05T06:31:24.793Z</time>
      </trkpt>
      <trkpt lat="43.653342" lon="10.651275">
        <ele>15.631178</ele>
        <time>2026-05-05T06:31:56.472Z</time>
      </trkpt>
      <trkpt lat="43.653311" lon="10.650847">
        <ele>15.609519</ele>
        <time>2026-05-05T06:32:04.750Z</time>
      </trkpt>
      <trkpt lat="43.653315" lon="10.650573">
        <ele>15.595719</ele>
        <time>2026-05-05T06:32:10.002Z</time>
      </trkpt>
      <trkpt lat="43.653321" lon="10.650363">
        <ele>15.585137</ele>
        <time>2026-05-05T06:32:13.968Z</time>
      </trkpt>
      <trkpt lat="43.653323" lon="10.649927">
        <ele>15.563182</ele>
        <time>2026-05-05T06:32:22.049Z</time>
      </trkpt>
      <trkpt lat="43.653290" lon="10.649536">
        <ele>15.543361</ele>
        <time>2026-05-05T06:32:29.184Z</time>
      </trkpt>
      <trkpt lat="43.653382" lon="10.649025">
        <ele>15.375645</ele>
        <time>2026-05-05T06:32:38.242Z</time>
      </trkpt>
      <trkpt lat="43.653674" lon="10.648205">
        <ele>15.024570</ele>
        <time>2026-05-05T06:32:53.663Z</time>
      </trkpt>
      <trkpt lat="43.653673" lon="10.647909">
        <ele>14.910865</ele>
        <time>2026-05-05T06:32:58.635Z</time>
      </trkpt>
      <trkpt lat="43.653726" lon="10.647780">
        <ele>14.853880</ele>
        <time>2026-05-05T06:33:00.503Z</time>
      </trkpt>
      <trkpt lat="43.654046" lon="10.646938">
        <ele>14.594585</ele>
        <time>2026-05-05T06:33:12.852Z</time>
      </trkpt>
      <trkpt lat="43.654173" lon="10.646584">
        <ele>14.612822</ele>
        <time>2026-05-05T06:33:18.384Z</time>
      </trkpt>
      <trkpt lat="43.654312" lon="10.645943">
        <ele>14.643707</ele>
        <time>2026-05-05T06:33:28.321Z</time>
      </trkpt>
      <trkpt lat="43.654335" lon="10.645591">
        <ele>14.660020</ele>
        <time>2026-05-05T06:33:33.417Z</time>
      </trkpt>
      <trkpt lat="43.654279" lon="10.645154">
        <ele>14.680503</ele>
        <time>2026-05-05T06:33:39.809Z</time>
      </trkpt>
      <trkpt lat="43.654322" lon="10.644978">
        <ele>14.689077</ele>
        <time>2026-05-05T06:33:42.534Z</time>
      </trkpt>
      <trkpt lat="43.654371" lon="10.644851">
        <ele>14.695720</ele>
        <time>2026-05-05T06:33:44.628Z</time>
      </trkpt>
      <trkpt lat="43.654340" lon="10.644675">
        <ele>14.708445</ele>
        <time>2026-05-05T06:33:47.262Z</time>
      </trkpt>
      <trkpt lat="43.654353" lon="10.644274">
        <ele>14.740157</ele>
        <time>2026-05-05T06:33:53.082Z</time>
      </trkpt>
      <trkpt lat="43.654292" lon="10.643683">
        <ele>14.787321</ele>
        <time>2026-05-05T06:34:01.535Z</time>
      </trkpt>
      <trkpt lat="43.653830" lon="10.639423">
        <ele>14.939006</ele>
        <time>2026-05-05T06:35:02.574Z</time>
      </trkpt>
      <trkpt lat="43.653748" lon="10.638553">
        <ele>14.765334</ele>
        <time>2026-05-05T06:35:14.193Z</time>
      </trkpt>
      <trkpt lat="43.653756" lon="10.637816">
        <ele>14.619429</ele>
        <time>2026-05-05T06:35:23.823Z</time>
      </trkpt>
      <trkpt lat="43.653917" lon="10.635976">
        <ele>14.339469</ele>
        <time>2026-05-05T06:35:48.403Z</time>
      </trkpt>
      <trkpt lat="43.653947" lon="10.635839">
        <ele>14.319723</ele>
        <time>2026-05-05T06:35:50.342Z</time>
      </trkpt>
      <trkpt lat="43.654059" lon="10.635617">
        <ele>14.282387</ele>
        <time>2026-05-05T06:35:54.070Z</time>
      </trkpt>
      <trkpt lat="43.654116" lon="10.635550">
        <ele>14.268120</ele>
        <time>2026-05-05T06:35:55.500Z</time>
      </trkpt>
      <trkpt lat="43.654171" lon="10.635380">
        <ele>14.242430</ele>
        <time>2026-05-05T06:35:58.077Z</time>
      </trkpt>
      <trkpt lat="43.654150" lon="10.635195">
        <ele>14.216596</ele>
        <time>2026-05-05T06:36:00.655Z</time>
      </trkpt>
      <trkpt lat="43.654096" lon="10.635095">
        <ele>14.199382</ele>
        <time>2026-05-05T06:36:02.358Z</time>
      </trkpt>
      <trkpt lat="43.654040" lon="10.634833">
        <ele>14.188817</ele>
        <time>2026-05-05T06:36:06.164Z</time>
      </trkpt>
      <trkpt lat="43.654036" lon="10.634651">
        <ele>14.183334</ele>
        <time>2026-05-05T06:36:08.685Z</time>
      </trkpt>
      <trkpt lat="43.654246" lon="10.632250">
        <ele>14.196212</ele>
        <time>2026-05-05T06:36:41.995Z</time>
      </trkpt>
      <trkpt lat="43.654286" lon="10.631815">
        <ele>14.285655</ele>
        <time>2026-05-05T06:36:48.031Z</time>
      </trkpt>
      <trkpt lat="43.654335" lon="10.631486">
        <ele>14.354170</ele>
        <time>2026-05-05T06:36:52.817Z</time>
      </trkpt>
      <trkpt lat="43.654390" lon="10.631410">
        <ele>14.376096</ele>
        <time>2026-05-05T06:36:54.399Z</time>
      </trkpt>
      <trkpt lat="43.654492" lon="10.631362">
        <ele>14.406473</ele>
        <time>2026-05-05T06:36:56.630Z</time>
      </trkpt>
      <trkpt lat="43.654666" lon="10.631375">
        <ele>14.455599</ele>
        <time>2026-05-05T06:37:00.282Z</time>
      </trkpt>
      <trkpt lat="43.654604" lon="10.631337">
        <ele>14.474720</ele>
        <time>2026-05-05T06:37:01.668Z</time>
      </trkpt>
      <trkpt lat="43.654628" lon="10.631289">
        <ele>14.486621</ele>
        <time>2026-05-05T06:37:02.568Z</time>
      </trkpt>
      <trkpt lat="43.654679" lon="10.631313">
        <ele>14.501810</ele>
        <time>2026-05-05T06:37:03.733Z</time>
      </trkpt>
      <trkpt lat="43.654984" lon="10.631432">
        <ele>14.591157</ele>
        <time>2026-05-05T06:37:10.592Z</time>
      </trkpt>
      <trkpt lat="43.655125" lon="10.631413">
        <ele>14.628611</ele>
        <time>2026-05-05T06:37:13.763Z</time>
      </trkpt>
      <trkpt lat="43.655438" lon="10.631528">
        <ele>14.628611</ele>
        <time>2026-05-05T06:37:21.538Z</time>
      </trkpt>
      <trkpt lat="43.655590" lon="10.631469">
        <ele>14.628611</ele>
        <time>2026-05-05T06:37:25.484Z</time>
      </trkpt>
      <trkpt lat="43.655659" lon="10.631488">
        <ele>14.628611</ele>
        <time>2026-05-05T06:37:27.229Z</time>
      </trkpt>
      <trkpt lat="43.655747" lon="10.631021">
        <ele>14.628611</ele>
        <time>2026-05-05T06:37:35.854Z</time>
      </trkpt>
      <trkpt lat="43.655783" lon="10.630798">
        <ele>14.628611</ele>
        <time>2026-05-05T06:37:39.793Z</time>
      </trkpt>
      <trkpt lat="43.655877" lon="10.630097">
        <ele>14.628611</ele>
        <time>2026-05-05T06:37:51.552Z</time>
      </trkpt>
    </trkseg>
  </trk>
</gpx>